<?xml version="1.0" encoding="UTF-8" standalone="no" ?>
<gpx xmlns="http://www.topografix.com/GPX/1/1" xmlns:xsi="http://www.w3.org/2001/XMLSchema-instance" xsi:schemaLocation="http://www.topografix.com/GPX/1/1 http://www.topografix.com/GPX/1/1/gpx.xsd" version="1.1" creator="VisuGPX - https://www.visugpx.com">
  <metadata>
    <name>83-D-La Croix Valmer</name>
    <desc><![CDATA[83-D-La Croix Valmer : Gigaro - cap Lardier - cap Taillat
2020-10-25]]></desc>
  </metadata>
  <trk>
    <name><![CDATA[2020-10-25-A1-gigaro]]></name>
    <trkseg>
      <trkpt lat="43.18539" lon="6.59905">
        <ele>15.4</ele>
        <time>2020-10-25T08:29:02Z</time>
      </trkpt>
      <trkpt lat="43.18537" lon="6.59894">
        <ele>15.2</ele>
        <time>2020-10-25T08:29:44Z</time>
      </trkpt>
      <trkpt lat="43.18538" lon="6.59888">
        <ele>15.2</ele>
        <time>2020-10-25T08:29:54Z</time>
      </trkpt>
      <trkpt lat="43.18534" lon="6.59885">
        <ele>15.4</ele>
        <time>2020-10-25T08:30:00Z</time>
      </trkpt>
      <trkpt lat="43.1853" lon="6.59883">
        <ele>15.5</ele>
        <time>2020-10-25T08:30:05Z</time>
      </trkpt>
      <trkpt lat="43.1853" lon="6.59883">
        <ele>15.5</ele>
        <time>2020-10-25T08:30:06Z</time>
      </trkpt>
      <trkpt lat="43.18526" lon="6.59873">
        <ele>16.3</ele>
        <time>2020-10-25T08:30:19Z</time>
      </trkpt>
      <trkpt lat="43.18522" lon="6.59871">
        <ele>16.5</ele>
        <time>2020-10-25T08:30:24Z</time>
      </trkpt>
      <trkpt lat="43.18518" lon="6.59868">
        <ele>16.7</ele>
        <time>2020-10-25T08:30:29Z</time>
      </trkpt>
      <trkpt lat="43.18515" lon="6.59865">
        <ele>17.1</ele>
        <time>2020-10-25T08:30:35Z</time>
      </trkpt>
      <trkpt lat="43.18512" lon="6.59863">
        <ele>17.4</ele>
        <time>2020-10-25T08:30:38Z</time>
      </trkpt>
      <trkpt lat="43.18508" lon="6.5986">
        <ele>17.8</ele>
        <time>2020-10-25T08:30:42Z</time>
      </trkpt>
      <trkpt lat="43.18504" lon="6.59859">
        <ele>18.1</ele>
        <time>2020-10-25T08:30:48Z</time>
      </trkpt>
      <trkpt lat="43.18501" lon="6.59856">
        <ele>18.4</ele>
        <time>2020-10-25T08:30:52Z</time>
      </trkpt>
      <trkpt lat="43.18497" lon="6.59853">
        <ele>18.6</ele>
        <time>2020-10-25T08:30:56Z</time>
      </trkpt>
      <trkpt lat="43.18494" lon="6.5985">
        <ele>18.8</ele>
        <time>2020-10-25T08:31:02Z</time>
      </trkpt>
      <trkpt lat="43.1849" lon="6.5985">
        <ele>19</ele>
        <time>2020-10-25T08:31:07Z</time>
      </trkpt>
      <trkpt lat="43.18489" lon="6.5985">
        <ele>19</ele>
        <time>2020-10-25T08:31:08Z</time>
      </trkpt>
      <trkpt lat="43.18482" lon="6.59849">
        <ele>18.8</ele>
        <time>2020-10-25T08:31:15Z</time>
      </trkpt>
      <trkpt lat="43.18478" lon="6.59849">
        <ele>18.8</ele>
        <time>2020-10-25T08:31:18Z</time>
      </trkpt>
      <trkpt lat="43.18475" lon="6.59848">
        <ele>18.6</ele>
        <time>2020-10-25T08:31:21Z</time>
      </trkpt>
      <trkpt lat="43.18471" lon="6.59848">
        <ele>18.2</ele>
        <time>2020-10-25T08:31:24Z</time>
      </trkpt>
      <trkpt lat="43.18467" lon="6.59848">
        <ele>18</ele>
        <time>2020-10-25T08:31:27Z</time>
      </trkpt>
      <trkpt lat="43.18463" lon="6.59848">
        <ele>17.9</ele>
        <time>2020-10-25T08:31:30Z</time>
      </trkpt>
      <trkpt lat="43.18459" lon="6.59847">
        <ele>17.7</ele>
        <time>2020-10-25T08:31:34Z</time>
      </trkpt>
      <trkpt lat="43.18456" lon="6.59847">
        <ele>17.6</ele>
        <time>2020-10-25T08:31:37Z</time>
      </trkpt>
      <trkpt lat="43.18452" lon="6.59846">
        <ele>17.4</ele>
        <time>2020-10-25T08:31:40Z</time>
      </trkpt>
      <trkpt lat="43.18448" lon="6.59845">
        <ele>17.2</ele>
        <time>2020-10-25T08:31:43Z</time>
      </trkpt>
      <trkpt lat="43.18444" lon="6.59845">
        <ele>17</ele>
        <time>2020-10-25T08:31:46Z</time>
      </trkpt>
      <trkpt lat="43.1844" lon="6.59844">
        <ele>16.8</ele>
        <time>2020-10-25T08:31:49Z</time>
      </trkpt>
      <trkpt lat="43.18437" lon="6.59848">
        <ele>16.6</ele>
        <time>2020-10-25T08:31:54Z</time>
      </trkpt>
      <trkpt lat="43.18433" lon="6.59851">
        <ele>16.3</ele>
        <time>2020-10-25T08:31:58Z</time>
      </trkpt>
      <trkpt lat="43.18432" lon="6.59856">
        <ele>16</ele>
        <time>2020-10-25T08:32:02Z</time>
      </trkpt>
      <trkpt lat="43.18433" lon="6.59862">
        <ele>15.7</ele>
        <time>2020-10-25T08:32:06Z</time>
      </trkpt>
      <trkpt lat="43.18432" lon="6.59867">
        <ele>15.6</ele>
        <time>2020-10-25T08:32:09Z</time>
      </trkpt>
      <trkpt lat="43.18431" lon="6.59868">
        <ele>15.5</ele>
        <time>2020-10-25T08:32:10Z</time>
      </trkpt>
      <trkpt lat="43.1843" lon="6.59876">
        <ele>15.3</ele>
        <time>2020-10-25T08:32:15Z</time>
      </trkpt>
      <trkpt lat="43.18429" lon="6.59881">
        <ele>15.2</ele>
        <time>2020-10-25T08:32:18Z</time>
      </trkpt>
      <trkpt lat="43.18429" lon="6.59885">
        <ele>14.8</ele>
        <time>2020-10-25T08:32:21Z</time>
      </trkpt>
      <trkpt lat="43.18428" lon="6.5989">
        <ele>14.4</ele>
        <time>2020-10-25T08:32:24Z</time>
      </trkpt>
      <trkpt lat="43.18426" lon="6.59896">
        <ele>14.2</ele>
        <time>2020-10-25T08:32:28Z</time>
      </trkpt>
      <trkpt lat="43.18425" lon="6.59901">
        <ele>14</ele>
        <time>2020-10-25T08:32:32Z</time>
      </trkpt>
      <trkpt lat="43.18425" lon="6.59906">
        <ele>13.8</ele>
        <time>2020-10-25T08:32:36Z</time>
      </trkpt>
      <trkpt lat="43.18424" lon="6.5991">
        <ele>13.8</ele>
        <time>2020-10-25T08:32:39Z</time>
      </trkpt>
      <trkpt lat="43.18422" lon="6.59915">
        <ele>13.7</ele>
        <time>2020-10-25T08:32:42Z</time>
      </trkpt>
      <trkpt lat="43.1842" lon="6.5992">
        <ele>13.6</ele>
        <time>2020-10-25T08:32:46Z</time>
      </trkpt>
      <trkpt lat="43.18418" lon="6.59926">
        <ele>13.5</ele>
        <time>2020-10-25T08:32:49Z</time>
      </trkpt>
      <trkpt lat="43.18417" lon="6.59931">
        <ele>13.4</ele>
        <time>2020-10-25T08:32:52Z</time>
      </trkpt>
      <trkpt lat="43.18416" lon="6.59936">
        <ele>13.4</ele>
        <time>2020-10-25T08:32:55Z</time>
      </trkpt>
      <trkpt lat="43.18414" lon="6.59941">
        <ele>13.3</ele>
        <time>2020-10-25T08:32:58Z</time>
      </trkpt>
      <trkpt lat="43.18413" lon="6.59946">
        <ele>13.3</ele>
        <time>2020-10-25T08:33:01Z</time>
      </trkpt>
      <trkpt lat="43.18412" lon="6.59952">
        <ele>13.3</ele>
        <time>2020-10-25T08:33:04Z</time>
      </trkpt>
      <trkpt lat="43.18411" lon="6.59957">
        <ele>13.2</ele>
        <time>2020-10-25T08:33:07Z</time>
      </trkpt>
      <trkpt lat="43.18409" lon="6.59962">
        <ele>13</ele>
        <time>2020-10-25T08:33:10Z</time>
      </trkpt>
      <trkpt lat="43.18409" lon="6.59963">
        <ele>13</ele>
        <time>2020-10-25T08:33:11Z</time>
      </trkpt>
      <trkpt lat="43.18407" lon="6.59973">
        <ele>12.8</ele>
        <time>2020-10-25T08:33:19Z</time>
      </trkpt>
      <trkpt lat="43.18409" lon="6.59978">
        <ele>12.9</ele>
        <time>2020-10-25T08:33:38Z</time>
      </trkpt>
      <trkpt lat="43.18408" lon="6.59983">
        <ele>13.2</ele>
        <time>2020-10-25T08:33:44Z</time>
      </trkpt>
      <trkpt lat="43.18408" lon="6.59988">
        <ele>13.3</ele>
        <time>2020-10-25T08:33:48Z</time>
      </trkpt>
      <trkpt lat="43.18407" lon="6.59993">
        <ele>13.2</ele>
        <time>2020-10-25T08:33:52Z</time>
      </trkpt>
      <trkpt lat="43.18406" lon="6.59998">
        <ele>13.3</ele>
        <time>2020-10-25T08:33:55Z</time>
      </trkpt>
      <trkpt lat="43.18404" lon="6.60002">
        <ele>13.4</ele>
        <time>2020-10-25T08:33:58Z</time>
      </trkpt>
      <trkpt lat="43.18401" lon="6.60007">
        <ele>13.4</ele>
        <time>2020-10-25T08:34:01Z</time>
      </trkpt>
      <trkpt lat="43.18399" lon="6.60011">
        <ele>13.5</ele>
        <time>2020-10-25T08:34:04Z</time>
      </trkpt>
      <trkpt lat="43.18398" lon="6.60015">
        <ele>13.6</ele>
        <time>2020-10-25T08:34:07Z</time>
      </trkpt>
      <trkpt lat="43.18396" lon="6.60021">
        <ele>13.7</ele>
        <time>2020-10-25T08:34:11Z</time>
      </trkpt>
      <trkpt lat="43.18395" lon="6.60022">
        <ele>13.7</ele>
        <time>2020-10-25T08:34:12Z</time>
      </trkpt>
      <trkpt lat="43.18394" lon="6.60032">
        <ele>13.7</ele>
        <time>2020-10-25T08:34:20Z</time>
      </trkpt>
      <trkpt lat="43.18395" lon="6.60037">
        <ele>13.5</ele>
        <time>2020-10-25T08:34:24Z</time>
      </trkpt>
      <trkpt lat="43.18393" lon="6.60042">
        <ele>13.3</ele>
        <time>2020-10-25T08:34:27Z</time>
      </trkpt>
      <trkpt lat="43.18391" lon="6.60048">
        <ele>13.1</ele>
        <time>2020-10-25T08:34:31Z</time>
      </trkpt>
      <trkpt lat="43.1839" lon="6.60052">
        <ele>13.1</ele>
        <time>2020-10-25T08:34:36Z</time>
      </trkpt>
      <trkpt lat="43.18387" lon="6.60055">
        <ele>13.4</ele>
        <time>2020-10-25T08:34:39Z</time>
      </trkpt>
      <trkpt lat="43.18383" lon="6.60057">
        <ele>13.4</ele>
        <time>2020-10-25T08:34:42Z</time>
      </trkpt>
      <trkpt lat="43.18379" lon="6.60059">
        <ele>13.4</ele>
        <time>2020-10-25T08:34:48Z</time>
      </trkpt>
      <trkpt lat="43.18376" lon="6.60063">
        <ele>13.4</ele>
        <time>2020-10-25T08:35:00Z</time>
      </trkpt>
      <trkpt lat="43.18372" lon="6.60061">
        <ele>13.6</ele>
        <time>2020-10-25T08:35:21Z</time>
      </trkpt>
      <trkpt lat="43.18372" lon="6.6006">
        <ele>13.5</ele>
        <time>2020-10-25T08:35:22Z</time>
      </trkpt>
      <trkpt lat="43.18365" lon="6.60065">
        <ele>13.8</ele>
        <time>2020-10-25T08:35:55Z</time>
      </trkpt>
      <trkpt lat="43.18362" lon="6.60066">
        <ele>13.6</ele>
        <time>2020-10-25T08:35:58Z</time>
      </trkpt>
      <trkpt lat="43.18358" lon="6.60067">
        <ele>13.6</ele>
        <time>2020-10-25T08:36:01Z</time>
      </trkpt>
      <trkpt lat="43.18355" lon="6.60069">
        <ele>13.7</ele>
        <time>2020-10-25T08:36:04Z</time>
      </trkpt>
      <trkpt lat="43.18351" lon="6.6007">
        <ele>13.9</ele>
        <time>2020-10-25T08:36:07Z</time>
      </trkpt>
      <trkpt lat="43.18347" lon="6.60072">
        <ele>13.9</ele>
        <time>2020-10-25T08:36:10Z</time>
      </trkpt>
      <trkpt lat="43.18343" lon="6.60073">
        <ele>13.7</ele>
        <time>2020-10-25T08:36:13Z</time>
      </trkpt>
      <trkpt lat="43.18339" lon="6.60074">
        <ele>13.6</ele>
        <time>2020-10-25T08:36:16Z</time>
      </trkpt>
      <trkpt lat="43.18336" lon="6.60074">
        <ele>13.5</ele>
        <time>2020-10-25T08:36:18Z</time>
      </trkpt>
      <trkpt lat="43.18332" lon="6.60074">
        <ele>13.4</ele>
        <time>2020-10-25T08:36:21Z</time>
      </trkpt>
      <trkpt lat="43.18328" lon="6.60074">
        <ele>12.7</ele>
        <time>2020-10-25T08:36:30Z</time>
      </trkpt>
      <trkpt lat="43.18328" lon="6.60074">
        <ele>12.6</ele>
        <time>2020-10-25T08:36:31Z</time>
      </trkpt>
      <trkpt lat="43.1832" lon="6.60076">
        <ele>12.4</ele>
        <time>2020-10-25T08:36:50Z</time>
      </trkpt>
      <trkpt lat="43.18318" lon="6.60081">
        <ele>12.3</ele>
        <time>2020-10-25T08:36:54Z</time>
      </trkpt>
      <trkpt lat="43.18315" lon="6.60084">
        <ele>12.4</ele>
        <time>2020-10-25T08:36:57Z</time>
      </trkpt>
      <trkpt lat="43.18313" lon="6.60087">
        <ele>12.5</ele>
        <time>2020-10-25T08:37:00Z</time>
      </trkpt>
      <trkpt lat="43.18308" lon="6.60088">
        <ele>12.6</ele>
        <time>2020-10-25T08:37:04Z</time>
      </trkpt>
      <trkpt lat="43.18305" lon="6.60087">
        <ele>12.5</ele>
        <time>2020-10-25T08:37:07Z</time>
      </trkpt>
      <trkpt lat="43.18301" lon="6.60089">
        <ele>12.4</ele>
        <time>2020-10-25T08:37:10Z</time>
      </trkpt>
      <trkpt lat="43.18298" lon="6.60093">
        <ele>11.8</ele>
        <time>2020-10-25T08:37:26Z</time>
      </trkpt>
      <trkpt lat="43.18295" lon="6.60097">
        <ele>11.8</ele>
        <time>2020-10-25T08:37:32Z</time>
      </trkpt>
      <trkpt lat="43.18294" lon="6.60097">
        <ele>11.8</ele>
        <time>2020-10-25T08:37:33Z</time>
      </trkpt>
      <trkpt lat="43.18288" lon="6.60104">
        <ele>11.9</ele>
        <time>2020-10-25T08:37:52Z</time>
      </trkpt>
      <trkpt lat="43.18287" lon="6.60109">
        <ele>11.9</ele>
        <time>2020-10-25T08:37:55Z</time>
      </trkpt>
      <trkpt lat="43.18285" lon="6.60113">
        <ele>11.7</ele>
        <time>2020-10-25T08:37:58Z</time>
      </trkpt>
      <trkpt lat="43.18282" lon="6.60116">
        <ele>11.6</ele>
        <time>2020-10-25T08:38:01Z</time>
      </trkpt>
      <trkpt lat="43.18279" lon="6.60119">
        <ele>11.6</ele>
        <time>2020-10-25T08:38:04Z</time>
      </trkpt>
      <trkpt lat="43.18276" lon="6.60124">
        <ele>11.7</ele>
        <time>2020-10-25T08:38:07Z</time>
      </trkpt>
      <trkpt lat="43.18274" lon="6.60128">
        <ele>11.7</ele>
        <time>2020-10-25T08:38:10Z</time>
      </trkpt>
      <trkpt lat="43.18271" lon="6.60131">
        <ele>11.4</ele>
        <time>2020-10-25T08:38:13Z</time>
      </trkpt>
      <trkpt lat="43.18269" lon="6.60135">
        <ele>11.5</ele>
        <time>2020-10-25T08:38:16Z</time>
      </trkpt>
      <trkpt lat="43.18266" lon="6.60139">
        <ele>11.5</ele>
        <time>2020-10-25T08:38:19Z</time>
      </trkpt>
      <trkpt lat="43.18263" lon="6.60142">
        <ele>11.4</ele>
        <time>2020-10-25T08:38:22Z</time>
      </trkpt>
      <trkpt lat="43.18261" lon="6.60146">
        <ele>11.3</ele>
        <time>2020-10-25T08:38:25Z</time>
      </trkpt>
      <trkpt lat="43.18258" lon="6.6015">
        <ele>11.3</ele>
        <time>2020-10-25T08:38:28Z</time>
      </trkpt>
      <trkpt lat="43.18256" lon="6.60154">
        <ele>11.3</ele>
        <time>2020-10-25T08:38:31Z</time>
      </trkpt>
      <trkpt lat="43.18253" lon="6.60157">
        <ele>11.3</ele>
        <time>2020-10-25T08:38:34Z</time>
      </trkpt>
      <trkpt lat="43.18252" lon="6.60159">
        <ele>11.2</ele>
        <time>2020-10-25T08:38:35Z</time>
      </trkpt>
      <trkpt lat="43.18247" lon="6.60166">
        <ele>11</ele>
        <time>2020-10-25T08:38:40Z</time>
      </trkpt>
      <trkpt lat="43.18245" lon="6.60171">
        <ele>11</ele>
        <time>2020-10-25T08:38:43Z</time>
      </trkpt>
      <trkpt lat="43.18243" lon="6.60175">
        <ele>10.8</ele>
        <time>2020-10-25T08:38:46Z</time>
      </trkpt>
      <trkpt lat="43.18241" lon="6.6018">
        <ele>11</ele>
        <time>2020-10-25T08:38:49Z</time>
      </trkpt>
      <trkpt lat="43.18238" lon="6.60184">
        <ele>11.1</ele>
        <time>2020-10-25T08:38:52Z</time>
      </trkpt>
      <trkpt lat="43.18236" lon="6.60188">
        <ele>11.1</ele>
        <time>2020-10-25T08:38:55Z</time>
      </trkpt>
      <trkpt lat="43.18233" lon="6.60193">
        <ele>11.4</ele>
        <time>2020-10-25T08:38:58Z</time>
      </trkpt>
      <trkpt lat="43.18231" lon="6.60197">
        <ele>11.7</ele>
        <time>2020-10-25T08:39:01Z</time>
      </trkpt>
      <trkpt lat="43.18228" lon="6.602">
        <ele>11.7</ele>
        <time>2020-10-25T08:39:04Z</time>
      </trkpt>
      <trkpt lat="43.18225" lon="6.60205">
        <ele>11.5</ele>
        <time>2020-10-25T08:39:08Z</time>
      </trkpt>
      <trkpt lat="43.18221" lon="6.60208">
        <ele>11.7</ele>
        <time>2020-10-25T08:39:35Z</time>
      </trkpt>
      <trkpt lat="43.18221" lon="6.60209">
        <ele>11.7</ele>
        <time>2020-10-25T08:39:36Z</time>
      </trkpt>
      <trkpt lat="43.18215" lon="6.60216">
        <ele>11.6</ele>
        <time>2020-10-25T08:39:46Z</time>
      </trkpt>
      <trkpt lat="43.18212" lon="6.60219">
        <ele>11.9</ele>
        <time>2020-10-25T08:39:52Z</time>
      </trkpt>
      <trkpt lat="43.18208" lon="6.60221">
        <ele>12.7</ele>
        <time>2020-10-25T08:40:02Z</time>
      </trkpt>
      <trkpt lat="43.18204" lon="6.60221">
        <ele>13.4</ele>
        <time>2020-10-25T08:40:10Z</time>
      </trkpt>
      <trkpt lat="43.182" lon="6.60221">
        <ele>14.5</ele>
        <time>2020-10-25T08:40:21Z</time>
      </trkpt>
      <trkpt lat="43.18196" lon="6.60225">
        <ele>14.7</ele>
        <time>2020-10-25T08:40:26Z</time>
      </trkpt>
      <trkpt lat="43.18194" lon="6.6023">
        <ele>15</ele>
        <time>2020-10-25T08:40:32Z</time>
      </trkpt>
      <trkpt lat="43.18191" lon="6.60234">
        <ele>15.2</ele>
        <time>2020-10-25T08:40:36Z</time>
      </trkpt>
      <trkpt lat="43.1819" lon="6.60235">
        <ele>15.2</ele>
        <time>2020-10-25T08:40:37Z</time>
      </trkpt>
      <trkpt lat="43.18188" lon="6.60242">
        <ele>15.3</ele>
        <time>2020-10-25T08:40:42Z</time>
      </trkpt>
      <trkpt lat="43.18185" lon="6.60246">
        <ele>15.4</ele>
        <time>2020-10-25T08:40:45Z</time>
      </trkpt>
      <trkpt lat="43.18181" lon="6.60249">
        <ele>15.5</ele>
        <time>2020-10-25T08:40:50Z</time>
      </trkpt>
      <trkpt lat="43.18177" lon="6.60249">
        <ele>15.7</ele>
        <time>2020-10-25T08:40:58Z</time>
      </trkpt>
      <trkpt lat="43.18174" lon="6.60246">
        <ele>15.8</ele>
        <time>2020-10-25T08:41:02Z</time>
      </trkpt>
      <trkpt lat="43.1817" lon="6.60243">
        <ele>15.7</ele>
        <time>2020-10-25T08:41:06Z</time>
      </trkpt>
      <trkpt lat="43.18166" lon="6.60244">
        <ele>15.9</ele>
        <time>2020-10-25T08:41:19Z</time>
      </trkpt>
      <trkpt lat="43.18162" lon="6.60242">
        <ele>15.9</ele>
        <time>2020-10-25T08:41:23Z</time>
      </trkpt>
      <trkpt lat="43.18159" lon="6.6024">
        <ele>15.6</ele>
        <time>2020-10-25T08:41:27Z</time>
      </trkpt>
      <trkpt lat="43.18155" lon="6.60238">
        <ele>15.7</ele>
        <time>2020-10-25T08:41:31Z</time>
      </trkpt>
      <trkpt lat="43.18151" lon="6.6024">
        <ele>15.8</ele>
        <time>2020-10-25T08:41:37Z</time>
      </trkpt>
      <trkpt lat="43.18151" lon="6.60241">
        <ele>15.9</ele>
        <time>2020-10-25T08:41:38Z</time>
      </trkpt>
      <trkpt lat="43.18144" lon="6.60246">
        <ele>16.3</ele>
        <time>2020-10-25T08:41:50Z</time>
      </trkpt>
      <trkpt lat="43.1814" lon="6.60249">
        <ele>16.5</ele>
        <time>2020-10-25T08:41:58Z</time>
      </trkpt>
      <trkpt lat="43.18137" lon="6.60253">
        <ele>16.7</ele>
        <time>2020-10-25T08:42:04Z</time>
      </trkpt>
      <trkpt lat="43.18134" lon="6.60257">
        <ele>17.1</ele>
        <time>2020-10-25T08:42:13Z</time>
      </trkpt>
      <trkpt lat="43.1813" lon="6.6026">
        <ele>17.4</ele>
        <time>2020-10-25T08:42:21Z</time>
      </trkpt>
      <trkpt lat="43.18126" lon="6.60261">
        <ele>17</ele>
        <time>2020-10-25T08:42:26Z</time>
      </trkpt>
      <trkpt lat="43.18122" lon="6.60262">
        <ele>17</ele>
        <time>2020-10-25T08:42:31Z</time>
      </trkpt>
      <trkpt lat="43.18119" lon="6.60264">
        <ele>17</ele>
        <time>2020-10-25T08:42:35Z</time>
      </trkpt>
      <trkpt lat="43.18116" lon="6.60267">
        <ele>16.7</ele>
        <time>2020-10-25T08:42:38Z</time>
      </trkpt>
      <trkpt lat="43.18115" lon="6.60268">
        <ele>16.7</ele>
        <time>2020-10-25T08:42:39Z</time>
      </trkpt>
      <trkpt lat="43.18109" lon="6.60272">
        <ele>16.8</ele>
        <time>2020-10-25T08:42:48Z</time>
      </trkpt>
      <trkpt lat="43.18105" lon="6.60273">
        <ele>16.6</ele>
        <time>2020-10-25T08:42:55Z</time>
      </trkpt>
      <trkpt lat="43.18101" lon="6.60273">
        <ele>16.6</ele>
        <time>2020-10-25T08:43:01Z</time>
      </trkpt>
      <trkpt lat="43.18098" lon="6.60275">
        <ele>16.4</ele>
        <time>2020-10-25T08:43:05Z</time>
      </trkpt>
      <trkpt lat="43.18094" lon="6.60277">
        <ele>16.4</ele>
        <time>2020-10-25T08:43:10Z</time>
      </trkpt>
      <trkpt lat="43.1809" lon="6.60279">
        <ele>16.4</ele>
        <time>2020-10-25T08:43:14Z</time>
      </trkpt>
      <trkpt lat="43.18087" lon="6.60282">
        <ele>16.3</ele>
        <time>2020-10-25T08:43:18Z</time>
      </trkpt>
      <trkpt lat="43.18084" lon="6.60287">
        <ele>16.2</ele>
        <time>2020-10-25T08:43:25Z</time>
      </trkpt>
      <trkpt lat="43.18081" lon="6.60292">
        <ele>15.8</ele>
        <time>2020-10-25T08:43:37Z</time>
      </trkpt>
      <trkpt lat="43.18077" lon="6.60293">
        <ele>15.1</ele>
        <time>2020-10-25T08:43:48Z</time>
      </trkpt>
      <trkpt lat="43.18077" lon="6.60293">
        <ele>15.1</ele>
        <time>2020-10-25T08:43:49Z</time>
      </trkpt>
      <trkpt lat="43.18069" lon="6.60292">
        <ele>14.1</ele>
        <time>2020-10-25T08:44:01Z</time>
      </trkpt>
      <trkpt lat="43.18065" lon="6.60294">
        <ele>13.4</ele>
        <time>2020-10-25T08:44:07Z</time>
      </trkpt>
      <trkpt lat="43.18062" lon="6.60298">
        <ele>12.8</ele>
        <time>2020-10-25T08:44:13Z</time>
      </trkpt>
      <trkpt lat="43.18059" lon="6.60302">
        <ele>12.5</ele>
        <time>2020-10-25T08:44:20Z</time>
      </trkpt>
      <trkpt lat="43.18058" lon="6.60308">
        <ele>12.3</ele>
        <time>2020-10-25T08:44:27Z</time>
      </trkpt>
      <trkpt lat="43.18054" lon="6.60312">
        <ele>13.1</ele>
        <time>2020-10-25T08:44:37Z</time>
      </trkpt>
      <trkpt lat="43.1805" lon="6.60312">
        <ele>14.3</ele>
        <time>2020-10-25T08:44:53Z</time>
      </trkpt>
      <trkpt lat="43.1805" lon="6.60311">
        <ele>14.3</ele>
        <time>2020-10-25T08:44:54Z</time>
      </trkpt>
      <trkpt lat="43.18043" lon="6.60307">
        <ele>15.6</ele>
        <time>2020-10-25T08:45:06Z</time>
      </trkpt>
      <trkpt lat="43.18039" lon="6.60306">
        <ele>16.7</ele>
        <time>2020-10-25T08:45:25Z</time>
      </trkpt>
      <trkpt lat="43.18034" lon="6.60305">
        <ele>17</ele>
        <time>2020-10-25T08:45:32Z</time>
      </trkpt>
      <trkpt lat="43.1803" lon="6.60306">
        <ele>17.2</ele>
        <time>2020-10-25T08:45:36Z</time>
      </trkpt>
      <trkpt lat="43.18027" lon="6.60305">
        <ele>17.5</ele>
        <time>2020-10-25T08:45:43Z</time>
      </trkpt>
      <trkpt lat="43.18023" lon="6.60305">
        <ele>18.3</ele>
        <time>2020-10-25T08:45:51Z</time>
      </trkpt>
      <trkpt lat="43.1802" lon="6.60301">
        <ele>18.7</ele>
        <time>2020-10-25T08:45:59Z</time>
      </trkpt>
      <trkpt lat="43.18019" lon="6.603">
        <ele>18.7</ele>
        <time>2020-10-25T08:46:00Z</time>
      </trkpt>
      <trkpt lat="43.18013" lon="6.60296">
        <ele>19.1</ele>
        <time>2020-10-25T08:46:08Z</time>
      </trkpt>
      <trkpt lat="43.18009" lon="6.60293">
        <ele>20</ele>
        <time>2020-10-25T08:46:16Z</time>
      </trkpt>
      <trkpt lat="43.18006" lon="6.60291">
        <ele>20.3</ele>
        <time>2020-10-25T08:46:20Z</time>
      </trkpt>
      <trkpt lat="43.18002" lon="6.60289">
        <ele>20.7</ele>
        <time>2020-10-25T08:46:27Z</time>
      </trkpt>
      <trkpt lat="43.17998" lon="6.60287">
        <ele>21.2</ele>
        <time>2020-10-25T08:46:31Z</time>
      </trkpt>
      <trkpt lat="43.17994" lon="6.60284">
        <ele>21.5</ele>
        <time>2020-10-25T08:46:35Z</time>
      </trkpt>
      <trkpt lat="43.1799" lon="6.60285">
        <ele>22</ele>
        <time>2020-10-25T08:46:42Z</time>
      </trkpt>
      <trkpt lat="43.17987" lon="6.60288">
        <ele>22.6</ele>
        <time>2020-10-25T08:46:49Z</time>
      </trkpt>
      <trkpt lat="43.17983" lon="6.60288">
        <ele>23</ele>
        <time>2020-10-25T08:46:54Z</time>
      </trkpt>
      <trkpt lat="43.17979" lon="6.60287">
        <ele>23.3</ele>
        <time>2020-10-25T08:46:58Z</time>
      </trkpt>
      <trkpt lat="43.17976" lon="6.60288">
        <ele>23.4</ele>
        <time>2020-10-25T08:47:01Z</time>
      </trkpt>
      <trkpt lat="43.17975" lon="6.60288">
        <ele>23.5</ele>
        <time>2020-10-25T08:47:02Z</time>
      </trkpt>
      <trkpt lat="43.17968" lon="6.6029">
        <ele>23.9</ele>
        <time>2020-10-25T08:47:10Z</time>
      </trkpt>
      <trkpt lat="43.17964" lon="6.60289">
        <ele>24.4</ele>
        <time>2020-10-25T08:47:14Z</time>
      </trkpt>
      <trkpt lat="43.1796" lon="6.60289">
        <ele>24.6</ele>
        <time>2020-10-25T08:47:18Z</time>
      </trkpt>
      <trkpt lat="43.17956" lon="6.60289">
        <ele>24.8</ele>
        <time>2020-10-25T08:47:22Z</time>
      </trkpt>
      <trkpt lat="43.17953" lon="6.60287">
        <ele>25</ele>
        <time>2020-10-25T08:47:25Z</time>
      </trkpt>
      <trkpt lat="43.17949" lon="6.60288">
        <ele>25.2</ele>
        <time>2020-10-25T08:47:29Z</time>
      </trkpt>
      <trkpt lat="43.17945" lon="6.60288">
        <ele>25.4</ele>
        <time>2020-10-25T08:47:34Z</time>
      </trkpt>
      <trkpt lat="43.17941" lon="6.60289">
        <ele>25.4</ele>
        <time>2020-10-25T08:47:38Z</time>
      </trkpt>
      <trkpt lat="43.17938" lon="6.60288">
        <ele>25.5</ele>
        <time>2020-10-25T08:47:41Z</time>
      </trkpt>
      <trkpt lat="43.17934" lon="6.6029">
        <ele>25.7</ele>
        <time>2020-10-25T08:47:45Z</time>
      </trkpt>
      <trkpt lat="43.1793" lon="6.60294">
        <ele>25.9</ele>
        <time>2020-10-25T08:47:49Z</time>
      </trkpt>
      <trkpt lat="43.17927" lon="6.60298">
        <ele>25.9</ele>
        <time>2020-10-25T08:47:54Z</time>
      </trkpt>
      <trkpt lat="43.17923" lon="6.60296">
        <ele>25.8</ele>
        <time>2020-10-25T08:47:59Z</time>
      </trkpt>
      <trkpt lat="43.17919" lon="6.60295">
        <ele>25.7</ele>
        <time>2020-10-25T08:48:03Z</time>
      </trkpt>
      <trkpt lat="43.17919" lon="6.60295">
        <ele>25.7</ele>
        <time>2020-10-25T08:48:04Z</time>
      </trkpt>
      <trkpt lat="43.17919" lon="6.60292">
        <ele>25.9</ele>
        <time>2020-10-25T08:48:56Z</time>
      </trkpt>
      <trkpt lat="43.17915" lon="6.60291">
        <ele>25.5</ele>
        <time>2020-10-25T08:49:24Z</time>
      </trkpt>
      <trkpt lat="43.17915" lon="6.60291">
        <ele>25.5</ele>
        <time>2020-10-25T08:49:25Z</time>
      </trkpt>
      <trkpt lat="43.17908" lon="6.60296">
        <ele>25.5</ele>
        <time>2020-10-25T08:49:42Z</time>
      </trkpt>
      <trkpt lat="43.17905" lon="6.60299">
        <ele>25.7</ele>
        <time>2020-10-25T08:49:48Z</time>
      </trkpt>
      <trkpt lat="43.17902" lon="6.60304">
        <ele>25.9</ele>
        <time>2020-10-25T08:49:54Z</time>
      </trkpt>
      <trkpt lat="43.17899" lon="6.60307">
        <ele>26</ele>
        <time>2020-10-25T08:50:00Z</time>
      </trkpt>
      <trkpt lat="43.17896" lon="6.60311">
        <ele>26.1</ele>
        <time>2020-10-25T08:50:04Z</time>
      </trkpt>
      <trkpt lat="43.17895" lon="6.60316">
        <ele>26.3</ele>
        <time>2020-10-25T08:50:08Z</time>
      </trkpt>
      <trkpt lat="43.17893" lon="6.6032">
        <ele>26.8</ele>
        <time>2020-10-25T08:50:12Z</time>
      </trkpt>
      <trkpt lat="43.17889" lon="6.60323">
        <ele>27.3</ele>
        <time>2020-10-25T08:50:16Z</time>
      </trkpt>
      <trkpt lat="43.17886" lon="6.60326">
        <ele>28</ele>
        <time>2020-10-25T08:50:21Z</time>
      </trkpt>
      <trkpt lat="43.17882" lon="6.60327">
        <ele>28.3</ele>
        <time>2020-10-25T08:50:26Z</time>
      </trkpt>
      <trkpt lat="43.17881" lon="6.60327">
        <ele>28.5</ele>
        <time>2020-10-25T08:50:27Z</time>
      </trkpt>
      <trkpt lat="43.17874" lon="6.60331">
        <ele>29.4</ele>
        <time>2020-10-25T08:50:37Z</time>
      </trkpt>
      <trkpt lat="43.1787" lon="6.60332">
        <ele>29.9</ele>
        <time>2020-10-25T08:50:41Z</time>
      </trkpt>
      <trkpt lat="43.17867" lon="6.60336">
        <ele>30.1</ele>
        <time>2020-10-25T08:50:45Z</time>
      </trkpt>
      <trkpt lat="43.17864" lon="6.60339">
        <ele>30.4</ele>
        <time>2020-10-25T08:50:49Z</time>
      </trkpt>
      <trkpt lat="43.17862" lon="6.60342">
        <ele>30.4</ele>
        <time>2020-10-25T08:50:52Z</time>
      </trkpt>
      <trkpt lat="43.1786" lon="6.60347">
        <ele>30.3</ele>
        <time>2020-10-25T08:50:55Z</time>
      </trkpt>
      <trkpt lat="43.17857" lon="6.60351">
        <ele>30.4</ele>
        <time>2020-10-25T08:50:58Z</time>
      </trkpt>
      <trkpt lat="43.17854" lon="6.60355">
        <ele>30.7</ele>
        <time>2020-10-25T08:51:03Z</time>
      </trkpt>
      <trkpt lat="43.17851" lon="6.60358">
        <ele>30.8</ele>
        <time>2020-10-25T08:51:08Z</time>
      </trkpt>
      <trkpt lat="43.17849" lon="6.60362">
        <ele>30.5</ele>
        <time>2020-10-25T08:51:12Z</time>
      </trkpt>
      <trkpt lat="43.17847" lon="6.60367">
        <ele>30.3</ele>
        <time>2020-10-25T08:51:15Z</time>
      </trkpt>
      <trkpt lat="43.17844" lon="6.60371">
        <ele>29.8</ele>
        <time>2020-10-25T08:51:21Z</time>
      </trkpt>
      <trkpt lat="43.17842" lon="6.60375">
        <ele>29.5</ele>
        <time>2020-10-25T08:51:25Z</time>
      </trkpt>
      <trkpt lat="43.17837" lon="6.60376">
        <ele>29</ele>
        <time>2020-10-25T08:51:30Z</time>
      </trkpt>
      <trkpt lat="43.17836" lon="6.60376">
        <ele>28.9</ele>
        <time>2020-10-25T08:51:31Z</time>
      </trkpt>
      <trkpt lat="43.17829" lon="6.60375">
        <ele>28.1</ele>
        <time>2020-10-25T08:51:43Z</time>
      </trkpt>
      <trkpt lat="43.17825" lon="6.60375">
        <ele>27.8</ele>
        <time>2020-10-25T08:51:51Z</time>
      </trkpt>
      <trkpt lat="43.1782" lon="6.60376">
        <ele>27.9</ele>
        <time>2020-10-25T08:51:57Z</time>
      </trkpt>
      <trkpt lat="43.17816" lon="6.60377">
        <ele>27</ele>
        <time>2020-10-25T08:52:01Z</time>
      </trkpt>
      <trkpt lat="43.17813" lon="6.60378">
        <ele>26.8</ele>
        <time>2020-10-25T08:52:04Z</time>
      </trkpt>
      <trkpt lat="43.17809" lon="6.60378">
        <ele>26.3</ele>
        <time>2020-10-25T08:52:07Z</time>
      </trkpt>
      <trkpt lat="43.17805" lon="6.60379">
        <ele>25.8</ele>
        <time>2020-10-25T08:52:10Z</time>
      </trkpt>
      <trkpt lat="43.17801" lon="6.60379">
        <ele>25.7</ele>
        <time>2020-10-25T08:52:14Z</time>
      </trkpt>
      <trkpt lat="43.17797" lon="6.60381">
        <ele>25.4</ele>
        <time>2020-10-25T08:52:17Z</time>
      </trkpt>
      <trkpt lat="43.17794" lon="6.60383">
        <ele>25.2</ele>
        <time>2020-10-25T08:52:20Z</time>
      </trkpt>
      <trkpt lat="43.17791" lon="6.60384">
        <ele>25.1</ele>
        <time>2020-10-25T08:52:23Z</time>
      </trkpt>
      <trkpt lat="43.17787" lon="6.60387">
        <ele>24.9</ele>
        <time>2020-10-25T08:52:26Z</time>
      </trkpt>
      <trkpt lat="43.17783" lon="6.60389">
        <ele>24.7</ele>
        <time>2020-10-25T08:52:30Z</time>
      </trkpt>
      <trkpt lat="43.17779" lon="6.6039">
        <ele>24.4</ele>
        <time>2020-10-25T08:52:34Z</time>
      </trkpt>
      <trkpt lat="43.17779" lon="6.6039">
        <ele>24.3</ele>
        <time>2020-10-25T08:52:35Z</time>
      </trkpt>
      <trkpt lat="43.17773" lon="6.60396">
        <ele>24</ele>
        <time>2020-10-25T08:52:42Z</time>
      </trkpt>
      <trkpt lat="43.1777" lon="6.604">
        <ele>23.6</ele>
        <time>2020-10-25T08:52:46Z</time>
      </trkpt>
      <trkpt lat="43.17767" lon="6.60404">
        <ele>23.4</ele>
        <time>2020-10-25T08:52:49Z</time>
      </trkpt>
      <trkpt lat="43.17765" lon="6.60406">
        <ele>23.3</ele>
        <time>2020-10-25T08:52:51Z</time>
      </trkpt>
      <trkpt lat="43.17762" lon="6.60409">
        <ele>23.2</ele>
        <time>2020-10-25T08:52:54Z</time>
      </trkpt>
      <trkpt lat="43.17759" lon="6.60414">
        <ele>23.4</ele>
        <time>2020-10-25T08:52:57Z</time>
      </trkpt>
      <trkpt lat="43.17758" lon="6.60417">
        <ele>23.5</ele>
        <time>2020-10-25T08:52:59Z</time>
      </trkpt>
      <trkpt lat="43.17756" lon="6.60422">
        <ele>23.5</ele>
        <time>2020-10-25T08:53:03Z</time>
      </trkpt>
      <trkpt lat="43.17753" lon="6.60426">
        <ele>23.6</ele>
        <time>2020-10-25T08:53:07Z</time>
      </trkpt>
      <trkpt lat="43.17748" lon="6.60427">
        <ele>23.6</ele>
        <time>2020-10-25T08:53:11Z</time>
      </trkpt>
      <trkpt lat="43.17745" lon="6.60427">
        <ele>23.7</ele>
        <time>2020-10-25T08:53:16Z</time>
      </trkpt>
      <trkpt lat="43.17741" lon="6.60424">
        <ele>23.7</ele>
        <time>2020-10-25T08:53:20Z</time>
      </trkpt>
      <trkpt lat="43.17737" lon="6.60421">
        <ele>23.8</ele>
        <time>2020-10-25T08:53:24Z</time>
      </trkpt>
      <trkpt lat="43.17734" lon="6.60419">
        <ele>23.8</ele>
        <time>2020-10-25T08:53:27Z</time>
      </trkpt>
      <trkpt lat="43.17731" lon="6.60416">
        <ele>23.5</ele>
        <time>2020-10-25T08:53:32Z</time>
      </trkpt>
      <trkpt lat="43.17727" lon="6.60414">
        <ele>23.4</ele>
        <time>2020-10-25T08:53:35Z</time>
      </trkpt>
      <trkpt lat="43.17726" lon="6.60414">
        <ele>23.3</ele>
        <time>2020-10-25T08:53:36Z</time>
      </trkpt>
      <trkpt lat="43.1772" lon="6.60411">
        <ele>23.2</ele>
        <time>2020-10-25T08:53:42Z</time>
      </trkpt>
      <trkpt lat="43.17717" lon="6.60411">
        <ele>23.2</ele>
        <time>2020-10-25T08:53:46Z</time>
      </trkpt>
      <trkpt lat="43.17713" lon="6.6041">
        <ele>23.1</ele>
        <time>2020-10-25T08:53:49Z</time>
      </trkpt>
      <trkpt lat="43.1771" lon="6.60411">
        <ele>23</ele>
        <time>2020-10-25T08:53:52Z</time>
      </trkpt>
      <trkpt lat="43.17706" lon="6.60412">
        <ele>22.8</ele>
        <time>2020-10-25T08:53:56Z</time>
      </trkpt>
      <trkpt lat="43.17702" lon="6.60414">
        <ele>22.3</ele>
        <time>2020-10-25T08:54:00Z</time>
      </trkpt>
      <trkpt lat="43.17699" lon="6.60416">
        <ele>22</ele>
        <time>2020-10-25T08:54:03Z</time>
      </trkpt>
      <trkpt lat="43.17696" lon="6.60418">
        <ele>21.7</ele>
        <time>2020-10-25T08:54:07Z</time>
      </trkpt>
      <trkpt lat="43.17693" lon="6.60423">
        <ele>21.6</ele>
        <time>2020-10-25T08:54:11Z</time>
      </trkpt>
      <trkpt lat="43.17691" lon="6.60428">
        <ele>21.5</ele>
        <time>2020-10-25T08:54:15Z</time>
      </trkpt>
      <trkpt lat="43.17688" lon="6.60432">
        <ele>21.1</ele>
        <time>2020-10-25T08:54:20Z</time>
      </trkpt>
      <trkpt lat="43.17684" lon="6.60435">
        <ele>20.7</ele>
        <time>2020-10-25T08:54:25Z</time>
      </trkpt>
      <trkpt lat="43.17681" lon="6.60439">
        <ele>19.8</ele>
        <time>2020-10-25T08:54:30Z</time>
      </trkpt>
      <trkpt lat="43.17677" lon="6.60441">
        <ele>18.7</ele>
        <time>2020-10-25T08:54:38Z</time>
      </trkpt>
      <trkpt lat="43.17676" lon="6.60441">
        <ele>18.6</ele>
        <time>2020-10-25T08:54:39Z</time>
      </trkpt>
      <trkpt lat="43.17669" lon="6.60445">
        <ele>16.6</ele>
        <time>2020-10-25T08:54:53Z</time>
      </trkpt>
      <trkpt lat="43.17666" lon="6.60449">
        <ele>15.8</ele>
        <time>2020-10-25T08:54:58Z</time>
      </trkpt>
      <trkpt lat="43.17664" lon="6.60454">
        <ele>14.8</ele>
        <time>2020-10-25T08:55:05Z</time>
      </trkpt>
      <trkpt lat="43.1766" lon="6.60454">
        <ele>14.3</ele>
        <time>2020-10-25T08:55:13Z</time>
      </trkpt>
      <trkpt lat="43.17656" lon="6.60452">
        <ele>13.9</ele>
        <time>2020-10-25T08:55:20Z</time>
      </trkpt>
      <trkpt lat="43.17652" lon="6.60452">
        <ele>13.8</ele>
        <time>2020-10-25T08:55:26Z</time>
      </trkpt>
      <trkpt lat="43.17648" lon="6.60454">
        <ele>13.7</ele>
        <time>2020-10-25T08:55:31Z</time>
      </trkpt>
      <trkpt lat="43.17644" lon="6.60453">
        <ele>13.8</ele>
        <time>2020-10-25T08:55:36Z</time>
      </trkpt>
      <trkpt lat="43.17639" lon="6.60452">
        <ele>14.1</ele>
        <time>2020-10-25T08:55:42Z</time>
      </trkpt>
      <trkpt lat="43.17639" lon="6.60452">
        <ele>14.2</ele>
        <time>2020-10-25T08:55:43Z</time>
      </trkpt>
      <trkpt lat="43.17632" lon="6.60452">
        <ele>15</ele>
        <time>2020-10-25T08:55:51Z</time>
      </trkpt>
      <trkpt lat="43.17628" lon="6.60453">
        <ele>15.2</ele>
        <time>2020-10-25T08:55:56Z</time>
      </trkpt>
      <trkpt lat="43.17624" lon="6.60453">
        <ele>15.3</ele>
        <time>2020-10-25T08:56:00Z</time>
      </trkpt>
      <trkpt lat="43.1762" lon="6.60454">
        <ele>15.6</ele>
        <time>2020-10-25T08:56:04Z</time>
      </trkpt>
      <trkpt lat="43.17616" lon="6.60455">
        <ele>15.9</ele>
        <time>2020-10-25T08:56:08Z</time>
      </trkpt>
      <trkpt lat="43.17612" lon="6.60452">
        <ele>16.2</ele>
        <time>2020-10-25T08:56:12Z</time>
      </trkpt>
      <trkpt lat="43.17608" lon="6.60453">
        <ele>17.1</ele>
        <time>2020-10-25T08:56:23Z</time>
      </trkpt>
      <trkpt lat="43.17604" lon="6.60453">
        <ele>18</ele>
        <time>2020-10-25T08:56:33Z</time>
      </trkpt>
      <trkpt lat="43.176" lon="6.60455">
        <ele>18.3</ele>
        <time>2020-10-25T08:56:39Z</time>
      </trkpt>
      <trkpt lat="43.17596" lon="6.60454">
        <ele>18</ele>
        <time>2020-10-25T08:56:46Z</time>
      </trkpt>
      <trkpt lat="43.17595" lon="6.60454">
        <ele>18</ele>
        <time>2020-10-25T08:56:47Z</time>
      </trkpt>
      <trkpt lat="43.17587" lon="6.60454">
        <ele>17.4</ele>
        <time>2020-10-25T08:57:00Z</time>
      </trkpt>
      <trkpt lat="43.17583" lon="6.60453">
        <ele>16.8</ele>
        <time>2020-10-25T08:57:12Z</time>
      </trkpt>
      <trkpt lat="43.17579" lon="6.60456">
        <ele>16.3</ele>
        <time>2020-10-25T08:57:18Z</time>
      </trkpt>
      <trkpt lat="43.17576" lon="6.60459">
        <ele>16.4</ele>
        <time>2020-10-25T08:58:00Z</time>
      </trkpt>
      <trkpt lat="43.17575" lon="6.60459">
        <ele>16.2</ele>
        <time>2020-10-25T08:58:01Z</time>
      </trkpt>
      <trkpt lat="43.17569" lon="6.60462">
        <ele>16.3</ele>
        <time>2020-10-25T08:58:10Z</time>
      </trkpt>
      <trkpt lat="43.17565" lon="6.60464">
        <ele>16.4</ele>
        <time>2020-10-25T08:58:14Z</time>
      </trkpt>
      <trkpt lat="43.17562" lon="6.60468">
        <ele>16.5</ele>
        <time>2020-10-25T08:58:18Z</time>
      </trkpt>
      <trkpt lat="43.17559" lon="6.60472">
        <ele>16.8</ele>
        <time>2020-10-25T08:58:23Z</time>
      </trkpt>
      <trkpt lat="43.17555" lon="6.60472">
        <ele>16.6</ele>
        <time>2020-10-25T08:58:29Z</time>
      </trkpt>
      <trkpt lat="43.1755" lon="6.60472">
        <ele>16.3</ele>
        <time>2020-10-25T08:58:39Z</time>
      </trkpt>
      <trkpt lat="43.17547" lon="6.60472">
        <ele>15.6</ele>
        <time>2020-10-25T08:58:45Z</time>
      </trkpt>
      <trkpt lat="43.17543" lon="6.60471">
        <ele>14.8</ele>
        <time>2020-10-25T08:58:53Z</time>
      </trkpt>
      <trkpt lat="43.17539" lon="6.60468">
        <ele>14.8</ele>
        <time>2020-10-25T08:58:58Z</time>
      </trkpt>
      <trkpt lat="43.17536" lon="6.60463">
        <ele>14.6</ele>
        <time>2020-10-25T08:59:05Z</time>
      </trkpt>
      <trkpt lat="43.17536" lon="6.60462">
        <ele>14.5</ele>
        <time>2020-10-25T08:59:06Z</time>
      </trkpt>
      <trkpt lat="43.17533" lon="6.60454">
        <ele>13.9</ele>
        <time>2020-10-25T08:59:16Z</time>
      </trkpt>
      <trkpt lat="43.17531" lon="6.60449">
        <ele>13.1</ele>
        <time>2020-10-25T08:59:22Z</time>
      </trkpt>
      <trkpt lat="43.17528" lon="6.60446">
        <ele>12.8</ele>
        <time>2020-10-25T08:59:26Z</time>
      </trkpt>
      <trkpt lat="43.17524" lon="6.60444">
        <ele>12.6</ele>
        <time>2020-10-25T08:59:39Z</time>
      </trkpt>
      <trkpt lat="43.1752" lon="6.6044">
        <ele>13.3</ele>
        <time>2020-10-25T08:59:46Z</time>
      </trkpt>
      <trkpt lat="43.17519" lon="6.60435">
        <ele>13.7</ele>
        <time>2020-10-25T08:59:52Z</time>
      </trkpt>
      <trkpt lat="43.17515" lon="6.60431">
        <ele>14.1</ele>
        <time>2020-10-25T08:59:57Z</time>
      </trkpt>
      <trkpt lat="43.17511" lon="6.60431">
        <ele>15.4</ele>
        <time>2020-10-25T09:00:07Z</time>
      </trkpt>
      <trkpt lat="43.17511" lon="6.60431">
        <ele>15.5</ele>
        <time>2020-10-25T09:00:08Z</time>
      </trkpt>
      <trkpt lat="43.17504" lon="6.60436">
        <ele>17.9</ele>
        <time>2020-10-25T09:00:25Z</time>
      </trkpt>
      <trkpt lat="43.17501" lon="6.60433">
        <ele>19.2</ele>
        <time>2020-10-25T09:00:34Z</time>
      </trkpt>
      <trkpt lat="43.175" lon="6.60428">
        <ele>19.5</ele>
        <time>2020-10-25T09:00:39Z</time>
      </trkpt>
      <trkpt lat="43.17499" lon="6.60422">
        <ele>19.3</ele>
        <time>2020-10-25T09:00:43Z</time>
      </trkpt>
      <trkpt lat="43.17498" lon="6.60418">
        <ele>19.1</ele>
        <time>2020-10-25T09:00:46Z</time>
      </trkpt>
      <trkpt lat="43.17497" lon="6.60413">
        <ele>18.8</ele>
        <time>2020-10-25T09:00:50Z</time>
      </trkpt>
      <trkpt lat="43.17495" lon="6.60407">
        <ele>18.6</ele>
        <time>2020-10-25T09:00:54Z</time>
      </trkpt>
      <trkpt lat="43.17493" lon="6.60402">
        <ele>18</ele>
        <time>2020-10-25T09:01:01Z</time>
      </trkpt>
      <trkpt lat="43.17494" lon="6.60396">
        <ele>16.1</ele>
        <time>2020-10-25T09:01:17Z</time>
      </trkpt>
      <trkpt lat="43.17494" lon="6.60396">
        <ele>16</ele>
        <time>2020-10-25T09:01:18Z</time>
      </trkpt>
      <trkpt lat="43.17494" lon="6.60385">
        <ele>14.3</ele>
        <time>2020-10-25T09:01:28Z</time>
      </trkpt>
      <trkpt lat="43.17493" lon="6.6038">
        <ele>13.8</ele>
        <time>2020-10-25T09:01:33Z</time>
      </trkpt>
      <trkpt lat="43.17491" lon="6.60375">
        <ele>13.2</ele>
        <time>2020-10-25T09:01:45Z</time>
      </trkpt>
      <trkpt lat="43.1749" lon="6.60371">
        <ele>13.1</ele>
        <time>2020-10-25T09:01:49Z</time>
      </trkpt>
      <trkpt lat="43.17489" lon="6.60365">
        <ele>12.9</ele>
        <time>2020-10-25T09:01:53Z</time>
      </trkpt>
      <trkpt lat="43.17488" lon="6.6036">
        <ele>12.6</ele>
        <time>2020-10-25T09:02:02Z</time>
      </trkpt>
      <trkpt lat="43.17486" lon="6.60355">
        <ele>12.4</ele>
        <time>2020-10-25T09:02:15Z</time>
      </trkpt>
      <trkpt lat="43.17485" lon="6.6035">
        <ele>12.5</ele>
        <time>2020-10-25T09:02:20Z</time>
      </trkpt>
      <trkpt lat="43.17485" lon="6.60349">
        <ele>12.5</ele>
        <time>2020-10-25T09:02:21Z</time>
      </trkpt>
      <trkpt lat="43.17483" lon="6.60339">
        <ele>12.9</ele>
        <time>2020-10-25T09:02:36Z</time>
      </trkpt>
      <trkpt lat="43.17482" lon="6.60333">
        <ele>13.2</ele>
        <time>2020-10-25T09:02:43Z</time>
      </trkpt>
      <trkpt lat="43.17481" lon="6.60328">
        <ele>13.2</ele>
        <time>2020-10-25T09:02:48Z</time>
      </trkpt>
      <trkpt lat="43.17479" lon="6.60323">
        <ele>13.1</ele>
        <time>2020-10-25T09:02:52Z</time>
      </trkpt>
      <trkpt lat="43.17477" lon="6.60318">
        <ele>13.4</ele>
        <time>2020-10-25T09:02:57Z</time>
      </trkpt>
      <trkpt lat="43.17473" lon="6.60315">
        <ele>13.8</ele>
        <time>2020-10-25T09:03:02Z</time>
      </trkpt>
      <trkpt lat="43.17469" lon="6.60314">
        <ele>14.4</ele>
        <time>2020-10-25T09:03:08Z</time>
      </trkpt>
      <trkpt lat="43.17465" lon="6.60311">
        <ele>14.7</ele>
        <time>2020-10-25T09:03:13Z</time>
      </trkpt>
      <trkpt lat="43.17462" lon="6.60311">
        <ele>14.9</ele>
        <time>2020-10-25T09:03:19Z</time>
      </trkpt>
      <trkpt lat="43.17458" lon="6.60308">
        <ele>15.5</ele>
        <time>2020-10-25T09:03:28Z</time>
      </trkpt>
      <trkpt lat="43.17458" lon="6.60307">
        <ele>15.5</ele>
        <time>2020-10-25T09:03:29Z</time>
      </trkpt>
      <trkpt lat="43.1745" lon="6.60305">
        <ele>17.9</ele>
        <time>2020-10-25T09:04:12Z</time>
      </trkpt>
      <trkpt lat="43.17446" lon="6.60308">
        <ele>18.6</ele>
        <time>2020-10-25T09:04:21Z</time>
      </trkpt>
      <trkpt lat="43.17443" lon="6.60311">
        <ele>19.7</ele>
        <time>2020-10-25T09:04:30Z</time>
      </trkpt>
      <trkpt lat="43.17442" lon="6.60312">
        <ele>19.9</ele>
        <time>2020-10-25T09:04:31Z</time>
      </trkpt>
      <trkpt lat="43.17435" lon="6.60314">
        <ele>21.5</ele>
        <time>2020-10-25T09:04:43Z</time>
      </trkpt>
      <trkpt lat="43.17431" lon="6.60317">
        <ele>21.6</ele>
        <time>2020-10-25T09:04:48Z</time>
      </trkpt>
      <trkpt lat="43.17427" lon="6.60319">
        <ele>22.2</ele>
        <time>2020-10-25T09:04:54Z</time>
      </trkpt>
      <trkpt lat="43.17422" lon="6.60319">
        <ele>22.4</ele>
        <time>2020-10-25T09:05:00Z</time>
      </trkpt>
      <trkpt lat="43.1742" lon="6.60323">
        <ele>22.6</ele>
        <time>2020-10-25T09:05:04Z</time>
      </trkpt>
      <trkpt lat="43.17417" lon="6.60327">
        <ele>22.9</ele>
        <time>2020-10-25T09:05:09Z</time>
      </trkpt>
      <trkpt lat="43.17414" lon="6.60332">
        <ele>23</ele>
        <time>2020-10-25T09:05:14Z</time>
      </trkpt>
      <trkpt lat="43.17411" lon="6.60336">
        <ele>23.2</ele>
        <time>2020-10-25T09:05:20Z</time>
      </trkpt>
      <trkpt lat="43.17408" lon="6.6034">
        <ele>23.1</ele>
        <time>2020-10-25T09:05:28Z</time>
      </trkpt>
      <trkpt lat="43.17405" lon="6.60345">
        <ele>22.6</ele>
        <time>2020-10-25T09:05:38Z</time>
      </trkpt>
      <trkpt lat="43.17405" lon="6.60346">
        <ele>22.5</ele>
        <time>2020-10-25T09:05:39Z</time>
      </trkpt>
      <trkpt lat="43.17405" lon="6.60356">
        <ele>22.2</ele>
        <time>2020-10-25T09:05:46Z</time>
      </trkpt>
      <trkpt lat="43.17405" lon="6.60361">
        <ele>22.3</ele>
        <time>2020-10-25T09:05:50Z</time>
      </trkpt>
      <trkpt lat="43.17404" lon="6.60367">
        <ele>22.1</ele>
        <time>2020-10-25T09:05:54Z</time>
      </trkpt>
      <trkpt lat="43.17403" lon="6.60372">
        <ele>22.1</ele>
        <time>2020-10-25T09:06:01Z</time>
      </trkpt>
      <trkpt lat="43.17402" lon="6.60377">
        <ele>22.4</ele>
        <time>2020-10-25T09:06:05Z</time>
      </trkpt>
      <trkpt lat="43.17402" lon="6.60381">
        <ele>22.5</ele>
        <time>2020-10-25T09:06:08Z</time>
      </trkpt>
      <trkpt lat="43.17402" lon="6.60387">
        <ele>22.7</ele>
        <time>2020-10-25T09:06:12Z</time>
      </trkpt>
      <trkpt lat="43.174" lon="6.60392">
        <ele>22.8</ele>
        <time>2020-10-25T09:06:16Z</time>
      </trkpt>
      <trkpt lat="43.17399" lon="6.60397">
        <ele>22.7</ele>
        <time>2020-10-25T09:06:21Z</time>
      </trkpt>
      <trkpt lat="43.17398" lon="6.60403">
        <ele>23.2</ele>
        <time>2020-10-25T09:06:28Z</time>
      </trkpt>
      <trkpt lat="43.17395" lon="6.60407">
        <ele>23.9</ele>
        <time>2020-10-25T09:06:43Z</time>
      </trkpt>
      <trkpt lat="43.17394" lon="6.60407">
        <ele>24</ele>
        <time>2020-10-25T09:06:44Z</time>
      </trkpt>
      <trkpt lat="43.17392" lon="6.60417">
        <ele>25.4</ele>
        <time>2020-10-25T09:07:00Z</time>
      </trkpt>
      <trkpt lat="43.17393" lon="6.60423">
        <ele>25.6</ele>
        <time>2020-10-25T09:07:05Z</time>
      </trkpt>
      <trkpt lat="43.17395" lon="6.60427">
        <ele>25.4</ele>
        <time>2020-10-25T09:07:12Z</time>
      </trkpt>
      <trkpt lat="43.17395" lon="6.60433">
        <ele>24</ele>
        <time>2020-10-25T09:07:25Z</time>
      </trkpt>
      <trkpt lat="43.17391" lon="6.60436">
        <ele>22.9</ele>
        <time>2020-10-25T09:07:34Z</time>
      </trkpt>
      <trkpt lat="43.17389" lon="6.60441">
        <ele>21.8</ele>
        <time>2020-10-25T09:07:43Z</time>
      </trkpt>
      <trkpt lat="43.17387" lon="6.60446">
        <ele>20</ele>
        <time>2020-10-25T09:07:52Z</time>
      </trkpt>
      <trkpt lat="43.17387" lon="6.60446">
        <ele>19.9</ele>
        <time>2020-10-25T09:07:53Z</time>
      </trkpt>
      <trkpt lat="43.17381" lon="6.60454">
        <ele>16.9</ele>
        <time>2020-10-25T09:09:16Z</time>
      </trkpt>
      <trkpt lat="43.1738" lon="6.60456">
        <ele>16.9</ele>
        <time>2020-10-25T09:09:17Z</time>
      </trkpt>
      <trkpt lat="43.17381" lon="6.60464">
        <ele>16.3</ele>
        <time>2020-10-25T09:09:21Z</time>
      </trkpt>
      <trkpt lat="43.17382" lon="6.60468">
        <ele>16.2</ele>
        <time>2020-10-25T09:09:23Z</time>
      </trkpt>
      <trkpt lat="43.17383" lon="6.60472">
        <ele>16.1</ele>
        <time>2020-10-25T09:09:25Z</time>
      </trkpt>
      <trkpt lat="43.17385" lon="6.60477">
        <ele>15.9</ele>
        <time>2020-10-25T09:09:27Z</time>
      </trkpt>
      <trkpt lat="43.17386" lon="6.60481">
        <ele>16</ele>
        <time>2020-10-25T09:09:29Z</time>
      </trkpt>
      <trkpt lat="43.17388" lon="6.60486">
        <ele>16.2</ele>
        <time>2020-10-25T09:09:32Z</time>
      </trkpt>
      <trkpt lat="43.17389" lon="6.60491">
        <ele>16.4</ele>
        <time>2020-10-25T09:09:35Z</time>
      </trkpt>
      <trkpt lat="43.1739" lon="6.60496">
        <ele>16.6</ele>
        <time>2020-10-25T09:09:38Z</time>
      </trkpt>
      <trkpt lat="43.17392" lon="6.60501">
        <ele>16.7</ele>
        <time>2020-10-25T09:09:42Z</time>
      </trkpt>
      <trkpt lat="43.1739" lon="6.60507">
        <ele>16.7</ele>
        <time>2020-10-25T09:09:46Z</time>
      </trkpt>
      <trkpt lat="43.17387" lon="6.60509">
        <ele>16.6</ele>
        <time>2020-10-25T09:09:49Z</time>
      </trkpt>
      <trkpt lat="43.17386" lon="6.60515">
        <ele>16.5</ele>
        <time>2020-10-25T09:09:53Z</time>
      </trkpt>
      <trkpt lat="43.17385" lon="6.6052">
        <ele>16.7</ele>
        <time>2020-10-25T09:09:57Z</time>
      </trkpt>
      <trkpt lat="43.17384" lon="6.60525">
        <ele>16.9</ele>
        <time>2020-10-25T09:10:01Z</time>
      </trkpt>
      <trkpt lat="43.17383" lon="6.60529">
        <ele>16.9</ele>
        <time>2020-10-25T09:10:05Z</time>
      </trkpt>
      <trkpt lat="43.17381" lon="6.60533">
        <ele>17</ele>
        <time>2020-10-25T09:10:08Z</time>
      </trkpt>
      <trkpt lat="43.1738" lon="6.60538">
        <ele>17.3</ele>
        <time>2020-10-25T09:10:11Z</time>
      </trkpt>
      <trkpt lat="43.17379" lon="6.60544">
        <ele>17.6</ele>
        <time>2020-10-25T09:10:16Z</time>
      </trkpt>
      <trkpt lat="43.17379" lon="6.60549">
        <ele>18</ele>
        <time>2020-10-25T09:10:25Z</time>
      </trkpt>
      <trkpt lat="43.17378" lon="6.6055">
        <ele>18</ele>
        <time>2020-10-25T09:10:26Z</time>
      </trkpt>
      <trkpt lat="43.17376" lon="6.60558">
        <ele>17.1</ele>
        <time>2020-10-25T09:11:00Z</time>
      </trkpt>
      <trkpt lat="43.17374" lon="6.60563">
        <ele>16.6</ele>
        <time>2020-10-25T09:11:03Z</time>
      </trkpt>
      <trkpt lat="43.17374" lon="6.60569">
        <ele>16.4</ele>
        <time>2020-10-25T09:11:06Z</time>
      </trkpt>
      <trkpt lat="43.17374" lon="6.60575">
        <ele>16.2</ele>
        <time>2020-10-25T09:11:09Z</time>
      </trkpt>
      <trkpt lat="43.17375" lon="6.60581">
        <ele>16.1</ele>
        <time>2020-10-25T09:11:12Z</time>
      </trkpt>
      <trkpt lat="43.17375" lon="6.60587">
        <ele>16</ele>
        <time>2020-10-25T09:11:15Z</time>
      </trkpt>
      <trkpt lat="43.17375" lon="6.60592">
        <ele>15.7</ele>
        <time>2020-10-25T09:11:18Z</time>
      </trkpt>
      <trkpt lat="43.17376" lon="6.60597">
        <ele>15.5</ele>
        <time>2020-10-25T09:11:24Z</time>
      </trkpt>
      <trkpt lat="43.17378" lon="6.60602">
        <ele>16.6</ele>
        <time>2020-10-25T09:11:32Z</time>
      </trkpt>
      <trkpt lat="43.17378" lon="6.60603">
        <ele>16.7</ele>
        <time>2020-10-25T09:11:33Z</time>
      </trkpt>
      <trkpt lat="43.1738" lon="6.60611">
        <ele>20.5</ele>
        <time>2020-10-25T09:11:55Z</time>
      </trkpt>
      <trkpt lat="43.17379" lon="6.60616">
        <ele>21.9</ele>
        <time>2020-10-25T09:12:02Z</time>
      </trkpt>
      <trkpt lat="43.17379" lon="6.60622">
        <ele>23</ele>
        <time>2020-10-25T09:12:08Z</time>
      </trkpt>
      <trkpt lat="43.17375" lon="6.60625">
        <ele>23.5</ele>
        <time>2020-10-25T09:12:14Z</time>
      </trkpt>
      <trkpt lat="43.17373" lon="6.6063">
        <ele>23</ele>
        <time>2020-10-25T09:12:25Z</time>
      </trkpt>
      <trkpt lat="43.1737" lon="6.60633">
        <ele>21.4</ele>
        <time>2020-10-25T09:12:36Z</time>
      </trkpt>
      <trkpt lat="43.17369" lon="6.60634">
        <ele>21.3</ele>
        <time>2020-10-25T09:12:37Z</time>
      </trkpt>
      <trkpt lat="43.17368" lon="6.60642">
        <ele>18.9</ele>
        <time>2020-10-25T09:13:01Z</time>
      </trkpt>
      <trkpt lat="43.17366" lon="6.60646">
        <ele>18.9</ele>
        <time>2020-10-25T09:13:05Z</time>
      </trkpt>
      <trkpt lat="43.17365" lon="6.60651">
        <ele>18.8</ele>
        <time>2020-10-25T09:13:09Z</time>
      </trkpt>
      <trkpt lat="43.17364" lon="6.60657">
        <ele>18.6</ele>
        <time>2020-10-25T09:13:13Z</time>
      </trkpt>
      <trkpt lat="43.17364" lon="6.60662">
        <ele>18.4</ele>
        <time>2020-10-25T09:13:18Z</time>
      </trkpt>
      <trkpt lat="43.17362" lon="6.60668">
        <ele>16.8</ele>
        <time>2020-10-25T09:13:30Z</time>
      </trkpt>
      <trkpt lat="43.1736" lon="6.60672">
        <ele>16.4</ele>
        <time>2020-10-25T09:13:35Z</time>
      </trkpt>
      <trkpt lat="43.1736" lon="6.60677">
        <ele>16</ele>
        <time>2020-10-25T09:13:38Z</time>
      </trkpt>
      <trkpt lat="43.17359" lon="6.60678">
        <ele>16</ele>
        <time>2020-10-25T09:13:39Z</time>
      </trkpt>
      <trkpt lat="43.17359" lon="6.60687">
        <ele>15.7</ele>
        <time>2020-10-25T09:13:45Z</time>
      </trkpt>
      <trkpt lat="43.1736" lon="6.60693">
        <ele>15.6</ele>
        <time>2020-10-25T09:13:48Z</time>
      </trkpt>
      <trkpt lat="43.17359" lon="6.60699">
        <ele>15.5</ele>
        <time>2020-10-25T09:13:53Z</time>
      </trkpt>
      <trkpt lat="43.17357" lon="6.60703">
        <ele>15.3</ele>
        <time>2020-10-25T09:13:58Z</time>
      </trkpt>
      <trkpt lat="43.17357" lon="6.60709">
        <ele>15.1</ele>
        <time>2020-10-25T09:14:02Z</time>
      </trkpt>
      <trkpt lat="43.17355" lon="6.60714">
        <ele>15.1</ele>
        <time>2020-10-25T09:14:07Z</time>
      </trkpt>
      <trkpt lat="43.17352" lon="6.60718">
        <ele>15.1</ele>
        <time>2020-10-25T09:14:11Z</time>
      </trkpt>
      <trkpt lat="43.17351" lon="6.60724">
        <ele>15</ele>
        <time>2020-10-25T09:14:15Z</time>
      </trkpt>
      <trkpt lat="43.17349" lon="6.60729">
        <ele>15.1</ele>
        <time>2020-10-25T09:14:19Z</time>
      </trkpt>
      <trkpt lat="43.17346" lon="6.60733">
        <ele>15.1</ele>
        <time>2020-10-25T09:14:23Z</time>
      </trkpt>
      <trkpt lat="43.17344" lon="6.60739">
        <ele>15.2</ele>
        <time>2020-10-25T09:14:27Z</time>
      </trkpt>
      <trkpt lat="43.17343" lon="6.60744">
        <ele>14.8</ele>
        <time>2020-10-25T09:14:31Z</time>
      </trkpt>
      <trkpt lat="43.17341" lon="6.60748">
        <ele>15</ele>
        <time>2020-10-25T09:14:36Z</time>
      </trkpt>
      <trkpt lat="43.17338" lon="6.60753">
        <ele>12.8</ele>
        <time>2020-10-25T09:15:29Z</time>
      </trkpt>
      <trkpt lat="43.17338" lon="6.60753">
        <ele>12.8</ele>
        <time>2020-10-25T09:15:30Z</time>
      </trkpt>
      <trkpt lat="43.17336" lon="6.60758">
        <ele>13.7</ele>
        <time>2020-10-25T09:24:02Z</time>
      </trkpt>
      <trkpt lat="43.17335" lon="6.60759">
        <ele>13.7</ele>
        <time>2020-10-25T09:24:03Z</time>
      </trkpt>
      <trkpt lat="43.17328" lon="6.60761">
        <ele>13.8</ele>
        <time>2020-10-25T09:24:11Z</time>
      </trkpt>
      <trkpt lat="43.17324" lon="6.60762">
        <ele>13.7</ele>
        <time>2020-10-25T09:24:15Z</time>
      </trkpt>
      <trkpt lat="43.17321" lon="6.60764">
        <ele>13.5</ele>
        <time>2020-10-25T09:24:20Z</time>
      </trkpt>
      <trkpt lat="43.17317" lon="6.60766">
        <ele>13.2</ele>
        <time>2020-10-25T09:24:24Z</time>
      </trkpt>
      <trkpt lat="43.17313" lon="6.60769">
        <ele>12.6</ele>
        <time>2020-10-25T09:24:29Z</time>
      </trkpt>
      <trkpt lat="43.17312" lon="6.60774">
        <ele>12.5</ele>
        <time>2020-10-25T09:24:34Z</time>
      </trkpt>
      <trkpt lat="43.17311" lon="6.6078">
        <ele>12.6</ele>
        <time>2020-10-25T09:24:40Z</time>
      </trkpt>
      <trkpt lat="43.17308" lon="6.60783">
        <ele>13</ele>
        <time>2020-10-25T09:24:44Z</time>
      </trkpt>
      <trkpt lat="43.17305" lon="6.60786">
        <ele>12.9</ele>
        <time>2020-10-25T09:24:47Z</time>
      </trkpt>
      <trkpt lat="43.17302" lon="6.60789">
        <ele>13</ele>
        <time>2020-10-25T09:24:51Z</time>
      </trkpt>
      <trkpt lat="43.17299" lon="6.60792">
        <ele>13.4</ele>
        <time>2020-10-25T09:24:55Z</time>
      </trkpt>
      <trkpt lat="43.17296" lon="6.60794">
        <ele>13.7</ele>
        <time>2020-10-25T09:24:59Z</time>
      </trkpt>
      <trkpt lat="43.17294" lon="6.60798">
        <ele>13.8</ele>
        <time>2020-10-25T09:25:02Z</time>
      </trkpt>
      <trkpt lat="43.17293" lon="6.60804">
        <ele>13.9</ele>
        <time>2020-10-25T09:25:06Z</time>
      </trkpt>
      <trkpt lat="43.17292" lon="6.60805">
        <ele>14</ele>
        <time>2020-10-25T09:25:07Z</time>
      </trkpt>
      <trkpt lat="43.17287" lon="6.60812">
        <ele>13.4</ele>
        <time>2020-10-25T09:25:15Z</time>
      </trkpt>
      <trkpt lat="43.17284" lon="6.60815">
        <ele>13.3</ele>
        <time>2020-10-25T09:25:19Z</time>
      </trkpt>
      <trkpt lat="43.17281" lon="6.60818">
        <ele>13.2</ele>
        <time>2020-10-25T09:25:23Z</time>
      </trkpt>
      <trkpt lat="43.17278" lon="6.60823">
        <ele>13</ele>
        <time>2020-10-25T09:25:28Z</time>
      </trkpt>
      <trkpt lat="43.17275" lon="6.60828">
        <ele>12.9</ele>
        <time>2020-10-25T09:25:33Z</time>
      </trkpt>
      <trkpt lat="43.17272" lon="6.60831">
        <ele>12.8</ele>
        <time>2020-10-25T09:25:37Z</time>
      </trkpt>
      <trkpt lat="43.17269" lon="6.60834">
        <ele>12.6</ele>
        <time>2020-10-25T09:25:41Z</time>
      </trkpt>
      <trkpt lat="43.17266" lon="6.60836">
        <ele>12.6</ele>
        <time>2020-10-25T09:26:10Z</time>
      </trkpt>
      <trkpt lat="43.17265" lon="6.60837">
        <ele>12.6</ele>
        <time>2020-10-25T09:26:11Z</time>
      </trkpt>
      <trkpt lat="43.17258" lon="6.60842">
        <ele>13.3</ele>
        <time>2020-10-25T09:27:07Z</time>
      </trkpt>
      <trkpt lat="43.17255" lon="6.60844">
        <ele>13</ele>
        <time>2020-10-25T09:27:12Z</time>
      </trkpt>
      <trkpt lat="43.17254" lon="6.60844">
        <ele>13</ele>
        <time>2020-10-25T09:27:13Z</time>
      </trkpt>
      <trkpt lat="43.17247" lon="6.60849">
        <ele>12.5</ele>
        <time>2020-10-25T09:27:37Z</time>
      </trkpt>
      <trkpt lat="43.17243" lon="6.60851">
        <ele>12.6</ele>
        <time>2020-10-25T09:27:42Z</time>
      </trkpt>
      <trkpt lat="43.17239" lon="6.60855">
        <ele>12.6</ele>
        <time>2020-10-25T09:27:47Z</time>
      </trkpt>
      <trkpt lat="43.17236" lon="6.60858">
        <ele>12.7</ele>
        <time>2020-10-25T09:27:52Z</time>
      </trkpt>
      <trkpt lat="43.17232" lon="6.6086">
        <ele>13</ele>
        <time>2020-10-25T09:27:58Z</time>
      </trkpt>
      <trkpt lat="43.17229" lon="6.60862">
        <ele>13.1</ele>
        <time>2020-10-25T09:28:02Z</time>
      </trkpt>
      <trkpt lat="43.17227" lon="6.60867">
        <ele>13</ele>
        <time>2020-10-25T09:28:41Z</time>
      </trkpt>
      <trkpt lat="43.17227" lon="6.60867">
        <ele>13</ele>
        <time>2020-10-25T09:28:42Z</time>
      </trkpt>
      <trkpt lat="43.17224" lon="6.60877">
        <ele>13.5</ele>
        <time>2020-10-25T09:29:02Z</time>
      </trkpt>
      <trkpt lat="43.1722" lon="6.60879">
        <ele>13.9</ele>
        <time>2020-10-25T09:29:08Z</time>
      </trkpt>
      <trkpt lat="43.17215" lon="6.60881">
        <ele>14.3</ele>
        <time>2020-10-25T09:29:13Z</time>
      </trkpt>
      <trkpt lat="43.17211" lon="6.60882">
        <ele>14.3</ele>
        <time>2020-10-25T09:29:17Z</time>
      </trkpt>
      <trkpt lat="43.17207" lon="6.60881">
        <ele>14.9</ele>
        <time>2020-10-25T09:29:23Z</time>
      </trkpt>
      <trkpt lat="43.17203" lon="6.6088">
        <ele>15</ele>
        <time>2020-10-25T09:29:31Z</time>
      </trkpt>
      <trkpt lat="43.17199" lon="6.6088">
        <ele>14.9</ele>
        <time>2020-10-25T09:29:41Z</time>
      </trkpt>
      <trkpt lat="43.17196" lon="6.60881">
        <ele>15.2</ele>
        <time>2020-10-25T09:29:48Z</time>
      </trkpt>
      <trkpt lat="43.17195" lon="6.60882">
        <ele>15.2</ele>
        <time>2020-10-25T09:29:49Z</time>
      </trkpt>
      <trkpt lat="43.17188" lon="6.6088">
        <ele>14.8</ele>
        <time>2020-10-25T09:30:03Z</time>
      </trkpt>
      <trkpt lat="43.17184" lon="6.60878">
        <ele>14.7</ele>
        <time>2020-10-25T09:30:09Z</time>
      </trkpt>
      <trkpt lat="43.1718" lon="6.60875">
        <ele>14.5</ele>
        <time>2020-10-25T09:30:13Z</time>
      </trkpt>
      <trkpt lat="43.17176" lon="6.60875">
        <ele>14.3</ele>
        <time>2020-10-25T09:30:23Z</time>
      </trkpt>
      <trkpt lat="43.17172" lon="6.60874">
        <ele>14.3</ele>
        <time>2020-10-25T09:30:32Z</time>
      </trkpt>
      <trkpt lat="43.17167" lon="6.60872">
        <ele>14.2</ele>
        <time>2020-10-25T09:30:36Z</time>
      </trkpt>
      <trkpt lat="43.17164" lon="6.60869">
        <ele>14.4</ele>
        <time>2020-10-25T09:30:41Z</time>
      </trkpt>
      <trkpt lat="43.17161" lon="6.60866">
        <ele>14.6</ele>
        <time>2020-10-25T09:30:47Z</time>
      </trkpt>
      <trkpt lat="43.17158" lon="6.60862">
        <ele>14.7</ele>
        <time>2020-10-25T09:30:53Z</time>
      </trkpt>
      <trkpt lat="43.17157" lon="6.60861">
        <ele>14.7</ele>
        <time>2020-10-25T09:30:54Z</time>
      </trkpt>
      <trkpt lat="43.17152" lon="6.60854">
        <ele>15</ele>
        <time>2020-10-25T09:31:01Z</time>
      </trkpt>
      <trkpt lat="43.17149" lon="6.6085">
        <ele>15.3</ele>
        <time>2020-10-25T09:31:07Z</time>
      </trkpt>
      <trkpt lat="43.17145" lon="6.60849">
        <ele>15.6</ele>
        <time>2020-10-25T09:31:14Z</time>
      </trkpt>
      <trkpt lat="43.17141" lon="6.60846">
        <ele>15.9</ele>
        <time>2020-10-25T09:31:20Z</time>
      </trkpt>
      <trkpt lat="43.17137" lon="6.60847">
        <ele>17.2</ele>
        <time>2020-10-25T09:31:33Z</time>
      </trkpt>
      <trkpt lat="43.17133" lon="6.60844">
        <ele>18.2</ele>
        <time>2020-10-25T09:31:40Z</time>
      </trkpt>
      <trkpt lat="43.17129" lon="6.60844">
        <ele>20.3</ele>
        <time>2020-10-25T09:31:58Z</time>
      </trkpt>
      <trkpt lat="43.17129" lon="6.60844">
        <ele>20.4</ele>
        <time>2020-10-25T09:31:59Z</time>
      </trkpt>
      <trkpt lat="43.17121" lon="6.6085">
        <ele>25.8</ele>
        <time>2020-10-25T09:32:44Z</time>
      </trkpt>
      <trkpt lat="43.17117" lon="6.60853">
        <ele>27.7</ele>
        <time>2020-10-25T09:32:58Z</time>
      </trkpt>
      <trkpt lat="43.17114" lon="6.60856">
        <ele>29</ele>
        <time>2020-10-25T09:33:08Z</time>
      </trkpt>
      <trkpt lat="43.17113" lon="6.60856">
        <ele>29.1</ele>
        <time>2020-10-25T09:33:09Z</time>
      </trkpt>
      <trkpt lat="43.17108" lon="6.60863">
        <ele>33.6</ele>
        <time>2020-10-25T09:33:45Z</time>
      </trkpt>
      <trkpt lat="43.17106" lon="6.60868">
        <ele>34.8</ele>
        <time>2020-10-25T09:33:53Z</time>
      </trkpt>
      <trkpt lat="43.17102" lon="6.60868">
        <ele>36</ele>
        <time>2020-10-25T09:34:01Z</time>
      </trkpt>
      <trkpt lat="43.17097" lon="6.60866">
        <ele>37.4</ele>
        <time>2020-10-25T09:34:16Z</time>
      </trkpt>
      <trkpt lat="43.17097" lon="6.60866">
        <ele>37.5</ele>
        <time>2020-10-25T09:34:17Z</time>
      </trkpt>
      <trkpt lat="43.17089" lon="6.60868">
        <ele>39.3</ele>
        <time>2020-10-25T09:34:33Z</time>
      </trkpt>
      <trkpt lat="43.17085" lon="6.60871">
        <ele>39.9</ele>
        <time>2020-10-25T09:34:40Z</time>
      </trkpt>
      <trkpt lat="43.17081" lon="6.60872">
        <ele>41.2</ele>
        <time>2020-10-25T09:34:55Z</time>
      </trkpt>
      <trkpt lat="43.17077" lon="6.6087">
        <ele>41.6</ele>
        <time>2020-10-25T09:35:03Z</time>
      </trkpt>
      <trkpt lat="43.17073" lon="6.60872">
        <ele>43</ele>
        <time>2020-10-25T09:35:12Z</time>
      </trkpt>
      <trkpt lat="43.17069" lon="6.60874">
        <ele>44.8</ele>
        <time>2020-10-25T09:35:24Z</time>
      </trkpt>
      <trkpt lat="43.17069" lon="6.60874">
        <ele>45</ele>
        <time>2020-10-25T09:35:25Z</time>
      </trkpt>
      <trkpt lat="43.17063" lon="6.60882">
        <ele>48.4</ele>
        <time>2020-10-25T09:35:54Z</time>
      </trkpt>
      <trkpt lat="43.17063" lon="6.60888">
        <ele>49.1</ele>
        <time>2020-10-25T09:35:59Z</time>
      </trkpt>
      <trkpt lat="43.17059" lon="6.60891">
        <ele>50</ele>
        <time>2020-10-25T09:36:07Z</time>
      </trkpt>
      <trkpt lat="43.17055" lon="6.60892">
        <ele>51.1</ele>
        <time>2020-10-25T09:36:16Z</time>
      </trkpt>
      <trkpt lat="43.17051" lon="6.60896">
        <ele>52.2</ele>
        <time>2020-10-25T09:36:27Z</time>
      </trkpt>
      <trkpt lat="43.17051" lon="6.60896">
        <ele>52.3</ele>
        <time>2020-10-25T09:36:28Z</time>
      </trkpt>
      <trkpt lat="43.17045" lon="6.60904">
        <ele>52.9</ele>
        <time>2020-10-25T09:36:36Z</time>
      </trkpt>
      <trkpt lat="43.17042" lon="6.60906">
        <ele>53.1</ele>
        <time>2020-10-25T09:36:40Z</time>
      </trkpt>
      <trkpt lat="43.17039" lon="6.6091">
        <ele>53.6</ele>
        <time>2020-10-25T09:36:48Z</time>
      </trkpt>
      <trkpt lat="43.17036" lon="6.60915">
        <ele>54.6</ele>
        <time>2020-10-25T09:36:56Z</time>
      </trkpt>
      <trkpt lat="43.17034" lon="6.60919">
        <ele>55.4</ele>
        <time>2020-10-25T09:37:02Z</time>
      </trkpt>
      <trkpt lat="43.17033" lon="6.60925">
        <ele>56</ele>
        <time>2020-10-25T09:37:11Z</time>
      </trkpt>
      <trkpt lat="43.1703" lon="6.60929">
        <ele>56.5</ele>
        <time>2020-10-25T09:37:19Z</time>
      </trkpt>
      <trkpt lat="43.17026" lon="6.60932">
        <ele>57.2</ele>
        <time>2020-10-25T09:37:26Z</time>
      </trkpt>
      <trkpt lat="43.17023" lon="6.60936">
        <ele>57.7</ele>
        <time>2020-10-25T09:37:33Z</time>
      </trkpt>
      <trkpt lat="43.17023" lon="6.60937">
        <ele>57.8</ele>
        <time>2020-10-25T09:37:34Z</time>
      </trkpt>
      <trkpt lat="43.17016" lon="6.60943">
        <ele>59</ele>
        <time>2020-10-25T09:37:45Z</time>
      </trkpt>
      <trkpt lat="43.17013" lon="6.60948">
        <ele>59.8</ele>
        <time>2020-10-25T09:37:52Z</time>
      </trkpt>
      <trkpt lat="43.1701" lon="6.60952">
        <ele>60.7</ele>
        <time>2020-10-25T09:37:58Z</time>
      </trkpt>
      <trkpt lat="43.17008" lon="6.60957">
        <ele>61.3</ele>
        <time>2020-10-25T09:38:03Z</time>
      </trkpt>
      <trkpt lat="43.17005" lon="6.6096">
        <ele>61.8</ele>
        <time>2020-10-25T09:38:08Z</time>
      </trkpt>
      <trkpt lat="43.17003" lon="6.60964">
        <ele>61.8</ele>
        <time>2020-10-25T09:38:12Z</time>
      </trkpt>
      <trkpt lat="43.17001" lon="6.60968">
        <ele>61.9</ele>
        <time>2020-10-25T09:38:17Z</time>
      </trkpt>
      <trkpt lat="43.16997" lon="6.60973">
        <ele>62.3</ele>
        <time>2020-10-25T09:38:24Z</time>
      </trkpt>
      <trkpt lat="43.16994" lon="6.60976">
        <ele>62.5</ele>
        <time>2020-10-25T09:38:31Z</time>
      </trkpt>
      <trkpt lat="43.1699" lon="6.60977">
        <ele>62.8</ele>
        <time>2020-10-25T09:38:35Z</time>
      </trkpt>
      <trkpt lat="43.16989" lon="6.60978">
        <ele>62.8</ele>
        <time>2020-10-25T09:38:36Z</time>
      </trkpt>
      <trkpt lat="43.16983" lon="6.6098">
        <ele>63.2</ele>
        <time>2020-10-25T09:38:43Z</time>
      </trkpt>
      <trkpt lat="43.1698" lon="6.60983">
        <ele>63.5</ele>
        <time>2020-10-25T09:38:47Z</time>
      </trkpt>
      <trkpt lat="43.16975" lon="6.60984">
        <ele>64.1</ele>
        <time>2020-10-25T09:38:52Z</time>
      </trkpt>
      <trkpt lat="43.16972" lon="6.60986">
        <ele>64.4</ele>
        <time>2020-10-25T09:38:56Z</time>
      </trkpt>
      <trkpt lat="43.16968" lon="6.60989">
        <ele>64.9</ele>
        <time>2020-10-25T09:39:01Z</time>
      </trkpt>
      <trkpt lat="43.16965" lon="6.60992">
        <ele>65.2</ele>
        <time>2020-10-25T09:39:05Z</time>
      </trkpt>
      <trkpt lat="43.16962" lon="6.60997">
        <ele>65.7</ele>
        <time>2020-10-25T09:39:11Z</time>
      </trkpt>
      <trkpt lat="43.1696" lon="6.61001">
        <ele>66.7</ele>
        <time>2020-10-25T09:39:19Z</time>
      </trkpt>
      <trkpt lat="43.16956" lon="6.61004">
        <ele>67</ele>
        <time>2020-10-25T09:39:25Z</time>
      </trkpt>
      <trkpt lat="43.16953" lon="6.61009">
        <ele>67.6</ele>
        <time>2020-10-25T09:39:32Z</time>
      </trkpt>
      <trkpt lat="43.16953" lon="6.61014">
        <ele>68.7</ele>
        <time>2020-10-25T09:39:41Z</time>
      </trkpt>
      <trkpt lat="43.16953" lon="6.61015">
        <ele>68.9</ele>
        <time>2020-10-25T09:39:42Z</time>
      </trkpt>
      <trkpt lat="43.16947" lon="6.61017">
        <ele>70.8</ele>
        <time>2020-10-25T09:40:44Z</time>
      </trkpt>
      <trkpt lat="43.16947" lon="6.61018">
        <ele>71</ele>
        <time>2020-10-25T09:40:45Z</time>
      </trkpt>
      <trkpt lat="43.16947" lon="6.61029">
        <ele>74.2</ele>
        <time>2020-10-25T09:41:10Z</time>
      </trkpt>
      <trkpt lat="43.16945" lon="6.61033">
        <ele>75.3</ele>
        <time>2020-10-25T09:41:18Z</time>
      </trkpt>
      <trkpt lat="43.16941" lon="6.61035">
        <ele>75.9</ele>
        <time>2020-10-25T09:41:24Z</time>
      </trkpt>
      <trkpt lat="43.16938" lon="6.61039">
        <ele>76.7</ele>
        <time>2020-10-25T09:41:29Z</time>
      </trkpt>
      <trkpt lat="43.16935" lon="6.61042">
        <ele>77.5</ele>
        <time>2020-10-25T09:41:38Z</time>
      </trkpt>
      <trkpt lat="43.16933" lon="6.61048">
        <ele>78.8</ele>
        <time>2020-10-25T09:41:51Z</time>
      </trkpt>
      <trkpt lat="43.16933" lon="6.61049">
        <ele>78.8</ele>
        <time>2020-10-25T09:41:52Z</time>
      </trkpt>
      <trkpt lat="43.16932" lon="6.6106">
        <ele>81.3</ele>
        <time>2020-10-25T09:42:28Z</time>
      </trkpt>
      <trkpt lat="43.16932" lon="6.61066">
        <ele>83.6</ele>
        <time>2020-10-25T09:42:51Z</time>
      </trkpt>
      <trkpt lat="43.1693" lon="6.61071">
        <ele>85.6</ele>
        <time>2020-10-25T09:43:10Z</time>
      </trkpt>
      <trkpt lat="43.1693" lon="6.61072">
        <ele>85.7</ele>
        <time>2020-10-25T09:43:11Z</time>
      </trkpt>
      <trkpt lat="43.16925" lon="6.6108">
        <ele>88.3</ele>
        <time>2020-10-25T09:43:35Z</time>
      </trkpt>
      <trkpt lat="43.16924" lon="6.61086">
        <ele>89.2</ele>
        <time>2020-10-25T09:43:44Z</time>
      </trkpt>
      <trkpt lat="43.16923" lon="6.61092">
        <ele>90.8</ele>
        <time>2020-10-25T09:43:57Z</time>
      </trkpt>
      <trkpt lat="43.16926" lon="6.61096">
        <ele>92.3</ele>
        <time>2020-10-25T09:44:12Z</time>
      </trkpt>
      <trkpt lat="43.16926" lon="6.61096">
        <ele>92.5</ele>
        <time>2020-10-25T09:44:13Z</time>
      </trkpt>
      <trkpt lat="43.1693" lon="6.61105">
        <ele>96</ele>
        <time>2020-10-25T09:44:42Z</time>
      </trkpt>
      <trkpt lat="43.16932" lon="6.6111">
        <ele>97.9</ele>
        <time>2020-10-25T09:44:59Z</time>
      </trkpt>
      <trkpt lat="43.16933" lon="6.61116">
        <ele>100</ele>
        <time>2020-10-25T09:45:11Z</time>
      </trkpt>
      <trkpt lat="43.16934" lon="6.61122">
        <ele>101.3</ele>
        <time>2020-10-25T09:45:28Z</time>
      </trkpt>
      <trkpt lat="43.16934" lon="6.61122">
        <ele>101.5</ele>
        <time>2020-10-25T09:45:29Z</time>
      </trkpt>
      <trkpt lat="43.16936" lon="6.61133">
        <ele>104</ele>
        <time>2020-10-25T09:45:52Z</time>
      </trkpt>
      <trkpt lat="43.16937" lon="6.61139">
        <ele>105.4</ele>
        <time>2020-10-25T09:46:00Z</time>
      </trkpt>
      <trkpt lat="43.16936" lon="6.61145">
        <ele>105.9</ele>
        <time>2020-10-25T09:46:07Z</time>
      </trkpt>
      <trkpt lat="43.16937" lon="6.61151">
        <ele>106.2</ele>
        <time>2020-10-25T09:46:14Z</time>
      </trkpt>
      <trkpt lat="43.16937" lon="6.61157">
        <ele>106.4</ele>
        <time>2020-10-25T09:46:20Z</time>
      </trkpt>
      <trkpt lat="43.16936" lon="6.61163">
        <ele>106.5</ele>
        <time>2020-10-25T09:46:31Z</time>
      </trkpt>
      <trkpt lat="43.16936" lon="6.61164">
        <ele>106.5</ele>
        <time>2020-10-25T09:46:32Z</time>
      </trkpt>
      <trkpt lat="43.16932" lon="6.61173">
        <ele>106.4</ele>
        <time>2020-10-25T09:49:14Z</time>
      </trkpt>
      <trkpt lat="43.16932" lon="6.61174">
        <ele>106.4</ele>
        <time>2020-10-25T09:49:15Z</time>
      </trkpt>
      <trkpt lat="43.16929" lon="6.61183">
        <ele>106.1</ele>
        <time>2020-10-25T09:49:24Z</time>
      </trkpt>
      <trkpt lat="43.16927" lon="6.61188">
        <ele>105.9</ele>
        <time>2020-10-25T09:49:28Z</time>
      </trkpt>
      <trkpt lat="43.16926" lon="6.61193">
        <ele>105.9</ele>
        <time>2020-10-25T09:49:32Z</time>
      </trkpt>
      <trkpt lat="43.16925" lon="6.61199">
        <ele>106</ele>
        <time>2020-10-25T09:49:36Z</time>
      </trkpt>
      <trkpt lat="43.16924" lon="6.61204">
        <ele>105.8</ele>
        <time>2020-10-25T09:49:40Z</time>
      </trkpt>
      <trkpt lat="43.16923" lon="6.61209">
        <ele>105.9</ele>
        <time>2020-10-25T09:49:44Z</time>
      </trkpt>
      <trkpt lat="43.1692" lon="6.61214">
        <ele>105.9</ele>
        <time>2020-10-25T09:49:48Z</time>
      </trkpt>
      <trkpt lat="43.16917" lon="6.61218">
        <ele>105.9</ele>
        <time>2020-10-25T09:49:52Z</time>
      </trkpt>
      <trkpt lat="43.16915" lon="6.61222">
        <ele>105.9</ele>
        <time>2020-10-25T09:49:57Z</time>
      </trkpt>
      <trkpt lat="43.16913" lon="6.61227">
        <ele>105.7</ele>
        <time>2020-10-25T09:50:02Z</time>
      </trkpt>
      <trkpt lat="43.16912" lon="6.61232">
        <ele>105.8</ele>
        <time>2020-10-25T09:50:07Z</time>
      </trkpt>
      <trkpt lat="43.16911" lon="6.61238">
        <ele>106.1</ele>
        <time>2020-10-25T09:50:12Z</time>
      </trkpt>
      <trkpt lat="43.1691" lon="6.61243">
        <ele>106.1</ele>
        <time>2020-10-25T09:50:17Z</time>
      </trkpt>
      <trkpt lat="43.16909" lon="6.61244">
        <ele>106</ele>
        <time>2020-10-25T09:50:18Z</time>
      </trkpt>
      <trkpt lat="43.16909" lon="6.61253">
        <ele>105.3</ele>
        <time>2020-10-25T09:50:27Z</time>
      </trkpt>
      <trkpt lat="43.16908" lon="6.61259">
        <ele>105.1</ele>
        <time>2020-10-25T09:50:31Z</time>
      </trkpt>
      <trkpt lat="43.16906" lon="6.61263">
        <ele>105</ele>
        <time>2020-10-25T09:50:36Z</time>
      </trkpt>
      <trkpt lat="43.16904" lon="6.61267">
        <ele>105</ele>
        <time>2020-10-25T09:50:40Z</time>
      </trkpt>
      <trkpt lat="43.16901" lon="6.61271">
        <ele>104.9</ele>
        <time>2020-10-25T09:50:45Z</time>
      </trkpt>
      <trkpt lat="43.16898" lon="6.61276">
        <ele>104.6</ele>
        <time>2020-10-25T09:50:50Z</time>
      </trkpt>
      <trkpt lat="43.16895" lon="6.61279">
        <ele>104.4</ele>
        <time>2020-10-25T09:50:55Z</time>
      </trkpt>
      <trkpt lat="43.16893" lon="6.61284">
        <ele>104.2</ele>
        <time>2020-10-25T09:51:01Z</time>
      </trkpt>
      <trkpt lat="43.16889" lon="6.61287">
        <ele>104</ele>
        <time>2020-10-25T09:51:06Z</time>
      </trkpt>
      <trkpt lat="43.16886" lon="6.61291">
        <ele>104</ele>
        <time>2020-10-25T09:51:12Z</time>
      </trkpt>
      <trkpt lat="43.16882" lon="6.61294">
        <ele>103.7</ele>
        <time>2020-10-25T09:51:17Z</time>
      </trkpt>
      <trkpt lat="43.16879" lon="6.61296">
        <ele>103.5</ele>
        <time>2020-10-25T09:51:20Z</time>
      </trkpt>
      <trkpt lat="43.16878" lon="6.61297">
        <ele>103.6</ele>
        <time>2020-10-25T09:51:21Z</time>
      </trkpt>
      <trkpt lat="43.16872" lon="6.61302">
        <ele>103.5</ele>
        <time>2020-10-25T09:51:28Z</time>
      </trkpt>
      <trkpt lat="43.16869" lon="6.61305">
        <ele>103.5</ele>
        <time>2020-10-25T09:51:31Z</time>
      </trkpt>
      <trkpt lat="43.16867" lon="6.6131">
        <ele>103.6</ele>
        <time>2020-10-25T09:51:36Z</time>
      </trkpt>
      <trkpt lat="43.16865" lon="6.61313">
        <ele>103.6</ele>
        <time>2020-10-25T09:51:39Z</time>
      </trkpt>
      <trkpt lat="43.16861" lon="6.61316">
        <ele>103.4</ele>
        <time>2020-10-25T09:51:43Z</time>
      </trkpt>
      <trkpt lat="43.16858" lon="6.61319">
        <ele>103.8</ele>
        <time>2020-10-25T09:51:47Z</time>
      </trkpt>
      <trkpt lat="43.16855" lon="6.61322">
        <ele>104.1</ele>
        <time>2020-10-25T09:51:51Z</time>
      </trkpt>
      <trkpt lat="43.16851" lon="6.61325">
        <ele>104.2</ele>
        <time>2020-10-25T09:51:56Z</time>
      </trkpt>
      <trkpt lat="43.16848" lon="6.61328">
        <ele>104.3</ele>
        <time>2020-10-25T09:52:01Z</time>
      </trkpt>
      <trkpt lat="43.16845" lon="6.61331">
        <ele>104.4</ele>
        <time>2020-10-25T09:52:07Z</time>
      </trkpt>
      <trkpt lat="43.16841" lon="6.61334">
        <ele>104.5</ele>
        <time>2020-10-25T09:52:13Z</time>
      </trkpt>
      <trkpt lat="43.16838" lon="6.61337">
        <ele>104.1</ele>
        <time>2020-10-25T09:52:18Z</time>
      </trkpt>
      <trkpt lat="43.16836" lon="6.61341">
        <ele>104</ele>
        <time>2020-10-25T09:52:21Z</time>
      </trkpt>
      <trkpt lat="43.16835" lon="6.61342">
        <ele>104</ele>
        <time>2020-10-25T09:52:22Z</time>
      </trkpt>
      <trkpt lat="43.16829" lon="6.61347">
        <ele>103.6</ele>
        <time>2020-10-25T09:52:29Z</time>
      </trkpt>
      <trkpt lat="43.16825" lon="6.6135">
        <ele>103.6</ele>
        <time>2020-10-25T09:52:34Z</time>
      </trkpt>
      <trkpt lat="43.16822" lon="6.61354">
        <ele>103.7</ele>
        <time>2020-10-25T09:52:39Z</time>
      </trkpt>
      <trkpt lat="43.16819" lon="6.61356">
        <ele>103.7</ele>
        <time>2020-10-25T09:52:42Z</time>
      </trkpt>
      <trkpt lat="43.16816" lon="6.6136">
        <ele>103.7</ele>
        <time>2020-10-25T09:52:45Z</time>
      </trkpt>
      <trkpt lat="43.16813" lon="6.61363">
        <ele>103.7</ele>
        <time>2020-10-25T09:52:48Z</time>
      </trkpt>
      <trkpt lat="43.16809" lon="6.61365">
        <ele>103.6</ele>
        <time>2020-10-25T09:52:51Z</time>
      </trkpt>
      <trkpt lat="43.16806" lon="6.61368">
        <ele>103.7</ele>
        <time>2020-10-25T09:52:54Z</time>
      </trkpt>
      <trkpt lat="43.16802" lon="6.61371">
        <ele>103.9</ele>
        <time>2020-10-25T09:52:58Z</time>
      </trkpt>
      <trkpt lat="43.168" lon="6.61375">
        <ele>103.9</ele>
        <time>2020-10-25T09:53:01Z</time>
      </trkpt>
      <trkpt lat="43.16798" lon="6.61379">
        <ele>103.9</ele>
        <time>2020-10-25T09:53:04Z</time>
      </trkpt>
      <trkpt lat="43.16796" lon="6.61383">
        <ele>103.9</ele>
        <time>2020-10-25T09:53:07Z</time>
      </trkpt>
      <trkpt lat="43.16794" lon="6.61388">
        <ele>103.8</ele>
        <time>2020-10-25T09:53:10Z</time>
      </trkpt>
      <trkpt lat="43.16791" lon="6.61392">
        <ele>103.8</ele>
        <time>2020-10-25T09:53:14Z</time>
      </trkpt>
      <trkpt lat="43.16788" lon="6.61396">
        <ele>103.8</ele>
        <time>2020-10-25T09:53:19Z</time>
      </trkpt>
      <trkpt lat="43.16785" lon="6.614">
        <ele>103.9</ele>
        <time>2020-10-25T09:53:24Z</time>
      </trkpt>
      <trkpt lat="43.16785" lon="6.61401">
        <ele>103.9</ele>
        <time>2020-10-25T09:53:25Z</time>
      </trkpt>
      <trkpt lat="43.16781" lon="6.6141">
        <ele>103.6</ele>
        <time>2020-10-25T09:53:37Z</time>
      </trkpt>
      <trkpt lat="43.16779" lon="6.61415">
        <ele>104</ele>
        <time>2020-10-25T09:53:49Z</time>
      </trkpt>
      <trkpt lat="43.16777" lon="6.61419">
        <ele>104.4</ele>
        <time>2020-10-25T09:53:54Z</time>
      </trkpt>
      <trkpt lat="43.16776" lon="6.61425">
        <ele>104.5</ele>
        <time>2020-10-25T09:53:59Z</time>
      </trkpt>
      <trkpt lat="43.16774" lon="6.6143">
        <ele>104.6</ele>
        <time>2020-10-25T09:54:06Z</time>
      </trkpt>
      <trkpt lat="43.16772" lon="6.61435">
        <ele>104.4</ele>
        <time>2020-10-25T09:54:12Z</time>
      </trkpt>
      <trkpt lat="43.1677" lon="6.6144">
        <ele>104.1</ele>
        <time>2020-10-25T09:54:17Z</time>
      </trkpt>
      <trkpt lat="43.16768" lon="6.61445">
        <ele>103</ele>
        <time>2020-10-25T09:54:50Z</time>
      </trkpt>
      <trkpt lat="43.16768" lon="6.61446">
        <ele>103.1</ele>
        <time>2020-10-25T09:54:51Z</time>
      </trkpt>
      <trkpt lat="43.16765" lon="6.61456">
        <ele>102.7</ele>
        <time>2020-10-25T09:54:59Z</time>
      </trkpt>
      <trkpt lat="43.16764" lon="6.61462">
        <ele>102.6</ele>
        <time>2020-10-25T09:55:04Z</time>
      </trkpt>
      <trkpt lat="43.16763" lon="6.61467">
        <ele>102.6</ele>
        <time>2020-10-25T09:55:09Z</time>
      </trkpt>
      <trkpt lat="43.16763" lon="6.61473">
        <ele>103.2</ele>
        <time>2020-10-25T09:55:15Z</time>
      </trkpt>
      <trkpt lat="43.1676" lon="6.61478">
        <ele>103.5</ele>
        <time>2020-10-25T09:55:20Z</time>
      </trkpt>
      <trkpt lat="43.16758" lon="6.61482">
        <ele>103.8</ele>
        <time>2020-10-25T09:55:24Z</time>
      </trkpt>
      <trkpt lat="43.16757" lon="6.61487">
        <ele>104.1</ele>
        <time>2020-10-25T09:55:28Z</time>
      </trkpt>
      <trkpt lat="43.16755" lon="6.61492">
        <ele>104.4</ele>
        <time>2020-10-25T09:55:32Z</time>
      </trkpt>
      <trkpt lat="43.16754" lon="6.61497">
        <ele>104.7</ele>
        <time>2020-10-25T09:55:36Z</time>
      </trkpt>
      <trkpt lat="43.16755" lon="6.61503">
        <ele>105.1</ele>
        <time>2020-10-25T09:55:41Z</time>
      </trkpt>
      <trkpt lat="43.16754" lon="6.61508">
        <ele>105</ele>
        <time>2020-10-25T09:55:46Z</time>
      </trkpt>
      <trkpt lat="43.16752" lon="6.61513">
        <ele>105.3</ele>
        <time>2020-10-25T09:55:50Z</time>
      </trkpt>
      <trkpt lat="43.16751" lon="6.61519">
        <ele>105.5</ele>
        <time>2020-10-25T09:55:54Z</time>
      </trkpt>
      <trkpt lat="43.16752" lon="6.6152">
        <ele>105.6</ele>
        <time>2020-10-25T09:55:55Z</time>
      </trkpt>
      <trkpt lat="43.16749" lon="6.61528">
        <ele>106.3</ele>
        <time>2020-10-25T09:56:03Z</time>
      </trkpt>
      <trkpt lat="43.16746" lon="6.61532">
        <ele>106.4</ele>
        <time>2020-10-25T09:56:07Z</time>
      </trkpt>
      <trkpt lat="43.16745" lon="6.61538">
        <ele>106.5</ele>
        <time>2020-10-25T09:56:12Z</time>
      </trkpt>
      <trkpt lat="43.16744" lon="6.61543">
        <ele>106.6</ele>
        <time>2020-10-25T09:56:17Z</time>
      </trkpt>
      <trkpt lat="43.16742" lon="6.61547">
        <ele>106.5</ele>
        <time>2020-10-25T09:56:21Z</time>
      </trkpt>
      <trkpt lat="43.1674" lon="6.61552">
        <ele>106.5</ele>
        <time>2020-10-25T09:56:25Z</time>
      </trkpt>
      <trkpt lat="43.16738" lon="6.61557">
        <ele>106.3</ele>
        <time>2020-10-25T09:56:29Z</time>
      </trkpt>
      <trkpt lat="43.16737" lon="6.61563">
        <ele>106.5</ele>
        <time>2020-10-25T09:56:33Z</time>
      </trkpt>
      <trkpt lat="43.16737" lon="6.61568">
        <ele>106.7</ele>
        <time>2020-10-25T09:56:37Z</time>
      </trkpt>
      <trkpt lat="43.16736" lon="6.61573">
        <ele>107.1</ele>
        <time>2020-10-25T09:56:41Z</time>
      </trkpt>
      <trkpt lat="43.16735" lon="6.61579">
        <ele>107.4</ele>
        <time>2020-10-25T09:56:45Z</time>
      </trkpt>
      <trkpt lat="43.16735" lon="6.61584">
        <ele>107.6</ele>
        <time>2020-10-25T09:56:49Z</time>
      </trkpt>
      <trkpt lat="43.16733" lon="6.61588">
        <ele>107.8</ele>
        <time>2020-10-25T09:56:53Z</time>
      </trkpt>
      <trkpt lat="43.1673" lon="6.61592">
        <ele>108</ele>
        <time>2020-10-25T09:56:56Z</time>
      </trkpt>
      <trkpt lat="43.16729" lon="6.61593">
        <ele>108</ele>
        <time>2020-10-25T09:56:57Z</time>
      </trkpt>
      <trkpt lat="43.16725" lon="6.61599">
        <ele>107.7</ele>
        <time>2020-10-25T09:57:03Z</time>
      </trkpt>
      <trkpt lat="43.16722" lon="6.61601">
        <ele>107.5</ele>
        <time>2020-10-25T09:57:06Z</time>
      </trkpt>
      <trkpt lat="43.16719" lon="6.61604">
        <ele>107.4</ele>
        <time>2020-10-25T09:57:09Z</time>
      </trkpt>
      <trkpt lat="43.16717" lon="6.61607">
        <ele>107.1</ele>
        <time>2020-10-25T09:57:12Z</time>
      </trkpt>
      <trkpt lat="43.16713" lon="6.61609">
        <ele>107.2</ele>
        <time>2020-10-25T09:57:15Z</time>
      </trkpt>
      <trkpt lat="43.1671" lon="6.61612">
        <ele>107.2</ele>
        <time>2020-10-25T09:57:19Z</time>
      </trkpt>
      <trkpt lat="43.16707" lon="6.61614">
        <ele>106.9</ele>
        <time>2020-10-25T09:57:22Z</time>
      </trkpt>
      <trkpt lat="43.16704" lon="6.61616">
        <ele>106.8</ele>
        <time>2020-10-25T09:57:25Z</time>
      </trkpt>
      <trkpt lat="43.167" lon="6.61619">
        <ele>106.6</ele>
        <time>2020-10-25T09:57:28Z</time>
      </trkpt>
      <trkpt lat="43.16698" lon="6.61621">
        <ele>106.5</ele>
        <time>2020-10-25T09:57:31Z</time>
      </trkpt>
      <trkpt lat="43.16695" lon="6.61625">
        <ele>106.3</ele>
        <time>2020-10-25T09:57:34Z</time>
      </trkpt>
      <trkpt lat="43.16693" lon="6.61629">
        <ele>106.2</ele>
        <time>2020-10-25T09:57:37Z</time>
      </trkpt>
      <trkpt lat="43.1669" lon="6.61633">
        <ele>106.2</ele>
        <time>2020-10-25T09:57:41Z</time>
      </trkpt>
      <trkpt lat="43.16687" lon="6.61636">
        <ele>106.3</ele>
        <time>2020-10-25T09:57:46Z</time>
      </trkpt>
      <trkpt lat="43.16684" lon="6.6164">
        <ele>106</ele>
        <time>2020-10-25T09:57:50Z</time>
      </trkpt>
      <trkpt lat="43.1668" lon="6.61643">
        <ele>106</ele>
        <time>2020-10-25T09:57:54Z</time>
      </trkpt>
      <trkpt lat="43.16677" lon="6.61647">
        <ele>105.7</ele>
        <time>2020-10-25T09:57:59Z</time>
      </trkpt>
      <trkpt lat="43.16677" lon="6.61647">
        <ele>105.7</ele>
        <time>2020-10-25T09:58:00Z</time>
      </trkpt>
      <trkpt lat="43.1667" lon="6.61652">
        <ele>105.1</ele>
        <time>2020-10-25T09:58:11Z</time>
      </trkpt>
      <trkpt lat="43.16666" lon="6.61653">
        <ele>104.8</ele>
        <time>2020-10-25T09:58:16Z</time>
      </trkpt>
      <trkpt lat="43.16662" lon="6.61655">
        <ele>104.6</ele>
        <time>2020-10-25T09:58:21Z</time>
      </trkpt>
      <trkpt lat="43.16658" lon="6.61657">
        <ele>104.3</ele>
        <time>2020-10-25T09:58:26Z</time>
      </trkpt>
      <trkpt lat="43.16655" lon="6.61659">
        <ele>104.5</ele>
        <time>2020-10-25T09:58:29Z</time>
      </trkpt>
      <trkpt lat="43.16652" lon="6.61661">
        <ele>104.6</ele>
        <time>2020-10-25T09:58:32Z</time>
      </trkpt>
      <trkpt lat="43.16648" lon="6.61664">
        <ele>104.8</ele>
        <time>2020-10-25T09:58:36Z</time>
      </trkpt>
      <trkpt lat="43.16645" lon="6.61667">
        <ele>104.6</ele>
        <time>2020-10-25T09:58:40Z</time>
      </trkpt>
      <trkpt lat="43.16642" lon="6.6167">
        <ele>104.8</ele>
        <time>2020-10-25T09:58:44Z</time>
      </trkpt>
      <trkpt lat="43.1664" lon="6.61674">
        <ele>104.9</ele>
        <time>2020-10-25T09:58:48Z</time>
      </trkpt>
      <trkpt lat="43.16637" lon="6.61679">
        <ele>105</ele>
        <time>2020-10-25T09:58:52Z</time>
      </trkpt>
      <trkpt lat="43.16633" lon="6.61682">
        <ele>105.6</ele>
        <time>2020-10-25T09:58:57Z</time>
      </trkpt>
      <trkpt lat="43.16631" lon="6.61687">
        <ele>106.1</ele>
        <time>2020-10-25T09:59:03Z</time>
      </trkpt>
      <trkpt lat="43.1663" lon="6.61687">
        <ele>106.2</ele>
        <time>2020-10-25T09:59:04Z</time>
      </trkpt>
      <trkpt lat="43.16625" lon="6.61695">
        <ele>106.3</ele>
        <time>2020-10-25T09:59:14Z</time>
      </trkpt>
      <trkpt lat="43.16622" lon="6.61699">
        <ele>106</ele>
        <time>2020-10-25T09:59:21Z</time>
      </trkpt>
      <trkpt lat="43.16619" lon="6.61702">
        <ele>105.6</ele>
        <time>2020-10-25T09:59:26Z</time>
      </trkpt>
      <trkpt lat="43.16616" lon="6.61706">
        <ele>105</ele>
        <time>2020-10-25T09:59:32Z</time>
      </trkpt>
      <trkpt lat="43.16613" lon="6.61709">
        <ele>104.5</ele>
        <time>2020-10-25T09:59:37Z</time>
      </trkpt>
      <trkpt lat="43.1661" lon="6.61713">
        <ele>103.8</ele>
        <time>2020-10-25T09:59:43Z</time>
      </trkpt>
      <trkpt lat="43.16608" lon="6.61719">
        <ele>103.2</ele>
        <time>2020-10-25T09:59:48Z</time>
      </trkpt>
      <trkpt lat="43.16605" lon="6.61723">
        <ele>102.4</ele>
        <time>2020-10-25T09:59:53Z</time>
      </trkpt>
      <trkpt lat="43.16603" lon="6.61728">
        <ele>100.7</ele>
        <time>2020-10-25T10:00:05Z</time>
      </trkpt>
      <trkpt lat="43.16603" lon="6.61728">
        <ele>100.6</ele>
        <time>2020-10-25T10:00:06Z</time>
      </trkpt>
      <trkpt lat="43.16598" lon="6.61736">
        <ele>98.9</ele>
        <time>2020-10-25T10:00:20Z</time>
      </trkpt>
      <trkpt lat="43.16595" lon="6.6174">
        <ele>98.3</ele>
        <time>2020-10-25T10:00:26Z</time>
      </trkpt>
      <trkpt lat="43.16592" lon="6.61743">
        <ele>98</ele>
        <time>2020-10-25T10:00:30Z</time>
      </trkpt>
      <trkpt lat="43.16589" lon="6.61748">
        <ele>97.6</ele>
        <time>2020-10-25T10:00:34Z</time>
      </trkpt>
      <trkpt lat="43.16585" lon="6.6175">
        <ele>97.2</ele>
        <time>2020-10-25T10:00:38Z</time>
      </trkpt>
      <trkpt lat="43.16582" lon="6.61753">
        <ele>96.1</ele>
        <time>2020-10-25T10:00:42Z</time>
      </trkpt>
      <trkpt lat="43.16578" lon="6.61756">
        <ele>95.6</ele>
        <time>2020-10-25T10:00:46Z</time>
      </trkpt>
      <trkpt lat="43.16574" lon="6.61758">
        <ele>94.6</ele>
        <time>2020-10-25T10:00:52Z</time>
      </trkpt>
      <trkpt lat="43.1657" lon="6.61761">
        <ele>93.7</ele>
        <time>2020-10-25T10:00:58Z</time>
      </trkpt>
      <trkpt lat="43.16567" lon="6.61765">
        <ele>92.7</ele>
        <time>2020-10-25T10:01:03Z</time>
      </trkpt>
      <trkpt lat="43.16564" lon="6.61767">
        <ele>92.6</ele>
        <time>2020-10-25T10:01:07Z</time>
      </trkpt>
      <trkpt lat="43.16563" lon="6.61768">
        <ele>92.6</ele>
        <time>2020-10-25T10:01:08Z</time>
      </trkpt>
      <trkpt lat="43.16557" lon="6.61772">
        <ele>91.9</ele>
        <time>2020-10-25T10:01:16Z</time>
      </trkpt>
      <trkpt lat="43.16554" lon="6.61774">
        <ele>91.2</ele>
        <time>2020-10-25T10:01:21Z</time>
      </trkpt>
      <trkpt lat="43.1655" lon="6.61776">
        <ele>91</ele>
        <time>2020-10-25T10:01:27Z</time>
      </trkpt>
      <trkpt lat="43.16546" lon="6.61776">
        <ele>90.8</ele>
        <time>2020-10-25T10:01:31Z</time>
      </trkpt>
      <trkpt lat="43.16542" lon="6.61777">
        <ele>90.6</ele>
        <time>2020-10-25T10:01:35Z</time>
      </trkpt>
      <trkpt lat="43.16537" lon="6.61778">
        <ele>90.1</ele>
        <time>2020-10-25T10:01:41Z</time>
      </trkpt>
      <trkpt lat="43.16534" lon="6.61782">
        <ele>89.7</ele>
        <time>2020-10-25T10:01:47Z</time>
      </trkpt>
      <trkpt lat="43.16531" lon="6.61785">
        <ele>89.2</ele>
        <time>2020-10-25T10:01:53Z</time>
      </trkpt>
      <trkpt lat="43.16527" lon="6.61787">
        <ele>88.5</ele>
        <time>2020-10-25T10:02:02Z</time>
      </trkpt>
      <trkpt lat="43.16523" lon="6.61791">
        <ele>86.8</ele>
        <time>2020-10-25T10:02:39Z</time>
      </trkpt>
      <trkpt lat="43.16523" lon="6.61791">
        <ele>86.9</ele>
        <time>2020-10-25T10:02:40Z</time>
      </trkpt>
      <trkpt lat="43.16518" lon="6.618">
        <ele>86.1</ele>
        <time>2020-10-25T10:03:26Z</time>
      </trkpt>
      <trkpt lat="43.16514" lon="6.61801">
        <ele>86.1</ele>
        <time>2020-10-25T10:03:30Z</time>
      </trkpt>
      <trkpt lat="43.1651" lon="6.61803">
        <ele>85.7</ele>
        <time>2020-10-25T10:03:34Z</time>
      </trkpt>
      <trkpt lat="43.16507" lon="6.61805">
        <ele>85.4</ele>
        <time>2020-10-25T10:03:37Z</time>
      </trkpt>
      <trkpt lat="43.16504" lon="6.61808">
        <ele>85.4</ele>
        <time>2020-10-25T10:03:40Z</time>
      </trkpt>
      <trkpt lat="43.16502" lon="6.61808">
        <ele>85.4</ele>
        <time>2020-10-25T10:03:41Z</time>
      </trkpt>
      <trkpt lat="43.16497" lon="6.61813">
        <ele>85.2</ele>
        <time>2020-10-25T10:03:46Z</time>
      </trkpt>
      <trkpt lat="43.16493" lon="6.61815">
        <ele>85.3</ele>
        <time>2020-10-25T10:03:49Z</time>
      </trkpt>
      <trkpt lat="43.16489" lon="6.61818">
        <ele>85.2</ele>
        <time>2020-10-25T10:03:52Z</time>
      </trkpt>
      <trkpt lat="43.16485" lon="6.61819">
        <ele>85.1</ele>
        <time>2020-10-25T10:03:55Z</time>
      </trkpt>
      <trkpt lat="43.16482" lon="6.6182">
        <ele>84.9</ele>
        <time>2020-10-25T10:03:58Z</time>
      </trkpt>
      <trkpt lat="43.16479" lon="6.61821">
        <ele>84.7</ele>
        <time>2020-10-25T10:04:01Z</time>
      </trkpt>
      <trkpt lat="43.16475" lon="6.61822">
        <ele>84.6</ele>
        <time>2020-10-25T10:04:04Z</time>
      </trkpt>
      <trkpt lat="43.16471" lon="6.61823">
        <ele>84.5</ele>
        <time>2020-10-25T10:04:07Z</time>
      </trkpt>
      <trkpt lat="43.16468" lon="6.61824">
        <ele>84.5</ele>
        <time>2020-10-25T10:04:10Z</time>
      </trkpt>
      <trkpt lat="43.16464" lon="6.61825">
        <ele>84.6</ele>
        <time>2020-10-25T10:04:13Z</time>
      </trkpt>
      <trkpt lat="43.1646" lon="6.61827">
        <ele>84.7</ele>
        <time>2020-10-25T10:04:17Z</time>
      </trkpt>
      <trkpt lat="43.16456" lon="6.61828">
        <ele>84.9</ele>
        <time>2020-10-25T10:04:21Z</time>
      </trkpt>
      <trkpt lat="43.16453" lon="6.6183">
        <ele>85</ele>
        <time>2020-10-25T10:04:24Z</time>
      </trkpt>
      <trkpt lat="43.1645" lon="6.61832">
        <ele>85.1</ele>
        <time>2020-10-25T10:04:27Z</time>
      </trkpt>
      <trkpt lat="43.16446" lon="6.61835">
        <ele>85</ele>
        <time>2020-10-25T10:04:31Z</time>
      </trkpt>
      <trkpt lat="43.16442" lon="6.61837">
        <ele>84.7</ele>
        <time>2020-10-25T10:04:35Z</time>
      </trkpt>
      <trkpt lat="43.16438" lon="6.61841">
        <ele>84.6</ele>
        <time>2020-10-25T10:04:39Z</time>
      </trkpt>
      <trkpt lat="43.16435" lon="6.61844">
        <ele>84.4</ele>
        <time>2020-10-25T10:04:43Z</time>
      </trkpt>
      <trkpt lat="43.16434" lon="6.61844">
        <ele>84.4</ele>
        <time>2020-10-25T10:04:44Z</time>
      </trkpt>
      <trkpt lat="43.16428" lon="6.6185">
        <ele>83.3</ele>
        <time>2020-10-25T10:04:54Z</time>
      </trkpt>
      <trkpt lat="43.16424" lon="6.61852">
        <ele>82.9</ele>
        <time>2020-10-25T10:04:57Z</time>
      </trkpt>
      <trkpt lat="43.16421" lon="6.61854">
        <ele>82.7</ele>
        <time>2020-10-25T10:05:00Z</time>
      </trkpt>
      <trkpt lat="43.16417" lon="6.61855">
        <ele>82</ele>
        <time>2020-10-25T10:05:04Z</time>
      </trkpt>
      <trkpt lat="43.16413" lon="6.61856">
        <ele>81.6</ele>
        <time>2020-10-25T10:05:11Z</time>
      </trkpt>
      <trkpt lat="43.1641" lon="6.61857">
        <ele>81.5</ele>
        <time>2020-10-25T10:05:15Z</time>
      </trkpt>
      <trkpt lat="43.16406" lon="6.61859">
        <ele>81.3</ele>
        <time>2020-10-25T10:05:23Z</time>
      </trkpt>
      <trkpt lat="43.16402" lon="6.61859">
        <ele>80.8</ele>
        <time>2020-10-25T10:05:34Z</time>
      </trkpt>
      <trkpt lat="43.16398" lon="6.6186">
        <ele>80.8</ele>
        <time>2020-10-25T10:05:38Z</time>
      </trkpt>
      <trkpt lat="43.16394" lon="6.61859">
        <ele>80.8</ele>
        <time>2020-10-25T10:05:41Z</time>
      </trkpt>
      <trkpt lat="43.1639" lon="6.6186">
        <ele>80.8</ele>
        <time>2020-10-25T10:05:45Z</time>
      </trkpt>
      <trkpt lat="43.16389" lon="6.61861">
        <ele>80.7</ele>
        <time>2020-10-25T10:05:46Z</time>
      </trkpt>
      <trkpt lat="43.16381" lon="6.61863">
        <ele>79.7</ele>
        <time>2020-10-25T10:05:53Z</time>
      </trkpt>
      <trkpt lat="43.16378" lon="6.61866">
        <ele>79.6</ele>
        <time>2020-10-25T10:05:57Z</time>
      </trkpt>
      <trkpt lat="43.16374" lon="6.61869">
        <ele>79.2</ele>
        <time>2020-10-25T10:06:01Z</time>
      </trkpt>
      <trkpt lat="43.16372" lon="6.61872">
        <ele>78.8</ele>
        <time>2020-10-25T10:06:05Z</time>
      </trkpt>
      <trkpt lat="43.16369" lon="6.61874">
        <ele>78.5</ele>
        <time>2020-10-25T10:06:08Z</time>
      </trkpt>
      <trkpt lat="43.16365" lon="6.61877">
        <ele>78.2</ele>
        <time>2020-10-25T10:06:11Z</time>
      </trkpt>
      <trkpt lat="43.16361" lon="6.61878">
        <ele>77.9</ele>
        <time>2020-10-25T10:06:15Z</time>
      </trkpt>
      <trkpt lat="43.16357" lon="6.61879">
        <ele>77.5</ele>
        <time>2020-10-25T10:06:19Z</time>
      </trkpt>
      <trkpt lat="43.16354" lon="6.61881">
        <ele>77.5</ele>
        <time>2020-10-25T10:06:22Z</time>
      </trkpt>
      <trkpt lat="43.1635" lon="6.61883">
        <ele>77.3</ele>
        <time>2020-10-25T10:06:25Z</time>
      </trkpt>
      <trkpt lat="43.16347" lon="6.61886">
        <ele>76.9</ele>
        <time>2020-10-25T10:06:28Z</time>
      </trkpt>
      <trkpt lat="43.16343" lon="6.61889">
        <ele>76.7</ele>
        <time>2020-10-25T10:06:31Z</time>
      </trkpt>
      <trkpt lat="43.1634" lon="6.61892">
        <ele>76.2</ele>
        <time>2020-10-25T10:06:34Z</time>
      </trkpt>
      <trkpt lat="43.16337" lon="6.61894">
        <ele>75.9</ele>
        <time>2020-10-25T10:06:37Z</time>
      </trkpt>
      <trkpt lat="43.16333" lon="6.61896">
        <ele>75.6</ele>
        <time>2020-10-25T10:06:40Z</time>
      </trkpt>
      <trkpt lat="43.1633" lon="6.61898">
        <ele>75.6</ele>
        <time>2020-10-25T10:06:43Z</time>
      </trkpt>
      <trkpt lat="43.16326" lon="6.619">
        <ele>75.4</ele>
        <time>2020-10-25T10:06:46Z</time>
      </trkpt>
      <trkpt lat="43.16325" lon="6.619">
        <ele>75.4</ele>
        <time>2020-10-25T10:06:47Z</time>
      </trkpt>
      <trkpt lat="43.16318" lon="6.61901">
        <ele>75.2</ele>
        <time>2020-10-25T10:06:52Z</time>
      </trkpt>
      <trkpt lat="43.16315" lon="6.61901">
        <ele>75.2</ele>
        <time>2020-10-25T10:06:55Z</time>
      </trkpt>
      <trkpt lat="43.16311" lon="6.61901">
        <ele>75.1</ele>
        <time>2020-10-25T10:06:58Z</time>
      </trkpt>
      <trkpt lat="43.16308" lon="6.619">
        <ele>74.9</ele>
        <time>2020-10-25T10:07:01Z</time>
      </trkpt>
      <trkpt lat="43.16304" lon="6.61898">
        <ele>74.8</ele>
        <time>2020-10-25T10:07:05Z</time>
      </trkpt>
      <trkpt lat="43.163" lon="6.61897">
        <ele>74.8</ele>
        <time>2020-10-25T10:07:09Z</time>
      </trkpt>
      <trkpt lat="43.16296" lon="6.61895">
        <ele>75.3</ele>
        <time>2020-10-25T10:07:13Z</time>
      </trkpt>
      <trkpt lat="43.16292" lon="6.61894">
        <ele>75.8</ele>
        <time>2020-10-25T10:07:17Z</time>
      </trkpt>
      <trkpt lat="43.16288" lon="6.61893">
        <ele>75.8</ele>
        <time>2020-10-25T10:07:20Z</time>
      </trkpt>
      <trkpt lat="43.16285" lon="6.61892">
        <ele>76.1</ele>
        <time>2020-10-25T10:07:23Z</time>
      </trkpt>
      <trkpt lat="43.16281" lon="6.61892">
        <ele>76.1</ele>
        <time>2020-10-25T10:07:27Z</time>
      </trkpt>
      <trkpt lat="43.16278" lon="6.61895">
        <ele>75.9</ele>
        <time>2020-10-25T10:07:31Z</time>
      </trkpt>
      <trkpt lat="43.16276" lon="6.619">
        <ele>75.6</ele>
        <time>2020-10-25T10:07:35Z</time>
      </trkpt>
      <trkpt lat="43.16274" lon="6.61904">
        <ele>75.1</ele>
        <time>2020-10-25T10:07:40Z</time>
      </trkpt>
      <trkpt lat="43.16271" lon="6.61909">
        <ele>74.6</ele>
        <time>2020-10-25T10:07:46Z</time>
      </trkpt>
      <trkpt lat="43.16269" lon="6.61914">
        <ele>73.4</ele>
        <time>2020-10-25T10:08:00Z</time>
      </trkpt>
      <trkpt lat="43.16269" lon="6.61914">
        <ele>73.4</ele>
        <time>2020-10-25T10:08:01Z</time>
      </trkpt>
      <trkpt lat="43.16261" lon="6.61917">
        <ele>73</ele>
        <time>2020-10-25T10:08:10Z</time>
      </trkpt>
      <trkpt lat="43.16259" lon="6.61921">
        <ele>72.7</ele>
        <time>2020-10-25T10:08:13Z</time>
      </trkpt>
      <trkpt lat="43.16256" lon="6.61924">
        <ele>72.3</ele>
        <time>2020-10-25T10:08:16Z</time>
      </trkpt>
      <trkpt lat="43.16253" lon="6.61927">
        <ele>72</ele>
        <time>2020-10-25T10:08:19Z</time>
      </trkpt>
      <trkpt lat="43.16249" lon="6.61931">
        <ele>71.8</ele>
        <time>2020-10-25T10:08:24Z</time>
      </trkpt>
      <trkpt lat="43.16247" lon="6.61934">
        <ele>71.7</ele>
        <time>2020-10-25T10:08:27Z</time>
      </trkpt>
      <trkpt lat="43.16243" lon="6.61937">
        <ele>71.5</ele>
        <time>2020-10-25T10:08:33Z</time>
      </trkpt>
      <trkpt lat="43.16239" lon="6.61939">
        <ele>71.4</ele>
        <time>2020-10-25T10:08:40Z</time>
      </trkpt>
      <trkpt lat="43.16235" lon="6.61941">
        <ele>71.7</ele>
        <time>2020-10-25T10:08:45Z</time>
      </trkpt>
      <trkpt lat="43.16231" lon="6.61942">
        <ele>72</ele>
        <time>2020-10-25T10:08:50Z</time>
      </trkpt>
      <trkpt lat="43.16227" lon="6.61943">
        <ele>72.5</ele>
        <time>2020-10-25T10:08:55Z</time>
      </trkpt>
      <trkpt lat="43.16223" lon="6.61944">
        <ele>72.9</ele>
        <time>2020-10-25T10:09:00Z</time>
      </trkpt>
      <trkpt lat="43.16219" lon="6.61944">
        <ele>73.6</ele>
        <time>2020-10-25T10:09:34Z</time>
      </trkpt>
      <trkpt lat="43.16218" lon="6.61944">
        <ele>73.6</ele>
        <time>2020-10-25T10:09:35Z</time>
      </trkpt>
      <trkpt lat="43.16211" lon="6.61945">
        <ele>74.5</ele>
        <time>2020-10-25T10:09:45Z</time>
      </trkpt>
      <trkpt lat="43.16207" lon="6.61944">
        <ele>75.9</ele>
        <time>2020-10-25T10:10:19Z</time>
      </trkpt>
      <trkpt lat="43.16203" lon="6.61946">
        <ele>76.1</ele>
        <time>2020-10-25T10:10:24Z</time>
      </trkpt>
      <trkpt lat="43.16199" lon="6.61947">
        <ele>76.3</ele>
        <time>2020-10-25T10:10:28Z</time>
      </trkpt>
      <trkpt lat="43.16194" lon="6.61948">
        <ele>76.4</ele>
        <time>2020-10-25T10:10:32Z</time>
      </trkpt>
      <trkpt lat="43.16191" lon="6.61949">
        <ele>76.6</ele>
        <time>2020-10-25T10:10:36Z</time>
      </trkpt>
      <trkpt lat="43.16189" lon="6.61949">
        <ele>76.6</ele>
        <time>2020-10-25T10:10:37Z</time>
      </trkpt>
      <trkpt lat="43.16183" lon="6.61948">
        <ele>77.1</ele>
        <time>2020-10-25T10:10:43Z</time>
      </trkpt>
      <trkpt lat="43.16179" lon="6.61945">
        <ele>77.4</ele>
        <time>2020-10-25T10:10:47Z</time>
      </trkpt>
      <trkpt lat="43.16176" lon="6.61944">
        <ele>77.5</ele>
        <time>2020-10-25T10:10:50Z</time>
      </trkpt>
      <trkpt lat="43.16172" lon="6.61942">
        <ele>77.7</ele>
        <time>2020-10-25T10:10:53Z</time>
      </trkpt>
      <trkpt lat="43.16168" lon="6.61941">
        <ele>78.1</ele>
        <time>2020-10-25T10:10:56Z</time>
      </trkpt>
      <trkpt lat="43.16165" lon="6.61939">
        <ele>78.3</ele>
        <time>2020-10-25T10:10:59Z</time>
      </trkpt>
      <trkpt lat="43.16162" lon="6.61938">
        <ele>78.3</ele>
        <time>2020-10-25T10:11:02Z</time>
      </trkpt>
      <trkpt lat="43.16158" lon="6.61937">
        <ele>78.6</ele>
        <time>2020-10-25T10:11:05Z</time>
      </trkpt>
      <trkpt lat="43.16155" lon="6.61936">
        <ele>78.9</ele>
        <time>2020-10-25T10:11:08Z</time>
      </trkpt>
      <trkpt lat="43.16151" lon="6.61937">
        <ele>78.8</ele>
        <time>2020-10-25T10:11:11Z</time>
      </trkpt>
      <trkpt lat="43.16146" lon="6.61938">
        <ele>78.7</ele>
        <time>2020-10-25T10:11:15Z</time>
      </trkpt>
      <trkpt lat="43.16143" lon="6.6194">
        <ele>78.9</ele>
        <time>2020-10-25T10:11:18Z</time>
      </trkpt>
      <trkpt lat="43.1614" lon="6.61943">
        <ele>79.1</ele>
        <time>2020-10-25T10:11:21Z</time>
      </trkpt>
      <trkpt lat="43.16137" lon="6.61945">
        <ele>79.3</ele>
        <time>2020-10-25T10:11:24Z</time>
      </trkpt>
      <trkpt lat="43.16134" lon="6.61948">
        <ele>79.5</ele>
        <time>2020-10-25T10:11:27Z</time>
      </trkpt>
      <trkpt lat="43.1613" lon="6.61952">
        <ele>79.7</ele>
        <time>2020-10-25T10:11:31Z</time>
      </trkpt>
      <trkpt lat="43.16127" lon="6.61955">
        <ele>80</ele>
        <time>2020-10-25T10:11:35Z</time>
      </trkpt>
      <trkpt lat="43.16123" lon="6.61957">
        <ele>80.5</ele>
        <time>2020-10-25T10:12:01Z</time>
      </trkpt>
      <trkpt lat="43.16123" lon="6.61957">
        <ele>80.5</ele>
        <time>2020-10-25T10:12:02Z</time>
      </trkpt>
      <trkpt lat="43.16122" lon="6.61966">
        <ele>80.5</ele>
        <time>2020-10-25T10:12:08Z</time>
      </trkpt>
      <trkpt lat="43.16122" lon="6.61971">
        <ele>80.7</ele>
        <time>2020-10-25T10:12:11Z</time>
      </trkpt>
      <trkpt lat="43.16121" lon="6.61976">
        <ele>80.5</ele>
        <time>2020-10-25T10:12:14Z</time>
      </trkpt>
      <trkpt lat="43.1612" lon="6.61981">
        <ele>80.4</ele>
        <time>2020-10-25T10:12:17Z</time>
      </trkpt>
      <trkpt lat="43.16116" lon="6.61983">
        <ele>80.2</ele>
        <time>2020-10-25T10:12:21Z</time>
      </trkpt>
      <trkpt lat="43.16111" lon="6.61984">
        <ele>80.2</ele>
        <time>2020-10-25T10:12:24Z</time>
      </trkpt>
      <trkpt lat="43.16107" lon="6.61983">
        <ele>80.3</ele>
        <time>2020-10-25T10:12:27Z</time>
      </trkpt>
      <trkpt lat="43.16103" lon="6.61981">
        <ele>80.2</ele>
        <time>2020-10-25T10:12:30Z</time>
      </trkpt>
      <trkpt lat="43.161" lon="6.61978">
        <ele>80.2</ele>
        <time>2020-10-25T10:12:33Z</time>
      </trkpt>
      <trkpt lat="43.16096" lon="6.61977">
        <ele>80.1</ele>
        <time>2020-10-25T10:12:36Z</time>
      </trkpt>
      <trkpt lat="43.16093" lon="6.61981">
        <ele>80.1</ele>
        <time>2020-10-25T10:12:38Z</time>
      </trkpt>
      <trkpt lat="43.16089" lon="6.6198">
        <ele>80</ele>
        <time>2020-10-25T10:12:41Z</time>
      </trkpt>
      <trkpt lat="43.16086" lon="6.61979">
        <ele>79.9</ele>
        <time>2020-10-25T10:12:44Z</time>
      </trkpt>
      <trkpt lat="43.16082" lon="6.61979">
        <ele>79.7</ele>
        <time>2020-10-25T10:12:47Z</time>
      </trkpt>
      <trkpt lat="43.16078" lon="6.61978">
        <ele>79.6</ele>
        <time>2020-10-25T10:12:50Z</time>
      </trkpt>
      <trkpt lat="43.16075" lon="6.61979">
        <ele>79.7</ele>
        <time>2020-10-25T10:12:53Z</time>
      </trkpt>
      <trkpt lat="43.16071" lon="6.61979">
        <ele>79.3</ele>
        <time>2020-10-25T10:12:57Z</time>
      </trkpt>
      <trkpt lat="43.16066" lon="6.61979">
        <ele>78.9</ele>
        <time>2020-10-25T10:13:01Z</time>
      </trkpt>
      <trkpt lat="43.16062" lon="6.61976">
        <ele>78.6</ele>
        <time>2020-10-25T10:13:05Z</time>
      </trkpt>
      <trkpt lat="43.16062" lon="6.61976">
        <ele>78.5</ele>
        <time>2020-10-25T10:13:06Z</time>
      </trkpt>
      <trkpt lat="43.16055" lon="6.61973">
        <ele>76.4</ele>
        <time>2020-10-25T10:14:50Z</time>
      </trkpt>
      <trkpt lat="43.16054" lon="6.61973">
        <ele>76.4</ele>
        <time>2020-10-25T10:14:51Z</time>
      </trkpt>
      <trkpt lat="43.16047" lon="6.61975">
        <ele>75.9</ele>
        <time>2020-10-25T10:15:12Z</time>
      </trkpt>
      <trkpt lat="43.16044" lon="6.61978">
        <ele>75.8</ele>
        <time>2020-10-25T10:15:18Z</time>
      </trkpt>
      <trkpt lat="43.1604" lon="6.6198">
        <ele>75.6</ele>
        <time>2020-10-25T10:15:22Z</time>
      </trkpt>
      <trkpt lat="43.16038" lon="6.61984">
        <ele>75.4</ele>
        <time>2020-10-25T10:15:27Z</time>
      </trkpt>
      <trkpt lat="43.16035" lon="6.61988">
        <ele>75.2</ele>
        <time>2020-10-25T10:15:34Z</time>
      </trkpt>
      <trkpt lat="43.16032" lon="6.6199">
        <ele>75.1</ele>
        <time>2020-10-25T10:15:38Z</time>
      </trkpt>
      <trkpt lat="43.16028" lon="6.61992">
        <ele>74.8</ele>
        <time>2020-10-25T10:15:47Z</time>
      </trkpt>
      <trkpt lat="43.16024" lon="6.61994">
        <ele>74.7</ele>
        <time>2020-10-25T10:16:04Z</time>
      </trkpt>
      <trkpt lat="43.16023" lon="6.61994">
        <ele>74.7</ele>
        <time>2020-10-25T10:16:05Z</time>
      </trkpt>
      <trkpt lat="43.16016" lon="6.61992">
        <ele>76.4</ele>
        <time>2020-10-25T10:17:21Z</time>
      </trkpt>
      <trkpt lat="43.16016" lon="6.61991">
        <ele>76.3</ele>
        <time>2020-10-25T10:17:22Z</time>
      </trkpt>
      <trkpt lat="43.16008" lon="6.61995">
        <ele>74.8</ele>
        <time>2020-10-25T10:17:48Z</time>
      </trkpt>
      <trkpt lat="43.16004" lon="6.61997">
        <ele>73.4</ele>
        <time>2020-10-25T10:18:01Z</time>
      </trkpt>
      <trkpt lat="43.16002" lon="6.62002">
        <ele>71.6</ele>
        <time>2020-10-25T10:18:28Z</time>
      </trkpt>
      <trkpt lat="43.16002" lon="6.62003">
        <ele>71.6</ele>
        <time>2020-10-25T10:18:29Z</time>
      </trkpt>
      <trkpt lat="43.16009" lon="6.62008">
        <ele>70.9</ele>
        <time>2020-10-25T10:18:51Z</time>
      </trkpt>
      <trkpt lat="43.16012" lon="6.62013">
        <ele>71</ele>
        <time>2020-10-25T10:18:56Z</time>
      </trkpt>
      <trkpt lat="43.16013" lon="6.62018">
        <ele>71.1</ele>
        <time>2020-10-25T10:19:00Z</time>
      </trkpt>
      <trkpt lat="43.16017" lon="6.6202">
        <ele>70.8</ele>
        <time>2020-10-25T10:19:04Z</time>
      </trkpt>
      <trkpt lat="43.16021" lon="6.62022">
        <ele>70.9</ele>
        <time>2020-10-25T10:19:08Z</time>
      </trkpt>
      <trkpt lat="43.16024" lon="6.62025">
        <ele>71.1</ele>
        <time>2020-10-25T10:19:12Z</time>
      </trkpt>
      <trkpt lat="43.16028" lon="6.62028">
        <ele>70.9</ele>
        <time>2020-10-25T10:19:17Z</time>
      </trkpt>
      <trkpt lat="43.16031" lon="6.62032">
        <ele>70.5</ele>
        <time>2020-10-25T10:19:25Z</time>
      </trkpt>
      <trkpt lat="43.16032" lon="6.62037">
        <ele>68.9</ele>
        <time>2020-10-25T10:19:47Z</time>
      </trkpt>
      <trkpt lat="43.16033" lon="6.62038">
        <ele>68.7</ele>
        <time>2020-10-25T10:19:48Z</time>
      </trkpt>
      <trkpt lat="43.16035" lon="6.62048">
        <ele>65.9</ele>
        <time>2020-10-25T10:20:06Z</time>
      </trkpt>
      <trkpt lat="43.16037" lon="6.62054">
        <ele>63.6</ele>
        <time>2020-10-25T10:20:17Z</time>
      </trkpt>
      <trkpt lat="43.1604" lon="6.62058">
        <ele>62.2</ele>
        <time>2020-10-25T10:20:23Z</time>
      </trkpt>
      <trkpt lat="43.16043" lon="6.62063">
        <ele>61.5</ele>
        <time>2020-10-25T10:20:27Z</time>
      </trkpt>
      <trkpt lat="43.16045" lon="6.62067">
        <ele>61</ele>
        <time>2020-10-25T10:20:31Z</time>
      </trkpt>
      <trkpt lat="43.16048" lon="6.62072">
        <ele>60</ele>
        <time>2020-10-25T10:20:37Z</time>
      </trkpt>
      <trkpt lat="43.1605" lon="6.62077">
        <ele>58.7</ele>
        <time>2020-10-25T10:20:51Z</time>
      </trkpt>
      <trkpt lat="43.1605" lon="6.62078">
        <ele>58.5</ele>
        <time>2020-10-25T10:20:52Z</time>
      </trkpt>
      <trkpt lat="43.16055" lon="6.62086">
        <ele>57.2</ele>
        <time>2020-10-25T10:21:03Z</time>
      </trkpt>
      <trkpt lat="43.16058" lon="6.6209">
        <ele>56.2</ele>
        <time>2020-10-25T10:21:12Z</time>
      </trkpt>
      <trkpt lat="43.16061" lon="6.62095">
        <ele>55.7</ele>
        <time>2020-10-25T10:21:18Z</time>
      </trkpt>
      <trkpt lat="43.16063" lon="6.621">
        <ele>53.9</ele>
        <time>2020-10-25T10:21:25Z</time>
      </trkpt>
      <trkpt lat="43.16064" lon="6.62106">
        <ele>52.2</ele>
        <time>2020-10-25T10:21:33Z</time>
      </trkpt>
      <trkpt lat="43.16066" lon="6.62111">
        <ele>50.9</ele>
        <time>2020-10-25T10:21:42Z</time>
      </trkpt>
      <trkpt lat="43.16068" lon="6.62116">
        <ele>48.8</ele>
        <time>2020-10-25T10:21:51Z</time>
      </trkpt>
      <trkpt lat="43.1607" lon="6.62121">
        <ele>48</ele>
        <time>2020-10-25T10:22:00Z</time>
      </trkpt>
      <trkpt lat="43.1607" lon="6.62122">
        <ele>47.8</ele>
        <time>2020-10-25T10:22:01Z</time>
      </trkpt>
      <trkpt lat="43.16069" lon="6.62133">
        <ele>43.6</ele>
        <time>2020-10-25T10:22:23Z</time>
      </trkpt>
      <trkpt lat="43.16068" lon="6.62138">
        <ele>42.5</ele>
        <time>2020-10-25T10:22:31Z</time>
      </trkpt>
      <trkpt lat="43.16068" lon="6.62143">
        <ele>41.6</ele>
        <time>2020-10-25T10:22:37Z</time>
      </trkpt>
      <trkpt lat="43.16069" lon="6.62149">
        <ele>40.1</ele>
        <time>2020-10-25T10:22:54Z</time>
      </trkpt>
      <trkpt lat="43.16071" lon="6.62154">
        <ele>39.9</ele>
        <time>2020-10-25T10:22:58Z</time>
      </trkpt>
      <trkpt lat="43.16074" lon="6.62158">
        <ele>39.8</ele>
        <time>2020-10-25T10:23:02Z</time>
      </trkpt>
      <trkpt lat="43.16075" lon="6.62159">
        <ele>39.7</ele>
        <time>2020-10-25T10:23:03Z</time>
      </trkpt>
      <trkpt lat="43.16078" lon="6.62167">
        <ele>39.2</ele>
        <time>2020-10-25T10:23:12Z</time>
      </trkpt>
      <trkpt lat="43.1608" lon="6.62172">
        <ele>38.6</ele>
        <time>2020-10-25T10:23:18Z</time>
      </trkpt>
      <trkpt lat="43.16083" lon="6.62175">
        <ele>38.2</ele>
        <time>2020-10-25T10:23:23Z</time>
      </trkpt>
      <trkpt lat="43.16087" lon="6.62177">
        <ele>37.8</ele>
        <time>2020-10-25T10:23:29Z</time>
      </trkpt>
      <trkpt lat="43.1609" lon="6.62181">
        <ele>37.9</ele>
        <time>2020-10-25T10:23:35Z</time>
      </trkpt>
      <trkpt lat="43.16092" lon="6.62185">
        <ele>38</ele>
        <time>2020-10-25T10:23:39Z</time>
      </trkpt>
      <trkpt lat="43.16096" lon="6.62189">
        <ele>37.9</ele>
        <time>2020-10-25T10:23:47Z</time>
      </trkpt>
      <trkpt lat="43.16099" lon="6.62191">
        <ele>37.5</ele>
        <time>2020-10-25T10:23:52Z</time>
      </trkpt>
      <trkpt lat="43.16102" lon="6.62195">
        <ele>37</ele>
        <time>2020-10-25T10:23:58Z</time>
      </trkpt>
      <trkpt lat="43.16105" lon="6.62197">
        <ele>36.7</ele>
        <time>2020-10-25T10:24:02Z</time>
      </trkpt>
      <trkpt lat="43.16109" lon="6.62199">
        <ele>36.1</ele>
        <time>2020-10-25T10:24:07Z</time>
      </trkpt>
      <trkpt lat="43.1611" lon="6.622">
        <ele>36</ele>
        <time>2020-10-25T10:24:08Z</time>
      </trkpt>
      <trkpt lat="43.16116" lon="6.62204">
        <ele>35.7</ele>
        <time>2020-10-25T10:24:15Z</time>
      </trkpt>
      <trkpt lat="43.16119" lon="6.62204">
        <ele>35.5</ele>
        <time>2020-10-25T10:24:18Z</time>
      </trkpt>
      <trkpt lat="43.16122" lon="6.62205">
        <ele>35.2</ele>
        <time>2020-10-25T10:24:21Z</time>
      </trkpt>
      <trkpt lat="43.16126" lon="6.62206">
        <ele>34.7</ele>
        <time>2020-10-25T10:24:25Z</time>
      </trkpt>
      <trkpt lat="43.1613" lon="6.62207">
        <ele>34.4</ele>
        <time>2020-10-25T10:24:29Z</time>
      </trkpt>
      <trkpt lat="43.16135" lon="6.62209">
        <ele>33.8</ele>
        <time>2020-10-25T10:24:36Z</time>
      </trkpt>
      <trkpt lat="43.16138" lon="6.62207">
        <ele>33.4</ele>
        <time>2020-10-25T10:24:40Z</time>
      </trkpt>
      <trkpt lat="43.16142" lon="6.62203">
        <ele>33</ele>
        <time>2020-10-25T10:24:48Z</time>
      </trkpt>
      <trkpt lat="43.16145" lon="6.62199">
        <ele>32.5</ele>
        <time>2020-10-25T10:24:55Z</time>
      </trkpt>
      <trkpt lat="43.16149" lon="6.62197">
        <ele>31.8</ele>
        <time>2020-10-25T10:25:10Z</time>
      </trkpt>
      <trkpt lat="43.16149" lon="6.62198">
        <ele>31.7</ele>
        <time>2020-10-25T10:25:11Z</time>
      </trkpt>
      <trkpt lat="43.16157" lon="6.62198">
        <ele>31.2</ele>
        <time>2020-10-25T10:25:20Z</time>
      </trkpt>
      <trkpt lat="43.16161" lon="6.62198">
        <ele>30.5</ele>
        <time>2020-10-25T10:25:24Z</time>
      </trkpt>
      <trkpt lat="43.16165" lon="6.62199">
        <ele>30.2</ele>
        <time>2020-10-25T10:25:28Z</time>
      </trkpt>
      <trkpt lat="43.16169" lon="6.62197">
        <ele>30.1</ele>
        <time>2020-10-25T10:25:33Z</time>
      </trkpt>
      <trkpt lat="43.16171" lon="6.62192">
        <ele>29.5</ele>
        <time>2020-10-25T10:25:39Z</time>
      </trkpt>
      <trkpt lat="43.16174" lon="6.62188">
        <ele>28.7</ele>
        <time>2020-10-25T10:25:45Z</time>
      </trkpt>
      <trkpt lat="43.16177" lon="6.62184">
        <ele>28.1</ele>
        <time>2020-10-25T10:25:49Z</time>
      </trkpt>
      <trkpt lat="43.1618" lon="6.6218">
        <ele>27.9</ele>
        <time>2020-10-25T10:25:52Z</time>
      </trkpt>
      <trkpt lat="43.16183" lon="6.62177">
        <ele>27.6</ele>
        <time>2020-10-25T10:25:55Z</time>
      </trkpt>
      <trkpt lat="43.16186" lon="6.62173">
        <ele>27.2</ele>
        <time>2020-10-25T10:25:59Z</time>
      </trkpt>
      <trkpt lat="43.16189" lon="6.62169">
        <ele>26.3</ele>
        <time>2020-10-25T10:26:04Z</time>
      </trkpt>
      <trkpt lat="43.16191" lon="6.62164">
        <ele>25.4</ele>
        <time>2020-10-25T10:26:12Z</time>
      </trkpt>
      <trkpt lat="43.16192" lon="6.62164">
        <ele>25.3</ele>
        <time>2020-10-25T10:26:13Z</time>
      </trkpt>
      <trkpt lat="43.16198" lon="6.62159">
        <ele>22.5</ele>
        <time>2020-10-25T10:26:31Z</time>
      </trkpt>
      <trkpt lat="43.16203" lon="6.62159">
        <ele>21.6</ele>
        <time>2020-10-25T10:26:37Z</time>
      </trkpt>
      <trkpt lat="43.16207" lon="6.6216">
        <ele>20.3</ele>
        <time>2020-10-25T10:26:45Z</time>
      </trkpt>
      <trkpt lat="43.16211" lon="6.62163">
        <ele>18.4</ele>
        <time>2020-10-25T10:27:19Z</time>
      </trkpt>
      <trkpt lat="43.16212" lon="6.62163">
        <ele>18.5</ele>
        <time>2020-10-25T10:27:20Z</time>
      </trkpt>
      <trkpt lat="43.1622" lon="6.62161">
        <ele>17.9</ele>
        <time>2020-10-25T10:27:49Z</time>
      </trkpt>
      <trkpt lat="43.16223" lon="6.62158">
        <ele>17.9</ele>
        <time>2020-10-25T10:27:54Z</time>
      </trkpt>
      <trkpt lat="43.16225" lon="6.62154">
        <ele>18.3</ele>
        <time>2020-10-25T10:27:59Z</time>
      </trkpt>
      <trkpt lat="43.16227" lon="6.62148">
        <ele>18.6</ele>
        <time>2020-10-25T10:28:05Z</time>
      </trkpt>
      <trkpt lat="43.1623" lon="6.62144">
        <ele>18.8</ele>
        <time>2020-10-25T10:28:10Z</time>
      </trkpt>
      <trkpt lat="43.16234" lon="6.6214">
        <ele>19.2</ele>
        <time>2020-10-25T10:28:15Z</time>
      </trkpt>
      <trkpt lat="43.16237" lon="6.62136">
        <ele>19.3</ele>
        <time>2020-10-25T10:28:20Z</time>
      </trkpt>
      <trkpt lat="43.16238" lon="6.62135">
        <ele>19.1</ele>
        <time>2020-10-25T10:28:21Z</time>
      </trkpt>
      <trkpt lat="43.16244" lon="6.62132">
        <ele>18.5</ele>
        <time>2020-10-25T10:28:29Z</time>
      </trkpt>
      <trkpt lat="43.16248" lon="6.62132">
        <ele>18.4</ele>
        <time>2020-10-25T10:28:36Z</time>
      </trkpt>
      <trkpt lat="43.16251" lon="6.62132">
        <ele>18.1</ele>
        <time>2020-10-25T10:28:41Z</time>
      </trkpt>
      <trkpt lat="43.16255" lon="6.62131">
        <ele>17.6</ele>
        <time>2020-10-25T10:28:46Z</time>
      </trkpt>
      <trkpt lat="43.16259" lon="6.6213">
        <ele>17.2</ele>
        <time>2020-10-25T10:28:49Z</time>
      </trkpt>
      <trkpt lat="43.16262" lon="6.62129">
        <ele>16.9</ele>
        <time>2020-10-25T10:28:52Z</time>
      </trkpt>
      <trkpt lat="43.16266" lon="6.62127">
        <ele>16.6</ele>
        <time>2020-10-25T10:28:55Z</time>
      </trkpt>
      <trkpt lat="43.1627" lon="6.62125">
        <ele>16.2</ele>
        <time>2020-10-25T10:28:58Z</time>
      </trkpt>
      <trkpt lat="43.16274" lon="6.62125">
        <ele>15.9</ele>
        <time>2020-10-25T10:29:01Z</time>
      </trkpt>
      <trkpt lat="43.16277" lon="6.62125">
        <ele>15.8</ele>
        <time>2020-10-25T10:29:04Z</time>
      </trkpt>
      <trkpt lat="43.16281" lon="6.62122">
        <ele>15.8</ele>
        <time>2020-10-25T10:29:11Z</time>
      </trkpt>
      <trkpt lat="43.16285" lon="6.62123">
        <ele>15.6</ele>
        <time>2020-10-25T10:29:20Z</time>
      </trkpt>
      <trkpt lat="43.1629" lon="6.62123">
        <ele>15.4</ele>
        <time>2020-10-25T10:29:55Z</time>
      </trkpt>
      <trkpt lat="43.1629" lon="6.62123">
        <ele>15.5</ele>
        <time>2020-10-25T10:29:56Z</time>
      </trkpt>
      <trkpt lat="43.16297" lon="6.62127">
        <ele>14.6</ele>
        <time>2020-10-25T10:30:05Z</time>
      </trkpt>
      <trkpt lat="43.16301" lon="6.62128">
        <ele>13.9</ele>
        <time>2020-10-25T10:30:11Z</time>
      </trkpt>
      <trkpt lat="43.16305" lon="6.62127">
        <ele>13.7</ele>
        <time>2020-10-25T10:30:16Z</time>
      </trkpt>
      <trkpt lat="43.16309" lon="6.62128">
        <ele>13.3</ele>
        <time>2020-10-25T10:30:21Z</time>
      </trkpt>
      <trkpt lat="43.16313" lon="6.6213">
        <ele>13</ele>
        <time>2020-10-25T10:30:41Z</time>
      </trkpt>
      <trkpt lat="43.16317" lon="6.62134">
        <ele>12.8</ele>
        <time>2020-10-25T10:30:46Z</time>
      </trkpt>
      <trkpt lat="43.16319" lon="6.62138">
        <ele>13.6</ele>
        <time>2020-10-25T10:33:42Z</time>
      </trkpt>
      <trkpt lat="43.1632" lon="6.62139">
        <ele>13.6</ele>
        <time>2020-10-25T10:33:43Z</time>
      </trkpt>
      <trkpt lat="43.16327" lon="6.62142">
        <ele>14.3</ele>
        <time>2020-10-25T10:33:55Z</time>
      </trkpt>
      <trkpt lat="43.16331" lon="6.62143">
        <ele>14.6</ele>
        <time>2020-10-25T10:33:59Z</time>
      </trkpt>
      <trkpt lat="43.16334" lon="6.62146">
        <ele>14.9</ele>
        <time>2020-10-25T10:34:02Z</time>
      </trkpt>
      <trkpt lat="43.16338" lon="6.62149">
        <ele>15.2</ele>
        <time>2020-10-25T10:34:06Z</time>
      </trkpt>
      <trkpt lat="43.16342" lon="6.62146">
        <ele>15.8</ele>
        <time>2020-10-25T10:34:12Z</time>
      </trkpt>
      <trkpt lat="43.16345" lon="6.62147">
        <ele>16.3</ele>
        <time>2020-10-25T10:34:17Z</time>
      </trkpt>
      <trkpt lat="43.16349" lon="6.62146">
        <ele>16.6</ele>
        <time>2020-10-25T10:34:21Z</time>
      </trkpt>
      <trkpt lat="43.16353" lon="6.62147">
        <ele>16.8</ele>
        <time>2020-10-25T10:34:25Z</time>
      </trkpt>
      <trkpt lat="43.16356" lon="6.62148">
        <ele>17</ele>
        <time>2020-10-25T10:34:28Z</time>
      </trkpt>
      <trkpt lat="43.1636" lon="6.6215">
        <ele>17.3</ele>
        <time>2020-10-25T10:34:31Z</time>
      </trkpt>
      <trkpt lat="43.16364" lon="6.62151">
        <ele>17.3</ele>
        <time>2020-10-25T10:34:34Z</time>
      </trkpt>
      <trkpt lat="43.16368" lon="6.62152">
        <ele>17.4</ele>
        <time>2020-10-25T10:34:37Z</time>
      </trkpt>
      <trkpt lat="43.16372" lon="6.62153">
        <ele>17.5</ele>
        <time>2020-10-25T10:34:40Z</time>
      </trkpt>
      <trkpt lat="43.16374" lon="6.62157">
        <ele>17.2</ele>
        <time>2020-10-25T10:34:43Z</time>
      </trkpt>
      <trkpt lat="43.16374" lon="6.62159">
        <ele>17.1</ele>
        <time>2020-10-25T10:34:44Z</time>
      </trkpt>
      <trkpt lat="43.1638" lon="6.62163">
        <ele>16.4</ele>
        <time>2020-10-25T10:34:49Z</time>
      </trkpt>
      <trkpt lat="43.1638" lon="6.62168">
        <ele>16</ele>
        <time>2020-10-25T10:34:52Z</time>
      </trkpt>
      <trkpt lat="43.16382" lon="6.62173">
        <ele>15.9</ele>
        <time>2020-10-25T10:34:55Z</time>
      </trkpt>
      <trkpt lat="43.16385" lon="6.62175">
        <ele>15.9</ele>
        <time>2020-10-25T10:34:58Z</time>
      </trkpt>
      <trkpt lat="43.16389" lon="6.62177">
        <ele>15.9</ele>
        <time>2020-10-25T10:35:02Z</time>
      </trkpt>
      <trkpt lat="43.16392" lon="6.62177">
        <ele>16.2</ele>
        <time>2020-10-25T10:35:06Z</time>
      </trkpt>
      <trkpt lat="43.16396" lon="6.62177">
        <ele>16.2</ele>
        <time>2020-10-25T10:35:09Z</time>
      </trkpt>
      <trkpt lat="43.164" lon="6.62177">
        <ele>16</ele>
        <time>2020-10-25T10:35:11Z</time>
      </trkpt>
      <trkpt lat="43.16403" lon="6.62178">
        <ele>15.7</ele>
        <time>2020-10-25T10:35:14Z</time>
      </trkpt>
      <trkpt lat="43.16407" lon="6.6218">
        <ele>15.5</ele>
        <time>2020-10-25T10:35:17Z</time>
      </trkpt>
      <trkpt lat="43.16411" lon="6.6218">
        <ele>15.5</ele>
        <time>2020-10-25T10:35:20Z</time>
      </trkpt>
      <trkpt lat="43.16414" lon="6.6218">
        <ele>15.6</ele>
        <time>2020-10-25T10:35:23Z</time>
      </trkpt>
      <trkpt lat="43.16418" lon="6.6218">
        <ele>15.7</ele>
        <time>2020-10-25T10:35:26Z</time>
      </trkpt>
      <trkpt lat="43.16422" lon="6.62179">
        <ele>15.6</ele>
        <time>2020-10-25T10:35:29Z</time>
      </trkpt>
      <trkpt lat="43.16426" lon="6.6218">
        <ele>15.6</ele>
        <time>2020-10-25T10:35:33Z</time>
      </trkpt>
      <trkpt lat="43.1643" lon="6.62183">
        <ele>15.8</ele>
        <time>2020-10-25T10:35:38Z</time>
      </trkpt>
      <trkpt lat="43.16432" lon="6.62185">
        <ele>15.6</ele>
        <time>2020-10-25T10:35:41Z</time>
      </trkpt>
      <trkpt lat="43.16436" lon="6.62188">
        <ele>15.7</ele>
        <time>2020-10-25T10:35:44Z</time>
      </trkpt>
      <trkpt lat="43.16437" lon="6.62189">
        <ele>15.7</ele>
        <time>2020-10-25T10:35:45Z</time>
      </trkpt>
      <trkpt lat="43.16441" lon="6.62192">
        <ele>15.7</ele>
        <time>2020-10-25T10:35:48Z</time>
      </trkpt>
      <trkpt lat="43.16444" lon="6.62193">
        <ele>15.7</ele>
        <time>2020-10-25T10:35:50Z</time>
      </trkpt>
      <trkpt lat="43.16448" lon="6.62194">
        <ele>15.6</ele>
        <time>2020-10-25T10:35:53Z</time>
      </trkpt>
      <trkpt lat="43.16452" lon="6.62195">
        <ele>15.7</ele>
        <time>2020-10-25T10:35:56Z</time>
      </trkpt>
      <trkpt lat="43.16455" lon="6.62199">
        <ele>15.8</ele>
        <time>2020-10-25T10:35:59Z</time>
      </trkpt>
      <trkpt lat="43.16458" lon="6.62202">
        <ele>15.9</ele>
        <time>2020-10-25T10:36:02Z</time>
      </trkpt>
      <trkpt lat="43.16461" lon="6.62205">
        <ele>16.1</ele>
        <time>2020-10-25T10:36:05Z</time>
      </trkpt>
      <trkpt lat="43.16465" lon="6.62207">
        <ele>16.2</ele>
        <time>2020-10-25T10:36:08Z</time>
      </trkpt>
      <trkpt lat="43.16468" lon="6.62212">
        <ele>16.3</ele>
        <time>2020-10-25T10:36:11Z</time>
      </trkpt>
      <trkpt lat="43.16471" lon="6.62215">
        <ele>16.4</ele>
        <time>2020-10-25T10:36:14Z</time>
      </trkpt>
      <trkpt lat="43.16474" lon="6.62218">
        <ele>16.4</ele>
        <time>2020-10-25T10:36:16Z</time>
      </trkpt>
      <trkpt lat="43.16476" lon="6.6222">
        <ele>16.6</ele>
        <time>2020-10-25T10:36:18Z</time>
      </trkpt>
      <trkpt lat="43.16479" lon="6.62224">
        <ele>16.5</ele>
        <time>2020-10-25T10:36:21Z</time>
      </trkpt>
      <trkpt lat="43.16482" lon="6.62227">
        <ele>16.6</ele>
        <time>2020-10-25T10:36:25Z</time>
      </trkpt>
      <trkpt lat="43.16484" lon="6.62232">
        <ele>16.8</ele>
        <time>2020-10-25T10:36:28Z</time>
      </trkpt>
      <trkpt lat="43.16488" lon="6.62234">
        <ele>16.9</ele>
        <time>2020-10-25T10:36:31Z</time>
      </trkpt>
      <trkpt lat="43.16491" lon="6.62235">
        <ele>17</ele>
        <time>2020-10-25T10:36:33Z</time>
      </trkpt>
      <trkpt lat="43.16494" lon="6.62237">
        <ele>16.9</ele>
        <time>2020-10-25T10:36:35Z</time>
      </trkpt>
      <trkpt lat="43.16496" lon="6.62239">
        <ele>17</ele>
        <time>2020-10-25T10:36:37Z</time>
      </trkpt>
      <trkpt lat="43.16499" lon="6.62242">
        <ele>17.1</ele>
        <time>2020-10-25T10:36:39Z</time>
      </trkpt>
      <trkpt lat="43.16501" lon="6.62245">
        <ele>17</ele>
        <time>2020-10-25T10:36:41Z</time>
      </trkpt>
      <trkpt lat="43.16503" lon="6.6225">
        <ele>17.1</ele>
        <time>2020-10-25T10:36:44Z</time>
      </trkpt>
      <trkpt lat="43.16506" lon="6.62252">
        <ele>17.2</ele>
        <time>2020-10-25T10:36:47Z</time>
      </trkpt>
      <trkpt lat="43.16508" lon="6.62253">
        <ele>17.3</ele>
        <time>2020-10-25T10:36:48Z</time>
      </trkpt>
      <trkpt lat="43.16514" lon="6.62257">
        <ele>17.6</ele>
        <time>2020-10-25T10:36:54Z</time>
      </trkpt>
      <trkpt lat="43.16516" lon="6.62262">
        <ele>18.1</ele>
        <time>2020-10-25T10:36:58Z</time>
      </trkpt>
      <trkpt lat="43.16518" lon="6.62267">
        <ele>18.4</ele>
        <time>2020-10-25T10:37:01Z</time>
      </trkpt>
      <trkpt lat="43.1652" lon="6.62271">
        <ele>18.6</ele>
        <time>2020-10-25T10:37:04Z</time>
      </trkpt>
      <trkpt lat="43.16524" lon="6.62273">
        <ele>18.8</ele>
        <time>2020-10-25T10:37:07Z</time>
      </trkpt>
      <trkpt lat="43.16528" lon="6.62274">
        <ele>19.2</ele>
        <time>2020-10-25T10:37:11Z</time>
      </trkpt>
      <trkpt lat="43.16531" lon="6.62277">
        <ele>19.4</ele>
        <time>2020-10-25T10:37:14Z</time>
      </trkpt>
      <trkpt lat="43.16534" lon="6.62279">
        <ele>19.5</ele>
        <time>2020-10-25T10:37:18Z</time>
      </trkpt>
      <trkpt lat="43.16536" lon="6.62285">
        <ele>19</ele>
        <time>2020-10-25T10:37:23Z</time>
      </trkpt>
      <trkpt lat="43.1654" lon="6.62288">
        <ele>18.7</ele>
        <time>2020-10-25T10:37:27Z</time>
      </trkpt>
      <trkpt lat="43.16543" lon="6.62291">
        <ele>18.5</ele>
        <time>2020-10-25T10:37:30Z</time>
      </trkpt>
      <trkpt lat="43.16546" lon="6.62294">
        <ele>18.3</ele>
        <time>2020-10-25T10:37:33Z</time>
      </trkpt>
      <trkpt lat="43.16549" lon="6.62298">
        <ele>18.1</ele>
        <time>2020-10-25T10:37:36Z</time>
      </trkpt>
      <trkpt lat="43.16552" lon="6.62301">
        <ele>18</ele>
        <time>2020-10-25T10:37:39Z</time>
      </trkpt>
      <trkpt lat="43.16555" lon="6.62304">
        <ele>17.8</ele>
        <time>2020-10-25T10:37:43Z</time>
      </trkpt>
      <trkpt lat="43.16558" lon="6.62307">
        <ele>17.9</ele>
        <time>2020-10-25T10:37:46Z</time>
      </trkpt>
      <trkpt lat="43.1656" lon="6.62312">
        <ele>18</ele>
        <time>2020-10-25T10:37:49Z</time>
      </trkpt>
      <trkpt lat="43.1656" lon="6.62313">
        <ele>18.1</ele>
        <time>2020-10-25T10:37:50Z</time>
      </trkpt>
      <trkpt lat="43.16563" lon="6.62321">
        <ele>17.8</ele>
        <time>2020-10-25T10:37:56Z</time>
      </trkpt>
      <trkpt lat="43.16564" lon="6.62327">
        <ele>17.3</ele>
        <time>2020-10-25T10:38:06Z</time>
      </trkpt>
      <trkpt lat="43.16567" lon="6.6233">
        <ele>17</ele>
        <time>2020-10-25T10:38:23Z</time>
      </trkpt>
      <trkpt lat="43.16569" lon="6.62333">
        <ele>16.9</ele>
        <time>2020-10-25T10:38:26Z</time>
      </trkpt>
      <trkpt lat="43.16572" lon="6.62337">
        <ele>17</ele>
        <time>2020-10-25T10:38:29Z</time>
      </trkpt>
      <trkpt lat="43.16574" lon="6.62341">
        <ele>16.6</ele>
        <time>2020-10-25T10:38:32Z</time>
      </trkpt>
      <trkpt lat="43.16577" lon="6.62344">
        <ele>16.5</ele>
        <time>2020-10-25T10:38:35Z</time>
      </trkpt>
      <trkpt lat="43.1658" lon="6.62348">
        <ele>16.6</ele>
        <time>2020-10-25T10:38:38Z</time>
      </trkpt>
      <trkpt lat="43.16582" lon="6.62351">
        <ele>16.7</ele>
        <time>2020-10-25T10:38:41Z</time>
      </trkpt>
      <trkpt lat="43.16585" lon="6.62354">
        <ele>16.4</ele>
        <time>2020-10-25T10:38:44Z</time>
      </trkpt>
      <trkpt lat="43.16589" lon="6.62358">
        <ele>16</ele>
        <time>2020-10-25T10:38:49Z</time>
      </trkpt>
      <trkpt lat="43.16591" lon="6.62361">
        <ele>15.7</ele>
        <time>2020-10-25T10:38:53Z</time>
      </trkpt>
      <trkpt lat="43.16592" lon="6.62362">
        <ele>15.7</ele>
        <time>2020-10-25T10:38:54Z</time>
      </trkpt>
      <trkpt lat="43.16598" lon="6.62366">
        <ele>15.5</ele>
        <time>2020-10-25T10:38:59Z</time>
      </trkpt>
      <trkpt lat="43.166" lon="6.6237">
        <ele>15.1</ele>
        <time>2020-10-25T10:39:02Z</time>
      </trkpt>
      <trkpt lat="43.166" lon="6.62375">
        <ele>14.6</ele>
        <time>2020-10-25T10:39:05Z</time>
      </trkpt>
      <trkpt lat="43.16601" lon="6.62381">
        <ele>14.7</ele>
        <time>2020-10-25T10:39:08Z</time>
      </trkpt>
      <trkpt lat="43.16603" lon="6.62385">
        <ele>14.4</ele>
        <time>2020-10-25T10:39:12Z</time>
      </trkpt>
      <trkpt lat="43.16606" lon="6.62389">
        <ele>14.6</ele>
        <time>2020-10-25T10:39:17Z</time>
      </trkpt>
      <trkpt lat="43.16607" lon="6.62395">
        <ele>15.2</ele>
        <time>2020-10-25T10:39:22Z</time>
      </trkpt>
      <trkpt lat="43.16606" lon="6.62401">
        <ele>16.4</ele>
        <time>2020-10-25T10:39:33Z</time>
      </trkpt>
      <trkpt lat="43.16605" lon="6.62407">
        <ele>17.1</ele>
        <time>2020-10-25T10:39:54Z</time>
      </trkpt>
      <trkpt lat="43.16605" lon="6.62407">
        <ele>17.2</ele>
        <time>2020-10-25T10:39:55Z</time>
      </trkpt>
      <trkpt lat="43.16612" lon="6.62413">
        <ele>19.7</ele>
        <time>2020-10-25T10:40:14Z</time>
      </trkpt>
      <trkpt lat="43.16613" lon="6.62419">
        <ele>21</ele>
        <time>2020-10-25T10:40:24Z</time>
      </trkpt>
      <trkpt lat="43.16613" lon="6.62425">
        <ele>22.2</ele>
        <time>2020-10-25T10:41:45Z</time>
      </trkpt>
      <trkpt lat="43.16614" lon="6.62425">
        <ele>22.3</ele>
        <time>2020-10-25T10:41:46Z</time>
      </trkpt>
      <trkpt lat="43.16619" lon="6.62434">
        <ele>24.4</ele>
        <time>2020-10-25T10:42:08Z</time>
      </trkpt>
      <trkpt lat="43.16622" lon="6.62438">
        <ele>25.2</ele>
        <time>2020-10-25T10:42:17Z</time>
      </trkpt>
      <trkpt lat="43.16626" lon="6.62441">
        <ele>26.3</ele>
        <time>2020-10-25T10:42:26Z</time>
      </trkpt>
      <trkpt lat="43.16629" lon="6.62446">
        <ele>27.3</ele>
        <time>2020-10-25T10:42:33Z</time>
      </trkpt>
      <trkpt lat="43.16632" lon="6.62449">
        <ele>28.3</ele>
        <time>2020-10-25T10:42:40Z</time>
      </trkpt>
      <trkpt lat="43.16633" lon="6.62455">
        <ele>29.5</ele>
        <time>2020-10-25T10:42:48Z</time>
      </trkpt>
      <trkpt lat="43.16633" lon="6.62456">
        <ele>29.6</ele>
        <time>2020-10-25T10:42:49Z</time>
      </trkpt>
      <trkpt lat="43.16636" lon="6.62465">
        <ele>31.3</ele>
        <time>2020-10-25T10:43:06Z</time>
      </trkpt>
      <trkpt lat="43.16638" lon="6.6247">
        <ele>31.6</ele>
        <time>2020-10-25T10:43:11Z</time>
      </trkpt>
      <trkpt lat="43.16639" lon="6.62476">
        <ele>32</ele>
        <time>2020-10-25T10:43:17Z</time>
      </trkpt>
      <trkpt lat="43.1664" lon="6.6248">
        <ele>32.3</ele>
        <time>2020-10-25T10:43:24Z</time>
      </trkpt>
      <trkpt lat="43.16641" lon="6.62486">
        <ele>32</ele>
        <time>2020-10-25T10:43:29Z</time>
      </trkpt>
      <trkpt lat="43.16642" lon="6.62492">
        <ele>31.9</ele>
        <time>2020-10-25T10:43:33Z</time>
      </trkpt>
      <trkpt lat="43.16643" lon="6.62498">
        <ele>31.8</ele>
        <time>2020-10-25T10:43:44Z</time>
      </trkpt>
      <trkpt lat="43.16643" lon="6.62504">
        <ele>31.7</ele>
        <time>2020-10-25T10:43:49Z</time>
      </trkpt>
      <trkpt lat="43.16643" lon="6.62505">
        <ele>31.7</ele>
        <time>2020-10-25T10:43:50Z</time>
      </trkpt>
      <trkpt lat="43.1664" lon="6.62515">
        <ele>31.9</ele>
        <time>2020-10-25T10:44:06Z</time>
      </trkpt>
      <trkpt lat="43.16639" lon="6.6252">
        <ele>31.8</ele>
        <time>2020-10-25T10:44:12Z</time>
      </trkpt>
      <trkpt lat="43.16638" lon="6.62525">
        <ele>31.8</ele>
        <time>2020-10-25T10:44:17Z</time>
      </trkpt>
      <trkpt lat="43.16636" lon="6.6253">
        <ele>31.7</ele>
        <time>2020-10-25T10:44:22Z</time>
      </trkpt>
      <trkpt lat="43.16634" lon="6.62535">
        <ele>31.9</ele>
        <time>2020-10-25T10:44:28Z</time>
      </trkpt>
      <trkpt lat="43.16636" lon="6.6254">
        <ele>32.3</ele>
        <time>2020-10-25T10:44:37Z</time>
      </trkpt>
      <trkpt lat="43.16636" lon="6.62546">
        <ele>32.7</ele>
        <time>2020-10-25T10:44:47Z</time>
      </trkpt>
      <trkpt lat="43.16637" lon="6.62552">
        <ele>33.7</ele>
        <time>2020-10-25T10:45:15Z</time>
      </trkpt>
      <trkpt lat="43.16637" lon="6.62552">
        <ele>33.6</ele>
        <time>2020-10-25T10:45:16Z</time>
      </trkpt>
      <trkpt lat="43.16641" lon="6.62563">
        <ele>33.7</ele>
        <time>2020-10-25T10:45:43Z</time>
      </trkpt>
      <trkpt lat="43.16644" lon="6.62565">
        <ele>34.1</ele>
        <time>2020-10-25T10:45:49Z</time>
      </trkpt>
      <trkpt lat="43.16649" lon="6.62567">
        <ele>34.8</ele>
        <time>2020-10-25T10:45:55Z</time>
      </trkpt>
      <trkpt lat="43.16651" lon="6.62571">
        <ele>35.6</ele>
        <time>2020-10-25T10:46:00Z</time>
      </trkpt>
      <trkpt lat="43.16653" lon="6.62576">
        <ele>36.2</ele>
        <time>2020-10-25T10:46:04Z</time>
      </trkpt>
      <trkpt lat="43.16656" lon="6.62579">
        <ele>37</ele>
        <time>2020-10-25T10:46:08Z</time>
      </trkpt>
      <trkpt lat="43.16659" lon="6.62582">
        <ele>37.6</ele>
        <time>2020-10-25T10:46:12Z</time>
      </trkpt>
      <trkpt lat="43.16662" lon="6.62586">
        <ele>38</ele>
        <time>2020-10-25T10:46:16Z</time>
      </trkpt>
      <trkpt lat="43.16662" lon="6.62588">
        <ele>38.1</ele>
        <time>2020-10-25T10:46:17Z</time>
      </trkpt>
      <trkpt lat="43.16667" lon="6.62594">
        <ele>38.9</ele>
        <time>2020-10-25T10:46:24Z</time>
      </trkpt>
      <trkpt lat="43.16671" lon="6.62595">
        <ele>39.3</ele>
        <time>2020-10-25T10:46:28Z</time>
      </trkpt>
      <trkpt lat="43.16673" lon="6.62598">
        <ele>39.8</ele>
        <time>2020-10-25T10:46:32Z</time>
      </trkpt>
      <trkpt lat="43.16674" lon="6.62604">
        <ele>40.6</ele>
        <time>2020-10-25T10:46:37Z</time>
      </trkpt>
      <trkpt lat="43.16674" lon="6.6261">
        <ele>40.6</ele>
        <time>2020-10-25T10:46:41Z</time>
      </trkpt>
      <trkpt lat="43.16676" lon="6.62615">
        <ele>40.6</ele>
        <time>2020-10-25T10:46:45Z</time>
      </trkpt>
      <trkpt lat="43.1668" lon="6.62616">
        <ele>40.8</ele>
        <time>2020-10-25T10:46:49Z</time>
      </trkpt>
      <trkpt lat="43.16685" lon="6.62616">
        <ele>40.7</ele>
        <time>2020-10-25T10:46:54Z</time>
      </trkpt>
      <trkpt lat="43.16688" lon="6.62619">
        <ele>40.8</ele>
        <time>2020-10-25T10:46:59Z</time>
      </trkpt>
      <trkpt lat="43.16692" lon="6.62619">
        <ele>41.1</ele>
        <time>2020-10-25T10:47:04Z</time>
      </trkpt>
      <trkpt lat="43.16695" lon="6.62622">
        <ele>42</ele>
        <time>2020-10-25T10:47:16Z</time>
      </trkpt>
      <trkpt lat="43.167" lon="6.62621">
        <ele>42.6</ele>
        <time>2020-10-25T10:47:22Z</time>
      </trkpt>
      <trkpt lat="43.167" lon="6.62621">
        <ele>42.7</ele>
        <time>2020-10-25T10:47:23Z</time>
      </trkpt>
      <trkpt lat="43.16707" lon="6.62625">
        <ele>43.4</ele>
        <time>2020-10-25T10:47:33Z</time>
      </trkpt>
      <trkpt lat="43.16711" lon="6.62627">
        <ele>43.9</ele>
        <time>2020-10-25T10:47:38Z</time>
      </trkpt>
      <trkpt lat="43.16715" lon="6.62628">
        <ele>44.6</ele>
        <time>2020-10-25T10:47:43Z</time>
      </trkpt>
      <trkpt lat="43.16719" lon="6.62631">
        <ele>45.1</ele>
        <time>2020-10-25T10:47:48Z</time>
      </trkpt>
      <trkpt lat="43.16723" lon="6.62631">
        <ele>45.8</ele>
        <time>2020-10-25T10:47:54Z</time>
      </trkpt>
      <trkpt lat="43.16727" lon="6.62631">
        <ele>46.3</ele>
        <time>2020-10-25T10:47:59Z</time>
      </trkpt>
      <trkpt lat="43.16731" lon="6.6263">
        <ele>46.7</ele>
        <time>2020-10-25T10:48:04Z</time>
      </trkpt>
      <trkpt lat="43.16735" lon="6.62629">
        <ele>46.9</ele>
        <time>2020-10-25T10:48:09Z</time>
      </trkpt>
      <trkpt lat="43.1674" lon="6.62629">
        <ele>47.3</ele>
        <time>2020-10-25T10:48:14Z</time>
      </trkpt>
      <trkpt lat="43.16744" lon="6.62628">
        <ele>47.7</ele>
        <time>2020-10-25T10:48:19Z</time>
      </trkpt>
      <trkpt lat="43.16748" lon="6.62627">
        <ele>47.7</ele>
        <time>2020-10-25T10:48:24Z</time>
      </trkpt>
      <trkpt lat="43.16749" lon="6.62627">
        <ele>47.6</ele>
        <time>2020-10-25T10:48:25Z</time>
      </trkpt>
      <trkpt lat="43.16756" lon="6.62628">
        <ele>47.7</ele>
        <time>2020-10-25T10:48:33Z</time>
      </trkpt>
      <trkpt lat="43.1676" lon="6.62626">
        <ele>48.2</ele>
        <time>2020-10-25T10:48:40Z</time>
      </trkpt>
      <trkpt lat="43.16764" lon="6.62627">
        <ele>48.9</ele>
        <time>2020-10-25T10:48:50Z</time>
      </trkpt>
      <trkpt lat="43.16768" lon="6.62629">
        <ele>49.6</ele>
        <time>2020-10-25T10:49:03Z</time>
      </trkpt>
      <trkpt lat="43.16772" lon="6.6263">
        <ele>49.1</ele>
        <time>2020-10-25T10:49:14Z</time>
      </trkpt>
      <trkpt lat="43.16775" lon="6.62634">
        <ele>48.4</ele>
        <time>2020-10-25T10:49:28Z</time>
      </trkpt>
      <trkpt lat="43.16775" lon="6.62635">
        <ele>48.3</ele>
        <time>2020-10-25T10:49:29Z</time>
      </trkpt>
      <trkpt lat="43.16781" lon="6.62641">
        <ele>46.7</ele>
        <time>2020-10-25T10:49:50Z</time>
      </trkpt>
      <trkpt lat="43.16783" lon="6.62647">
        <ele>45.5</ele>
        <time>2020-10-25T10:50:03Z</time>
      </trkpt>
      <trkpt lat="43.16783" lon="6.62652">
        <ele>44.5</ele>
        <time>2020-10-25T10:50:10Z</time>
      </trkpt>
      <trkpt lat="43.16786" lon="6.62657">
        <ele>42</ele>
        <time>2020-10-25T10:50:47Z</time>
      </trkpt>
      <trkpt lat="43.16787" lon="6.62658">
        <ele>42</ele>
        <time>2020-10-25T10:50:48Z</time>
      </trkpt>
      <trkpt lat="43.16791" lon="6.62665">
        <ele>41.6</ele>
        <time>2020-10-25T10:50:55Z</time>
      </trkpt>
      <trkpt lat="43.16794" lon="6.62669">
        <ele>40.7</ele>
        <time>2020-10-25T10:50:59Z</time>
      </trkpt>
      <trkpt lat="43.16797" lon="6.62673">
        <ele>40.1</ele>
        <time>2020-10-25T10:51:03Z</time>
      </trkpt>
      <trkpt lat="43.16801" lon="6.62677">
        <ele>39.4</ele>
        <time>2020-10-25T10:51:08Z</time>
      </trkpt>
      <trkpt lat="43.16803" lon="6.62681">
        <ele>38.8</ele>
        <time>2020-10-25T10:51:13Z</time>
      </trkpt>
      <trkpt lat="43.16806" lon="6.62686">
        <ele>38.2</ele>
        <time>2020-10-25T10:51:18Z</time>
      </trkpt>
      <trkpt lat="43.1681" lon="6.62689">
        <ele>37.2</ele>
        <time>2020-10-25T10:51:25Z</time>
      </trkpt>
      <trkpt lat="43.1681" lon="6.62694">
        <ele>34</ele>
        <time>2020-10-25T10:51:46Z</time>
      </trkpt>
      <trkpt lat="43.16812" lon="6.62699">
        <ele>32.2</ele>
        <time>2020-10-25T10:51:59Z</time>
      </trkpt>
      <trkpt lat="43.16813" lon="6.627">
        <ele>32.1</ele>
        <time>2020-10-25T10:52:00Z</time>
      </trkpt>
      <trkpt lat="43.16819" lon="6.62704">
        <ele>30.2</ele>
        <time>2020-10-25T10:52:08Z</time>
      </trkpt>
      <trkpt lat="43.16823" lon="6.62706">
        <ele>29.6</ele>
        <time>2020-10-25T10:52:12Z</time>
      </trkpt>
      <trkpt lat="43.16827" lon="6.62707">
        <ele>28.9</ele>
        <time>2020-10-25T10:52:17Z</time>
      </trkpt>
      <trkpt lat="43.16831" lon="6.62709">
        <ele>28.4</ele>
        <time>2020-10-25T10:52:21Z</time>
      </trkpt>
      <trkpt lat="43.16835" lon="6.62711">
        <ele>28.1</ele>
        <time>2020-10-25T10:52:25Z</time>
      </trkpt>
      <trkpt lat="43.16838" lon="6.62714">
        <ele>27.1</ele>
        <time>2020-10-25T10:52:31Z</time>
      </trkpt>
      <trkpt lat="43.16841" lon="6.62717">
        <ele>26.8</ele>
        <time>2020-10-25T10:52:36Z</time>
      </trkpt>
      <trkpt lat="43.16844" lon="6.62721">
        <ele>25.3</ele>
        <time>2020-10-25T10:52:59Z</time>
      </trkpt>
      <trkpt lat="43.16848" lon="6.62725">
        <ele>24.1</ele>
        <time>2020-10-25T10:53:19Z</time>
      </trkpt>
      <trkpt lat="43.16849" lon="6.62725">
        <ele>24</ele>
        <time>2020-10-25T10:53:20Z</time>
      </trkpt>
      <trkpt lat="43.16855" lon="6.62725">
        <ele>23.3</ele>
        <time>2020-10-25T10:53:31Z</time>
      </trkpt>
      <trkpt lat="43.16859" lon="6.62725">
        <ele>22.9</ele>
        <time>2020-10-25T10:53:34Z</time>
      </trkpt>
      <trkpt lat="43.16863" lon="6.62726">
        <ele>22.9</ele>
        <time>2020-10-25T10:53:38Z</time>
      </trkpt>
      <trkpt lat="43.16866" lon="6.6273">
        <ele>22.8</ele>
        <time>2020-10-25T10:53:43Z</time>
      </trkpt>
      <trkpt lat="43.1687" lon="6.62731">
        <ele>23.3</ele>
        <time>2020-10-25T10:54:21Z</time>
      </trkpt>
      <trkpt lat="43.1687" lon="6.62732">
        <ele>23.2</ele>
        <time>2020-10-25T10:54:22Z</time>
      </trkpt>
      <trkpt lat="43.16873" lon="6.62741">
        <ele>23.2</ele>
        <time>2020-10-25T10:54:30Z</time>
      </trkpt>
      <trkpt lat="43.16877" lon="6.62742">
        <ele>23.1</ele>
        <time>2020-10-25T10:54:33Z</time>
      </trkpt>
      <trkpt lat="43.1688" lon="6.62745">
        <ele>22.8</ele>
        <time>2020-10-25T10:54:37Z</time>
      </trkpt>
      <trkpt lat="43.16884" lon="6.62746">
        <ele>22</ele>
        <time>2020-10-25T10:54:41Z</time>
      </trkpt>
      <trkpt lat="43.16888" lon="6.62749">
        <ele>21.7</ele>
        <time>2020-10-25T10:54:45Z</time>
      </trkpt>
      <trkpt lat="43.16891" lon="6.62753">
        <ele>21.5</ele>
        <time>2020-10-25T10:54:51Z</time>
      </trkpt>
      <trkpt lat="43.16895" lon="6.62756">
        <ele>21.9</ele>
        <time>2020-10-25T10:54:57Z</time>
      </trkpt>
      <trkpt lat="43.16898" lon="6.62759">
        <ele>23.1</ele>
        <time>2020-10-25T10:55:31Z</time>
      </trkpt>
      <trkpt lat="43.16898" lon="6.6276">
        <ele>23.1</ele>
        <time>2020-10-25T10:55:32Z</time>
      </trkpt>
      <trkpt lat="43.16904" lon="6.62765">
        <ele>23.6</ele>
        <time>2020-10-25T10:55:40Z</time>
      </trkpt>
      <trkpt lat="43.16907" lon="6.6277">
        <ele>24.2</ele>
        <time>2020-10-25T10:55:48Z</time>
      </trkpt>
      <trkpt lat="43.1691" lon="6.62773">
        <ele>26.1</ele>
        <time>2020-10-25T10:56:00Z</time>
      </trkpt>
      <trkpt lat="43.16913" lon="6.62778">
        <ele>26.9</ele>
        <time>2020-10-25T10:56:08Z</time>
      </trkpt>
      <trkpt lat="43.16915" lon="6.62782">
        <ele>26.9</ele>
        <time>2020-10-25T10:56:13Z</time>
      </trkpt>
      <trkpt lat="43.16917" lon="6.62787">
        <ele>26.9</ele>
        <time>2020-10-25T10:56:17Z</time>
      </trkpt>
      <trkpt lat="43.1692" lon="6.62792">
        <ele>26.1</ele>
        <time>2020-10-25T10:56:41Z</time>
      </trkpt>
      <trkpt lat="43.1692" lon="6.62792">
        <ele>26.2</ele>
        <time>2020-10-25T10:56:42Z</time>
      </trkpt>
      <trkpt lat="43.16924" lon="6.62801">
        <ele>27</ele>
        <time>2020-10-25T10:56:56Z</time>
      </trkpt>
      <trkpt lat="43.16926" lon="6.62807">
        <ele>28.5</ele>
        <time>2020-10-25T10:57:04Z</time>
      </trkpt>
      <trkpt lat="43.1693" lon="6.62806">
        <ele>30.5</ele>
        <time>2020-10-25T10:57:16Z</time>
      </trkpt>
      <trkpt lat="43.16934" lon="6.62807">
        <ele>32.5</ele>
        <time>2020-10-25T10:57:29Z</time>
      </trkpt>
      <trkpt lat="43.16938" lon="6.62804">
        <ele>35</ele>
        <time>2020-10-25T10:57:48Z</time>
      </trkpt>
      <trkpt lat="43.16938" lon="6.62804">
        <ele>35</ele>
        <time>2020-10-25T10:57:49Z</time>
      </trkpt>
      <trkpt lat="43.16944" lon="6.62797">
        <ele>40.1</ele>
        <time>2020-10-25T10:59:35Z</time>
      </trkpt>
      <trkpt lat="43.16945" lon="6.62796">
        <ele>40.2</ele>
        <time>2020-10-25T10:59:36Z</time>
      </trkpt>
      <trkpt lat="43.16952" lon="6.62792">
        <ele>43.9</ele>
        <time>2020-10-25T11:00:09Z</time>
      </trkpt>
      <trkpt lat="43.16956" lon="6.62794">
        <ele>46.6</ele>
        <time>2020-10-25T11:00:29Z</time>
      </trkpt>
      <trkpt lat="43.16959" lon="6.62797">
        <ele>47.8</ele>
        <time>2020-10-25T11:00:37Z</time>
      </trkpt>
      <trkpt lat="43.1696" lon="6.62797">
        <ele>47.9</ele>
        <time>2020-10-25T11:00:38Z</time>
      </trkpt>
      <trkpt lat="43.16965" lon="6.62806">
        <ele>51.3</ele>
        <time>2020-10-25T11:01:05Z</time>
      </trkpt>
      <trkpt lat="43.16966" lon="6.62811">
        <ele>53.2</ele>
        <time>2020-10-25T11:01:20Z</time>
      </trkpt>
      <trkpt lat="43.16967" lon="6.62817">
        <ele>54.2</ele>
        <time>2020-10-25T11:01:27Z</time>
      </trkpt>
      <trkpt lat="43.16969" lon="6.62822">
        <ele>55.6</ele>
        <time>2020-10-25T11:01:36Z</time>
      </trkpt>
      <trkpt lat="43.16972" lon="6.62826">
        <ele>56.5</ele>
        <time>2020-10-25T11:01:45Z</time>
      </trkpt>
      <trkpt lat="43.16973" lon="6.62826">
        <ele>56.6</ele>
        <time>2020-10-25T11:01:46Z</time>
      </trkpt>
      <trkpt lat="43.16976" lon="6.62836">
        <ele>57.3</ele>
        <time>2020-10-25T11:01:56Z</time>
      </trkpt>
      <trkpt lat="43.16977" lon="6.62841">
        <ele>57.7</ele>
        <time>2020-10-25T11:02:01Z</time>
      </trkpt>
      <trkpt lat="43.16978" lon="6.62847">
        <ele>57.6</ele>
        <time>2020-10-25T11:02:05Z</time>
      </trkpt>
      <trkpt lat="43.16979" lon="6.62852">
        <ele>57.8</ele>
        <time>2020-10-25T11:02:09Z</time>
      </trkpt>
      <trkpt lat="43.1698" lon="6.62857">
        <ele>57.6</ele>
        <time>2020-10-25T11:02:13Z</time>
      </trkpt>
      <trkpt lat="43.16982" lon="6.62863">
        <ele>57.5</ele>
        <time>2020-10-25T11:02:18Z</time>
      </trkpt>
      <trkpt lat="43.16982" lon="6.62868">
        <ele>57.1</ele>
        <time>2020-10-25T11:02:25Z</time>
      </trkpt>
      <trkpt lat="43.16983" lon="6.62874">
        <ele>55.2</ele>
        <time>2020-10-25T11:02:37Z</time>
      </trkpt>
      <trkpt lat="43.16985" lon="6.6288">
        <ele>54</ele>
        <time>2020-10-25T11:02:47Z</time>
      </trkpt>
      <trkpt lat="43.16985" lon="6.62881">
        <ele>53.9</ele>
        <time>2020-10-25T11:02:48Z</time>
      </trkpt>
      <trkpt lat="43.16988" lon="6.62889">
        <ele>52.2</ele>
        <time>2020-10-25T11:03:02Z</time>
      </trkpt>
      <trkpt lat="43.16991" lon="6.62893">
        <ele>51.5</ele>
        <time>2020-10-25T11:03:08Z</time>
      </trkpt>
      <trkpt lat="43.16993" lon="6.62896">
        <ele>51.2</ele>
        <time>2020-10-25T11:03:12Z</time>
      </trkpt>
      <trkpt lat="43.16997" lon="6.629">
        <ele>50.9</ele>
        <time>2020-10-25T11:03:17Z</time>
      </trkpt>
      <trkpt lat="43.17001" lon="6.62902">
        <ele>50.7</ele>
        <time>2020-10-25T11:03:23Z</time>
      </trkpt>
      <trkpt lat="43.17005" lon="6.62905">
        <ele>50.8</ele>
        <time>2020-10-25T11:03:30Z</time>
      </trkpt>
      <trkpt lat="43.17008" lon="6.62908">
        <ele>50.9</ele>
        <time>2020-10-25T11:03:35Z</time>
      </trkpt>
      <trkpt lat="43.17011" lon="6.62912">
        <ele>51.4</ele>
        <time>2020-10-25T11:03:41Z</time>
      </trkpt>
      <trkpt lat="43.17014" lon="6.62916">
        <ele>51.5</ele>
        <time>2020-10-25T11:03:48Z</time>
      </trkpt>
      <trkpt lat="43.17014" lon="6.62916">
        <ele>51.5</ele>
        <time>2020-10-25T11:03:49Z</time>
      </trkpt>
      <trkpt lat="43.17012" lon="6.62927">
        <ele>48.9</ele>
        <time>2020-10-25T11:04:11Z</time>
      </trkpt>
      <trkpt lat="43.17008" lon="6.6293">
        <ele>46.7</ele>
        <time>2020-10-25T11:04:26Z</time>
      </trkpt>
      <trkpt lat="43.17007" lon="6.62935">
        <ele>43.9</ele>
        <time>2020-10-25T11:04:52Z</time>
      </trkpt>
      <trkpt lat="43.17008" lon="6.62936">
        <ele>43.8</ele>
        <time>2020-10-25T11:04:53Z</time>
      </trkpt>
      <trkpt lat="43.17006" lon="6.62943">
        <ele>41.9</ele>
        <time>2020-10-25T11:05:09Z</time>
      </trkpt>
      <trkpt lat="43.17002" lon="6.62946">
        <ele>39.6</ele>
        <time>2020-10-25T11:05:21Z</time>
      </trkpt>
      <trkpt lat="43.16997" lon="6.62945">
        <ele>38.2</ele>
        <time>2020-10-25T11:05:29Z</time>
      </trkpt>
      <trkpt lat="43.16993" lon="6.62946">
        <ele>35.1</ele>
        <time>2020-10-25T11:05:48Z</time>
      </trkpt>
      <trkpt lat="43.16992" lon="6.62951">
        <ele>32.3</ele>
        <time>2020-10-25T11:06:18Z</time>
      </trkpt>
      <trkpt lat="43.16992" lon="6.62952">
        <ele>32.3</ele>
        <time>2020-10-25T11:06:19Z</time>
      </trkpt>
      <trkpt lat="43.16989" lon="6.62961">
        <ele>29.9</ele>
        <time>2020-10-25T11:07:01Z</time>
      </trkpt>
      <trkpt lat="43.16992" lon="6.62965">
        <ele>29.2</ele>
        <time>2020-10-25T11:07:14Z</time>
      </trkpt>
      <trkpt lat="43.16994" lon="6.6297">
        <ele>28.2</ele>
        <time>2020-10-25T11:07:28Z</time>
      </trkpt>
      <trkpt lat="43.16994" lon="6.6297">
        <ele>28.2</ele>
        <time>2020-10-25T11:07:29Z</time>
      </trkpt>
      <trkpt lat="43.17" lon="6.62977">
        <ele>27.2</ele>
        <time>2020-10-25T11:07:42Z</time>
      </trkpt>
      <trkpt lat="43.17004" lon="6.62979">
        <ele>26.5</ele>
        <time>2020-10-25T11:07:48Z</time>
      </trkpt>
      <trkpt lat="43.17008" lon="6.6298">
        <ele>26</ele>
        <time>2020-10-25T11:07:53Z</time>
      </trkpt>
      <trkpt lat="43.17012" lon="6.6298">
        <ele>25.4</ele>
        <time>2020-10-25T11:07:58Z</time>
      </trkpt>
      <trkpt lat="43.17016" lon="6.62979">
        <ele>24.8</ele>
        <time>2020-10-25T11:08:04Z</time>
      </trkpt>
      <trkpt lat="43.1702" lon="6.62978">
        <ele>24.3</ele>
        <time>2020-10-25T11:08:09Z</time>
      </trkpt>
      <trkpt lat="43.17024" lon="6.62981">
        <ele>24</ele>
        <time>2020-10-25T11:08:29Z</time>
      </trkpt>
      <trkpt lat="43.17024" lon="6.62981">
        <ele>23.9</ele>
        <time>2020-10-25T11:08:30Z</time>
      </trkpt>
      <trkpt lat="43.17032" lon="6.62985">
        <ele>23.3</ele>
        <time>2020-10-25T11:08:42Z</time>
      </trkpt>
      <trkpt lat="43.17036" lon="6.62985">
        <ele>22.6</ele>
        <time>2020-10-25T11:08:51Z</time>
      </trkpt>
      <trkpt lat="43.1704" lon="6.62983">
        <ele>21.6</ele>
        <time>2020-10-25T11:09:02Z</time>
      </trkpt>
      <trkpt lat="43.17044" lon="6.62982">
        <ele>21</ele>
        <time>2020-10-25T11:09:17Z</time>
      </trkpt>
      <trkpt lat="43.17048" lon="6.62984">
        <ele>21.1</ele>
        <time>2020-10-25T11:09:25Z</time>
      </trkpt>
      <trkpt lat="43.17051" lon="6.62986">
        <ele>21.3</ele>
        <time>2020-10-25T11:09:31Z</time>
      </trkpt>
      <trkpt lat="43.17052" lon="6.62987">
        <ele>21.2</ele>
        <time>2020-10-25T11:09:32Z</time>
      </trkpt>
      <trkpt lat="43.17059" lon="6.62988">
        <ele>21.9</ele>
        <time>2020-10-25T11:09:54Z</time>
      </trkpt>
      <trkpt lat="43.17062" lon="6.62992">
        <ele>22.2</ele>
        <time>2020-10-25T11:10:02Z</time>
      </trkpt>
      <trkpt lat="43.17065" lon="6.62997">
        <ele>22.5</ele>
        <time>2020-10-25T11:10:08Z</time>
      </trkpt>
      <trkpt lat="43.17067" lon="6.63002">
        <ele>22.8</ele>
        <time>2020-10-25T11:10:14Z</time>
      </trkpt>
      <trkpt lat="43.17068" lon="6.63007">
        <ele>23</ele>
        <time>2020-10-25T11:10:18Z</time>
      </trkpt>
      <trkpt lat="43.17071" lon="6.63011">
        <ele>23.2</ele>
        <time>2020-10-25T11:10:22Z</time>
      </trkpt>
      <trkpt lat="43.17074" lon="6.63015">
        <ele>23.4</ele>
        <time>2020-10-25T11:10:27Z</time>
      </trkpt>
      <trkpt lat="43.17078" lon="6.63018">
        <ele>23.1</ele>
        <time>2020-10-25T11:10:33Z</time>
      </trkpt>
      <trkpt lat="43.17078" lon="6.63019">
        <ele>23.1</ele>
        <time>2020-10-25T11:10:34Z</time>
      </trkpt>
      <trkpt lat="43.17084" lon="6.63024">
        <ele>22.8</ele>
        <time>2020-10-25T11:10:42Z</time>
      </trkpt>
      <trkpt lat="43.17088" lon="6.63027">
        <ele>22.6</ele>
        <time>2020-10-25T11:10:48Z</time>
      </trkpt>
      <trkpt lat="43.17092" lon="6.6303">
        <ele>23</ele>
        <time>2020-10-25T11:10:58Z</time>
      </trkpt>
      <trkpt lat="43.17095" lon="6.63033">
        <ele>23.8</ele>
        <time>2020-10-25T11:11:08Z</time>
      </trkpt>
      <trkpt lat="43.17099" lon="6.63037">
        <ele>24.1</ele>
        <time>2020-10-25T11:11:15Z</time>
      </trkpt>
      <trkpt lat="43.17101" lon="6.6304">
        <ele>24.1</ele>
        <time>2020-10-25T11:11:18Z</time>
      </trkpt>
      <trkpt lat="43.17105" lon="6.63044">
        <ele>24.2</ele>
        <time>2020-10-25T11:11:22Z</time>
      </trkpt>
      <trkpt lat="43.17107" lon="6.63049">
        <ele>24.4</ele>
        <time>2020-10-25T11:11:26Z</time>
      </trkpt>
      <trkpt lat="43.1711" lon="6.63052">
        <ele>25.1</ele>
        <time>2020-10-25T11:11:34Z</time>
      </trkpt>
      <trkpt lat="43.17111" lon="6.63053">
        <ele>25.2</ele>
        <time>2020-10-25T11:11:35Z</time>
      </trkpt>
      <trkpt lat="43.17116" lon="6.6306">
        <ele>26.8</ele>
        <time>2020-10-25T11:11:52Z</time>
      </trkpt>
      <trkpt lat="43.17118" lon="6.63066">
        <ele>28.1</ele>
        <time>2020-10-25T11:12:03Z</time>
      </trkpt>
      <trkpt lat="43.1712" lon="6.63069">
        <ele>28.2</ele>
        <time>2020-10-25T11:12:07Z</time>
      </trkpt>
      <trkpt lat="43.17122" lon="6.63074">
        <ele>27.9</ele>
        <time>2020-10-25T11:12:11Z</time>
      </trkpt>
      <trkpt lat="43.17123" lon="6.63079">
        <ele>28</ele>
        <time>2020-10-25T11:12:15Z</time>
      </trkpt>
      <trkpt lat="43.17125" lon="6.63084">
        <ele>27.9</ele>
        <time>2020-10-25T11:12:19Z</time>
      </trkpt>
      <trkpt lat="43.17126" lon="6.6309">
        <ele>26.8</ele>
        <time>2020-10-25T11:12:33Z</time>
      </trkpt>
      <trkpt lat="43.17126" lon="6.63096">
        <ele>26.1</ele>
        <time>2020-10-25T11:12:39Z</time>
      </trkpt>
      <trkpt lat="43.17126" lon="6.63097">
        <ele>26</ele>
        <time>2020-10-25T11:12:40Z</time>
      </trkpt>
      <trkpt lat="43.17125" lon="6.63106">
        <ele>25.6</ele>
        <time>2020-10-25T11:12:48Z</time>
      </trkpt>
      <trkpt lat="43.17124" lon="6.63112">
        <ele>25.5</ele>
        <time>2020-10-25T11:12:53Z</time>
      </trkpt>
      <trkpt lat="43.17124" lon="6.63118">
        <ele>25.6</ele>
        <time>2020-10-25T11:12:57Z</time>
      </trkpt>
      <trkpt lat="43.17124" lon="6.63124">
        <ele>25.8</ele>
        <time>2020-10-25T11:13:01Z</time>
      </trkpt>
      <trkpt lat="43.17124" lon="6.63129">
        <ele>26.1</ele>
        <time>2020-10-25T11:13:05Z</time>
      </trkpt>
      <trkpt lat="43.17123" lon="6.63134">
        <ele>26.3</ele>
        <time>2020-10-25T11:13:08Z</time>
      </trkpt>
      <trkpt lat="43.17124" lon="6.63139">
        <ele>26.2</ele>
        <time>2020-10-25T11:13:12Z</time>
      </trkpt>
      <trkpt lat="43.17123" lon="6.63145">
        <ele>26</ele>
        <time>2020-10-25T11:13:17Z</time>
      </trkpt>
      <trkpt lat="43.17122" lon="6.63151">
        <ele>25.8</ele>
        <time>2020-10-25T11:13:22Z</time>
      </trkpt>
      <trkpt lat="43.17119" lon="6.63156">
        <ele>25.7</ele>
        <time>2020-10-25T11:13:28Z</time>
      </trkpt>
      <trkpt lat="43.17117" lon="6.63159">
        <ele>25.7</ele>
        <time>2020-10-25T11:13:32Z</time>
      </trkpt>
      <trkpt lat="43.17114" lon="6.63163">
        <ele>25.5</ele>
        <time>2020-10-25T11:13:36Z</time>
      </trkpt>
      <trkpt lat="43.17111" lon="6.63166">
        <ele>25.2</ele>
        <time>2020-10-25T11:13:42Z</time>
      </trkpt>
      <trkpt lat="43.1711" lon="6.63167">
        <ele>25</ele>
        <time>2020-10-25T11:13:43Z</time>
      </trkpt>
      <trkpt lat="43.17106" lon="6.63176">
        <ele>23.5</ele>
        <time>2020-10-25T11:13:54Z</time>
      </trkpt>
      <trkpt lat="43.17107" lon="6.63182">
        <ele>23</ele>
        <time>2020-10-25T11:14:02Z</time>
      </trkpt>
      <trkpt lat="43.17108" lon="6.63187">
        <ele>22.9</ele>
        <time>2020-10-25T11:14:07Z</time>
      </trkpt>
      <trkpt lat="43.1711" lon="6.63191">
        <ele>22.8</ele>
        <time>2020-10-25T11:14:11Z</time>
      </trkpt>
      <trkpt lat="43.17112" lon="6.63196">
        <ele>22.8</ele>
        <time>2020-10-25T11:14:16Z</time>
      </trkpt>
      <trkpt lat="43.17115" lon="6.632">
        <ele>22.9</ele>
        <time>2020-10-25T11:14:20Z</time>
      </trkpt>
      <trkpt lat="43.17119" lon="6.63203">
        <ele>22.9</ele>
        <time>2020-10-25T11:14:24Z</time>
      </trkpt>
      <trkpt lat="43.17123" lon="6.63203">
        <ele>22.8</ele>
        <time>2020-10-25T11:14:28Z</time>
      </trkpt>
      <trkpt lat="43.17127" lon="6.63201">
        <ele>22.4</ele>
        <time>2020-10-25T11:14:37Z</time>
      </trkpt>
      <trkpt lat="43.17131" lon="6.63201">
        <ele>22.3</ele>
        <time>2020-10-25T11:14:41Z</time>
      </trkpt>
      <trkpt lat="43.17135" lon="6.63201">
        <ele>22.1</ele>
        <time>2020-10-25T11:14:47Z</time>
      </trkpt>
      <trkpt lat="43.17135" lon="6.632">
        <ele>22</ele>
        <time>2020-10-25T11:14:48Z</time>
      </trkpt>
      <trkpt lat="43.17142" lon="6.632">
        <ele>21.9</ele>
        <time>2020-10-25T11:14:59Z</time>
      </trkpt>
      <trkpt lat="43.17146" lon="6.63201">
        <ele>22.5</ele>
        <time>2020-10-25T11:15:04Z</time>
      </trkpt>
      <trkpt lat="43.17151" lon="6.63199">
        <ele>22.3</ele>
        <time>2020-10-25T11:15:15Z</time>
      </trkpt>
      <trkpt lat="43.17155" lon="6.63199">
        <ele>21.7</ele>
        <time>2020-10-25T11:15:25Z</time>
      </trkpt>
      <trkpt lat="43.17159" lon="6.632">
        <ele>21.4</ele>
        <time>2020-10-25T11:15:30Z</time>
      </trkpt>
      <trkpt lat="43.17163" lon="6.632">
        <ele>21.8</ele>
        <time>2020-10-25T11:15:56Z</time>
      </trkpt>
      <trkpt lat="43.17164" lon="6.63201">
        <ele>21.8</ele>
        <time>2020-10-25T11:15:57Z</time>
      </trkpt>
      <trkpt lat="43.1717" lon="6.63206">
        <ele>21.8</ele>
        <time>2020-10-25T11:16:04Z</time>
      </trkpt>
      <trkpt lat="43.17174" lon="6.63207">
        <ele>21.8</ele>
        <time>2020-10-25T11:16:08Z</time>
      </trkpt>
      <trkpt lat="43.17177" lon="6.6321">
        <ele>21.7</ele>
        <time>2020-10-25T11:16:13Z</time>
      </trkpt>
      <trkpt lat="43.17181" lon="6.63211">
        <ele>21.7</ele>
        <time>2020-10-25T11:16:20Z</time>
      </trkpt>
      <trkpt lat="43.17185" lon="6.63215">
        <ele>21.6</ele>
        <time>2020-10-25T11:16:27Z</time>
      </trkpt>
      <trkpt lat="43.17189" lon="6.63216">
        <ele>21.5</ele>
        <time>2020-10-25T11:16:32Z</time>
      </trkpt>
      <trkpt lat="43.17193" lon="6.6322">
        <ele>20.6</ele>
        <time>2020-10-25T11:16:43Z</time>
      </trkpt>
      <trkpt lat="43.17196" lon="6.63224">
        <ele>20.1</ele>
        <time>2020-10-25T11:16:52Z</time>
      </trkpt>
      <trkpt lat="43.17199" lon="6.63228">
        <ele>20.3</ele>
        <time>2020-10-25T11:16:59Z</time>
      </trkpt>
      <trkpt lat="43.172" lon="6.63228">
        <ele>20.3</ele>
        <time>2020-10-25T11:17:00Z</time>
      </trkpt>
      <trkpt lat="43.17207" lon="6.63229">
        <ele>20</ele>
        <time>2020-10-25T11:17:10Z</time>
      </trkpt>
      <trkpt lat="43.17211" lon="6.63228">
        <ele>20</ele>
        <time>2020-10-25T11:17:32Z</time>
      </trkpt>
      <trkpt lat="43.17215" lon="6.63232">
        <ele>19.7</ele>
        <time>2020-10-25T11:18:01Z</time>
      </trkpt>
      <trkpt lat="43.17215" lon="6.63232">
        <ele>19.7</ele>
        <time>2020-10-25T11:18:02Z</time>
      </trkpt>
      <trkpt lat="43.1722" lon="6.63239">
        <ele>20.9</ele>
        <time>2020-10-25T11:18:39Z</time>
      </trkpt>
      <trkpt lat="43.17224" lon="6.63243">
        <ele>20.8</ele>
        <time>2020-10-25T11:18:57Z</time>
      </trkpt>
      <trkpt lat="43.17227" lon="6.63246">
        <ele>20</ele>
        <time>2020-10-25T11:19:05Z</time>
      </trkpt>
      <trkpt lat="43.17228" lon="6.63246">
        <ele>19.9</ele>
        <time>2020-10-25T11:19:06Z</time>
      </trkpt>
      <trkpt lat="43.17234" lon="6.63251">
        <ele>19.2</ele>
        <time>2020-10-25T11:19:15Z</time>
      </trkpt>
      <trkpt lat="43.17238" lon="6.63253">
        <ele>19</ele>
        <time>2020-10-25T11:19:25Z</time>
      </trkpt>
      <trkpt lat="43.1724" lon="6.63257">
        <ele>18.9</ele>
        <time>2020-10-25T11:19:30Z</time>
      </trkpt>
      <trkpt lat="43.17242" lon="6.63262">
        <ele>18.9</ele>
        <time>2020-10-25T11:19:35Z</time>
      </trkpt>
      <trkpt lat="43.17243" lon="6.63268">
        <ele>19.1</ele>
        <time>2020-10-25T11:19:40Z</time>
      </trkpt>
      <trkpt lat="43.17245" lon="6.63273">
        <ele>19</ele>
        <time>2020-10-25T11:19:45Z</time>
      </trkpt>
      <trkpt lat="43.17247" lon="6.63278">
        <ele>18.6</ele>
        <time>2020-10-25T11:19:49Z</time>
      </trkpt>
      <trkpt lat="43.17249" lon="6.63283">
        <ele>18.4</ele>
        <time>2020-10-25T11:19:53Z</time>
      </trkpt>
      <trkpt lat="43.1725" lon="6.63288">
        <ele>18.5</ele>
        <time>2020-10-25T11:19:57Z</time>
      </trkpt>
      <trkpt lat="43.17252" lon="6.63293">
        <ele>18.8</ele>
        <time>2020-10-25T11:20:02Z</time>
      </trkpt>
      <trkpt lat="43.17253" lon="6.63299">
        <ele>19</ele>
        <time>2020-10-25T11:20:07Z</time>
      </trkpt>
      <trkpt lat="43.17254" lon="6.633">
        <ele>19</ele>
        <time>2020-10-25T11:20:08Z</time>
      </trkpt>
      <trkpt lat="43.17255" lon="6.63309">
        <ele>19.8</ele>
        <time>2020-10-25T11:20:29Z</time>
      </trkpt>
      <trkpt lat="43.17257" lon="6.63314">
        <ele>19.2</ele>
        <time>2020-10-25T11:20:48Z</time>
      </trkpt>
      <trkpt lat="43.17261" lon="6.63316">
        <ele>19.2</ele>
        <time>2020-10-25T11:20:54Z</time>
      </trkpt>
      <trkpt lat="43.17265" lon="6.63319">
        <ele>19</ele>
        <time>2020-10-25T11:21:01Z</time>
      </trkpt>
      <trkpt lat="43.17268" lon="6.63323">
        <ele>20.4</ele>
        <time>2020-10-25T11:22:30Z</time>
      </trkpt>
      <trkpt lat="43.17268" lon="6.63323">
        <ele>20.4</ele>
        <time>2020-10-25T11:22:31Z</time>
      </trkpt>
      <trkpt lat="43.17263" lon="6.63323">
        <ele>19.8</ele>
        <time>2020-10-25T11:28:56Z</time>
      </trkpt>
      <trkpt lat="43.17263" lon="6.63323">
        <ele>19.8</ele>
        <time>2020-10-25T11:28:57Z</time>
      </trkpt>
      <trkpt lat="43.17265" lon="6.63326">
        <ele>23.5</ele>
        <time>2020-10-25T12:06:32Z</time>
      </trkpt>
      <trkpt lat="43.17264" lon="6.63327">
        <ele>23.5</ele>
        <time>2020-10-25T12:06:33Z</time>
      </trkpt>
      <trkpt lat="43.17261" lon="6.63335">
        <ele>23.5</ele>
        <time>2020-10-25T12:06:40Z</time>
      </trkpt>
      <trkpt lat="43.1726" lon="6.6334">
        <ele>23.4</ele>
        <time>2020-10-25T12:06:44Z</time>
      </trkpt>
      <trkpt lat="43.17259" lon="6.63345">
        <ele>23.4</ele>
        <time>2020-10-25T12:06:48Z</time>
      </trkpt>
      <trkpt lat="43.17258" lon="6.63351">
        <ele>23.2</ele>
        <time>2020-10-25T12:06:52Z</time>
      </trkpt>
      <trkpt lat="43.17258" lon="6.63356">
        <ele>23</ele>
        <time>2020-10-25T12:06:56Z</time>
      </trkpt>
      <trkpt lat="43.17259" lon="6.63361">
        <ele>22.8</ele>
        <time>2020-10-25T12:07:00Z</time>
      </trkpt>
      <trkpt lat="43.17261" lon="6.63366">
        <ele>22.6</ele>
        <time>2020-10-25T12:07:04Z</time>
      </trkpt>
      <trkpt lat="43.17262" lon="6.63371">
        <ele>22.4</ele>
        <time>2020-10-25T12:07:08Z</time>
      </trkpt>
      <trkpt lat="43.17263" lon="6.63377">
        <ele>22.4</ele>
        <time>2020-10-25T12:07:12Z</time>
      </trkpt>
      <trkpt lat="43.17264" lon="6.63382">
        <ele>22.5</ele>
        <time>2020-10-25T12:07:16Z</time>
      </trkpt>
      <trkpt lat="43.17264" lon="6.63387">
        <ele>22.3</ele>
        <time>2020-10-25T12:07:20Z</time>
      </trkpt>
      <trkpt lat="43.17265" lon="6.63393">
        <ele>22.4</ele>
        <time>2020-10-25T12:07:24Z</time>
      </trkpt>
      <trkpt lat="43.17264" lon="6.63398">
        <ele>22.4</ele>
        <time>2020-10-25T12:07:28Z</time>
      </trkpt>
      <trkpt lat="43.17264" lon="6.63403">
        <ele>22.2</ele>
        <time>2020-10-25T12:07:32Z</time>
      </trkpt>
      <trkpt lat="43.17266" lon="6.63408">
        <ele>22.1</ele>
        <time>2020-10-25T12:07:36Z</time>
      </trkpt>
      <trkpt lat="43.17266" lon="6.6341">
        <ele>22</ele>
        <time>2020-10-25T12:07:37Z</time>
      </trkpt>
      <trkpt lat="43.17268" lon="6.63419">
        <ele>21.7</ele>
        <time>2020-10-25T12:07:52Z</time>
      </trkpt>
      <trkpt lat="43.17269" lon="6.63424">
        <ele>21.6</ele>
        <time>2020-10-25T12:07:58Z</time>
      </trkpt>
      <trkpt lat="43.17269" lon="6.6343">
        <ele>21.5</ele>
        <time>2020-10-25T12:08:02Z</time>
      </trkpt>
      <trkpt lat="43.1727" lon="6.63436">
        <ele>21.3</ele>
        <time>2020-10-25T12:08:09Z</time>
      </trkpt>
      <trkpt lat="43.1727" lon="6.63441">
        <ele>21.3</ele>
        <time>2020-10-25T12:08:13Z</time>
      </trkpt>
      <trkpt lat="43.17271" lon="6.63446">
        <ele>21.3</ele>
        <time>2020-10-25T12:08:17Z</time>
      </trkpt>
      <trkpt lat="43.17272" lon="6.63451">
        <ele>21.4</ele>
        <time>2020-10-25T12:08:20Z</time>
      </trkpt>
      <trkpt lat="43.17272" lon="6.63455">
        <ele>21.3</ele>
        <time>2020-10-25T12:08:23Z</time>
      </trkpt>
      <trkpt lat="43.17273" lon="6.63461">
        <ele>21.3</ele>
        <time>2020-10-25T12:08:27Z</time>
      </trkpt>
      <trkpt lat="43.17273" lon="6.63467">
        <ele>21.3</ele>
        <time>2020-10-25T12:08:31Z</time>
      </trkpt>
      <trkpt lat="43.17274" lon="6.63472">
        <ele>21.2</ele>
        <time>2020-10-25T12:08:35Z</time>
      </trkpt>
      <trkpt lat="43.17274" lon="6.63478">
        <ele>21.5</ele>
        <time>2020-10-25T12:08:40Z</time>
      </trkpt>
      <trkpt lat="43.17274" lon="6.63479">
        <ele>21.4</ele>
        <time>2020-10-25T12:08:41Z</time>
      </trkpt>
      <trkpt lat="43.17275" lon="6.63489">
        <ele>21.3</ele>
        <time>2020-10-25T12:08:48Z</time>
      </trkpt>
      <trkpt lat="43.17276" lon="6.63494">
        <ele>21.2</ele>
        <time>2020-10-25T12:08:52Z</time>
      </trkpt>
      <trkpt lat="43.17278" lon="6.63498">
        <ele>21.2</ele>
        <time>2020-10-25T12:08:56Z</time>
      </trkpt>
      <trkpt lat="43.17279" lon="6.63504">
        <ele>21.3</ele>
        <time>2020-10-25T12:09:01Z</time>
      </trkpt>
      <trkpt lat="43.1728" lon="6.63509">
        <ele>21.4</ele>
        <time>2020-10-25T12:09:06Z</time>
      </trkpt>
      <trkpt lat="43.17282" lon="6.63514">
        <ele>21.4</ele>
        <time>2020-10-25T12:09:11Z</time>
      </trkpt>
      <trkpt lat="43.17283" lon="6.63519">
        <ele>21.4</ele>
        <time>2020-10-25T12:09:15Z</time>
      </trkpt>
      <trkpt lat="43.17284" lon="6.63524">
        <ele>21.4</ele>
        <time>2020-10-25T12:09:19Z</time>
      </trkpt>
      <trkpt lat="43.17285" lon="6.63529">
        <ele>21.6</ele>
        <time>2020-10-25T12:09:23Z</time>
      </trkpt>
      <trkpt lat="43.17285" lon="6.63535">
        <ele>21.6</ele>
        <time>2020-10-25T12:09:27Z</time>
      </trkpt>
      <trkpt lat="43.17286" lon="6.6354">
        <ele>21.5</ele>
        <time>2020-10-25T12:09:31Z</time>
      </trkpt>
      <trkpt lat="43.17286" lon="6.63546">
        <ele>21.7</ele>
        <time>2020-10-25T12:09:35Z</time>
      </trkpt>
      <trkpt lat="43.17286" lon="6.63551">
        <ele>21.7</ele>
        <time>2020-10-25T12:09:39Z</time>
      </trkpt>
      <trkpt lat="43.17287" lon="6.63557">
        <ele>21.7</ele>
        <time>2020-10-25T12:09:43Z</time>
      </trkpt>
      <trkpt lat="43.17287" lon="6.63558">
        <ele>21.7</ele>
        <time>2020-10-25T12:09:44Z</time>
      </trkpt>
      <trkpt lat="43.17285" lon="6.63568">
        <ele>21.8</ele>
        <time>2020-10-25T12:09:52Z</time>
      </trkpt>
      <trkpt lat="43.17285" lon="6.63573">
        <ele>21.8</ele>
        <time>2020-10-25T12:09:56Z</time>
      </trkpt>
      <trkpt lat="43.17285" lon="6.63579">
        <ele>21.8</ele>
        <time>2020-10-25T12:10:00Z</time>
      </trkpt>
      <trkpt lat="43.17285" lon="6.63585">
        <ele>21.8</ele>
        <time>2020-10-25T12:10:04Z</time>
      </trkpt>
      <trkpt lat="43.17285" lon="6.6359">
        <ele>21.6</ele>
        <time>2020-10-25T12:10:08Z</time>
      </trkpt>
      <trkpt lat="43.17285" lon="6.63595">
        <ele>21.5</ele>
        <time>2020-10-25T12:10:12Z</time>
      </trkpt>
      <trkpt lat="43.17285" lon="6.63601">
        <ele>21.7</ele>
        <time>2020-10-25T12:10:17Z</time>
      </trkpt>
      <trkpt lat="43.17285" lon="6.63606">
        <ele>21.8</ele>
        <time>2020-10-25T12:10:21Z</time>
      </trkpt>
      <trkpt lat="43.17284" lon="6.63611">
        <ele>21.9</ele>
        <time>2020-10-25T12:10:25Z</time>
      </trkpt>
      <trkpt lat="43.17283" lon="6.63617">
        <ele>21.6</ele>
        <time>2020-10-25T12:10:30Z</time>
      </trkpt>
      <trkpt lat="43.17282" lon="6.63622">
        <ele>21.4</ele>
        <time>2020-10-25T12:10:35Z</time>
      </trkpt>
      <trkpt lat="43.17282" lon="6.63627">
        <ele>21.3</ele>
        <time>2020-10-25T12:10:39Z</time>
      </trkpt>
      <trkpt lat="43.17281" lon="6.63632">
        <ele>21.2</ele>
        <time>2020-10-25T12:10:43Z</time>
      </trkpt>
      <trkpt lat="43.1728" lon="6.63638">
        <ele>21.1</ele>
        <time>2020-10-25T12:10:47Z</time>
      </trkpt>
      <trkpt lat="43.1728" lon="6.63639">
        <ele>21</ele>
        <time>2020-10-25T12:10:48Z</time>
      </trkpt>
      <trkpt lat="43.17278" lon="6.63649">
        <ele>20.5</ele>
        <time>2020-10-25T12:10:56Z</time>
      </trkpt>
      <trkpt lat="43.17277" lon="6.63654">
        <ele>20.4</ele>
        <time>2020-10-25T12:11:01Z</time>
      </trkpt>
      <trkpt lat="43.17275" lon="6.6366">
        <ele>20.6</ele>
        <time>2020-10-25T12:11:07Z</time>
      </trkpt>
      <trkpt lat="43.17274" lon="6.63666">
        <ele>20.9</ele>
        <time>2020-10-25T12:11:12Z</time>
      </trkpt>
      <trkpt lat="43.17273" lon="6.63671">
        <ele>20.9</ele>
        <time>2020-10-25T12:11:17Z</time>
      </trkpt>
      <trkpt lat="43.17271" lon="6.63676">
        <ele>20.9</ele>
        <time>2020-10-25T12:11:23Z</time>
      </trkpt>
      <trkpt lat="43.1727" lon="6.63681">
        <ele>20.9</ele>
        <time>2020-10-25T12:11:27Z</time>
      </trkpt>
      <trkpt lat="43.1727" lon="6.63686">
        <ele>20.7</ele>
        <time>2020-10-25T12:11:31Z</time>
      </trkpt>
      <trkpt lat="43.1727" lon="6.63692">
        <ele>20.6</ele>
        <time>2020-10-25T12:11:36Z</time>
      </trkpt>
      <trkpt lat="43.17269" lon="6.63698">
        <ele>20.5</ele>
        <time>2020-10-25T12:11:45Z</time>
      </trkpt>
      <trkpt lat="43.17266" lon="6.63701">
        <ele>20.3</ele>
        <time>2020-10-25T12:11:56Z</time>
      </trkpt>
      <trkpt lat="43.17265" lon="6.63702">
        <ele>20.3</ele>
        <time>2020-10-25T12:11:56Z</time>
      </trkpt>
      <trkpt lat="43.17261" lon="6.63711">
        <ele>21.1</ele>
        <time>2020-10-25T12:12:12Z</time>
      </trkpt>
      <trkpt lat="43.17259" lon="6.63716">
        <ele>21.4</ele>
        <time>2020-10-25T12:12:18Z</time>
      </trkpt>
      <trkpt lat="43.17256" lon="6.63721">
        <ele>21.5</ele>
        <time>2020-10-25T12:12:27Z</time>
      </trkpt>
      <trkpt lat="43.17255" lon="6.63726">
        <ele>22</ele>
        <time>2020-10-25T12:12:56Z</time>
      </trkpt>
      <trkpt lat="43.17253" lon="6.63731">
        <ele>22.7</ele>
        <time>2020-10-25T12:13:19Z</time>
      </trkpt>
      <trkpt lat="43.17253" lon="6.63732">
        <ele>22.7</ele>
        <time>2020-10-25T12:13:20Z</time>
      </trkpt>
      <trkpt lat="43.17249" lon="6.6374">
        <ele>23.1</ele>
        <time>2020-10-25T12:13:29Z</time>
      </trkpt>
      <trkpt lat="43.17247" lon="6.63745">
        <ele>23.5</ele>
        <time>2020-10-25T12:13:34Z</time>
      </trkpt>
      <trkpt lat="43.17246" lon="6.63751">
        <ele>23.9</ele>
        <time>2020-10-25T12:13:39Z</time>
      </trkpt>
      <trkpt lat="43.17247" lon="6.63757">
        <ele>24.1</ele>
        <time>2020-10-25T12:13:45Z</time>
      </trkpt>
      <trkpt lat="43.1725" lon="6.63762">
        <ele>24.9</ele>
        <time>2020-10-25T12:13:55Z</time>
      </trkpt>
      <trkpt lat="43.17248" lon="6.63768">
        <ele>25.1</ele>
        <time>2020-10-25T12:14:02Z</time>
      </trkpt>
      <trkpt lat="43.17245" lon="6.63773">
        <ele>25.1</ele>
        <time>2020-10-25T12:14:10Z</time>
      </trkpt>
      <trkpt lat="43.17245" lon="6.63778">
        <ele>26.1</ele>
        <time>2020-10-25T12:14:20Z</time>
      </trkpt>
      <trkpt lat="43.17245" lon="6.63779">
        <ele>26</ele>
        <time>2020-10-25T12:14:21Z</time>
      </trkpt>
      <trkpt lat="43.17245" lon="6.6379">
        <ele>26.3</ele>
        <time>2020-10-25T12:14:34Z</time>
      </trkpt>
      <trkpt lat="43.17247" lon="6.63795">
        <ele>25.8</ele>
        <time>2020-10-25T12:15:16Z</time>
      </trkpt>
      <trkpt lat="43.17251" lon="6.63799">
        <ele>25.3</ele>
        <time>2020-10-25T12:15:25Z</time>
      </trkpt>
      <trkpt lat="43.17251" lon="6.63799">
        <ele>25.2</ele>
        <time>2020-10-25T12:15:26Z</time>
      </trkpt>
      <trkpt lat="43.17251" lon="6.6381">
        <ele>24.6</ele>
        <time>2020-10-25T12:15:46Z</time>
      </trkpt>
      <trkpt lat="43.17251" lon="6.63816">
        <ele>25.3</ele>
        <time>2020-10-25T12:15:53Z</time>
      </trkpt>
      <trkpt lat="43.1725" lon="6.63821">
        <ele>25.7</ele>
        <time>2020-10-25T12:16:00Z</time>
      </trkpt>
      <trkpt lat="43.1725" lon="6.63826">
        <ele>26.1</ele>
        <time>2020-10-25T12:16:05Z</time>
      </trkpt>
      <trkpt lat="43.17251" lon="6.63831">
        <ele>26.3</ele>
        <time>2020-10-25T12:16:10Z</time>
      </trkpt>
      <trkpt lat="43.17254" lon="6.63836">
        <ele>26.5</ele>
        <time>2020-10-25T12:16:40Z</time>
      </trkpt>
      <trkpt lat="43.17254" lon="6.63836">
        <ele>26.5</ele>
        <time>2020-10-25T12:16:41Z</time>
      </trkpt>
      <trkpt lat="43.17258" lon="6.63846">
        <ele>25.6</ele>
        <time>2020-10-25T12:17:01Z</time>
      </trkpt>
      <trkpt lat="43.1726" lon="6.63849">
        <ele>25.3</ele>
        <time>2020-10-25T12:17:04Z</time>
      </trkpt>
      <trkpt lat="43.17263" lon="6.63854">
        <ele>24.8</ele>
        <time>2020-10-25T12:17:08Z</time>
      </trkpt>
      <trkpt lat="43.17264" lon="6.63859">
        <ele>24.4</ele>
        <time>2020-10-25T12:17:12Z</time>
      </trkpt>
      <trkpt lat="43.17265" lon="6.63865">
        <ele>24.1</ele>
        <time>2020-10-25T12:17:16Z</time>
      </trkpt>
      <trkpt lat="43.17266" lon="6.63871">
        <ele>23.8</ele>
        <time>2020-10-25T12:17:20Z</time>
      </trkpt>
      <trkpt lat="43.17267" lon="6.63876">
        <ele>23.3</ele>
        <time>2020-10-25T12:17:25Z</time>
      </trkpt>
      <trkpt lat="43.1727" lon="6.6388">
        <ele>22.6</ele>
        <time>2020-10-25T12:17:46Z</time>
      </trkpt>
      <trkpt lat="43.1727" lon="6.63881">
        <ele>22.6</ele>
        <time>2020-10-25T12:17:47Z</time>
      </trkpt>
      <trkpt lat="43.17272" lon="6.63891">
        <ele>21.6</ele>
        <time>2020-10-25T12:17:57Z</time>
      </trkpt>
      <trkpt lat="43.17271" lon="6.63896">
        <ele>21</ele>
        <time>2020-10-25T12:18:01Z</time>
      </trkpt>
      <trkpt lat="43.1727" lon="6.63902">
        <ele>21</ele>
        <time>2020-10-25T12:18:05Z</time>
      </trkpt>
      <trkpt lat="43.1727" lon="6.63907">
        <ele>20.8</ele>
        <time>2020-10-25T12:18:10Z</time>
      </trkpt>
      <trkpt lat="43.17272" lon="6.63913">
        <ele>19.6</ele>
        <time>2020-10-25T12:18:27Z</time>
      </trkpt>
      <trkpt lat="43.17274" lon="6.63918">
        <ele>19.3</ele>
        <time>2020-10-25T12:18:47Z</time>
      </trkpt>
      <trkpt lat="43.17274" lon="6.63919">
        <ele>19.3</ele>
        <time>2020-10-25T12:18:48Z</time>
      </trkpt>
      <trkpt lat="43.17279" lon="6.63925">
        <ele>19.1</ele>
        <time>2020-10-25T12:18:56Z</time>
      </trkpt>
      <trkpt lat="43.17283" lon="6.63929">
        <ele>18.9</ele>
        <time>2020-10-25T12:19:01Z</time>
      </trkpt>
      <trkpt lat="43.17287" lon="6.6393">
        <ele>18.8</ele>
        <time>2020-10-25T12:19:05Z</time>
      </trkpt>
      <trkpt lat="43.17291" lon="6.63932">
        <ele>18.8</ele>
        <time>2020-10-25T12:19:10Z</time>
      </trkpt>
      <trkpt lat="43.17295" lon="6.63931">
        <ele>18.6</ele>
        <time>2020-10-25T12:19:14Z</time>
      </trkpt>
      <trkpt lat="43.17298" lon="6.6393">
        <ele>18.6</ele>
        <time>2020-10-25T12:19:20Z</time>
      </trkpt>
      <trkpt lat="43.17302" lon="6.63929">
        <ele>18.9</ele>
        <time>2020-10-25T12:19:30Z</time>
      </trkpt>
      <trkpt lat="43.17306" lon="6.63927">
        <ele>18.9</ele>
        <time>2020-10-25T12:19:35Z</time>
      </trkpt>
      <trkpt lat="43.1731" lon="6.63925">
        <ele>19</ele>
        <time>2020-10-25T12:19:40Z</time>
      </trkpt>
      <trkpt lat="43.17314" lon="6.63922">
        <ele>19.1</ele>
        <time>2020-10-25T12:19:45Z</time>
      </trkpt>
      <trkpt lat="43.17317" lon="6.6392">
        <ele>19.7</ele>
        <time>2020-10-25T12:19:51Z</time>
      </trkpt>
      <trkpt lat="43.17318" lon="6.63919">
        <ele>19.7</ele>
        <time>2020-10-25T12:19:52Z</time>
      </trkpt>
      <trkpt lat="43.17325" lon="6.63915">
        <ele>20.7</ele>
        <time>2020-10-25T12:20:02Z</time>
      </trkpt>
      <trkpt lat="43.17329" lon="6.63916">
        <ele>21</ele>
        <time>2020-10-25T12:20:07Z</time>
      </trkpt>
      <trkpt lat="43.17333" lon="6.63917">
        <ele>21.1</ele>
        <time>2020-10-25T12:20:11Z</time>
      </trkpt>
      <trkpt lat="43.17336" lon="6.63919">
        <ele>21.1</ele>
        <time>2020-10-25T12:20:15Z</time>
      </trkpt>
      <trkpt lat="43.17339" lon="6.63922">
        <ele>21</ele>
        <time>2020-10-25T12:20:19Z</time>
      </trkpt>
      <trkpt lat="43.17343" lon="6.63923">
        <ele>21.2</ele>
        <time>2020-10-25T12:20:23Z</time>
      </trkpt>
      <trkpt lat="43.17346" lon="6.63925">
        <ele>21.3</ele>
        <time>2020-10-25T12:20:27Z</time>
      </trkpt>
      <trkpt lat="43.1735" lon="6.63927">
        <ele>21.1</ele>
        <time>2020-10-25T12:20:31Z</time>
      </trkpt>
      <trkpt lat="43.17354" lon="6.63928">
        <ele>20.8</ele>
        <time>2020-10-25T12:20:35Z</time>
      </trkpt>
      <trkpt lat="43.17358" lon="6.6393">
        <ele>20.5</ele>
        <time>2020-10-25T12:20:39Z</time>
      </trkpt>
      <trkpt lat="43.17361" lon="6.63933">
        <ele>20.2</ele>
        <time>2020-10-25T12:20:43Z</time>
      </trkpt>
      <trkpt lat="43.17365" lon="6.63936">
        <ele>19.9</ele>
        <time>2020-10-25T12:20:48Z</time>
      </trkpt>
      <trkpt lat="43.17368" lon="6.63939">
        <ele>19.8</ele>
        <time>2020-10-25T12:20:58Z</time>
      </trkpt>
      <trkpt lat="43.17369" lon="6.6394">
        <ele>19.7</ele>
        <time>2020-10-25T12:20:59Z</time>
      </trkpt>
      <trkpt lat="43.17375" lon="6.63942">
        <ele>19.3</ele>
        <time>2020-10-25T12:21:04Z</time>
      </trkpt>
      <trkpt lat="43.17379" lon="6.63943">
        <ele>19.4</ele>
        <time>2020-10-25T12:21:07Z</time>
      </trkpt>
      <trkpt lat="43.17382" lon="6.63944">
        <ele>19.4</ele>
        <time>2020-10-25T12:21:10Z</time>
      </trkpt>
      <trkpt lat="43.17386" lon="6.63947">
        <ele>19.4</ele>
        <time>2020-10-25T12:21:14Z</time>
      </trkpt>
      <trkpt lat="43.17388" lon="6.63951">
        <ele>19.3</ele>
        <time>2020-10-25T12:21:17Z</time>
      </trkpt>
      <trkpt lat="43.17392" lon="6.63954">
        <ele>19.3</ele>
        <time>2020-10-25T12:21:21Z</time>
      </trkpt>
      <trkpt lat="43.17396" lon="6.63957">
        <ele>19.3</ele>
        <time>2020-10-25T12:21:25Z</time>
      </trkpt>
      <trkpt lat="43.174" lon="6.63959">
        <ele>19.1</ele>
        <time>2020-10-25T12:21:29Z</time>
      </trkpt>
      <trkpt lat="43.17403" lon="6.63962">
        <ele>19</ele>
        <time>2020-10-25T12:21:33Z</time>
      </trkpt>
      <trkpt lat="43.17407" lon="6.63964">
        <ele>18.9</ele>
        <time>2020-10-25T12:21:37Z</time>
      </trkpt>
      <trkpt lat="43.17411" lon="6.63966">
        <ele>19.1</ele>
        <time>2020-10-25T12:21:41Z</time>
      </trkpt>
      <trkpt lat="43.17415" lon="6.63969">
        <ele>19.2</ele>
        <time>2020-10-25T12:21:45Z</time>
      </trkpt>
      <trkpt lat="43.17419" lon="6.63972">
        <ele>19.4</ele>
        <time>2020-10-25T12:21:49Z</time>
      </trkpt>
      <trkpt lat="43.17422" lon="6.63976">
        <ele>19.5</ele>
        <time>2020-10-25T12:21:53Z</time>
      </trkpt>
      <trkpt lat="43.17426" lon="6.63979">
        <ele>19.6</ele>
        <time>2020-10-25T12:21:57Z</time>
      </trkpt>
      <trkpt lat="43.17429" lon="6.63981">
        <ele>19.6</ele>
        <time>2020-10-25T12:22:00Z</time>
      </trkpt>
      <trkpt lat="43.1743" lon="6.63982">
        <ele>19.7</ele>
        <time>2020-10-25T12:22:01Z</time>
      </trkpt>
      <trkpt lat="43.17435" lon="6.63985">
        <ele>19.8</ele>
        <time>2020-10-25T12:22:06Z</time>
      </trkpt>
      <trkpt lat="43.17439" lon="6.63986">
        <ele>19.8</ele>
        <time>2020-10-25T12:22:10Z</time>
      </trkpt>
      <trkpt lat="43.17443" lon="6.63986">
        <ele>19.7</ele>
        <time>2020-10-25T12:22:23Z</time>
      </trkpt>
      <trkpt lat="43.17447" lon="6.63986">
        <ele>19.7</ele>
        <time>2020-10-25T12:22:27Z</time>
      </trkpt>
      <trkpt lat="43.1745" lon="6.63986">
        <ele>19.5</ele>
        <time>2020-10-25T12:22:30Z</time>
      </trkpt>
      <trkpt lat="43.17454" lon="6.63986">
        <ele>19.4</ele>
        <time>2020-10-25T12:22:33Z</time>
      </trkpt>
      <trkpt lat="43.17458" lon="6.63985">
        <ele>19.2</ele>
        <time>2020-10-25T12:22:36Z</time>
      </trkpt>
      <trkpt lat="43.17461" lon="6.63985">
        <ele>19.2</ele>
        <time>2020-10-25T12:22:39Z</time>
      </trkpt>
      <trkpt lat="43.17465" lon="6.63984">
        <ele>19.1</ele>
        <time>2020-10-25T12:22:42Z</time>
      </trkpt>
      <trkpt lat="43.17468" lon="6.63984">
        <ele>19.4</ele>
        <time>2020-10-25T12:22:45Z</time>
      </trkpt>
      <trkpt lat="43.17472" lon="6.63983">
        <ele>19.3</ele>
        <time>2020-10-25T12:22:48Z</time>
      </trkpt>
      <trkpt lat="43.17475" lon="6.63983">
        <ele>19.3</ele>
        <time>2020-10-25T12:22:51Z</time>
      </trkpt>
      <trkpt lat="43.17479" lon="6.63983">
        <ele>19.3</ele>
        <time>2020-10-25T12:22:54Z</time>
      </trkpt>
      <trkpt lat="43.17483" lon="6.63982">
        <ele>19.2</ele>
        <time>2020-10-25T12:22:58Z</time>
      </trkpt>
      <trkpt lat="43.17487" lon="6.63982">
        <ele>19.1</ele>
        <time>2020-10-25T12:23:01Z</time>
      </trkpt>
      <trkpt lat="43.17488" lon="6.63982">
        <ele>19.1</ele>
        <time>2020-10-25T12:23:02Z</time>
      </trkpt>
      <trkpt lat="43.17494" lon="6.63983">
        <ele>19</ele>
        <time>2020-10-25T12:23:08Z</time>
      </trkpt>
      <trkpt lat="43.17498" lon="6.63984">
        <ele>18.9</ele>
        <time>2020-10-25T12:23:15Z</time>
      </trkpt>
      <trkpt lat="43.17503" lon="6.63986">
        <ele>18.6</ele>
        <time>2020-10-25T12:23:27Z</time>
      </trkpt>
      <trkpt lat="43.17506" lon="6.63987">
        <ele>18.4</ele>
        <time>2020-10-25T12:23:31Z</time>
      </trkpt>
      <trkpt lat="43.1751" lon="6.63989">
        <ele>18.5</ele>
        <time>2020-10-25T12:23:35Z</time>
      </trkpt>
      <trkpt lat="43.17514" lon="6.63991">
        <ele>18.7</ele>
        <time>2020-10-25T12:23:39Z</time>
      </trkpt>
      <trkpt lat="43.17518" lon="6.63993">
        <ele>18.7</ele>
        <time>2020-10-25T12:23:43Z</time>
      </trkpt>
      <trkpt lat="43.17522" lon="6.63994">
        <ele>18.8</ele>
        <time>2020-10-25T12:23:48Z</time>
      </trkpt>
      <trkpt lat="43.17526" lon="6.63994">
        <ele>19.1</ele>
        <time>2020-10-25T12:23:55Z</time>
      </trkpt>
      <trkpt lat="43.1753" lon="6.63994">
        <ele>18.7</ele>
        <time>2020-10-25T12:24:00Z</time>
      </trkpt>
      <trkpt lat="43.17534" lon="6.63992">
        <ele>18.8</ele>
        <time>2020-10-25T12:24:09Z</time>
      </trkpt>
      <trkpt lat="43.17535" lon="6.63991">
        <ele>18.9</ele>
        <time>2020-10-25T12:24:10Z</time>
      </trkpt>
      <trkpt lat="43.17537" lon="6.63997">
        <ele>18.7</ele>
        <time>2020-10-25T12:25:39Z</time>
      </trkpt>
      <trkpt lat="43.17542" lon="6.64002">
        <ele>19</ele>
        <time>2020-10-25T12:25:57Z</time>
      </trkpt>
      <trkpt lat="43.17546" lon="6.64001">
        <ele>19.3</ele>
        <time>2020-10-25T12:26:13Z</time>
      </trkpt>
      <trkpt lat="43.17549" lon="6.63997">
        <ele>19.3</ele>
        <time>2020-10-25T12:26:17Z</time>
      </trkpt>
      <trkpt lat="43.17552" lon="6.63994">
        <ele>19.3</ele>
        <time>2020-10-25T12:26:21Z</time>
      </trkpt>
      <trkpt lat="43.17554" lon="6.6399">
        <ele>19.2</ele>
        <time>2020-10-25T12:26:25Z</time>
      </trkpt>
      <trkpt lat="43.17556" lon="6.63985">
        <ele>19.5</ele>
        <time>2020-10-25T12:26:29Z</time>
      </trkpt>
      <trkpt lat="43.17558" lon="6.6398">
        <ele>19.9</ele>
        <time>2020-10-25T12:26:34Z</time>
      </trkpt>
      <trkpt lat="43.17559" lon="6.63975">
        <ele>20.1</ele>
        <time>2020-10-25T12:26:38Z</time>
      </trkpt>
      <trkpt lat="43.17561" lon="6.6397">
        <ele>20.3</ele>
        <time>2020-10-25T12:26:42Z</time>
      </trkpt>
      <trkpt lat="43.17561" lon="6.63969">
        <ele>20.4</ele>
        <time>2020-10-25T12:26:43Z</time>
      </trkpt>
      <trkpt lat="43.17564" lon="6.63961">
        <ele>21.1</ele>
        <time>2020-10-25T12:26:50Z</time>
      </trkpt>
      <trkpt lat="43.17566" lon="6.63956">
        <ele>21.4</ele>
        <time>2020-10-25T12:26:54Z</time>
      </trkpt>
      <trkpt lat="43.17568" lon="6.63951">
        <ele>22</ele>
        <time>2020-10-25T12:26:59Z</time>
      </trkpt>
      <trkpt lat="43.17571" lon="6.63948">
        <ele>22.7</ele>
        <time>2020-10-25T12:27:05Z</time>
      </trkpt>
      <trkpt lat="43.17574" lon="6.63944">
        <ele>23.4</ele>
        <time>2020-10-25T12:27:11Z</time>
      </trkpt>
      <trkpt lat="43.17577" lon="6.6394">
        <ele>23.9</ele>
        <time>2020-10-25T12:27:16Z</time>
      </trkpt>
      <trkpt lat="43.17579" lon="6.63936">
        <ele>24.2</ele>
        <time>2020-10-25T12:27:20Z</time>
      </trkpt>
      <trkpt lat="43.17581" lon="6.63931">
        <ele>24.6</ele>
        <time>2020-10-25T12:27:24Z</time>
      </trkpt>
      <trkpt lat="43.17584" lon="6.63927">
        <ele>25.2</ele>
        <time>2020-10-25T12:27:28Z</time>
      </trkpt>
      <trkpt lat="43.17587" lon="6.63924">
        <ele>25.6</ele>
        <time>2020-10-25T12:27:33Z</time>
      </trkpt>
      <trkpt lat="43.1759" lon="6.63921">
        <ele>25.9</ele>
        <time>2020-10-25T12:27:37Z</time>
      </trkpt>
      <trkpt lat="43.17594" lon="6.63917">
        <ele>26.3</ele>
        <time>2020-10-25T12:27:41Z</time>
      </trkpt>
      <trkpt lat="43.17596" lon="6.63912">
        <ele>26.6</ele>
        <time>2020-10-25T12:27:45Z</time>
      </trkpt>
      <trkpt lat="43.17597" lon="6.63911">
        <ele>26.7</ele>
        <time>2020-10-25T12:27:46Z</time>
      </trkpt>
      <trkpt lat="43.17601" lon="6.63905">
        <ele>27.3</ele>
        <time>2020-10-25T12:27:54Z</time>
      </trkpt>
      <trkpt lat="43.17604" lon="6.63901">
        <ele>27.4</ele>
        <time>2020-10-25T12:27:58Z</time>
      </trkpt>
      <trkpt lat="43.17607" lon="6.63896">
        <ele>27.8</ele>
        <time>2020-10-25T12:28:02Z</time>
      </trkpt>
      <trkpt lat="43.17609" lon="6.63892">
        <ele>28.2</ele>
        <time>2020-10-25T12:28:08Z</time>
      </trkpt>
      <trkpt lat="43.17611" lon="6.63887">
        <ele>28.5</ele>
        <time>2020-10-25T12:28:13Z</time>
      </trkpt>
      <trkpt lat="43.17613" lon="6.63883">
        <ele>29.8</ele>
        <time>2020-10-25T12:28:30Z</time>
      </trkpt>
      <trkpt lat="43.17616" lon="6.63878">
        <ele>30.1</ele>
        <time>2020-10-25T12:28:35Z</time>
      </trkpt>
      <trkpt lat="43.17618" lon="6.63874">
        <ele>30.2</ele>
        <time>2020-10-25T12:28:39Z</time>
      </trkpt>
      <trkpt lat="43.1762" lon="6.6387">
        <ele>30.5</ele>
        <time>2020-10-25T12:28:43Z</time>
      </trkpt>
      <trkpt lat="43.17622" lon="6.63866">
        <ele>31</ele>
        <time>2020-10-25T12:28:46Z</time>
      </trkpt>
      <trkpt lat="43.17622" lon="6.63864">
        <ele>31.1</ele>
        <time>2020-10-25T12:28:47Z</time>
      </trkpt>
      <trkpt lat="43.17625" lon="6.63856">
        <ele>31.7</ele>
        <time>2020-10-25T12:28:53Z</time>
      </trkpt>
      <trkpt lat="43.17627" lon="6.63852">
        <ele>31.8</ele>
        <time>2020-10-25T12:28:56Z</time>
      </trkpt>
      <trkpt lat="43.17629" lon="6.63848">
        <ele>32.2</ele>
        <time>2020-10-25T12:28:59Z</time>
      </trkpt>
      <trkpt lat="43.1763" lon="6.63842">
        <ele>32.7</ele>
        <time>2020-10-25T12:29:03Z</time>
      </trkpt>
      <trkpt lat="43.17631" lon="6.63837">
        <ele>33.1</ele>
        <time>2020-10-25T12:29:07Z</time>
      </trkpt>
      <trkpt lat="43.17632" lon="6.63831">
        <ele>33.5</ele>
        <time>2020-10-25T12:29:11Z</time>
      </trkpt>
      <trkpt lat="43.17633" lon="6.63826">
        <ele>33.8</ele>
        <time>2020-10-25T12:29:15Z</time>
      </trkpt>
      <trkpt lat="43.17633" lon="6.6382">
        <ele>35.3</ele>
        <time>2020-10-25T12:29:54Z</time>
      </trkpt>
      <trkpt lat="43.17633" lon="6.63818">
        <ele>35.3</ele>
        <time>2020-10-25T12:29:55Z</time>
      </trkpt>
      <trkpt lat="43.17636" lon="6.63811">
        <ele>35.4</ele>
        <time>2020-10-25T12:30:00Z</time>
      </trkpt>
      <trkpt lat="43.17637" lon="6.63806">
        <ele>35.5</ele>
        <time>2020-10-25T12:30:04Z</time>
      </trkpt>
      <trkpt lat="43.17638" lon="6.63801">
        <ele>35.5</ele>
        <time>2020-10-25T12:30:07Z</time>
      </trkpt>
      <trkpt lat="43.1764" lon="6.63796">
        <ele>35.6</ele>
        <time>2020-10-25T12:30:10Z</time>
      </trkpt>
      <trkpt lat="43.17641" lon="6.63791">
        <ele>35.6</ele>
        <time>2020-10-25T12:30:13Z</time>
      </trkpt>
      <trkpt lat="43.17641" lon="6.63786">
        <ele>35.9</ele>
        <time>2020-10-25T12:30:16Z</time>
      </trkpt>
      <trkpt lat="43.17641" lon="6.63781">
        <ele>36.1</ele>
        <time>2020-10-25T12:30:19Z</time>
      </trkpt>
      <trkpt lat="43.17641" lon="6.63776">
        <ele>36.2</ele>
        <time>2020-10-25T12:30:22Z</time>
      </trkpt>
      <trkpt lat="43.17641" lon="6.6377">
        <ele>36.5</ele>
        <time>2020-10-25T12:30:25Z</time>
      </trkpt>
      <trkpt lat="43.17642" lon="6.63765">
        <ele>36.7</ele>
        <time>2020-10-25T12:30:28Z</time>
      </trkpt>
      <trkpt lat="43.17644" lon="6.63759">
        <ele>36.7</ele>
        <time>2020-10-25T12:30:31Z</time>
      </trkpt>
      <trkpt lat="43.17645" lon="6.63754">
        <ele>36.9</ele>
        <time>2020-10-25T12:30:34Z</time>
      </trkpt>
      <trkpt lat="43.17646" lon="6.63749">
        <ele>37.1</ele>
        <time>2020-10-25T12:30:37Z</time>
      </trkpt>
      <trkpt lat="43.17647" lon="6.63743">
        <ele>37.2</ele>
        <time>2020-10-25T12:30:40Z</time>
      </trkpt>
      <trkpt lat="43.17648" lon="6.63738">
        <ele>37.2</ele>
        <time>2020-10-25T12:30:43Z</time>
      </trkpt>
      <trkpt lat="43.17649" lon="6.63733">
        <ele>37.1</ele>
        <time>2020-10-25T12:30:46Z</time>
      </trkpt>
      <trkpt lat="43.1765" lon="6.63728">
        <ele>37</ele>
        <time>2020-10-25T12:30:49Z</time>
      </trkpt>
      <trkpt lat="43.17652" lon="6.63723">
        <ele>36.9</ele>
        <time>2020-10-25T12:30:52Z</time>
      </trkpt>
      <trkpt lat="43.17652" lon="6.63717">
        <ele>36.8</ele>
        <time>2020-10-25T12:30:55Z</time>
      </trkpt>
      <trkpt lat="43.17652" lon="6.63715">
        <ele>36.8</ele>
        <time>2020-10-25T12:30:56Z</time>
      </trkpt>
      <trkpt lat="43.17654" lon="6.63707">
        <ele>37</ele>
        <time>2020-10-25T12:31:01Z</time>
      </trkpt>
      <trkpt lat="43.17656" lon="6.63702">
        <ele>36.9</ele>
        <time>2020-10-25T12:31:04Z</time>
      </trkpt>
      <trkpt lat="43.17657" lon="6.63697">
        <ele>36.9</ele>
        <time>2020-10-25T12:31:08Z</time>
      </trkpt>
      <trkpt lat="43.17659" lon="6.63692">
        <ele>37.4</ele>
        <time>2020-10-25T12:31:12Z</time>
      </trkpt>
      <trkpt lat="43.1766" lon="6.63686">
        <ele>37.8</ele>
        <time>2020-10-25T12:31:16Z</time>
      </trkpt>
      <trkpt lat="43.17663" lon="6.63681">
        <ele>38.2</ele>
        <time>2020-10-25T12:31:20Z</time>
      </trkpt>
      <trkpt lat="43.17665" lon="6.63676">
        <ele>38.6</ele>
        <time>2020-10-25T12:31:24Z</time>
      </trkpt>
      <trkpt lat="43.17667" lon="6.63672">
        <ele>39.1</ele>
        <time>2020-10-25T12:31:27Z</time>
      </trkpt>
      <trkpt lat="43.17669" lon="6.63667">
        <ele>39.6</ele>
        <time>2020-10-25T12:31:31Z</time>
      </trkpt>
      <trkpt lat="43.17671" lon="6.63662">
        <ele>40.1</ele>
        <time>2020-10-25T12:31:36Z</time>
      </trkpt>
      <trkpt lat="43.17672" lon="6.63657">
        <ele>40.8</ele>
        <time>2020-10-25T12:31:40Z</time>
      </trkpt>
      <trkpt lat="43.17674" lon="6.63653">
        <ele>41.1</ele>
        <time>2020-10-25T12:31:43Z</time>
      </trkpt>
      <trkpt lat="43.17676" lon="6.63648">
        <ele>41.5</ele>
        <time>2020-10-25T12:31:47Z</time>
      </trkpt>
      <trkpt lat="43.17679" lon="6.63643">
        <ele>41.8</ele>
        <time>2020-10-25T12:31:51Z</time>
      </trkpt>
      <trkpt lat="43.17681" lon="6.63638">
        <ele>42</ele>
        <time>2020-10-25T12:31:56Z</time>
      </trkpt>
      <trkpt lat="43.17681" lon="6.63638">
        <ele>42</ele>
        <time>2020-10-25T12:31:57Z</time>
      </trkpt>
      <trkpt lat="43.17686" lon="6.6363">
        <ele>43.7</ele>
        <time>2020-10-25T12:32:06Z</time>
      </trkpt>
      <trkpt lat="43.17688" lon="6.63625">
        <ele>44.4</ele>
        <time>2020-10-25T12:32:10Z</time>
      </trkpt>
      <trkpt lat="43.1769" lon="6.6362">
        <ele>45</ele>
        <time>2020-10-25T12:32:14Z</time>
      </trkpt>
      <trkpt lat="43.17692" lon="6.63616">
        <ele>45.4</ele>
        <time>2020-10-25T12:32:17Z</time>
      </trkpt>
      <trkpt lat="43.17694" lon="6.63612">
        <ele>45.5</ele>
        <time>2020-10-25T12:32:20Z</time>
      </trkpt>
      <trkpt lat="43.17696" lon="6.63608">
        <ele>45.7</ele>
        <time>2020-10-25T12:32:23Z</time>
      </trkpt>
      <trkpt lat="43.17699" lon="6.63603">
        <ele>45.9</ele>
        <time>2020-10-25T12:32:27Z</time>
      </trkpt>
      <trkpt lat="43.17702" lon="6.636">
        <ele>46.6</ele>
        <time>2020-10-25T12:32:31Z</time>
      </trkpt>
      <trkpt lat="43.17704" lon="6.63595">
        <ele>47.2</ele>
        <time>2020-10-25T12:32:36Z</time>
      </trkpt>
      <trkpt lat="43.17707" lon="6.63591">
        <ele>47.8</ele>
        <time>2020-10-25T12:32:40Z</time>
      </trkpt>
      <trkpt lat="43.1771" lon="6.63587">
        <ele>48.2</ele>
        <time>2020-10-25T12:32:44Z</time>
      </trkpt>
      <trkpt lat="43.17712" lon="6.63583">
        <ele>48.5</ele>
        <time>2020-10-25T12:32:48Z</time>
      </trkpt>
      <trkpt lat="43.17714" lon="6.63577">
        <ele>49</ele>
        <time>2020-10-25T12:32:52Z</time>
      </trkpt>
      <trkpt lat="43.17717" lon="6.63572">
        <ele>49.2</ele>
        <time>2020-10-25T12:32:56Z</time>
      </trkpt>
      <trkpt lat="43.17719" lon="6.63567">
        <ele>49.6</ele>
        <time>2020-10-25T12:33:00Z</time>
      </trkpt>
      <trkpt lat="43.17719" lon="6.63566">
        <ele>49.8</ele>
        <time>2020-10-25T12:33:01Z</time>
      </trkpt>
      <trkpt lat="43.17723" lon="6.63557">
        <ele>50.8</ele>
        <time>2020-10-25T12:33:08Z</time>
      </trkpt>
      <trkpt lat="43.17724" lon="6.63552">
        <ele>51.4</ele>
        <time>2020-10-25T12:33:12Z</time>
      </trkpt>
      <trkpt lat="43.17725" lon="6.63547">
        <ele>51.6</ele>
        <time>2020-10-25T12:33:15Z</time>
      </trkpt>
      <trkpt lat="43.17726" lon="6.63543">
        <ele>51.8</ele>
        <time>2020-10-25T12:33:18Z</time>
      </trkpt>
      <trkpt lat="43.17728" lon="6.63537">
        <ele>52</ele>
        <time>2020-10-25T12:33:22Z</time>
      </trkpt>
      <trkpt lat="43.1773" lon="6.63532">
        <ele>52.3</ele>
        <time>2020-10-25T12:33:26Z</time>
      </trkpt>
      <trkpt lat="43.17731" lon="6.63528">
        <ele>52.5</ele>
        <time>2020-10-25T12:33:29Z</time>
      </trkpt>
      <trkpt lat="43.17733" lon="6.63524">
        <ele>52.6</ele>
        <time>2020-10-25T12:33:32Z</time>
      </trkpt>
      <trkpt lat="43.17735" lon="6.6352">
        <ele>52.7</ele>
        <time>2020-10-25T12:33:35Z</time>
      </trkpt>
      <trkpt lat="43.17738" lon="6.63516">
        <ele>52.8</ele>
        <time>2020-10-25T12:33:38Z</time>
      </trkpt>
      <trkpt lat="43.1774" lon="6.63513">
        <ele>52.9</ele>
        <time>2020-10-25T12:33:41Z</time>
      </trkpt>
      <trkpt lat="43.17743" lon="6.63508">
        <ele>53.2</ele>
        <time>2020-10-25T12:33:45Z</time>
      </trkpt>
      <trkpt lat="43.17746" lon="6.63505">
        <ele>53.6</ele>
        <time>2020-10-25T12:33:48Z</time>
      </trkpt>
      <trkpt lat="43.17748" lon="6.63501">
        <ele>53.8</ele>
        <time>2020-10-25T12:33:51Z</time>
      </trkpt>
      <trkpt lat="43.17751" lon="6.63497">
        <ele>54</ele>
        <time>2020-10-25T12:33:54Z</time>
      </trkpt>
      <trkpt lat="43.17754" lon="6.63494">
        <ele>54.2</ele>
        <time>2020-10-25T12:33:57Z</time>
      </trkpt>
      <trkpt lat="43.17757" lon="6.6349">
        <ele>54.3</ele>
        <time>2020-10-25T12:34:00Z</time>
      </trkpt>
      <trkpt lat="43.1776" lon="6.63487">
        <ele>54.4</ele>
        <time>2020-10-25T12:34:03Z</time>
      </trkpt>
      <trkpt lat="43.17761" lon="6.63486">
        <ele>54.5</ele>
        <time>2020-10-25T12:34:04Z</time>
      </trkpt>
      <trkpt lat="43.17766" lon="6.63482">
        <ele>54.7</ele>
        <time>2020-10-25T12:34:09Z</time>
      </trkpt>
      <trkpt lat="43.17769" lon="6.63479">
        <ele>54.7</ele>
        <time>2020-10-25T12:34:13Z</time>
      </trkpt>
      <trkpt lat="43.17772" lon="6.63477">
        <ele>54.7</ele>
        <time>2020-10-25T12:34:16Z</time>
      </trkpt>
      <trkpt lat="43.17776" lon="6.63475">
        <ele>54.6</ele>
        <time>2020-10-25T12:34:19Z</time>
      </trkpt>
      <trkpt lat="43.17779" lon="6.63473">
        <ele>54.9</ele>
        <time>2020-10-25T12:34:22Z</time>
      </trkpt>
      <trkpt lat="43.17783" lon="6.63472">
        <ele>55</ele>
        <time>2020-10-25T12:34:25Z</time>
      </trkpt>
      <trkpt lat="43.17786" lon="6.6347">
        <ele>55.1</ele>
        <time>2020-10-25T12:34:28Z</time>
      </trkpt>
      <trkpt lat="43.1779" lon="6.63469">
        <ele>55.1</ele>
        <time>2020-10-25T12:34:31Z</time>
      </trkpt>
      <trkpt lat="43.17793" lon="6.63468">
        <ele>55.2</ele>
        <time>2020-10-25T12:34:34Z</time>
      </trkpt>
      <trkpt lat="43.17797" lon="6.63467">
        <ele>55.5</ele>
        <time>2020-10-25T12:34:39Z</time>
      </trkpt>
      <trkpt lat="43.17801" lon="6.63465">
        <ele>55.7</ele>
        <time>2020-10-25T12:34:45Z</time>
      </trkpt>
      <trkpt lat="43.17802" lon="6.6347">
        <ele>56</ele>
        <time>2020-10-25T12:34:52Z</time>
      </trkpt>
      <trkpt lat="43.17801" lon="6.63475">
        <ele>56</ele>
        <time>2020-10-25T12:34:57Z</time>
      </trkpt>
      <trkpt lat="43.17802" lon="6.63481">
        <ele>56.1</ele>
        <time>2020-10-25T12:35:02Z</time>
      </trkpt>
      <trkpt lat="43.17802" lon="6.63487">
        <ele>57</ele>
        <time>2020-10-25T12:35:10Z</time>
      </trkpt>
      <trkpt lat="43.17802" lon="6.63487">
        <ele>57.2</ele>
        <time>2020-10-25T12:35:11Z</time>
      </trkpt>
      <trkpt lat="43.17803" lon="6.63488">
        <ele>58.5</ele>
        <time>2020-10-25T12:35:33Z</time>
      </trkpt>
      <trkpt lat="43.17803" lon="6.63482">
        <ele>58</ele>
        <time>2020-10-25T12:35:41Z</time>
      </trkpt>
      <trkpt lat="43.17801" lon="6.63477">
        <ele>56.7</ele>
        <time>2020-10-25T12:36:20Z</time>
      </trkpt>
      <trkpt lat="43.17801" lon="6.63476">
        <ele>56.5</ele>
        <time>2020-10-25T12:36:21Z</time>
      </trkpt>
      <trkpt lat="43.17803" lon="6.63466">
        <ele>56.2</ele>
        <time>2020-10-25T12:36:48Z</time>
      </trkpt>
      <trkpt lat="43.17806" lon="6.63462">
        <ele>55.9</ele>
        <time>2020-10-25T12:37:04Z</time>
      </trkpt>
      <trkpt lat="43.1781" lon="6.6346">
        <ele>55.8</ele>
        <time>2020-10-25T12:37:09Z</time>
      </trkpt>
      <trkpt lat="43.17814" lon="6.63457">
        <ele>55.9</ele>
        <time>2020-10-25T12:37:13Z</time>
      </trkpt>
      <trkpt lat="43.17817" lon="6.63454">
        <ele>55.8</ele>
        <time>2020-10-25T12:37:16Z</time>
      </trkpt>
      <trkpt lat="43.1782" lon="6.63452">
        <ele>55.8</ele>
        <time>2020-10-25T12:37:19Z</time>
      </trkpt>
      <trkpt lat="43.17822" lon="6.63448">
        <ele>55.8</ele>
        <time>2020-10-25T12:37:22Z</time>
      </trkpt>
      <trkpt lat="43.17823" lon="6.63447">
        <ele>55.8</ele>
        <time>2020-10-25T12:37:23Z</time>
      </trkpt>
      <trkpt lat="43.17827" lon="6.63441">
        <ele>55.7</ele>
        <time>2020-10-25T12:37:28Z</time>
      </trkpt>
      <trkpt lat="43.17829" lon="6.63437">
        <ele>55.6</ele>
        <time>2020-10-25T12:37:31Z</time>
      </trkpt>
      <trkpt lat="43.17831" lon="6.63433">
        <ele>55.6</ele>
        <time>2020-10-25T12:37:34Z</time>
      </trkpt>
      <trkpt lat="43.17834" lon="6.63429">
        <ele>55.4</ele>
        <time>2020-10-25T12:37:37Z</time>
      </trkpt>
      <trkpt lat="43.17836" lon="6.63425">
        <ele>55.4</ele>
        <time>2020-10-25T12:37:40Z</time>
      </trkpt>
      <trkpt lat="43.17838" lon="6.63421">
        <ele>55.1</ele>
        <time>2020-10-25T12:37:43Z</time>
      </trkpt>
      <trkpt lat="43.17841" lon="6.63417">
        <ele>54.8</ele>
        <time>2020-10-25T12:37:47Z</time>
      </trkpt>
      <trkpt lat="43.17844" lon="6.63413">
        <ele>54.6</ele>
        <time>2020-10-25T12:37:51Z</time>
      </trkpt>
      <trkpt lat="43.17847" lon="6.63409">
        <ele>54.3</ele>
        <time>2020-10-25T12:37:55Z</time>
      </trkpt>
      <trkpt lat="43.1785" lon="6.63404">
        <ele>54.1</ele>
        <time>2020-10-25T12:37:59Z</time>
      </trkpt>
      <trkpt lat="43.17852" lon="6.634">
        <ele>54.4</ele>
        <time>2020-10-25T12:38:03Z</time>
      </trkpt>
      <trkpt lat="43.17856" lon="6.63397">
        <ele>54.3</ele>
        <time>2020-10-25T12:38:08Z</time>
      </trkpt>
      <trkpt lat="43.1786" lon="6.63398">
        <ele>54.1</ele>
        <time>2020-10-25T12:38:14Z</time>
      </trkpt>
      <trkpt lat="43.17864" lon="6.63397">
        <ele>54.4</ele>
        <time>2020-10-25T12:38:20Z</time>
      </trkpt>
      <trkpt lat="43.17868" lon="6.63395">
        <ele>54.7</ele>
        <time>2020-10-25T12:38:25Z</time>
      </trkpt>
      <trkpt lat="43.17869" lon="6.63394">
        <ele>54.7</ele>
        <time>2020-10-25T12:38:26Z</time>
      </trkpt>
      <trkpt lat="43.17874" lon="6.63389">
        <ele>55</ele>
        <time>2020-10-25T12:38:32Z</time>
      </trkpt>
      <trkpt lat="43.17877" lon="6.63386">
        <ele>55</ele>
        <time>2020-10-25T12:38:35Z</time>
      </trkpt>
      <trkpt lat="43.1788" lon="6.63382">
        <ele>55.2</ele>
        <time>2020-10-25T12:38:39Z</time>
      </trkpt>
      <trkpt lat="43.17883" lon="6.63378">
        <ele>55</ele>
        <time>2020-10-25T12:38:43Z</time>
      </trkpt>
      <trkpt lat="43.17887" lon="6.63374">
        <ele>54.8</ele>
        <time>2020-10-25T12:38:52Z</time>
      </trkpt>
      <trkpt lat="43.1789" lon="6.63371">
        <ele>54.7</ele>
        <time>2020-10-25T12:38:56Z</time>
      </trkpt>
      <trkpt lat="43.17893" lon="6.63368">
        <ele>54.7</ele>
        <time>2020-10-25T12:39:00Z</time>
      </trkpt>
      <trkpt lat="43.17895" lon="6.63364">
        <ele>54.8</ele>
        <time>2020-10-25T12:39:04Z</time>
      </trkpt>
      <trkpt lat="43.17898" lon="6.63361">
        <ele>54.8</ele>
        <time>2020-10-25T12:39:08Z</time>
      </trkpt>
      <trkpt lat="43.17901" lon="6.63356">
        <ele>54.7</ele>
        <time>2020-10-25T12:39:12Z</time>
      </trkpt>
      <trkpt lat="43.17904" lon="6.63352">
        <ele>54.3</ele>
        <time>2020-10-25T12:39:17Z</time>
      </trkpt>
      <trkpt lat="43.17907" lon="6.63349">
        <ele>54</ele>
        <time>2020-10-25T12:39:21Z</time>
      </trkpt>
      <trkpt lat="43.1791" lon="6.63346">
        <ele>53.6</ele>
        <time>2020-10-25T12:39:25Z</time>
      </trkpt>
      <trkpt lat="43.17913" lon="6.63342">
        <ele>53.2</ele>
        <time>2020-10-25T12:39:28Z</time>
      </trkpt>
      <trkpt lat="43.17913" lon="6.6334">
        <ele>53.2</ele>
        <time>2020-10-25T12:39:29Z</time>
      </trkpt>
      <trkpt lat="43.17918" lon="6.63333">
        <ele>53.4</ele>
        <time>2020-10-25T12:39:48Z</time>
      </trkpt>
      <trkpt lat="43.17921" lon="6.63329">
        <ele>53.6</ele>
        <time>2020-10-25T12:39:52Z</time>
      </trkpt>
      <trkpt lat="43.17924" lon="6.63326">
        <ele>53.8</ele>
        <time>2020-10-25T12:39:55Z</time>
      </trkpt>
      <trkpt lat="43.17926" lon="6.63323">
        <ele>53.8</ele>
        <time>2020-10-25T12:39:58Z</time>
      </trkpt>
      <trkpt lat="43.17929" lon="6.63321">
        <ele>53.8</ele>
        <time>2020-10-25T12:40:01Z</time>
      </trkpt>
      <trkpt lat="43.17933" lon="6.63318">
        <ele>53.4</ele>
        <time>2020-10-25T12:40:06Z</time>
      </trkpt>
      <trkpt lat="43.17937" lon="6.63316">
        <ele>53.1</ele>
        <time>2020-10-25T12:40:10Z</time>
      </trkpt>
      <trkpt lat="43.1794" lon="6.63313">
        <ele>52.8</ele>
        <time>2020-10-25T12:40:14Z</time>
      </trkpt>
      <trkpt lat="43.17943" lon="6.6331">
        <ele>52.6</ele>
        <time>2020-10-25T12:40:19Z</time>
      </trkpt>
      <trkpt lat="43.17946" lon="6.63306">
        <ele>52.6</ele>
        <time>2020-10-25T12:40:23Z</time>
      </trkpt>
      <trkpt lat="43.17949" lon="6.63303">
        <ele>52.9</ele>
        <time>2020-10-25T12:40:27Z</time>
      </trkpt>
      <trkpt lat="43.17952" lon="6.63299">
        <ele>53.3</ele>
        <time>2020-10-25T12:40:31Z</time>
      </trkpt>
      <trkpt lat="43.17953" lon="6.63298">
        <ele>53.4</ele>
        <time>2020-10-25T12:40:32Z</time>
      </trkpt>
      <trkpt lat="43.17959" lon="6.63293">
        <ele>54</ele>
        <time>2020-10-25T12:40:38Z</time>
      </trkpt>
      <trkpt lat="43.17962" lon="6.63289">
        <ele>53.9</ele>
        <time>2020-10-25T12:40:41Z</time>
      </trkpt>
      <trkpt lat="43.17965" lon="6.63286">
        <ele>54.3</ele>
        <time>2020-10-25T12:40:45Z</time>
      </trkpt>
      <trkpt lat="43.17968" lon="6.63282">
        <ele>54.6</ele>
        <time>2020-10-25T12:40:49Z</time>
      </trkpt>
      <trkpt lat="43.17972" lon="6.63279">
        <ele>54.9</ele>
        <time>2020-10-25T12:40:54Z</time>
      </trkpt>
      <trkpt lat="43.17976" lon="6.63276">
        <ele>55.6</ele>
        <time>2020-10-25T12:40:59Z</time>
      </trkpt>
      <trkpt lat="43.17979" lon="6.63273">
        <ele>56</ele>
        <time>2020-10-25T12:41:02Z</time>
      </trkpt>
      <trkpt lat="43.17982" lon="6.63271">
        <ele>56.5</ele>
        <time>2020-10-25T12:41:06Z</time>
      </trkpt>
      <trkpt lat="43.17985" lon="6.63268">
        <ele>56.9</ele>
        <time>2020-10-25T12:41:10Z</time>
      </trkpt>
      <trkpt lat="43.1799" lon="6.63268">
        <ele>57.2</ele>
        <time>2020-10-25T12:41:15Z</time>
      </trkpt>
      <trkpt lat="43.17993" lon="6.63268">
        <ele>57.4</ele>
        <time>2020-10-25T12:41:19Z</time>
      </trkpt>
      <trkpt lat="43.17997" lon="6.63266">
        <ele>57.5</ele>
        <time>2020-10-25T12:41:23Z</time>
      </trkpt>
      <trkpt lat="43.18001" lon="6.63263">
        <ele>57.9</ele>
        <time>2020-10-25T12:41:27Z</time>
      </trkpt>
      <trkpt lat="43.18005" lon="6.63261">
        <ele>58.4</ele>
        <time>2020-10-25T12:41:31Z</time>
      </trkpt>
      <trkpt lat="43.18008" lon="6.63258">
        <ele>58.6</ele>
        <time>2020-10-25T12:41:36Z</time>
      </trkpt>
      <trkpt lat="43.18009" lon="6.63258">
        <ele>58.7</ele>
        <time>2020-10-25T12:41:37Z</time>
      </trkpt>
      <trkpt lat="43.18014" lon="6.63254">
        <ele>58.8</ele>
        <time>2020-10-25T12:41:42Z</time>
      </trkpt>
      <trkpt lat="43.18018" lon="6.63252">
        <ele>58.9</ele>
        <time>2020-10-25T12:41:46Z</time>
      </trkpt>
      <trkpt lat="43.18021" lon="6.6325">
        <ele>59</ele>
        <time>2020-10-25T12:41:49Z</time>
      </trkpt>
      <trkpt lat="43.18024" lon="6.63247">
        <ele>59</ele>
        <time>2020-10-25T12:41:52Z</time>
      </trkpt>
      <trkpt lat="43.18026" lon="6.63243">
        <ele>58.9</ele>
        <time>2020-10-25T12:41:56Z</time>
      </trkpt>
      <trkpt lat="43.18029" lon="6.6324">
        <ele>59</ele>
        <time>2020-10-25T12:42:00Z</time>
      </trkpt>
      <trkpt lat="43.18032" lon="6.63236">
        <ele>59.2</ele>
        <time>2020-10-25T12:42:38Z</time>
      </trkpt>
      <trkpt lat="43.18033" lon="6.63235">
        <ele>59.2</ele>
        <time>2020-10-25T12:42:39Z</time>
      </trkpt>
      <trkpt lat="43.18038" lon="6.63229">
        <ele>59.2</ele>
        <time>2020-10-25T12:42:45Z</time>
      </trkpt>
      <trkpt lat="43.18041" lon="6.63226">
        <ele>59</ele>
        <time>2020-10-25T12:42:48Z</time>
      </trkpt>
      <trkpt lat="43.18045" lon="6.63225">
        <ele>58.4</ele>
        <time>2020-10-25T12:42:52Z</time>
      </trkpt>
      <trkpt lat="43.18049" lon="6.63223">
        <ele>58.3</ele>
        <time>2020-10-25T12:42:57Z</time>
      </trkpt>
      <trkpt lat="43.18052" lon="6.63221">
        <ele>58</ele>
        <time>2020-10-25T12:43:01Z</time>
      </trkpt>
      <trkpt lat="43.18056" lon="6.63219">
        <ele>57.8</ele>
        <time>2020-10-25T12:43:05Z</time>
      </trkpt>
      <trkpt lat="43.1806" lon="6.63215">
        <ele>57.5</ele>
        <time>2020-10-25T12:43:09Z</time>
      </trkpt>
      <trkpt lat="43.18062" lon="6.63211">
        <ele>57.3</ele>
        <time>2020-10-25T12:43:13Z</time>
      </trkpt>
      <trkpt lat="43.18065" lon="6.63208">
        <ele>56.9</ele>
        <time>2020-10-25T12:43:17Z</time>
      </trkpt>
      <trkpt lat="43.18067" lon="6.63203">
        <ele>56.4</ele>
        <time>2020-10-25T12:43:21Z</time>
      </trkpt>
      <trkpt lat="43.18069" lon="6.63199">
        <ele>55.5</ele>
        <time>2020-10-25T12:43:26Z</time>
      </trkpt>
      <trkpt lat="43.18071" lon="6.63194">
        <ele>54.6</ele>
        <time>2020-10-25T12:43:31Z</time>
      </trkpt>
      <trkpt lat="43.18074" lon="6.6319">
        <ele>53.9</ele>
        <time>2020-10-25T12:43:36Z</time>
      </trkpt>
      <trkpt lat="43.18076" lon="6.63185">
        <ele>53.2</ele>
        <time>2020-10-25T12:43:41Z</time>
      </trkpt>
      <trkpt lat="43.18077" lon="6.63184">
        <ele>53.1</ele>
        <time>2020-10-25T12:43:42Z</time>
      </trkpt>
      <trkpt lat="43.1808" lon="6.63175">
        <ele>52.1</ele>
        <time>2020-10-25T12:43:50Z</time>
      </trkpt>
      <trkpt lat="43.18083" lon="6.6317">
        <ele>51.4</ele>
        <time>2020-10-25T12:43:55Z</time>
      </trkpt>
      <trkpt lat="43.18085" lon="6.63166">
        <ele>50.7</ele>
        <time>2020-10-25T12:43:59Z</time>
      </trkpt>
      <trkpt lat="43.18087" lon="6.6316">
        <ele>49.5</ele>
        <time>2020-10-25T12:44:05Z</time>
      </trkpt>
      <trkpt lat="43.18089" lon="6.63156">
        <ele>49.3</ele>
        <time>2020-10-25T12:44:08Z</time>
      </trkpt>
      <trkpt lat="43.1809" lon="6.63152">
        <ele>49</ele>
        <time>2020-10-25T12:44:12Z</time>
      </trkpt>
      <trkpt lat="43.18093" lon="6.63147">
        <ele>48.4</ele>
        <time>2020-10-25T12:44:16Z</time>
      </trkpt>
      <trkpt lat="43.18095" lon="6.63141">
        <ele>47.9</ele>
        <time>2020-10-25T12:44:21Z</time>
      </trkpt>
      <trkpt lat="43.18097" lon="6.63136">
        <ele>47.7</ele>
        <time>2020-10-25T12:44:26Z</time>
      </trkpt>
      <trkpt lat="43.18098" lon="6.63131">
        <ele>47</ele>
        <time>2020-10-25T12:44:31Z</time>
      </trkpt>
      <trkpt lat="43.18101" lon="6.63126">
        <ele>46.7</ele>
        <time>2020-10-25T12:44:36Z</time>
      </trkpt>
      <trkpt lat="43.18103" lon="6.6312">
        <ele>46.7</ele>
        <time>2020-10-25T12:44:41Z</time>
      </trkpt>
      <trkpt lat="43.18105" lon="6.63116">
        <ele>46.5</ele>
        <time>2020-10-25T12:44:44Z</time>
      </trkpt>
      <trkpt lat="43.18105" lon="6.63115">
        <ele>46.5</ele>
        <time>2020-10-25T12:44:45Z</time>
      </trkpt>
      <trkpt lat="43.18109" lon="6.63107">
        <ele>46.1</ele>
        <time>2020-10-25T12:44:51Z</time>
      </trkpt>
      <trkpt lat="43.18111" lon="6.63103">
        <ele>45.9</ele>
        <time>2020-10-25T12:44:54Z</time>
      </trkpt>
      <trkpt lat="43.18113" lon="6.63098">
        <ele>46.2</ele>
        <time>2020-10-25T12:44:58Z</time>
      </trkpt>
      <trkpt lat="43.18115" lon="6.63093">
        <ele>46.3</ele>
        <time>2020-10-25T12:45:02Z</time>
      </trkpt>
      <trkpt lat="43.18117" lon="6.63089">
        <ele>46.3</ele>
        <time>2020-10-25T12:45:06Z</time>
      </trkpt>
      <trkpt lat="43.1812" lon="6.63084">
        <ele>46.3</ele>
        <time>2020-10-25T12:45:10Z</time>
      </trkpt>
      <trkpt lat="43.18122" lon="6.63079">
        <ele>46.1</ele>
        <time>2020-10-25T12:45:14Z</time>
      </trkpt>
      <trkpt lat="43.18124" lon="6.63074">
        <ele>46</ele>
        <time>2020-10-25T12:45:18Z</time>
      </trkpt>
      <trkpt lat="43.18127" lon="6.63069">
        <ele>45.9</ele>
        <time>2020-10-25T12:45:22Z</time>
      </trkpt>
      <trkpt lat="43.18129" lon="6.63064">
        <ele>46</ele>
        <time>2020-10-25T12:45:26Z</time>
      </trkpt>
      <trkpt lat="43.18131" lon="6.63059">
        <ele>45.7</ele>
        <time>2020-10-25T12:45:30Z</time>
      </trkpt>
      <trkpt lat="43.18132" lon="6.63054">
        <ele>45.5</ele>
        <time>2020-10-25T12:45:34Z</time>
      </trkpt>
      <trkpt lat="43.18134" lon="6.63049">
        <ele>45.4</ele>
        <time>2020-10-25T12:45:38Z</time>
      </trkpt>
      <trkpt lat="43.18136" lon="6.63044">
        <ele>44.9</ele>
        <time>2020-10-25T12:45:42Z</time>
      </trkpt>
      <trkpt lat="43.18137" lon="6.63039">
        <ele>44.4</ele>
        <time>2020-10-25T12:45:46Z</time>
      </trkpt>
      <trkpt lat="43.18138" lon="6.63038">
        <ele>44.2</ele>
        <time>2020-10-25T12:45:47Z</time>
      </trkpt>
      <trkpt lat="43.1814" lon="6.63029">
        <ele>43.6</ele>
        <time>2020-10-25T12:45:53Z</time>
      </trkpt>
      <trkpt lat="43.18142" lon="6.63024">
        <ele>43.4</ele>
        <time>2020-10-25T12:45:57Z</time>
      </trkpt>
      <trkpt lat="43.18144" lon="6.6302">
        <ele>43.1</ele>
        <time>2020-10-25T12:46:01Z</time>
      </trkpt>
      <trkpt lat="43.18146" lon="6.63014">
        <ele>42.6</ele>
        <time>2020-10-25T12:46:05Z</time>
      </trkpt>
      <trkpt lat="43.18148" lon="6.63009">
        <ele>42.4</ele>
        <time>2020-10-25T12:46:09Z</time>
      </trkpt>
      <trkpt lat="43.1815" lon="6.63004">
        <ele>42.2</ele>
        <time>2020-10-25T12:46:13Z</time>
      </trkpt>
      <trkpt lat="43.18153" lon="6.63">
        <ele>42</ele>
        <time>2020-10-25T12:46:17Z</time>
      </trkpt>
      <trkpt lat="43.18156" lon="6.62996">
        <ele>41.8</ele>
        <time>2020-10-25T12:46:21Z</time>
      </trkpt>
      <trkpt lat="43.18158" lon="6.62993">
        <ele>41.4</ele>
        <time>2020-10-25T12:46:24Z</time>
      </trkpt>
      <trkpt lat="43.18162" lon="6.62989">
        <ele>41.2</ele>
        <time>2020-10-25T12:46:28Z</time>
      </trkpt>
      <trkpt lat="43.18165" lon="6.62986">
        <ele>41.2</ele>
        <time>2020-10-25T12:46:31Z</time>
      </trkpt>
      <trkpt lat="43.18167" lon="6.62983">
        <ele>41.1</ele>
        <time>2020-10-25T12:46:34Z</time>
      </trkpt>
      <trkpt lat="43.18171" lon="6.6298">
        <ele>40.8</ele>
        <time>2020-10-25T12:46:38Z</time>
      </trkpt>
      <trkpt lat="43.18174" lon="6.62978">
        <ele>40.5</ele>
        <time>2020-10-25T12:46:41Z</time>
      </trkpt>
      <trkpt lat="43.18178" lon="6.62975">
        <ele>40.2</ele>
        <time>2020-10-25T12:46:45Z</time>
      </trkpt>
      <trkpt lat="43.18181" lon="6.62973">
        <ele>40</ele>
        <time>2020-10-25T12:46:48Z</time>
      </trkpt>
      <trkpt lat="43.18182" lon="6.62972">
        <ele>40</ele>
        <time>2020-10-25T12:46:49Z</time>
      </trkpt>
      <trkpt lat="43.18188" lon="6.62967">
        <ele>39.2</ele>
        <time>2020-10-25T12:46:55Z</time>
      </trkpt>
      <trkpt lat="43.18191" lon="6.62965">
        <ele>38.9</ele>
        <time>2020-10-25T12:46:58Z</time>
      </trkpt>
      <trkpt lat="43.18194" lon="6.62964">
        <ele>38.5</ele>
        <time>2020-10-25T12:47:02Z</time>
      </trkpt>
      <trkpt lat="43.18198" lon="6.62964">
        <ele>38.3</ele>
        <time>2020-10-25T12:47:05Z</time>
      </trkpt>
      <trkpt lat="43.18202" lon="6.62964">
        <ele>38</ele>
        <time>2020-10-25T12:47:09Z</time>
      </trkpt>
      <trkpt lat="43.18206" lon="6.62965">
        <ele>37.7</ele>
        <time>2020-10-25T12:47:13Z</time>
      </trkpt>
      <trkpt lat="43.18209" lon="6.62965">
        <ele>37.4</ele>
        <time>2020-10-25T12:47:16Z</time>
      </trkpt>
      <trkpt lat="43.18213" lon="6.62966">
        <ele>37.2</ele>
        <time>2020-10-25T12:47:19Z</time>
      </trkpt>
      <trkpt lat="43.18217" lon="6.62965">
        <ele>37</ele>
        <time>2020-10-25T12:47:22Z</time>
      </trkpt>
      <trkpt lat="43.1822" lon="6.62963">
        <ele>36.9</ele>
        <time>2020-10-25T12:47:26Z</time>
      </trkpt>
      <trkpt lat="43.18223" lon="6.62958">
        <ele>36.6</ele>
        <time>2020-10-25T12:47:30Z</time>
      </trkpt>
      <trkpt lat="43.18226" lon="6.62954">
        <ele>36.1</ele>
        <time>2020-10-25T12:47:34Z</time>
      </trkpt>
      <trkpt lat="43.18227" lon="6.62949">
        <ele>35.8</ele>
        <time>2020-10-25T12:47:39Z</time>
      </trkpt>
      <trkpt lat="43.18228" lon="6.62944">
        <ele>35.5</ele>
        <time>2020-10-25T12:47:43Z</time>
      </trkpt>
      <trkpt lat="43.18229" lon="6.62939">
        <ele>35.4</ele>
        <time>2020-10-25T12:47:46Z</time>
      </trkpt>
      <trkpt lat="43.18231" lon="6.62933">
        <ele>35.4</ele>
        <time>2020-10-25T12:47:50Z</time>
      </trkpt>
      <trkpt lat="43.18231" lon="6.62932">
        <ele>35.3</ele>
        <time>2020-10-25T12:47:51Z</time>
      </trkpt>
      <trkpt lat="43.18238" lon="6.62929">
        <ele>34.9</ele>
        <time>2020-10-25T12:47:58Z</time>
      </trkpt>
      <trkpt lat="43.18242" lon="6.62929">
        <ele>34.9</ele>
        <time>2020-10-25T12:48:02Z</time>
      </trkpt>
      <trkpt lat="43.18246" lon="6.6293">
        <ele>34.9</ele>
        <time>2020-10-25T12:48:06Z</time>
      </trkpt>
      <trkpt lat="43.1825" lon="6.62932">
        <ele>34.9</ele>
        <time>2020-10-25T12:48:10Z</time>
      </trkpt>
      <trkpt lat="43.18254" lon="6.62934">
        <ele>35</ele>
        <time>2020-10-25T12:48:14Z</time>
      </trkpt>
      <trkpt lat="43.18257" lon="6.62937">
        <ele>35.1</ele>
        <time>2020-10-25T12:48:18Z</time>
      </trkpt>
      <trkpt lat="43.18261" lon="6.62938">
        <ele>35.3</ele>
        <time>2020-10-25T12:48:21Z</time>
      </trkpt>
      <trkpt lat="43.18264" lon="6.62938">
        <ele>35.5</ele>
        <time>2020-10-25T12:48:24Z</time>
      </trkpt>
      <trkpt lat="43.18268" lon="6.62936">
        <ele>35.7</ele>
        <time>2020-10-25T12:48:28Z</time>
      </trkpt>
      <trkpt lat="43.18271" lon="6.62933">
        <ele>35.9</ele>
        <time>2020-10-25T12:48:31Z</time>
      </trkpt>
      <trkpt lat="43.18275" lon="6.62931">
        <ele>36.2</ele>
        <time>2020-10-25T12:48:36Z</time>
      </trkpt>
      <trkpt lat="43.18279" lon="6.62931">
        <ele>36.6</ele>
        <time>2020-10-25T12:48:42Z</time>
      </trkpt>
      <trkpt lat="43.18283" lon="6.62932">
        <ele>37</ele>
        <time>2020-10-25T12:48:47Z</time>
      </trkpt>
      <trkpt lat="43.18287" lon="6.62933">
        <ele>37.4</ele>
        <time>2020-10-25T12:48:52Z</time>
      </trkpt>
      <trkpt lat="43.18288" lon="6.62933">
        <ele>37.5</ele>
        <time>2020-10-25T12:48:53Z</time>
      </trkpt>
      <trkpt lat="43.18295" lon="6.62934">
        <ele>38.2</ele>
        <time>2020-10-25T12:49:02Z</time>
      </trkpt>
      <trkpt lat="43.18299" lon="6.62936">
        <ele>38.3</ele>
        <time>2020-10-25T12:49:06Z</time>
      </trkpt>
      <trkpt lat="43.18303" lon="6.62938">
        <ele>38.5</ele>
        <time>2020-10-25T12:49:10Z</time>
      </trkpt>
      <trkpt lat="43.18307" lon="6.62941">
        <ele>38.8</ele>
        <time>2020-10-25T12:49:14Z</time>
      </trkpt>
      <trkpt lat="43.18311" lon="6.62942">
        <ele>38.9</ele>
        <time>2020-10-25T12:49:17Z</time>
      </trkpt>
      <trkpt lat="43.18315" lon="6.62942">
        <ele>38.9</ele>
        <time>2020-10-25T12:49:21Z</time>
      </trkpt>
      <trkpt lat="43.18319" lon="6.62943">
        <ele>38.9</ele>
        <time>2020-10-25T12:49:25Z</time>
      </trkpt>
      <trkpt lat="43.18323" lon="6.62944">
        <ele>39.4</ele>
        <time>2020-10-25T12:49:30Z</time>
      </trkpt>
      <trkpt lat="43.18327" lon="6.62945">
        <ele>39.7</ele>
        <time>2020-10-25T12:49:35Z</time>
      </trkpt>
      <trkpt lat="43.18331" lon="6.62946">
        <ele>40</ele>
        <time>2020-10-25T12:49:39Z</time>
      </trkpt>
      <trkpt lat="43.18335" lon="6.62947">
        <ele>40.3</ele>
        <time>2020-10-25T12:49:43Z</time>
      </trkpt>
      <trkpt lat="43.18339" lon="6.62948">
        <ele>40.5</ele>
        <time>2020-10-25T12:49:47Z</time>
      </trkpt>
      <trkpt lat="43.18343" lon="6.62949">
        <ele>40.5</ele>
        <time>2020-10-25T12:49:51Z</time>
      </trkpt>
      <trkpt lat="43.18347" lon="6.62948">
        <ele>40.4</ele>
        <time>2020-10-25T12:49:55Z</time>
      </trkpt>
      <trkpt lat="43.18348" lon="6.62949">
        <ele>40.4</ele>
        <time>2020-10-25T12:49:56Z</time>
      </trkpt>
      <trkpt lat="43.18356" lon="6.6295">
        <ele>40.5</ele>
        <time>2020-10-25T12:50:05Z</time>
      </trkpt>
      <trkpt lat="43.1836" lon="6.62952">
        <ele>40.6</ele>
        <time>2020-10-25T12:50:10Z</time>
      </trkpt>
      <trkpt lat="43.18364" lon="6.62953">
        <ele>40.4</ele>
        <time>2020-10-25T12:50:14Z</time>
      </trkpt>
      <trkpt lat="43.18367" lon="6.62953">
        <ele>40.3</ele>
        <time>2020-10-25T12:50:17Z</time>
      </trkpt>
      <trkpt lat="43.18371" lon="6.62954">
        <ele>40.5</ele>
        <time>2020-10-25T12:50:20Z</time>
      </trkpt>
      <trkpt lat="43.18375" lon="6.62954">
        <ele>40.6</ele>
        <time>2020-10-25T12:50:24Z</time>
      </trkpt>
      <trkpt lat="43.18379" lon="6.62952">
        <ele>40.6</ele>
        <time>2020-10-25T12:50:27Z</time>
      </trkpt>
      <trkpt lat="43.18382" lon="6.62951">
        <ele>40.6</ele>
        <time>2020-10-25T12:50:30Z</time>
      </trkpt>
      <trkpt lat="43.18386" lon="6.6295">
        <ele>40.8</ele>
        <time>2020-10-25T12:50:34Z</time>
      </trkpt>
      <trkpt lat="43.18389" lon="6.62949">
        <ele>40.9</ele>
        <time>2020-10-25T12:50:37Z</time>
      </trkpt>
      <trkpt lat="43.18393" lon="6.62948">
        <ele>41.1</ele>
        <time>2020-10-25T12:50:41Z</time>
      </trkpt>
      <trkpt lat="43.18397" lon="6.62947">
        <ele>41.1</ele>
        <time>2020-10-25T12:50:45Z</time>
      </trkpt>
      <trkpt lat="43.18401" lon="6.62946">
        <ele>41.3</ele>
        <time>2020-10-25T12:50:48Z</time>
      </trkpt>
      <trkpt lat="43.18405" lon="6.62946">
        <ele>41.3</ele>
        <time>2020-10-25T12:50:51Z</time>
      </trkpt>
      <trkpt lat="43.18409" lon="6.62948">
        <ele>41.3</ele>
        <time>2020-10-25T12:50:55Z</time>
      </trkpt>
      <trkpt lat="43.18412" lon="6.62947">
        <ele>41.3</ele>
        <time>2020-10-25T12:50:57Z</time>
      </trkpt>
      <trkpt lat="43.18413" lon="6.62947">
        <ele>41.4</ele>
        <time>2020-10-25T12:50:58Z</time>
      </trkpt>
      <trkpt lat="43.1842" lon="6.62949">
        <ele>41.6</ele>
        <time>2020-10-25T12:51:05Z</time>
      </trkpt>
      <trkpt lat="43.18424" lon="6.6295">
        <ele>42</ele>
        <time>2020-10-25T12:51:10Z</time>
      </trkpt>
      <trkpt lat="43.18428" lon="6.62952">
        <ele>42.3</ele>
        <time>2020-10-25T12:51:14Z</time>
      </trkpt>
      <trkpt lat="43.18432" lon="6.62952">
        <ele>42.6</ele>
        <time>2020-10-25T12:51:18Z</time>
      </trkpt>
      <trkpt lat="43.18436" lon="6.62952">
        <ele>42.8</ele>
        <time>2020-10-25T12:51:22Z</time>
      </trkpt>
      <trkpt lat="43.1844" lon="6.62952">
        <ele>42.9</ele>
        <time>2020-10-25T12:51:26Z</time>
      </trkpt>
      <trkpt lat="43.18443" lon="6.62952">
        <ele>43.1</ele>
        <time>2020-10-25T12:51:30Z</time>
      </trkpt>
      <trkpt lat="43.18447" lon="6.62951">
        <ele>43.3</ele>
        <time>2020-10-25T12:51:34Z</time>
      </trkpt>
      <trkpt lat="43.18451" lon="6.62949">
        <ele>43.7</ele>
        <time>2020-10-25T12:51:38Z</time>
      </trkpt>
      <trkpt lat="43.18455" lon="6.62948">
        <ele>43.8</ele>
        <time>2020-10-25T12:51:42Z</time>
      </trkpt>
      <trkpt lat="43.18458" lon="6.62946">
        <ele>43.9</ele>
        <time>2020-10-25T12:51:45Z</time>
      </trkpt>
      <trkpt lat="43.18462" lon="6.62944">
        <ele>44.1</ele>
        <time>2020-10-25T12:51:49Z</time>
      </trkpt>
      <trkpt lat="43.18465" lon="6.62943">
        <ele>44.4</ele>
        <time>2020-10-25T12:51:53Z</time>
      </trkpt>
      <trkpt lat="43.18469" lon="6.62941">
        <ele>44.7</ele>
        <time>2020-10-25T12:51:57Z</time>
      </trkpt>
      <trkpt lat="43.18473" lon="6.6294">
        <ele>45</ele>
        <time>2020-10-25T12:52:01Z</time>
      </trkpt>
      <trkpt lat="43.18474" lon="6.6294">
        <ele>45</ele>
        <time>2020-10-25T12:52:02Z</time>
      </trkpt>
      <trkpt lat="43.18481" lon="6.62939">
        <ele>45.6</ele>
        <time>2020-10-25T12:52:09Z</time>
      </trkpt>
      <trkpt lat="43.18485" lon="6.62939">
        <ele>46</ele>
        <time>2020-10-25T12:52:13Z</time>
      </trkpt>
      <trkpt lat="43.18488" lon="6.62938">
        <ele>46</ele>
        <time>2020-10-25T12:52:16Z</time>
      </trkpt>
      <trkpt lat="43.18492" lon="6.62939">
        <ele>46.3</ele>
        <time>2020-10-25T12:52:20Z</time>
      </trkpt>
      <trkpt lat="43.18495" lon="6.62937">
        <ele>46.3</ele>
        <time>2020-10-25T12:52:23Z</time>
      </trkpt>
      <trkpt lat="43.18499" lon="6.62935">
        <ele>46.2</ele>
        <time>2020-10-25T12:52:26Z</time>
      </trkpt>
      <trkpt lat="43.18502" lon="6.62934">
        <ele>46.2</ele>
        <time>2020-10-25T12:52:31Z</time>
      </trkpt>
      <trkpt lat="43.18506" lon="6.62933">
        <ele>46.1</ele>
        <time>2020-10-25T12:52:35Z</time>
      </trkpt>
      <trkpt lat="43.1851" lon="6.62932">
        <ele>46.5</ele>
        <time>2020-10-25T12:52:39Z</time>
      </trkpt>
      <trkpt lat="43.18514" lon="6.62933">
        <ele>46.9</ele>
        <time>2020-10-25T12:52:44Z</time>
      </trkpt>
      <trkpt lat="43.18518" lon="6.62932">
        <ele>47.2</ele>
        <time>2020-10-25T12:52:48Z</time>
      </trkpt>
      <trkpt lat="43.18522" lon="6.6293">
        <ele>47.4</ele>
        <time>2020-10-25T12:52:51Z</time>
      </trkpt>
      <trkpt lat="43.18526" lon="6.62929">
        <ele>47.5</ele>
        <time>2020-10-25T12:52:54Z</time>
      </trkpt>
      <trkpt lat="43.1853" lon="6.62927">
        <ele>47.6</ele>
        <time>2020-10-25T12:52:58Z</time>
      </trkpt>
      <trkpt lat="43.18534" lon="6.62926">
        <ele>47.6</ele>
        <time>2020-10-25T12:53:02Z</time>
      </trkpt>
      <trkpt lat="43.18535" lon="6.62925">
        <ele>47.6</ele>
        <time>2020-10-25T12:53:03Z</time>
      </trkpt>
      <trkpt lat="43.18541" lon="6.62921">
        <ele>47.8</ele>
        <time>2020-10-25T12:53:09Z</time>
      </trkpt>
      <trkpt lat="43.18545" lon="6.62919">
        <ele>47.8</ele>
        <time>2020-10-25T12:53:15Z</time>
      </trkpt>
      <trkpt lat="43.18548" lon="6.62915">
        <ele>47.9</ele>
        <time>2020-10-25T12:53:20Z</time>
      </trkpt>
      <trkpt lat="43.18552" lon="6.62913">
        <ele>48</ele>
        <time>2020-10-25T12:53:24Z</time>
      </trkpt>
      <trkpt lat="43.18555" lon="6.62913">
        <ele>48.1</ele>
        <time>2020-10-25T12:53:29Z</time>
      </trkpt>
      <trkpt lat="43.18559" lon="6.62913">
        <ele>48.3</ele>
        <time>2020-10-25T12:53:33Z</time>
      </trkpt>
      <trkpt lat="43.18563" lon="6.62914">
        <ele>48.4</ele>
        <time>2020-10-25T12:53:37Z</time>
      </trkpt>
      <trkpt lat="43.18567" lon="6.62914">
        <ele>48.7</ele>
        <time>2020-10-25T12:53:41Z</time>
      </trkpt>
      <trkpt lat="43.18571" lon="6.62914">
        <ele>49</ele>
        <time>2020-10-25T12:53:45Z</time>
      </trkpt>
      <trkpt lat="43.18575" lon="6.62915">
        <ele>49.6</ele>
        <time>2020-10-25T12:53:53Z</time>
      </trkpt>
      <trkpt lat="43.18577" lon="6.6291">
        <ele>50</ele>
        <time>2020-10-25T12:54:00Z</time>
      </trkpt>
      <trkpt lat="43.18581" lon="6.62909">
        <ele>50.4</ele>
        <time>2020-10-25T12:54:10Z</time>
      </trkpt>
      <trkpt lat="43.18582" lon="6.62909">
        <ele>50.4</ele>
        <time>2020-10-25T12:54:11Z</time>
      </trkpt>
      <trkpt lat="43.18589" lon="6.62911">
        <ele>50.9</ele>
        <time>2020-10-25T12:54:20Z</time>
      </trkpt>
      <trkpt lat="43.18593" lon="6.62911">
        <ele>50.8</ele>
        <time>2020-10-25T12:54:24Z</time>
      </trkpt>
      <trkpt lat="43.18597" lon="6.6291">
        <ele>51</ele>
        <time>2020-10-25T12:54:28Z</time>
      </trkpt>
      <trkpt lat="43.186" lon="6.62909">
        <ele>51.3</ele>
        <time>2020-10-25T12:54:33Z</time>
      </trkpt>
      <trkpt lat="43.18604" lon="6.62906">
        <ele>51.6</ele>
        <time>2020-10-25T12:54:37Z</time>
      </trkpt>
      <trkpt lat="43.18608" lon="6.62903">
        <ele>51.8</ele>
        <time>2020-10-25T12:54:41Z</time>
      </trkpt>
      <trkpt lat="43.18611" lon="6.62902">
        <ele>52</ele>
        <time>2020-10-25T12:54:45Z</time>
      </trkpt>
      <trkpt lat="43.18614" lon="6.62899">
        <ele>51.9</ele>
        <time>2020-10-25T12:54:49Z</time>
      </trkpt>
      <trkpt lat="43.18618" lon="6.62895">
        <ele>51.9</ele>
        <time>2020-10-25T12:54:54Z</time>
      </trkpt>
      <trkpt lat="43.18621" lon="6.62892">
        <ele>52.1</ele>
        <time>2020-10-25T12:54:58Z</time>
      </trkpt>
      <trkpt lat="43.18623" lon="6.62888">
        <ele>52.5</ele>
        <time>2020-10-25T12:55:02Z</time>
      </trkpt>
      <trkpt lat="43.18626" lon="6.62884">
        <ele>53.1</ele>
        <time>2020-10-25T12:55:08Z</time>
      </trkpt>
      <trkpt lat="43.18629" lon="6.62882">
        <ele>53.5</ele>
        <time>2020-10-25T12:55:14Z</time>
      </trkpt>
      <trkpt lat="43.1863" lon="6.62881">
        <ele>53.5</ele>
        <time>2020-10-25T12:55:15Z</time>
      </trkpt>
      <trkpt lat="43.18637" lon="6.6288">
        <ele>54.4</ele>
        <time>2020-10-25T12:55:23Z</time>
      </trkpt>
      <trkpt lat="43.18641" lon="6.62878">
        <ele>54.9</ele>
        <time>2020-10-25T12:55:29Z</time>
      </trkpt>
      <trkpt lat="43.18645" lon="6.62877">
        <ele>55.2</ele>
        <time>2020-10-25T12:55:37Z</time>
      </trkpt>
      <trkpt lat="43.18649" lon="6.6288">
        <ele>55.4</ele>
        <time>2020-10-25T12:55:41Z</time>
      </trkpt>
      <trkpt lat="43.18653" lon="6.62878">
        <ele>55.5</ele>
        <time>2020-10-25T12:55:45Z</time>
      </trkpt>
      <trkpt lat="43.18655" lon="6.62876">
        <ele>55.6</ele>
        <time>2020-10-25T12:55:47Z</time>
      </trkpt>
      <trkpt lat="43.1866" lon="6.62876">
        <ele>55.7</ele>
        <time>2020-10-25T12:55:51Z</time>
      </trkpt>
      <trkpt lat="43.18663" lon="6.62879">
        <ele>56</ele>
        <time>2020-10-25T12:55:54Z</time>
      </trkpt>
      <trkpt lat="43.18666" lon="6.62879">
        <ele>56.4</ele>
        <time>2020-10-25T12:55:57Z</time>
      </trkpt>
      <trkpt lat="43.1867" lon="6.6288">
        <ele>56.9</ele>
        <time>2020-10-25T12:56:01Z</time>
      </trkpt>
      <trkpt lat="43.18674" lon="6.62877">
        <ele>57.2</ele>
        <time>2020-10-25T12:56:06Z</time>
      </trkpt>
      <trkpt lat="43.18677" lon="6.62874">
        <ele>57.6</ele>
        <time>2020-10-25T12:56:11Z</time>
      </trkpt>
      <trkpt lat="43.1868" lon="6.6287">
        <ele>57.8</ele>
        <time>2020-10-25T12:56:14Z</time>
      </trkpt>
      <trkpt lat="43.18681" lon="6.62865">
        <ele>57.9</ele>
        <time>2020-10-25T12:56:17Z</time>
      </trkpt>
      <trkpt lat="43.18682" lon="6.62863">
        <ele>58</ele>
        <time>2020-10-25T12:56:18Z</time>
      </trkpt>
      <trkpt lat="43.18686" lon="6.62856">
        <ele>58.3</ele>
        <time>2020-10-25T12:56:23Z</time>
      </trkpt>
      <trkpt lat="43.1869" lon="6.62854">
        <ele>58.6</ele>
        <time>2020-10-25T12:56:30Z</time>
      </trkpt>
      <trkpt lat="43.18693" lon="6.62853">
        <ele>58.8</ele>
        <time>2020-10-25T12:56:33Z</time>
      </trkpt>
      <trkpt lat="43.18697" lon="6.62851">
        <ele>58.9</ele>
        <time>2020-10-25T12:56:36Z</time>
      </trkpt>
      <trkpt lat="43.187" lon="6.62849">
        <ele>59.2</ele>
        <time>2020-10-25T12:56:39Z</time>
      </trkpt>
      <trkpt lat="43.18704" lon="6.62846">
        <ele>59.4</ele>
        <time>2020-10-25T12:56:42Z</time>
      </trkpt>
      <trkpt lat="43.18707" lon="6.62844">
        <ele>59.6</ele>
        <time>2020-10-25T12:56:45Z</time>
      </trkpt>
      <trkpt lat="43.18711" lon="6.62842">
        <ele>59.8</ele>
        <time>2020-10-25T12:56:49Z</time>
      </trkpt>
      <trkpt lat="43.18715" lon="6.62842">
        <ele>60.3</ele>
        <time>2020-10-25T12:56:53Z</time>
      </trkpt>
      <trkpt lat="43.1872" lon="6.62843">
        <ele>60.6</ele>
        <time>2020-10-25T12:56:59Z</time>
      </trkpt>
      <trkpt lat="43.18724" lon="6.62843">
        <ele>61.2</ele>
        <time>2020-10-25T12:57:07Z</time>
      </trkpt>
      <trkpt lat="43.18728" lon="6.62845">
        <ele>61.5</ele>
        <time>2020-10-25T12:57:17Z</time>
      </trkpt>
      <trkpt lat="43.18732" lon="6.62845">
        <ele>62.2</ele>
        <time>2020-10-25T12:57:25Z</time>
      </trkpt>
      <trkpt lat="43.18733" lon="6.62845">
        <ele>62.2</ele>
        <time>2020-10-25T12:57:26Z</time>
      </trkpt>
      <trkpt lat="43.1874" lon="6.62849">
        <ele>62.7</ele>
        <time>2020-10-25T12:57:34Z</time>
      </trkpt>
      <trkpt lat="43.18743" lon="6.62852">
        <ele>63.3</ele>
        <time>2020-10-25T12:57:38Z</time>
      </trkpt>
      <trkpt lat="43.18747" lon="6.62852">
        <ele>63.7</ele>
        <time>2020-10-25T12:57:42Z</time>
      </trkpt>
      <trkpt lat="43.18751" lon="6.62853">
        <ele>64</ele>
        <time>2020-10-25T12:57:45Z</time>
      </trkpt>
      <trkpt lat="43.18755" lon="6.62854">
        <ele>64.2</ele>
        <time>2020-10-25T12:57:48Z</time>
      </trkpt>
      <trkpt lat="43.18758" lon="6.62857">
        <ele>64.5</ele>
        <time>2020-10-25T12:57:51Z</time>
      </trkpt>
      <trkpt lat="43.18763" lon="6.62856">
        <ele>65.2</ele>
        <time>2020-10-25T12:57:58Z</time>
      </trkpt>
      <trkpt lat="43.18766" lon="6.62854">
        <ele>65.7</ele>
        <time>2020-10-25T12:58:03Z</time>
      </trkpt>
      <trkpt lat="43.1877" lon="6.62854">
        <ele>66.1</ele>
        <time>2020-10-25T12:58:07Z</time>
      </trkpt>
      <trkpt lat="43.18774" lon="6.62854">
        <ele>66.3</ele>
        <time>2020-10-25T12:58:11Z</time>
      </trkpt>
      <trkpt lat="43.18778" lon="6.62854">
        <ele>66.5</ele>
        <time>2020-10-25T12:58:14Z</time>
      </trkpt>
      <trkpt lat="43.18782" lon="6.62851">
        <ele>66.7</ele>
        <time>2020-10-25T12:58:19Z</time>
      </trkpt>
      <trkpt lat="43.18785" lon="6.6285">
        <ele>66.9</ele>
        <time>2020-10-25T12:58:23Z</time>
      </trkpt>
      <trkpt lat="43.18789" lon="6.6285">
        <ele>67.3</ele>
        <time>2020-10-25T12:58:28Z</time>
      </trkpt>
      <trkpt lat="43.1879" lon="6.6285">
        <ele>67.3</ele>
        <time>2020-10-25T12:58:29Z</time>
      </trkpt>
      <trkpt lat="43.18798" lon="6.62851">
        <ele>67.9</ele>
        <time>2020-10-25T12:58:40Z</time>
      </trkpt>
      <trkpt lat="43.18802" lon="6.62852">
        <ele>68.6</ele>
        <time>2020-10-25T12:58:46Z</time>
      </trkpt>
      <trkpt lat="43.18806" lon="6.6285">
        <ele>69</ele>
        <time>2020-10-25T12:58:51Z</time>
      </trkpt>
      <trkpt lat="43.1881" lon="6.62849">
        <ele>69.4</ele>
        <time>2020-10-25T12:58:56Z</time>
      </trkpt>
      <trkpt lat="43.18812" lon="6.62844">
        <ele>69.9</ele>
        <time>2020-10-25T12:59:00Z</time>
      </trkpt>
      <trkpt lat="43.18815" lon="6.62841">
        <ele>70.4</ele>
        <time>2020-10-25T12:59:04Z</time>
      </trkpt>
      <trkpt lat="43.18818" lon="6.62839">
        <ele>70.6</ele>
        <time>2020-10-25T12:59:07Z</time>
      </trkpt>
      <trkpt lat="43.18821" lon="6.62837">
        <ele>70.6</ele>
        <time>2020-10-25T12:59:10Z</time>
      </trkpt>
      <trkpt lat="43.18825" lon="6.62837">
        <ele>70.7</ele>
        <time>2020-10-25T12:59:13Z</time>
      </trkpt>
      <trkpt lat="43.18829" lon="6.62835">
        <ele>70.8</ele>
        <time>2020-10-25T12:59:16Z</time>
      </trkpt>
      <trkpt lat="43.18832" lon="6.62834">
        <ele>70.7</ele>
        <time>2020-10-25T12:59:19Z</time>
      </trkpt>
      <trkpt lat="43.18836" lon="6.62831">
        <ele>70.8</ele>
        <time>2020-10-25T12:59:24Z</time>
      </trkpt>
      <trkpt lat="43.1884" lon="6.62828">
        <ele>71</ele>
        <time>2020-10-25T12:59:29Z</time>
      </trkpt>
      <trkpt lat="43.1884" lon="6.62827">
        <ele>71.1</ele>
        <time>2020-10-25T12:59:30Z</time>
      </trkpt>
      <trkpt lat="43.18844" lon="6.6282">
        <ele>71.5</ele>
        <time>2020-10-25T12:59:36Z</time>
      </trkpt>
      <trkpt lat="43.18847" lon="6.62816">
        <ele>71.7</ele>
        <time>2020-10-25T12:59:40Z</time>
      </trkpt>
      <trkpt lat="43.1885" lon="6.62813">
        <ele>72</ele>
        <time>2020-10-25T12:59:43Z</time>
      </trkpt>
      <trkpt lat="43.18853" lon="6.62809">
        <ele>72.1</ele>
        <time>2020-10-25T12:59:46Z</time>
      </trkpt>
      <trkpt lat="43.18856" lon="6.62806">
        <ele>72.2</ele>
        <time>2020-10-25T12:59:48Z</time>
      </trkpt>
      <trkpt lat="43.18859" lon="6.62802">
        <ele>72.4</ele>
        <time>2020-10-25T12:59:52Z</time>
      </trkpt>
      <trkpt lat="43.18862" lon="6.62798">
        <ele>72.5</ele>
        <time>2020-10-25T12:59:55Z</time>
      </trkpt>
      <trkpt lat="43.18865" lon="6.62795">
        <ele>72.6</ele>
        <time>2020-10-25T12:59:59Z</time>
      </trkpt>
      <trkpt lat="43.18868" lon="6.62792">
        <ele>72.8</ele>
        <time>2020-10-25T13:00:02Z</time>
      </trkpt>
      <trkpt lat="43.18871" lon="6.62788">
        <ele>72.9</ele>
        <time>2020-10-25T13:00:06Z</time>
      </trkpt>
      <trkpt lat="43.18874" lon="6.62785">
        <ele>72.9</ele>
        <time>2020-10-25T13:00:09Z</time>
      </trkpt>
      <trkpt lat="43.18877" lon="6.62781">
        <ele>73</ele>
        <time>2020-10-25T13:00:12Z</time>
      </trkpt>
      <trkpt lat="43.1888" lon="6.62777">
        <ele>73.2</ele>
        <time>2020-10-25T13:00:16Z</time>
      </trkpt>
      <trkpt lat="43.18883" lon="6.62774">
        <ele>73.4</ele>
        <time>2020-10-25T13:00:19Z</time>
      </trkpt>
      <trkpt lat="43.18886" lon="6.62771">
        <ele>73.5</ele>
        <time>2020-10-25T13:00:22Z</time>
      </trkpt>
      <trkpt lat="43.18889" lon="6.62768">
        <ele>73.6</ele>
        <time>2020-10-25T13:00:26Z</time>
      </trkpt>
      <trkpt lat="43.18892" lon="6.62765">
        <ele>73.7</ele>
        <time>2020-10-25T13:00:29Z</time>
      </trkpt>
      <trkpt lat="43.18895" lon="6.62761">
        <ele>73.8</ele>
        <time>2020-10-25T13:00:32Z</time>
      </trkpt>
      <trkpt lat="43.18895" lon="6.6276">
        <ele>73.8</ele>
        <time>2020-10-25T13:00:33Z</time>
      </trkpt>
      <trkpt lat="43.18899" lon="6.62752">
        <ele>74</ele>
        <time>2020-10-25T13:00:41Z</time>
      </trkpt>
      <trkpt lat="43.18903" lon="6.62751">
        <ele>74.1</ele>
        <time>2020-10-25T13:00:44Z</time>
      </trkpt>
      <trkpt lat="43.18906" lon="6.62749">
        <ele>74.2</ele>
        <time>2020-10-25T13:00:47Z</time>
      </trkpt>
      <trkpt lat="43.1891" lon="6.62746">
        <ele>74.5</ele>
        <time>2020-10-25T13:00:53Z</time>
      </trkpt>
      <trkpt lat="43.18914" lon="6.62742">
        <ele>75.3</ele>
        <time>2020-10-25T13:00:58Z</time>
      </trkpt>
      <trkpt lat="43.18917" lon="6.6274">
        <ele>75.9</ele>
        <time>2020-10-25T13:01:04Z</time>
      </trkpt>
      <trkpt lat="43.18921" lon="6.62737">
        <ele>75.8</ele>
        <time>2020-10-25T13:01:08Z</time>
      </trkpt>
      <trkpt lat="43.18924" lon="6.62733">
        <ele>75.8</ele>
        <time>2020-10-25T13:01:11Z</time>
      </trkpt>
      <trkpt lat="43.18926" lon="6.6273">
        <ele>75.8</ele>
        <time>2020-10-25T13:01:14Z</time>
      </trkpt>
      <trkpt lat="43.18928" lon="6.62725">
        <ele>75.7</ele>
        <time>2020-10-25T13:01:18Z</time>
      </trkpt>
      <trkpt lat="43.1893" lon="6.62721">
        <ele>75.6</ele>
        <time>2020-10-25T13:01:21Z</time>
      </trkpt>
      <trkpt lat="43.18933" lon="6.62717">
        <ele>75.5</ele>
        <time>2020-10-25T13:01:25Z</time>
      </trkpt>
      <trkpt lat="43.18936" lon="6.62714">
        <ele>75.5</ele>
        <time>2020-10-25T13:01:29Z</time>
      </trkpt>
      <trkpt lat="43.1894" lon="6.62714">
        <ele>75.5</ele>
        <time>2020-10-25T13:01:33Z</time>
      </trkpt>
      <trkpt lat="43.18942" lon="6.62714">
        <ele>75.4</ele>
        <time>2020-10-25T13:01:34Z</time>
      </trkpt>
      <trkpt lat="43.18948" lon="6.62717">
        <ele>76.1</ele>
        <time>2020-10-25T13:01:44Z</time>
      </trkpt>
      <trkpt lat="43.18952" lon="6.6272">
        <ele>76.6</ele>
        <time>2020-10-25T13:01:51Z</time>
      </trkpt>
      <trkpt lat="43.18956" lon="6.62722">
        <ele>77.1</ele>
        <time>2020-10-25T13:01:56Z</time>
      </trkpt>
      <trkpt lat="43.1896" lon="6.62722">
        <ele>77.8</ele>
        <time>2020-10-25T13:02:02Z</time>
      </trkpt>
      <trkpt lat="43.18963" lon="6.62724">
        <ele>78.3</ele>
        <time>2020-10-25T13:02:07Z</time>
      </trkpt>
      <trkpt lat="43.18967" lon="6.62725">
        <ele>78.8</ele>
        <time>2020-10-25T13:02:11Z</time>
      </trkpt>
      <trkpt lat="43.18971" lon="6.62726">
        <ele>79.1</ele>
        <time>2020-10-25T13:02:16Z</time>
      </trkpt>
      <trkpt lat="43.18975" lon="6.62727">
        <ele>79.6</ele>
        <time>2020-10-25T13:02:21Z</time>
      </trkpt>
      <trkpt lat="43.18979" lon="6.62728">
        <ele>79.9</ele>
        <time>2020-10-25T13:02:26Z</time>
      </trkpt>
      <trkpt lat="43.18982" lon="6.62728">
        <ele>80.4</ele>
        <time>2020-10-25T13:02:33Z</time>
      </trkpt>
      <trkpt lat="43.18986" lon="6.62725">
        <ele>81.2</ele>
        <time>2020-10-25T13:02:39Z</time>
      </trkpt>
      <trkpt lat="43.18986" lon="6.62725">
        <ele>81.3</ele>
        <time>2020-10-25T13:02:40Z</time>
      </trkpt>
      <trkpt lat="43.18985" lon="6.62713">
        <ele>82.9</ele>
        <time>2020-10-25T13:02:57Z</time>
      </trkpt>
      <trkpt lat="43.18984" lon="6.62707">
        <ele>84.4</ele>
        <time>2020-10-25T13:03:11Z</time>
      </trkpt>
      <trkpt lat="43.18982" lon="6.62702">
        <ele>84.9</ele>
        <time>2020-10-25T13:03:17Z</time>
      </trkpt>
      <trkpt lat="43.1898" lon="6.62698">
        <ele>85.8</ele>
        <time>2020-10-25T13:03:23Z</time>
      </trkpt>
      <trkpt lat="43.18979" lon="6.62693">
        <ele>86.4</ele>
        <time>2020-10-25T13:03:28Z</time>
      </trkpt>
      <trkpt lat="43.18979" lon="6.62688">
        <ele>87.1</ele>
        <time>2020-10-25T13:03:33Z</time>
      </trkpt>
      <trkpt lat="43.18979" lon="6.62683">
        <ele>87.5</ele>
        <time>2020-10-25T13:03:39Z</time>
      </trkpt>
      <trkpt lat="43.18979" lon="6.62677">
        <ele>88.3</ele>
        <time>2020-10-25T13:03:46Z</time>
      </trkpt>
      <trkpt lat="43.18979" lon="6.62676">
        <ele>88.4</ele>
        <time>2020-10-25T13:03:47Z</time>
      </trkpt>
      <trkpt lat="43.18982" lon="6.62667">
        <ele>89.1</ele>
        <time>2020-10-25T13:03:59Z</time>
      </trkpt>
      <trkpt lat="43.18984" lon="6.62662">
        <ele>89.6</ele>
        <time>2020-10-25T13:04:05Z</time>
      </trkpt>
      <trkpt lat="43.18986" lon="6.62657">
        <ele>90.4</ele>
        <time>2020-10-25T13:04:12Z</time>
      </trkpt>
      <trkpt lat="43.18988" lon="6.62652">
        <ele>91.2</ele>
        <time>2020-10-25T13:04:18Z</time>
      </trkpt>
      <trkpt lat="43.1899" lon="6.62648">
        <ele>92.1</ele>
        <time>2020-10-25T13:04:28Z</time>
      </trkpt>
      <trkpt lat="43.18991" lon="6.62642">
        <ele>92.5</ele>
        <time>2020-10-25T13:05:18Z</time>
      </trkpt>
      <trkpt lat="43.18991" lon="6.62642">
        <ele>92.5</ele>
        <time>2020-10-25T13:05:19Z</time>
      </trkpt>
      <trkpt lat="43.18993" lon="6.62638">
        <ele>94.5</ele>
        <time>2020-10-25T13:10:00Z</time>
      </trkpt>
      <trkpt lat="43.18994" lon="6.62637">
        <ele>94.5</ele>
        <time>2020-10-25T13:10:01Z</time>
      </trkpt>
      <trkpt lat="43.18996" lon="6.62627">
        <ele>94.8</ele>
        <time>2020-10-25T13:10:12Z</time>
      </trkpt>
      <trkpt lat="43.18996" lon="6.62621">
        <ele>94.8</ele>
        <time>2020-10-25T13:10:20Z</time>
      </trkpt>
      <trkpt lat="43.18997" lon="6.62616">
        <ele>95.5</ele>
        <time>2020-10-25T13:10:36Z</time>
      </trkpt>
      <trkpt lat="43.19001" lon="6.62618">
        <ele>96.2</ele>
        <time>2020-10-25T13:10:52Z</time>
      </trkpt>
      <trkpt lat="43.19005" lon="6.62621">
        <ele>97.6</ele>
        <time>2020-10-25T13:11:10Z</time>
      </trkpt>
      <trkpt lat="43.19005" lon="6.62621">
        <ele>97.7</ele>
        <time>2020-10-25T13:11:11Z</time>
      </trkpt>
      <trkpt lat="43.19011" lon="6.62629">
        <ele>99.5</ele>
        <time>2020-10-25T13:11:29Z</time>
      </trkpt>
      <trkpt lat="43.19014" lon="6.62632">
        <ele>99.8</ele>
        <time>2020-10-25T13:11:35Z</time>
      </trkpt>
      <trkpt lat="43.19018" lon="6.62634">
        <ele>100.1</ele>
        <time>2020-10-25T13:11:40Z</time>
      </trkpt>
      <trkpt lat="43.19022" lon="6.62636">
        <ele>100.8</ele>
        <time>2020-10-25T13:11:46Z</time>
      </trkpt>
      <trkpt lat="43.19026" lon="6.62637">
        <ele>101.6</ele>
        <time>2020-10-25T13:11:52Z</time>
      </trkpt>
      <trkpt lat="43.1903" lon="6.62638">
        <ele>102.1</ele>
        <time>2020-10-25T13:12:02Z</time>
      </trkpt>
      <trkpt lat="43.19034" lon="6.6264">
        <ele>102.6</ele>
        <time>2020-10-25T13:12:13Z</time>
      </trkpt>
      <trkpt lat="43.19034" lon="6.62641">
        <ele>102.7</ele>
        <time>2020-10-25T13:12:14Z</time>
      </trkpt>
      <trkpt lat="43.19042" lon="6.62639">
        <ele>103.5</ele>
        <time>2020-10-25T13:12:25Z</time>
      </trkpt>
      <trkpt lat="43.19046" lon="6.62642">
        <ele>103.8</ele>
        <time>2020-10-25T13:12:33Z</time>
      </trkpt>
      <trkpt lat="43.1905" lon="6.6264">
        <ele>104.6</ele>
        <time>2020-10-25T13:12:42Z</time>
      </trkpt>
      <trkpt lat="43.19054" lon="6.6264">
        <ele>106.3</ele>
        <time>2020-10-25T13:12:56Z</time>
      </trkpt>
      <trkpt lat="43.19058" lon="6.62641">
        <ele>106.4</ele>
        <time>2020-10-25T13:13:01Z</time>
      </trkpt>
      <trkpt lat="43.19062" lon="6.62639">
        <ele>106.6</ele>
        <time>2020-10-25T13:13:05Z</time>
      </trkpt>
      <trkpt lat="43.19066" lon="6.62638">
        <ele>107.2</ele>
        <time>2020-10-25T13:13:11Z</time>
      </trkpt>
      <trkpt lat="43.1907" lon="6.62637">
        <ele>107.3</ele>
        <time>2020-10-25T13:13:15Z</time>
      </trkpt>
      <trkpt lat="43.19072" lon="6.62637">
        <ele>107.4</ele>
        <time>2020-10-25T13:13:16Z</time>
      </trkpt>
      <trkpt lat="43.19077" lon="6.62632">
        <ele>107.6</ele>
        <time>2020-10-25T13:13:21Z</time>
      </trkpt>
      <trkpt lat="43.1908" lon="6.62629">
        <ele>107.6</ele>
        <time>2020-10-25T13:13:24Z</time>
      </trkpt>
      <trkpt lat="43.19083" lon="6.62626">
        <ele>107.6</ele>
        <time>2020-10-25T13:13:28Z</time>
      </trkpt>
      <trkpt lat="43.19086" lon="6.62622">
        <ele>107.7</ele>
        <time>2020-10-25T13:13:31Z</time>
      </trkpt>
      <trkpt lat="43.19089" lon="6.6262">
        <ele>108.1</ele>
        <time>2020-10-25T13:13:35Z</time>
      </trkpt>
      <trkpt lat="43.19091" lon="6.62617">
        <ele>108.3</ele>
        <time>2020-10-25T13:13:37Z</time>
      </trkpt>
      <trkpt lat="43.19094" lon="6.62614">
        <ele>108.4</ele>
        <time>2020-10-25T13:13:39Z</time>
      </trkpt>
      <trkpt lat="43.19096" lon="6.6261">
        <ele>108.5</ele>
        <time>2020-10-25T13:13:41Z</time>
      </trkpt>
      <trkpt lat="43.19099" lon="6.62606">
        <ele>108.6</ele>
        <time>2020-10-25T13:13:44Z</time>
      </trkpt>
      <trkpt lat="43.19101" lon="6.62603">
        <ele>108.7</ele>
        <time>2020-10-25T13:13:47Z</time>
      </trkpt>
      <trkpt lat="43.19105" lon="6.62599">
        <ele>109</ele>
        <time>2020-10-25T13:13:51Z</time>
      </trkpt>
      <trkpt lat="43.19108" lon="6.62595">
        <ele>109.3</ele>
        <time>2020-10-25T13:13:56Z</time>
      </trkpt>
      <trkpt lat="43.19111" lon="6.62593">
        <ele>109.5</ele>
        <time>2020-10-25T13:14:00Z</time>
      </trkpt>
      <trkpt lat="43.19114" lon="6.62589">
        <ele>109.7</ele>
        <time>2020-10-25T13:14:04Z</time>
      </trkpt>
      <trkpt lat="43.19117" lon="6.62585">
        <ele>109.9</ele>
        <time>2020-10-25T13:14:08Z</time>
      </trkpt>
      <trkpt lat="43.1912" lon="6.62582">
        <ele>110.1</ele>
        <time>2020-10-25T13:14:13Z</time>
      </trkpt>
      <trkpt lat="43.19122" lon="6.62578">
        <ele>110.1</ele>
        <time>2020-10-25T13:14:16Z</time>
      </trkpt>
      <trkpt lat="43.19123" lon="6.62577">
        <ele>110.2</ele>
        <time>2020-10-25T13:14:17Z</time>
      </trkpt>
      <trkpt lat="43.19127" lon="6.6257">
        <ele>110.3</ele>
        <time>2020-10-25T13:14:23Z</time>
      </trkpt>
      <trkpt lat="43.19129" lon="6.62566">
        <ele>110.7</ele>
        <time>2020-10-25T13:14:32Z</time>
      </trkpt>
      <trkpt lat="43.19132" lon="6.62561">
        <ele>110.7</ele>
        <time>2020-10-25T13:14:39Z</time>
      </trkpt>
      <trkpt lat="43.19134" lon="6.62558">
        <ele>111.3</ele>
        <time>2020-10-25T13:14:47Z</time>
      </trkpt>
      <trkpt lat="43.19137" lon="6.62554">
        <ele>111.5</ele>
        <time>2020-10-25T13:14:51Z</time>
      </trkpt>
      <trkpt lat="43.19139" lon="6.6255">
        <ele>111.8</ele>
        <time>2020-10-25T13:14:57Z</time>
      </trkpt>
      <trkpt lat="43.19142" lon="6.62545">
        <ele>112.2</ele>
        <time>2020-10-25T13:15:01Z</time>
      </trkpt>
      <trkpt lat="43.19145" lon="6.62541">
        <ele>112.4</ele>
        <time>2020-10-25T13:15:04Z</time>
      </trkpt>
      <trkpt lat="43.19147" lon="6.62537">
        <ele>112.4</ele>
        <time>2020-10-25T13:15:07Z</time>
      </trkpt>
      <trkpt lat="43.1915" lon="6.62532">
        <ele>112.6</ele>
        <time>2020-10-25T13:15:11Z</time>
      </trkpt>
      <trkpt lat="43.19153" lon="6.62528">
        <ele>113</ele>
        <time>2020-10-25T13:15:16Z</time>
      </trkpt>
      <trkpt lat="43.19156" lon="6.62526">
        <ele>113.4</ele>
        <time>2020-10-25T13:15:22Z</time>
      </trkpt>
      <trkpt lat="43.19157" lon="6.62525">
        <ele>113.5</ele>
        <time>2020-10-25T13:15:23Z</time>
      </trkpt>
      <trkpt lat="43.19163" lon="6.6252">
        <ele>113.7</ele>
        <time>2020-10-25T13:15:29Z</time>
      </trkpt>
      <trkpt lat="43.19166" lon="6.62519">
        <ele>113.9</ele>
        <time>2020-10-25T13:15:32Z</time>
      </trkpt>
      <trkpt lat="43.1917" lon="6.62519">
        <ele>114.4</ele>
        <time>2020-10-25T13:15:38Z</time>
      </trkpt>
      <trkpt lat="43.19174" lon="6.6252">
        <ele>114.7</ele>
        <time>2020-10-25T13:15:42Z</time>
      </trkpt>
      <trkpt lat="43.19178" lon="6.62518">
        <ele>114.8</ele>
        <time>2020-10-25T13:15:45Z</time>
      </trkpt>
      <trkpt lat="43.19181" lon="6.62515">
        <ele>115.2</ele>
        <time>2020-10-25T13:15:48Z</time>
      </trkpt>
      <trkpt lat="43.19184" lon="6.62512">
        <ele>116.5</ele>
        <time>2020-10-25T13:15:56Z</time>
      </trkpt>
      <trkpt lat="43.19188" lon="6.62511">
        <ele>117.9</ele>
        <time>2020-10-25T13:16:04Z</time>
      </trkpt>
      <trkpt lat="43.19191" lon="6.62508">
        <ele>118.5</ele>
        <time>2020-10-25T13:16:08Z</time>
      </trkpt>
      <trkpt lat="43.19194" lon="6.62504">
        <ele>119</ele>
        <time>2020-10-25T13:16:13Z</time>
      </trkpt>
      <trkpt lat="43.19198" lon="6.62502">
        <ele>119.4</ele>
        <time>2020-10-25T13:16:17Z</time>
      </trkpt>
      <trkpt lat="43.19201" lon="6.62499">
        <ele>120</ele>
        <time>2020-10-25T13:16:22Z</time>
      </trkpt>
      <trkpt lat="43.19205" lon="6.62497">
        <ele>120.2</ele>
        <time>2020-10-25T13:16:26Z</time>
      </trkpt>
      <trkpt lat="43.19206" lon="6.62497">
        <ele>120.3</ele>
        <time>2020-10-25T13:16:27Z</time>
      </trkpt>
      <trkpt lat="43.19213" lon="6.62497">
        <ele>120.7</ele>
        <time>2020-10-25T13:16:36Z</time>
      </trkpt>
      <trkpt lat="43.19215" lon="6.62493">
        <ele>120.5</ele>
        <time>2020-10-25T13:16:41Z</time>
      </trkpt>
      <trkpt lat="43.19219" lon="6.62491">
        <ele>120.2</ele>
        <time>2020-10-25T13:16:47Z</time>
      </trkpt>
      <trkpt lat="43.19216" lon="6.62487">
        <ele>120.1</ele>
        <time>2020-10-25T13:17:51Z</time>
      </trkpt>
      <trkpt lat="43.19216" lon="6.62487">
        <ele>120.1</ele>
        <time>2020-10-25T13:17:52Z</time>
      </trkpt>
      <trkpt lat="43.19209" lon="6.62483">
        <ele>122.2</ele>
        <time>2020-10-25T13:18:10Z</time>
      </trkpt>
      <trkpt lat="43.19205" lon="6.62481">
        <ele>122.4</ele>
        <time>2020-10-25T13:18:14Z</time>
      </trkpt>
      <trkpt lat="43.19201" lon="6.62479">
        <ele>122.6</ele>
        <time>2020-10-25T13:18:18Z</time>
      </trkpt>
      <trkpt lat="43.19197" lon="6.62476">
        <ele>123</ele>
        <time>2020-10-25T13:18:22Z</time>
      </trkpt>
      <trkpt lat="43.19193" lon="6.62474">
        <ele>123.6</ele>
        <time>2020-10-25T13:18:31Z</time>
      </trkpt>
      <trkpt lat="43.19195" lon="6.6247">
        <ele>123.6</ele>
        <time>2020-10-25T13:18:37Z</time>
      </trkpt>
      <trkpt lat="43.19195" lon="6.62464">
        <ele>124.3</ele>
        <time>2020-10-25T13:18:42Z</time>
      </trkpt>
      <trkpt lat="43.19193" lon="6.62459">
        <ele>124.9</ele>
        <time>2020-10-25T13:18:47Z</time>
      </trkpt>
      <trkpt lat="43.1919" lon="6.62455">
        <ele>125.5</ele>
        <time>2020-10-25T13:18:52Z</time>
      </trkpt>
      <trkpt lat="43.19189" lon="6.62455">
        <ele>125.6</ele>
        <time>2020-10-25T13:18:53Z</time>
      </trkpt>
      <trkpt lat="43.19185" lon="6.62446">
        <ele>126.6</ele>
        <time>2020-10-25T13:19:01Z</time>
      </trkpt>
      <trkpt lat="43.19184" lon="6.62441">
        <ele>127.2</ele>
        <time>2020-10-25T13:19:05Z</time>
      </trkpt>
      <trkpt lat="43.1918" lon="6.62439">
        <ele>128</ele>
        <time>2020-10-25T13:19:11Z</time>
      </trkpt>
      <trkpt lat="43.19177" lon="6.62436">
        <ele>128.8</ele>
        <time>2020-10-25T13:19:18Z</time>
      </trkpt>
      <trkpt lat="43.19178" lon="6.62431">
        <ele>129.3</ele>
        <time>2020-10-25T13:19:22Z</time>
      </trkpt>
      <trkpt lat="43.19176" lon="6.62425">
        <ele>130.3</ele>
        <time>2020-10-25T13:19:30Z</time>
      </trkpt>
      <trkpt lat="43.19174" lon="6.62422">
        <ele>130.9</ele>
        <time>2020-10-25T13:19:35Z</time>
      </trkpt>
      <trkpt lat="43.19171" lon="6.6242">
        <ele>131.2</ele>
        <time>2020-10-25T13:19:38Z</time>
      </trkpt>
      <trkpt lat="43.19167" lon="6.62417">
        <ele>131.7</ele>
        <time>2020-10-25T13:19:42Z</time>
      </trkpt>
      <trkpt lat="43.19163" lon="6.62415">
        <ele>132.4</ele>
        <time>2020-10-25T13:19:46Z</time>
      </trkpt>
      <trkpt lat="43.19159" lon="6.62412">
        <ele>132.9</ele>
        <time>2020-10-25T13:19:52Z</time>
      </trkpt>
      <trkpt lat="43.19156" lon="6.62412">
        <ele>133.1</ele>
        <time>2020-10-25T13:19:56Z</time>
      </trkpt>
      <trkpt lat="43.19154" lon="6.62411">
        <ele>133.3</ele>
        <time>2020-10-25T13:19:57Z</time>
      </trkpt>
      <trkpt lat="43.19147" lon="6.62411">
        <ele>134.1</ele>
        <time>2020-10-25T13:20:06Z</time>
      </trkpt>
      <trkpt lat="43.19143" lon="6.62411">
        <ele>135.2</ele>
        <time>2020-10-25T13:20:12Z</time>
      </trkpt>
      <trkpt lat="43.19139" lon="6.62412">
        <ele>136.3</ele>
        <time>2020-10-25T13:20:20Z</time>
      </trkpt>
      <trkpt lat="43.19135" lon="6.62415">
        <ele>136.9</ele>
        <time>2020-10-25T13:20:24Z</time>
      </trkpt>
      <trkpt lat="43.19131" lon="6.62416">
        <ele>137.6</ele>
        <time>2020-10-25T13:20:30Z</time>
      </trkpt>
      <trkpt lat="43.19127" lon="6.62416">
        <ele>138.1</ele>
        <time>2020-10-25T13:20:34Z</time>
      </trkpt>
      <trkpt lat="43.19123" lon="6.62417">
        <ele>139</ele>
        <time>2020-10-25T13:20:39Z</time>
      </trkpt>
      <trkpt lat="43.19119" lon="6.62418">
        <ele>139.7</ele>
        <time>2020-10-25T13:20:44Z</time>
      </trkpt>
      <trkpt lat="43.19115" lon="6.62421">
        <ele>140.2</ele>
        <time>2020-10-25T13:20:49Z</time>
      </trkpt>
      <trkpt lat="43.19111" lon="6.62422">
        <ele>140.5</ele>
        <time>2020-10-25T13:20:53Z</time>
      </trkpt>
      <trkpt lat="43.19107" lon="6.62424">
        <ele>141.2</ele>
        <time>2020-10-25T13:21:02Z</time>
      </trkpt>
      <trkpt lat="43.19106" lon="6.62424">
        <ele>141.3</ele>
        <time>2020-10-25T13:21:03Z</time>
      </trkpt>
      <trkpt lat="43.191" lon="6.6243">
        <ele>142.4</ele>
        <time>2020-10-25T13:21:16Z</time>
      </trkpt>
      <trkpt lat="43.19096" lon="6.62432">
        <ele>142.7</ele>
        <time>2020-10-25T13:21:21Z</time>
      </trkpt>
      <trkpt lat="43.19092" lon="6.62432">
        <ele>143.1</ele>
        <time>2020-10-25T13:21:26Z</time>
      </trkpt>
      <trkpt lat="43.19088" lon="6.62432">
        <ele>143.5</ele>
        <time>2020-10-25T13:21:31Z</time>
      </trkpt>
      <trkpt lat="43.19084" lon="6.62434">
        <ele>144</ele>
        <time>2020-10-25T13:21:36Z</time>
      </trkpt>
      <trkpt lat="43.1908" lon="6.62436">
        <ele>144.6</ele>
        <time>2020-10-25T13:21:40Z</time>
      </trkpt>
      <trkpt lat="43.19076" lon="6.62438">
        <ele>145.6</ele>
        <time>2020-10-25T13:21:48Z</time>
      </trkpt>
      <trkpt lat="43.19072" lon="6.62439">
        <ele>147</ele>
        <time>2020-10-25T13:22:00Z</time>
      </trkpt>
      <trkpt lat="43.19068" lon="6.62439">
        <ele>147.6</ele>
        <time>2020-10-25T13:22:06Z</time>
      </trkpt>
      <trkpt lat="43.19067" lon="6.62438">
        <ele>147.6</ele>
        <time>2020-10-25T13:22:07Z</time>
      </trkpt>
      <trkpt lat="43.19059" lon="6.62435">
        <ele>149.3</ele>
        <time>2020-10-25T13:22:20Z</time>
      </trkpt>
      <trkpt lat="43.19055" lon="6.62434">
        <ele>149.8</ele>
        <time>2020-10-25T13:22:26Z</time>
      </trkpt>
      <trkpt lat="43.19051" lon="6.62433">
        <ele>150.5</ele>
        <time>2020-10-25T13:22:30Z</time>
      </trkpt>
      <trkpt lat="43.19047" lon="6.62431">
        <ele>151.2</ele>
        <time>2020-10-25T13:22:36Z</time>
      </trkpt>
      <trkpt lat="43.19044" lon="6.62427">
        <ele>152</ele>
        <time>2020-10-25T13:22:43Z</time>
      </trkpt>
      <trkpt lat="43.19041" lon="6.62423">
        <ele>153.3</ele>
        <time>2020-10-25T13:23:02Z</time>
      </trkpt>
      <trkpt lat="43.19038" lon="6.6242">
        <ele>153.8</ele>
        <time>2020-10-25T13:23:07Z</time>
      </trkpt>
      <trkpt lat="43.19037" lon="6.6242">
        <ele>153.9</ele>
        <time>2020-10-25T13:23:08Z</time>
      </trkpt>
      <trkpt lat="43.1903" lon="6.62416">
        <ele>154.9</ele>
        <time>2020-10-25T13:23:17Z</time>
      </trkpt>
      <trkpt lat="43.19027" lon="6.62414">
        <ele>155.6</ele>
        <time>2020-10-25T13:23:25Z</time>
      </trkpt>
      <trkpt lat="43.19023" lon="6.62411">
        <ele>156.3</ele>
        <time>2020-10-25T13:23:32Z</time>
      </trkpt>
      <trkpt lat="43.19019" lon="6.62408">
        <ele>156.6</ele>
        <time>2020-10-25T13:23:37Z</time>
      </trkpt>
      <trkpt lat="43.19016" lon="6.62406">
        <ele>157</ele>
        <time>2020-10-25T13:23:41Z</time>
      </trkpt>
      <trkpt lat="43.19012" lon="6.62404">
        <ele>157.6</ele>
        <time>2020-10-25T13:23:46Z</time>
      </trkpt>
      <trkpt lat="43.19008" lon="6.62402">
        <ele>158</ele>
        <time>2020-10-25T13:23:52Z</time>
      </trkpt>
      <trkpt lat="43.19005" lon="6.62399">
        <ele>158.8</ele>
        <time>2020-10-25T13:23:59Z</time>
      </trkpt>
      <trkpt lat="43.19002" lon="6.62394">
        <ele>159.8</ele>
        <time>2020-10-25T13:24:23Z</time>
      </trkpt>
      <trkpt lat="43.19001" lon="6.62394">
        <ele>159.8</ele>
        <time>2020-10-25T13:24:24Z</time>
      </trkpt>
      <trkpt lat="43.18996" lon="6.62388">
        <ele>160.6</ele>
        <time>2020-10-25T13:24:36Z</time>
      </trkpt>
      <trkpt lat="43.18992" lon="6.62385">
        <ele>161.1</ele>
        <time>2020-10-25T13:24:42Z</time>
      </trkpt>
      <trkpt lat="43.18988" lon="6.62386">
        <ele>161.1</ele>
        <time>2020-10-25T13:24:50Z</time>
      </trkpt>
      <trkpt lat="43.18984" lon="6.62384">
        <ele>161.5</ele>
        <time>2020-10-25T13:24:58Z</time>
      </trkpt>
      <trkpt lat="43.1898" lon="6.62382">
        <ele>161.3</ele>
        <time>2020-10-25T13:25:03Z</time>
      </trkpt>
      <trkpt lat="43.18978" lon="6.62378">
        <ele>161.3</ele>
        <time>2020-10-25T13:25:08Z</time>
      </trkpt>
      <trkpt lat="43.18977" lon="6.62373">
        <ele>161.1</ele>
        <time>2020-10-25T13:25:13Z</time>
      </trkpt>
      <trkpt lat="43.18973" lon="6.62376">
        <ele>160.7</ele>
        <time>2020-10-25T13:25:32Z</time>
      </trkpt>
      <trkpt lat="43.18973" lon="6.62376">
        <ele>160.7</ele>
        <time>2020-10-25T13:25:33Z</time>
      </trkpt>
      <trkpt lat="43.18978" lon="6.62383">
        <ele>160.9</ele>
        <time>2020-10-25T13:25:52Z</time>
      </trkpt>
      <trkpt lat="43.18982" lon="6.62386">
        <ele>160.8</ele>
        <time>2020-10-25T13:25:56Z</time>
      </trkpt>
      <trkpt lat="43.18985" lon="6.62386">
        <ele>160.7</ele>
        <time>2020-10-25T13:26:00Z</time>
      </trkpt>
      <trkpt lat="43.18989" lon="6.62385">
        <ele>161.4</ele>
        <time>2020-10-25T13:26:17Z</time>
      </trkpt>
      <trkpt lat="43.18993" lon="6.62384">
        <ele>161.6</ele>
        <time>2020-10-25T13:26:29Z</time>
      </trkpt>
      <trkpt lat="43.18989" lon="6.62384">
        <ele>161.9</ele>
        <time>2020-10-25T13:27:07Z</time>
      </trkpt>
      <trkpt lat="43.18988" lon="6.62384">
        <ele>161.9</ele>
        <time>2020-10-25T13:27:08Z</time>
      </trkpt>
      <trkpt lat="43.18982" lon="6.62381">
        <ele>162.2</ele>
        <time>2020-10-25T13:27:14Z</time>
      </trkpt>
      <trkpt lat="43.1898" lon="6.62377">
        <ele>162</ele>
        <time>2020-10-25T13:27:17Z</time>
      </trkpt>
      <trkpt lat="43.18978" lon="6.62372">
        <ele>161.7</ele>
        <time>2020-10-25T13:27:20Z</time>
      </trkpt>
      <trkpt lat="43.18978" lon="6.62367">
        <ele>161.5</ele>
        <time>2020-10-25T13:27:23Z</time>
      </trkpt>
      <trkpt lat="43.18979" lon="6.62361">
        <ele>161</ele>
        <time>2020-10-25T13:27:27Z</time>
      </trkpt>
      <trkpt lat="43.1898" lon="6.62356">
        <ele>160.4</ele>
        <time>2020-10-25T13:27:31Z</time>
      </trkpt>
      <trkpt lat="43.18981" lon="6.6235">
        <ele>159.7</ele>
        <time>2020-10-25T13:27:34Z</time>
      </trkpt>
      <trkpt lat="43.18983" lon="6.62345">
        <ele>159.1</ele>
        <time>2020-10-25T13:27:38Z</time>
      </trkpt>
      <trkpt lat="43.18985" lon="6.62341">
        <ele>158.6</ele>
        <time>2020-10-25T13:27:41Z</time>
      </trkpt>
      <trkpt lat="43.18987" lon="6.62337">
        <ele>158.3</ele>
        <time>2020-10-25T13:27:44Z</time>
      </trkpt>
      <trkpt lat="43.1899" lon="6.62333">
        <ele>157.7</ele>
        <time>2020-10-25T13:27:47Z</time>
      </trkpt>
      <trkpt lat="43.18992" lon="6.62329">
        <ele>157.3</ele>
        <time>2020-10-25T13:27:50Z</time>
      </trkpt>
      <trkpt lat="43.18994" lon="6.62326">
        <ele>157.1</ele>
        <time>2020-10-25T13:27:52Z</time>
      </trkpt>
      <trkpt lat="43.18996" lon="6.62323">
        <ele>156.4</ele>
        <time>2020-10-25T13:27:54Z</time>
      </trkpt>
      <trkpt lat="43.18998" lon="6.62319">
        <ele>156.2</ele>
        <time>2020-10-25T13:27:56Z</time>
      </trkpt>
      <trkpt lat="43.19001" lon="6.62315">
        <ele>155.8</ele>
        <time>2020-10-25T13:27:59Z</time>
      </trkpt>
      <trkpt lat="43.19003" lon="6.62311">
        <ele>155.1</ele>
        <time>2020-10-25T13:28:02Z</time>
      </trkpt>
      <trkpt lat="43.19006" lon="6.62307">
        <ele>154.8</ele>
        <time>2020-10-25T13:28:05Z</time>
      </trkpt>
      <trkpt lat="43.19009" lon="6.62304">
        <ele>154.3</ele>
        <time>2020-10-25T13:28:07Z</time>
      </trkpt>
      <trkpt lat="43.19012" lon="6.623">
        <ele>154</ele>
        <time>2020-10-25T13:28:10Z</time>
      </trkpt>
      <trkpt lat="43.19013" lon="6.62299">
        <ele>153.9</ele>
        <time>2020-10-25T13:28:11Z</time>
      </trkpt>
      <trkpt lat="43.19018" lon="6.62293">
        <ele>152.5</ele>
        <time>2020-10-25T13:28:19Z</time>
      </trkpt>
      <trkpt lat="43.19021" lon="6.6229">
        <ele>151.7</ele>
        <time>2020-10-25T13:28:24Z</time>
      </trkpt>
      <trkpt lat="43.19025" lon="6.62287">
        <ele>150.7</ele>
        <time>2020-10-25T13:28:30Z</time>
      </trkpt>
      <trkpt lat="43.19028" lon="6.62284">
        <ele>150.3</ele>
        <time>2020-10-25T13:28:32Z</time>
      </trkpt>
      <trkpt lat="43.1903" lon="6.62282">
        <ele>150.1</ele>
        <time>2020-10-25T13:28:33Z</time>
      </trkpt>
      <trkpt lat="43.19032" lon="6.6228">
        <ele>150</ele>
        <time>2020-10-25T13:28:34Z</time>
      </trkpt>
      <trkpt lat="43.19035" lon="6.62276">
        <ele>149.7</ele>
        <time>2020-10-25T13:28:36Z</time>
      </trkpt>
      <trkpt lat="43.19037" lon="6.62271">
        <ele>149.1</ele>
        <time>2020-10-25T13:28:40Z</time>
      </trkpt>
      <trkpt lat="43.1904" lon="6.62267">
        <ele>148.4</ele>
        <time>2020-10-25T13:28:44Z</time>
      </trkpt>
      <trkpt lat="43.19043" lon="6.62263">
        <ele>148</ele>
        <time>2020-10-25T13:28:47Z</time>
      </trkpt>
      <trkpt lat="43.19045" lon="6.62259">
        <ele>147.7</ele>
        <time>2020-10-25T13:28:51Z</time>
      </trkpt>
      <trkpt lat="43.19046" lon="6.62253">
        <ele>147.3</ele>
        <time>2020-10-25T13:28:55Z</time>
      </trkpt>
      <trkpt lat="43.19048" lon="6.62249">
        <ele>147.1</ele>
        <time>2020-10-25T13:28:57Z</time>
      </trkpt>
      <trkpt lat="43.1905" lon="6.62244">
        <ele>147.1</ele>
        <time>2020-10-25T13:29:00Z</time>
      </trkpt>
      <trkpt lat="43.19051" lon="6.62239">
        <ele>147</ele>
        <time>2020-10-25T13:29:02Z</time>
      </trkpt>
      <trkpt lat="43.19053" lon="6.62234">
        <ele>147</ele>
        <time>2020-10-25T13:29:04Z</time>
      </trkpt>
      <trkpt lat="43.19055" lon="6.62231">
        <ele>147</ele>
        <time>2020-10-25T13:29:06Z</time>
      </trkpt>
      <trkpt lat="43.19057" lon="6.62226">
        <ele>146.9</ele>
        <time>2020-10-25T13:29:09Z</time>
      </trkpt>
      <trkpt lat="43.19057" lon="6.6222">
        <ele>147.1</ele>
        <time>2020-10-25T13:29:13Z</time>
      </trkpt>
      <trkpt lat="43.19057" lon="6.62219">
        <ele>147.1</ele>
        <time>2020-10-25T13:29:14Z</time>
      </trkpt>
      <trkpt lat="43.19056" lon="6.6221">
        <ele>147.4</ele>
        <time>2020-10-25T13:29:20Z</time>
      </trkpt>
      <trkpt lat="43.19056" lon="6.62204">
        <ele>147.5</ele>
        <time>2020-10-25T13:29:24Z</time>
      </trkpt>
      <trkpt lat="43.19057" lon="6.62198">
        <ele>147.3</ele>
        <time>2020-10-25T13:29:28Z</time>
      </trkpt>
      <trkpt lat="43.19056" lon="6.62193">
        <ele>147.7</ele>
        <time>2020-10-25T13:29:35Z</time>
      </trkpt>
      <trkpt lat="43.19058" lon="6.62188">
        <ele>148</ele>
        <time>2020-10-25T13:29:38Z</time>
      </trkpt>
      <trkpt lat="43.1906" lon="6.62184">
        <ele>148.2</ele>
        <time>2020-10-25T13:29:41Z</time>
      </trkpt>
      <trkpt lat="43.19062" lon="6.6218">
        <ele>148.4</ele>
        <time>2020-10-25T13:29:44Z</time>
      </trkpt>
      <trkpt lat="43.19063" lon="6.62176">
        <ele>148.5</ele>
        <time>2020-10-25T13:29:48Z</time>
      </trkpt>
      <trkpt lat="43.19065" lon="6.6217">
        <ele>149</ele>
        <time>2020-10-25T13:29:53Z</time>
      </trkpt>
      <trkpt lat="43.19066" lon="6.62165">
        <ele>149.3</ele>
        <time>2020-10-25T13:29:58Z</time>
      </trkpt>
      <trkpt lat="43.19069" lon="6.62162">
        <ele>149.6</ele>
        <time>2020-10-25T13:30:02Z</time>
      </trkpt>
      <trkpt lat="43.19071" lon="6.62157">
        <ele>149.4</ele>
        <time>2020-10-25T13:30:09Z</time>
      </trkpt>
      <trkpt lat="43.19072" lon="6.62152">
        <ele>150</ele>
        <time>2020-10-25T13:30:28Z</time>
      </trkpt>
      <trkpt lat="43.19073" lon="6.62151">
        <ele>150</ele>
        <time>2020-10-25T13:30:29Z</time>
      </trkpt>
      <trkpt lat="43.19078" lon="6.62143">
        <ele>150.8</ele>
        <time>2020-10-25T13:30:42Z</time>
      </trkpt>
      <trkpt lat="43.19081" lon="6.62139">
        <ele>151.1</ele>
        <time>2020-10-25T13:30:47Z</time>
      </trkpt>
      <trkpt lat="43.19083" lon="6.62135">
        <ele>151.1</ele>
        <time>2020-10-25T13:30:50Z</time>
      </trkpt>
      <trkpt lat="43.19086" lon="6.62132">
        <ele>151.3</ele>
        <time>2020-10-25T13:30:52Z</time>
      </trkpt>
      <trkpt lat="43.19089" lon="6.62128">
        <ele>151.5</ele>
        <time>2020-10-25T13:30:55Z</time>
      </trkpt>
      <trkpt lat="43.19091" lon="6.62124">
        <ele>151.5</ele>
        <time>2020-10-25T13:30:58Z</time>
      </trkpt>
      <trkpt lat="43.19093" lon="6.62121">
        <ele>151.6</ele>
        <time>2020-10-25T13:31:02Z</time>
      </trkpt>
      <trkpt lat="43.19096" lon="6.62117">
        <ele>151.9</ele>
        <time>2020-10-25T13:31:05Z</time>
      </trkpt>
      <trkpt lat="43.19099" lon="6.62113">
        <ele>152.2</ele>
        <time>2020-10-25T13:31:09Z</time>
      </trkpt>
      <trkpt lat="43.19101" lon="6.62109">
        <ele>152.6</ele>
        <time>2020-10-25T13:31:12Z</time>
      </trkpt>
      <trkpt lat="43.19103" lon="6.62106">
        <ele>152.7</ele>
        <time>2020-10-25T13:31:14Z</time>
      </trkpt>
      <trkpt lat="43.19105" lon="6.62103">
        <ele>152.8</ele>
        <time>2020-10-25T13:31:16Z</time>
      </trkpt>
      <trkpt lat="43.19108" lon="6.62099">
        <ele>152.9</ele>
        <time>2020-10-25T13:31:18Z</time>
      </trkpt>
      <trkpt lat="43.19111" lon="6.62095">
        <ele>153</ele>
        <time>2020-10-25T13:31:20Z</time>
      </trkpt>
      <trkpt lat="43.19114" lon="6.62091">
        <ele>153.1</ele>
        <time>2020-10-25T13:31:23Z</time>
      </trkpt>
      <trkpt lat="43.19117" lon="6.62088">
        <ele>153.2</ele>
        <time>2020-10-25T13:31:26Z</time>
      </trkpt>
      <trkpt lat="43.19119" lon="6.62085">
        <ele>153.2</ele>
        <time>2020-10-25T13:31:28Z</time>
      </trkpt>
      <trkpt lat="43.19121" lon="6.62082">
        <ele>153.2</ele>
        <time>2020-10-25T13:31:30Z</time>
      </trkpt>
      <trkpt lat="43.19122" lon="6.6208">
        <ele>153.2</ele>
        <time>2020-10-25T13:31:31Z</time>
      </trkpt>
      <trkpt lat="43.19125" lon="6.62073">
        <ele>153.2</ele>
        <time>2020-10-25T13:31:36Z</time>
      </trkpt>
      <trkpt lat="43.19127" lon="6.62068">
        <ele>153.5</ele>
        <time>2020-10-25T13:31:40Z</time>
      </trkpt>
      <trkpt lat="43.19129" lon="6.62063">
        <ele>153.9</ele>
        <time>2020-10-25T13:31:45Z</time>
      </trkpt>
      <trkpt lat="43.19132" lon="6.62058">
        <ele>154.2</ele>
        <time>2020-10-25T13:31:49Z</time>
      </trkpt>
      <trkpt lat="43.19135" lon="6.62053">
        <ele>154.4</ele>
        <time>2020-10-25T13:31:53Z</time>
      </trkpt>
      <trkpt lat="43.19138" lon="6.62049">
        <ele>154.4</ele>
        <time>2020-10-25T13:31:56Z</time>
      </trkpt>
      <trkpt lat="43.1914" lon="6.62044">
        <ele>154.7</ele>
        <time>2020-10-25T13:32:00Z</time>
      </trkpt>
      <trkpt lat="43.19143" lon="6.6204">
        <ele>154.8</ele>
        <time>2020-10-25T13:32:03Z</time>
      </trkpt>
      <trkpt lat="43.19146" lon="6.62035">
        <ele>154.8</ele>
        <time>2020-10-25T13:32:06Z</time>
      </trkpt>
      <trkpt lat="43.19149" lon="6.62031">
        <ele>154.8</ele>
        <time>2020-10-25T13:32:09Z</time>
      </trkpt>
      <trkpt lat="43.19152" lon="6.62027">
        <ele>154.9</ele>
        <time>2020-10-25T13:32:12Z</time>
      </trkpt>
      <trkpt lat="43.19154" lon="6.62022">
        <ele>155</ele>
        <time>2020-10-25T13:32:15Z</time>
      </trkpt>
      <trkpt lat="43.19156" lon="6.62017">
        <ele>155.4</ele>
        <time>2020-10-25T13:32:20Z</time>
      </trkpt>
      <trkpt lat="43.19158" lon="6.62013">
        <ele>155.5</ele>
        <time>2020-10-25T13:32:23Z</time>
      </trkpt>
      <trkpt lat="43.1916" lon="6.62008">
        <ele>155.5</ele>
        <time>2020-10-25T13:32:27Z</time>
      </trkpt>
      <trkpt lat="43.19162" lon="6.62004">
        <ele>155.6</ele>
        <time>2020-10-25T13:32:30Z</time>
      </trkpt>
      <trkpt lat="43.19164" lon="6.61998">
        <ele>155.6</ele>
        <time>2020-10-25T13:32:34Z</time>
      </trkpt>
      <trkpt lat="43.19164" lon="6.61998">
        <ele>155.5</ele>
        <time>2020-10-25T13:32:35Z</time>
      </trkpt>
      <trkpt lat="43.19162" lon="6.61998">
        <ele>155.5</ele>
        <time>2020-10-25T13:33:00Z</time>
      </trkpt>
      <trkpt lat="43.19161" lon="6.61994">
        <ele>155.5</ele>
        <time>2020-10-25T13:33:03Z</time>
      </trkpt>
      <trkpt lat="43.19161" lon="6.61989">
        <ele>155.6</ele>
        <time>2020-10-25T13:33:06Z</time>
      </trkpt>
      <trkpt lat="43.1916" lon="6.61983">
        <ele>155.4</ele>
        <time>2020-10-25T13:33:10Z</time>
      </trkpt>
      <trkpt lat="43.1916" lon="6.61978">
        <ele>155.3</ele>
        <time>2020-10-25T13:33:14Z</time>
      </trkpt>
      <trkpt lat="43.19159" lon="6.61972">
        <ele>155</ele>
        <time>2020-10-25T13:33:18Z</time>
      </trkpt>
      <trkpt lat="43.1916" lon="6.61968">
        <ele>155</ele>
        <time>2020-10-25T13:33:20Z</time>
      </trkpt>
      <trkpt lat="43.19161" lon="6.61962">
        <ele>154.9</ele>
        <time>2020-10-25T13:33:23Z</time>
      </trkpt>
      <trkpt lat="43.19162" lon="6.61957">
        <ele>154.7</ele>
        <time>2020-10-25T13:33:26Z</time>
      </trkpt>
      <trkpt lat="43.19161" lon="6.61952">
        <ele>154.4</ele>
        <time>2020-10-25T13:33:31Z</time>
      </trkpt>
      <trkpt lat="43.19161" lon="6.61946">
        <ele>154.3</ele>
        <time>2020-10-25T13:33:35Z</time>
      </trkpt>
      <trkpt lat="43.19161" lon="6.61945">
        <ele>154.2</ele>
        <time>2020-10-25T13:33:36Z</time>
      </trkpt>
      <trkpt lat="43.19161" lon="6.61935">
        <ele>154.1</ele>
        <time>2020-10-25T13:33:42Z</time>
      </trkpt>
      <trkpt lat="43.19161" lon="6.6193">
        <ele>154.1</ele>
        <time>2020-10-25T13:33:45Z</time>
      </trkpt>
      <trkpt lat="43.19159" lon="6.61925">
        <ele>154</ele>
        <time>2020-10-25T13:33:50Z</time>
      </trkpt>
      <trkpt lat="43.19158" lon="6.6192">
        <ele>154</ele>
        <time>2020-10-25T13:33:56Z</time>
      </trkpt>
      <trkpt lat="43.19156" lon="6.61914">
        <ele>154.2</ele>
        <time>2020-10-25T13:34:11Z</time>
      </trkpt>
      <trkpt lat="43.19154" lon="6.61911">
        <ele>154.3</ele>
        <time>2020-10-25T13:34:15Z</time>
      </trkpt>
      <trkpt lat="43.19151" lon="6.61906">
        <ele>154.4</ele>
        <time>2020-10-25T13:34:20Z</time>
      </trkpt>
      <trkpt lat="43.19149" lon="6.61901">
        <ele>154.4</ele>
        <time>2020-10-25T13:34:25Z</time>
      </trkpt>
      <trkpt lat="43.19146" lon="6.61898">
        <ele>154.4</ele>
        <time>2020-10-25T13:34:28Z</time>
      </trkpt>
      <trkpt lat="43.19144" lon="6.61893">
        <ele>154.6</ele>
        <time>2020-10-25T13:34:31Z</time>
      </trkpt>
      <trkpt lat="43.19142" lon="6.61888">
        <ele>155</ele>
        <time>2020-10-25T13:34:35Z</time>
      </trkpt>
      <trkpt lat="43.19141" lon="6.61883">
        <ele>155.3</ele>
        <time>2020-10-25T13:34:39Z</time>
      </trkpt>
      <trkpt lat="43.1914" lon="6.61881">
        <ele>155.3</ele>
        <time>2020-10-25T13:34:40Z</time>
      </trkpt>
      <trkpt lat="43.19138" lon="6.61872">
        <ele>155.6</ele>
        <time>2020-10-25T13:34:47Z</time>
      </trkpt>
      <trkpt lat="43.19138" lon="6.61866">
        <ele>155.7</ele>
        <time>2020-10-25T13:34:50Z</time>
      </trkpt>
      <trkpt lat="43.19139" lon="6.61861">
        <ele>155.9</ele>
        <time>2020-10-25T13:34:53Z</time>
      </trkpt>
      <trkpt lat="43.19139" lon="6.61855">
        <ele>156</ele>
        <time>2020-10-25T13:34:56Z</time>
      </trkpt>
      <trkpt lat="43.19138" lon="6.61849">
        <ele>156.2</ele>
        <time>2020-10-25T13:34:59Z</time>
      </trkpt>
      <trkpt lat="43.19137" lon="6.61844">
        <ele>156.1</ele>
        <time>2020-10-25T13:35:02Z</time>
      </trkpt>
      <trkpt lat="43.19137" lon="6.61838">
        <ele>156</ele>
        <time>2020-10-25T13:35:05Z</time>
      </trkpt>
      <trkpt lat="43.19136" lon="6.61833">
        <ele>155.9</ele>
        <time>2020-10-25T13:35:08Z</time>
      </trkpt>
      <trkpt lat="43.19136" lon="6.61828">
        <ele>155.9</ele>
        <time>2020-10-25T13:35:11Z</time>
      </trkpt>
      <trkpt lat="43.19135" lon="6.61822">
        <ele>155.7</ele>
        <time>2020-10-25T13:35:15Z</time>
      </trkpt>
      <trkpt lat="43.19136" lon="6.61817">
        <ele>155.6</ele>
        <time>2020-10-25T13:35:18Z</time>
      </trkpt>
      <trkpt lat="43.19136" lon="6.61811">
        <ele>155.4</ele>
        <time>2020-10-25T13:35:22Z</time>
      </trkpt>
      <trkpt lat="43.19137" lon="6.61805">
        <ele>154.7</ele>
        <time>2020-10-25T13:35:30Z</time>
      </trkpt>
      <trkpt lat="43.19137" lon="6.618">
        <ele>154.6</ele>
        <time>2020-10-25T13:35:34Z</time>
      </trkpt>
      <trkpt lat="43.19138" lon="6.61795">
        <ele>154.5</ele>
        <time>2020-10-25T13:35:36Z</time>
      </trkpt>
      <trkpt lat="43.19139" lon="6.6179">
        <ele>154.3</ele>
        <time>2020-10-25T13:35:38Z</time>
      </trkpt>
      <trkpt lat="43.1914" lon="6.61786">
        <ele>154.1</ele>
        <time>2020-10-25T13:35:40Z</time>
      </trkpt>
      <trkpt lat="43.1914" lon="6.61784">
        <ele>154</ele>
        <time>2020-10-25T13:35:41Z</time>
      </trkpt>
      <trkpt lat="43.19142" lon="6.61774">
        <ele>153.9</ele>
        <time>2020-10-25T13:35:47Z</time>
      </trkpt>
      <trkpt lat="43.19142" lon="6.6177">
        <ele>153.8</ele>
        <time>2020-10-25T13:35:50Z</time>
      </trkpt>
      <trkpt lat="43.19142" lon="6.61765">
        <ele>153.6</ele>
        <time>2020-10-25T13:35:53Z</time>
      </trkpt>
      <trkpt lat="43.19142" lon="6.6176">
        <ele>153.5</ele>
        <time>2020-10-25T13:35:56Z</time>
      </trkpt>
      <trkpt lat="43.19142" lon="6.61754">
        <ele>153.1</ele>
        <time>2020-10-25T13:35:59Z</time>
      </trkpt>
      <trkpt lat="43.19143" lon="6.61749">
        <ele>152.8</ele>
        <time>2020-10-25T13:36:02Z</time>
      </trkpt>
      <trkpt lat="43.19143" lon="6.61743">
        <ele>152.7</ele>
        <time>2020-10-25T13:36:06Z</time>
      </trkpt>
      <trkpt lat="43.19143" lon="6.61738">
        <ele>152.7</ele>
        <time>2020-10-25T13:36:09Z</time>
      </trkpt>
      <trkpt lat="43.19143" lon="6.61734">
        <ele>152.6</ele>
        <time>2020-10-25T13:36:12Z</time>
      </trkpt>
      <trkpt lat="43.19142" lon="6.61728">
        <ele>152.5</ele>
        <time>2020-10-25T13:36:15Z</time>
      </trkpt>
      <trkpt lat="43.19142" lon="6.61723">
        <ele>152.2</ele>
        <time>2020-10-25T13:36:18Z</time>
      </trkpt>
      <trkpt lat="43.19144" lon="6.61718">
        <ele>152</ele>
        <time>2020-10-25T13:36:21Z</time>
      </trkpt>
      <trkpt lat="43.19144" lon="6.61712">
        <ele>151.8</ele>
        <time>2020-10-25T13:36:25Z</time>
      </trkpt>
      <trkpt lat="43.19141" lon="6.6171">
        <ele>151.8</ele>
        <time>2020-10-25T13:36:28Z</time>
      </trkpt>
      <trkpt lat="43.19137" lon="6.61709">
        <ele>151.9</ele>
        <time>2020-10-25T13:36:31Z</time>
      </trkpt>
      <trkpt lat="43.19133" lon="6.61709">
        <ele>151.9</ele>
        <time>2020-10-25T13:36:34Z</time>
      </trkpt>
      <trkpt lat="43.1913" lon="6.61709">
        <ele>152</ele>
        <time>2020-10-25T13:36:37Z</time>
      </trkpt>
      <trkpt lat="43.19126" lon="6.61709">
        <ele>151.9</ele>
        <time>2020-10-25T13:36:40Z</time>
      </trkpt>
      <trkpt lat="43.19122" lon="6.6171">
        <ele>152</ele>
        <time>2020-10-25T13:36:43Z</time>
      </trkpt>
      <trkpt lat="43.19121" lon="6.6171">
        <ele>152</ele>
        <time>2020-10-25T13:36:44Z</time>
      </trkpt>
      <trkpt lat="43.19114" lon="6.61711">
        <ele>152.3</ele>
        <time>2020-10-25T13:36:51Z</time>
      </trkpt>
      <trkpt lat="43.19111" lon="6.61712">
        <ele>152.5</ele>
        <time>2020-10-25T13:36:54Z</time>
      </trkpt>
      <trkpt lat="43.19106" lon="6.61712">
        <ele>152.7</ele>
        <time>2020-10-25T13:36:59Z</time>
      </trkpt>
      <trkpt lat="43.19102" lon="6.61713">
        <ele>153</ele>
        <time>2020-10-25T13:37:04Z</time>
      </trkpt>
      <trkpt lat="43.19098" lon="6.61712">
        <ele>153.2</ele>
        <time>2020-10-25T13:37:10Z</time>
      </trkpt>
      <trkpt lat="43.19094" lon="6.61712">
        <ele>153.3</ele>
        <time>2020-10-25T13:37:15Z</time>
      </trkpt>
      <trkpt lat="43.1909" lon="6.61711">
        <ele>153.6</ele>
        <time>2020-10-25T13:37:19Z</time>
      </trkpt>
      <trkpt lat="43.19086" lon="6.61711">
        <ele>153.9</ele>
        <time>2020-10-25T13:37:22Z</time>
      </trkpt>
      <trkpt lat="43.19082" lon="6.61711">
        <ele>154.5</ele>
        <time>2020-10-25T13:37:27Z</time>
      </trkpt>
      <trkpt lat="43.19078" lon="6.61711">
        <ele>154.8</ele>
        <time>2020-10-25T13:37:30Z</time>
      </trkpt>
      <trkpt lat="43.19073" lon="6.61711">
        <ele>155.2</ele>
        <time>2020-10-25T13:37:34Z</time>
      </trkpt>
      <trkpt lat="43.19069" lon="6.61711">
        <ele>155.5</ele>
        <time>2020-10-25T13:37:38Z</time>
      </trkpt>
      <trkpt lat="43.19065" lon="6.61711">
        <ele>155.8</ele>
        <time>2020-10-25T13:37:41Z</time>
      </trkpt>
      <trkpt lat="43.19062" lon="6.61712">
        <ele>156.2</ele>
        <time>2020-10-25T13:37:44Z</time>
      </trkpt>
      <trkpt lat="43.19061" lon="6.61712">
        <ele>156.2</ele>
        <time>2020-10-25T13:37:45Z</time>
      </trkpt>
      <trkpt lat="43.19053" lon="6.61714">
        <ele>157</ele>
        <time>2020-10-25T13:37:55Z</time>
      </trkpt>
      <trkpt lat="43.19049" lon="6.61715">
        <ele>157.5</ele>
        <time>2020-10-25T13:38:00Z</time>
      </trkpt>
      <trkpt lat="43.19045" lon="6.61716">
        <ele>157.9</ele>
        <time>2020-10-25T13:38:05Z</time>
      </trkpt>
      <trkpt lat="43.1904" lon="6.61717">
        <ele>158.2</ele>
        <time>2020-10-25T13:38:12Z</time>
      </trkpt>
      <trkpt lat="43.19036" lon="6.61717">
        <ele>158.6</ele>
        <time>2020-10-25T13:38:19Z</time>
      </trkpt>
      <trkpt lat="43.19032" lon="6.61717">
        <ele>159.4</ele>
        <time>2020-10-25T13:38:27Z</time>
      </trkpt>
      <trkpt lat="43.19028" lon="6.61717">
        <ele>159.8</ele>
        <time>2020-10-25T13:38:33Z</time>
      </trkpt>
      <trkpt lat="43.19024" lon="6.61716">
        <ele>160.3</ele>
        <time>2020-10-25T13:38:38Z</time>
      </trkpt>
      <trkpt lat="43.1902" lon="6.61715">
        <ele>160.6</ele>
        <time>2020-10-25T13:38:44Z</time>
      </trkpt>
      <trkpt lat="43.19016" lon="6.61713">
        <ele>160.9</ele>
        <time>2020-10-25T13:38:50Z</time>
      </trkpt>
      <trkpt lat="43.19016" lon="6.61713">
        <ele>160.9</ele>
        <time>2020-10-25T13:38:51Z</time>
      </trkpt>
      <trkpt lat="43.19009" lon="6.61708">
        <ele>162.5</ele>
        <time>2020-10-25T13:39:04Z</time>
      </trkpt>
      <trkpt lat="43.19005" lon="6.61706">
        <ele>162.7</ele>
        <time>2020-10-25T13:39:09Z</time>
      </trkpt>
      <trkpt lat="43.19002" lon="6.61703">
        <ele>163.4</ele>
        <time>2020-10-25T13:39:15Z</time>
      </trkpt>
      <trkpt lat="43.18998" lon="6.617">
        <ele>163.8</ele>
        <time>2020-10-25T13:39:21Z</time>
      </trkpt>
      <trkpt lat="43.18994" lon="6.61697">
        <ele>164.2</ele>
        <time>2020-10-25T13:39:26Z</time>
      </trkpt>
      <trkpt lat="43.18991" lon="6.61695">
        <ele>164.5</ele>
        <time>2020-10-25T13:39:30Z</time>
      </trkpt>
      <trkpt lat="43.18987" lon="6.61693">
        <ele>164.9</ele>
        <time>2020-10-25T13:39:35Z</time>
      </trkpt>
      <trkpt lat="43.18983" lon="6.6169">
        <ele>165.3</ele>
        <time>2020-10-25T13:39:41Z</time>
      </trkpt>
      <trkpt lat="43.1898" lon="6.61686">
        <ele>165.8</ele>
        <time>2020-10-25T13:39:47Z</time>
      </trkpt>
      <trkpt lat="43.18976" lon="6.61683">
        <ele>165.8</ele>
        <time>2020-10-25T13:39:53Z</time>
      </trkpt>
      <trkpt lat="43.18976" lon="6.61682">
        <ele>165.9</ele>
        <time>2020-10-25T13:39:54Z</time>
      </trkpt>
      <trkpt lat="43.18969" lon="6.61677">
        <ele>166.2</ele>
        <time>2020-10-25T13:40:03Z</time>
      </trkpt>
      <trkpt lat="43.18965" lon="6.61674">
        <ele>166.3</ele>
        <time>2020-10-25T13:40:07Z</time>
      </trkpt>
      <trkpt lat="43.18962" lon="6.6167">
        <ele>166.5</ele>
        <time>2020-10-25T13:40:12Z</time>
      </trkpt>
      <trkpt lat="43.18959" lon="6.61667">
        <ele>166.6</ele>
        <time>2020-10-25T13:40:17Z</time>
      </trkpt>
      <trkpt lat="43.18955" lon="6.61663">
        <ele>166.7</ele>
        <time>2020-10-25T13:40:21Z</time>
      </trkpt>
      <trkpt lat="43.18953" lon="6.61659">
        <ele>166.8</ele>
        <time>2020-10-25T13:40:25Z</time>
      </trkpt>
      <trkpt lat="43.1895" lon="6.61656">
        <ele>166.9</ele>
        <time>2020-10-25T13:40:29Z</time>
      </trkpt>
      <trkpt lat="43.18947" lon="6.61652">
        <ele>167</ele>
        <time>2020-10-25T13:40:33Z</time>
      </trkpt>
      <trkpt lat="43.18944" lon="6.61648">
        <ele>167.1</ele>
        <time>2020-10-25T13:40:37Z</time>
      </trkpt>
      <trkpt lat="43.18942" lon="6.61644">
        <ele>167.3</ele>
        <time>2020-10-25T13:40:42Z</time>
      </trkpt>
      <trkpt lat="43.18939" lon="6.61639">
        <ele>167.2</ele>
        <time>2020-10-25T13:40:47Z</time>
      </trkpt>
      <trkpt lat="43.18936" lon="6.61635">
        <ele>167.2</ele>
        <time>2020-10-25T13:40:51Z</time>
      </trkpt>
      <trkpt lat="43.18934" lon="6.6163">
        <ele>167.3</ele>
        <time>2020-10-25T13:40:55Z</time>
      </trkpt>
      <trkpt lat="43.18934" lon="6.61629">
        <ele>167.4</ele>
        <time>2020-10-25T13:40:56Z</time>
      </trkpt>
      <trkpt lat="43.18929" lon="6.61622">
        <ele>167.6</ele>
        <time>2020-10-25T13:41:03Z</time>
      </trkpt>
      <trkpt lat="43.18927" lon="6.61617">
        <ele>167.8</ele>
        <time>2020-10-25T13:41:07Z</time>
      </trkpt>
      <trkpt lat="43.18925" lon="6.61612">
        <ele>167.7</ele>
        <time>2020-10-25T13:41:11Z</time>
      </trkpt>
      <trkpt lat="43.18925" lon="6.61607">
        <ele>167.9</ele>
        <time>2020-10-25T13:41:15Z</time>
      </trkpt>
      <trkpt lat="43.18923" lon="6.61602">
        <ele>168</ele>
        <time>2020-10-25T13:41:18Z</time>
      </trkpt>
      <trkpt lat="43.1892" lon="6.61598">
        <ele>168.1</ele>
        <time>2020-10-25T13:41:21Z</time>
      </trkpt>
      <trkpt lat="43.18918" lon="6.61594">
        <ele>168</ele>
        <time>2020-10-25T13:41:24Z</time>
      </trkpt>
      <trkpt lat="43.18915" lon="6.6159">
        <ele>168</ele>
        <time>2020-10-25T13:41:27Z</time>
      </trkpt>
      <trkpt lat="43.18913" lon="6.61584">
        <ele>168</ele>
        <time>2020-10-25T13:41:32Z</time>
      </trkpt>
      <trkpt lat="43.18911" lon="6.6158">
        <ele>167.9</ele>
        <time>2020-10-25T13:41:36Z</time>
      </trkpt>
      <trkpt lat="43.18908" lon="6.61576">
        <ele>167.8</ele>
        <time>2020-10-25T13:41:39Z</time>
      </trkpt>
      <trkpt lat="43.18907" lon="6.61571">
        <ele>167.9</ele>
        <time>2020-10-25T13:41:42Z</time>
      </trkpt>
      <trkpt lat="43.18905" lon="6.61566">
        <ele>167.9</ele>
        <time>2020-10-25T13:41:45Z</time>
      </trkpt>
      <trkpt lat="43.18904" lon="6.61562">
        <ele>167.9</ele>
        <time>2020-10-25T13:41:48Z</time>
      </trkpt>
      <trkpt lat="43.18902" lon="6.61556">
        <ele>167.9</ele>
        <time>2020-10-25T13:41:51Z</time>
      </trkpt>
      <trkpt lat="43.18901" lon="6.61552">
        <ele>168</ele>
        <time>2020-10-25T13:41:54Z</time>
      </trkpt>
      <trkpt lat="43.18898" lon="6.61547">
        <ele>168</ele>
        <time>2020-10-25T13:41:58Z</time>
      </trkpt>
      <trkpt lat="43.18897" lon="6.61546">
        <ele>168.1</ele>
        <time>2020-10-25T13:41:59Z</time>
      </trkpt>
      <trkpt lat="43.18894" lon="6.61538">
        <ele>168.3</ele>
        <time>2020-10-25T13:42:06Z</time>
      </trkpt>
      <trkpt lat="43.18892" lon="6.61533">
        <ele>168.6</ele>
        <time>2020-10-25T13:42:10Z</time>
      </trkpt>
      <trkpt lat="43.1889" lon="6.61528">
        <ele>168.8</ele>
        <time>2020-10-25T13:42:14Z</time>
      </trkpt>
      <trkpt lat="43.18887" lon="6.61524">
        <ele>168.9</ele>
        <time>2020-10-25T13:42:18Z</time>
      </trkpt>
      <trkpt lat="43.18885" lon="6.61521">
        <ele>169</ele>
        <time>2020-10-25T13:42:22Z</time>
      </trkpt>
      <trkpt lat="43.18883" lon="6.61517">
        <ele>169.3</ele>
        <time>2020-10-25T13:42:26Z</time>
      </trkpt>
      <trkpt lat="43.1888" lon="6.61513">
        <ele>169.3</ele>
        <time>2020-10-25T13:42:30Z</time>
      </trkpt>
      <trkpt lat="43.18876" lon="6.6151">
        <ele>169.7</ele>
        <time>2020-10-25T13:42:35Z</time>
      </trkpt>
      <trkpt lat="43.18872" lon="6.61508">
        <ele>170.1</ele>
        <time>2020-10-25T13:42:40Z</time>
      </trkpt>
      <trkpt lat="43.18868" lon="6.61507">
        <ele>171</ele>
        <time>2020-10-25T13:43:05Z</time>
      </trkpt>
      <trkpt lat="43.18867" lon="6.61506">
        <ele>171</ele>
        <time>2020-10-25T13:43:06Z</time>
      </trkpt>
      <trkpt lat="43.18864" lon="6.61506">
        <ele>169.9</ele>
        <time>2020-10-25T13:45:04Z</time>
      </trkpt>
      <trkpt lat="43.18863" lon="6.61506">
        <ele>169.9</ele>
        <time>2020-10-25T13:45:05Z</time>
      </trkpt>
      <trkpt lat="43.18856" lon="6.61503">
        <ele>169.8</ele>
        <time>2020-10-25T13:45:47Z</time>
      </trkpt>
      <trkpt lat="43.18852" lon="6.61504">
        <ele>169.7</ele>
        <time>2020-10-25T13:45:54Z</time>
      </trkpt>
      <trkpt lat="43.18847" lon="6.61504">
        <ele>169.8</ele>
        <time>2020-10-25T13:45:59Z</time>
      </trkpt>
      <trkpt lat="43.18844" lon="6.61505">
        <ele>169.8</ele>
        <time>2020-10-25T13:46:02Z</time>
      </trkpt>
      <trkpt lat="43.1884" lon="6.61506">
        <ele>169.8</ele>
        <time>2020-10-25T13:46:05Z</time>
      </trkpt>
      <trkpt lat="43.18838" lon="6.61506">
        <ele>169.8</ele>
        <time>2020-10-25T13:46:06Z</time>
      </trkpt>
      <trkpt lat="43.18832" lon="6.61507">
        <ele>169.8</ele>
        <time>2020-10-25T13:46:12Z</time>
      </trkpt>
      <trkpt lat="43.18828" lon="6.61506">
        <ele>169.9</ele>
        <time>2020-10-25T13:46:15Z</time>
      </trkpt>
      <trkpt lat="43.18824" lon="6.61507">
        <ele>169.9</ele>
        <time>2020-10-25T13:46:17Z</time>
      </trkpt>
      <trkpt lat="43.18821" lon="6.61507">
        <ele>169.9</ele>
        <time>2020-10-25T13:46:19Z</time>
      </trkpt>
      <trkpt lat="43.18816" lon="6.61508">
        <ele>170.1</ele>
        <time>2020-10-25T13:46:23Z</time>
      </trkpt>
      <trkpt lat="43.18813" lon="6.61509">
        <ele>170.3</ele>
        <time>2020-10-25T13:46:25Z</time>
      </trkpt>
      <trkpt lat="43.1881" lon="6.61509">
        <ele>170.1</ele>
        <time>2020-10-25T13:46:27Z</time>
      </trkpt>
      <trkpt lat="43.18806" lon="6.61509">
        <ele>170.5</ele>
        <time>2020-10-25T13:46:31Z</time>
      </trkpt>
      <trkpt lat="43.18801" lon="6.6151">
        <ele>170.6</ele>
        <time>2020-10-25T13:46:35Z</time>
      </trkpt>
      <trkpt lat="43.18798" lon="6.61511">
        <ele>170.6</ele>
        <time>2020-10-25T13:46:38Z</time>
      </trkpt>
      <trkpt lat="43.18794" lon="6.61512">
        <ele>170.5</ele>
        <time>2020-10-25T13:46:41Z</time>
      </trkpt>
      <trkpt lat="43.1879" lon="6.61512">
        <ele>170.6</ele>
        <time>2020-10-25T13:46:44Z</time>
      </trkpt>
      <trkpt lat="43.18786" lon="6.61511">
        <ele>170.7</ele>
        <time>2020-10-25T13:46:47Z</time>
      </trkpt>
      <trkpt lat="43.18783" lon="6.61511">
        <ele>170.8</ele>
        <time>2020-10-25T13:46:50Z</time>
      </trkpt>
      <trkpt lat="43.1878" lon="6.61511">
        <ele>170.8</ele>
        <time>2020-10-25T13:46:52Z</time>
      </trkpt>
      <trkpt lat="43.18776" lon="6.61511">
        <ele>170.9</ele>
        <time>2020-10-25T13:46:55Z</time>
      </trkpt>
      <trkpt lat="43.18771" lon="6.6151">
        <ele>171.1</ele>
        <time>2020-10-25T13:47:00Z</time>
      </trkpt>
      <trkpt lat="43.18767" lon="6.61511">
        <ele>171.4</ele>
        <time>2020-10-25T13:47:06Z</time>
      </trkpt>
      <trkpt lat="43.18766" lon="6.61511">
        <ele>171.5</ele>
        <time>2020-10-25T13:47:07Z</time>
      </trkpt>
      <trkpt lat="43.18759" lon="6.61511">
        <ele>171.6</ele>
        <time>2020-10-25T13:47:12Z</time>
      </trkpt>
      <trkpt lat="43.18755" lon="6.61511">
        <ele>171.7</ele>
        <time>2020-10-25T13:47:14Z</time>
      </trkpt>
      <trkpt lat="43.18751" lon="6.61511">
        <ele>171.9</ele>
        <time>2020-10-25T13:47:16Z</time>
      </trkpt>
      <trkpt lat="43.18747" lon="6.61511">
        <ele>172.1</ele>
        <time>2020-10-25T13:47:19Z</time>
      </trkpt>
      <trkpt lat="43.18743" lon="6.61511">
        <ele>172.4</ele>
        <time>2020-10-25T13:47:23Z</time>
      </trkpt>
      <trkpt lat="43.18739" lon="6.61511">
        <ele>172.6</ele>
        <time>2020-10-25T13:47:26Z</time>
      </trkpt>
      <trkpt lat="43.18735" lon="6.61512">
        <ele>172.8</ele>
        <time>2020-10-25T13:47:29Z</time>
      </trkpt>
      <trkpt lat="43.18731" lon="6.61513">
        <ele>173</ele>
        <time>2020-10-25T13:47:32Z</time>
      </trkpt>
      <trkpt lat="43.18727" lon="6.61514">
        <ele>173.2</ele>
        <time>2020-10-25T13:47:35Z</time>
      </trkpt>
      <trkpt lat="43.18724" lon="6.61514">
        <ele>173.5</ele>
        <time>2020-10-25T13:47:38Z</time>
      </trkpt>
      <trkpt lat="43.1872" lon="6.61516">
        <ele>173.8</ele>
        <time>2020-10-25T13:47:41Z</time>
      </trkpt>
      <trkpt lat="43.18717" lon="6.61517">
        <ele>174</ele>
        <time>2020-10-25T13:47:44Z</time>
      </trkpt>
      <trkpt lat="43.18713" lon="6.61518">
        <ele>174</ele>
        <time>2020-10-25T13:47:47Z</time>
      </trkpt>
      <trkpt lat="43.1871" lon="6.61519">
        <ele>174.1</ele>
        <time>2020-10-25T13:47:50Z</time>
      </trkpt>
      <trkpt lat="43.18706" lon="6.61522">
        <ele>174.4</ele>
        <time>2020-10-25T13:47:54Z</time>
      </trkpt>
      <trkpt lat="43.18702" lon="6.61523">
        <ele>174.8</ele>
        <time>2020-10-25T13:47:58Z</time>
      </trkpt>
      <trkpt lat="43.18699" lon="6.61527">
        <ele>174.3</ele>
        <time>2020-10-25T13:48:40Z</time>
      </trkpt>
      <trkpt lat="43.18698" lon="6.61528">
        <ele>174.5</ele>
        <time>2020-10-25T13:48:41Z</time>
      </trkpt>
      <trkpt lat="43.18692" lon="6.6153">
        <ele>174.6</ele>
        <time>2020-10-25T13:48:45Z</time>
      </trkpt>
      <trkpt lat="43.18688" lon="6.6153">
        <ele>174.4</ele>
        <time>2020-10-25T13:48:47Z</time>
      </trkpt>
      <trkpt lat="43.18684" lon="6.61531">
        <ele>174.5</ele>
        <time>2020-10-25T13:48:50Z</time>
      </trkpt>
      <trkpt lat="43.1868" lon="6.61533">
        <ele>174.5</ele>
        <time>2020-10-25T13:48:53Z</time>
      </trkpt>
      <trkpt lat="43.18677" lon="6.61535">
        <ele>174.5</ele>
        <time>2020-10-25T13:48:56Z</time>
      </trkpt>
      <trkpt lat="43.18673" lon="6.61536">
        <ele>174.5</ele>
        <time>2020-10-25T13:48:59Z</time>
      </trkpt>
      <trkpt lat="43.18669" lon="6.61537">
        <ele>174.5</ele>
        <time>2020-10-25T13:49:02Z</time>
      </trkpt>
      <trkpt lat="43.18665" lon="6.61538">
        <ele>174.5</ele>
        <time>2020-10-25T13:49:05Z</time>
      </trkpt>
      <trkpt lat="43.18662" lon="6.6154">
        <ele>174.4</ele>
        <time>2020-10-25T13:49:08Z</time>
      </trkpt>
      <trkpt lat="43.18658" lon="6.61542">
        <ele>174.4</ele>
        <time>2020-10-25T13:49:12Z</time>
      </trkpt>
      <trkpt lat="43.18654" lon="6.61544">
        <ele>174.3</ele>
        <time>2020-10-25T13:49:16Z</time>
      </trkpt>
      <trkpt lat="43.18651" lon="6.61545">
        <ele>174.3</ele>
        <time>2020-10-25T13:49:19Z</time>
      </trkpt>
      <trkpt lat="43.18647" lon="6.61547">
        <ele>174.2</ele>
        <time>2020-10-25T13:49:22Z</time>
      </trkpt>
      <trkpt lat="43.18643" lon="6.61548">
        <ele>174.1</ele>
        <time>2020-10-25T13:49:27Z</time>
      </trkpt>
      <trkpt lat="43.18639" lon="6.61548">
        <ele>174.3</ele>
        <time>2020-10-25T13:49:44Z</time>
      </trkpt>
      <trkpt lat="43.18638" lon="6.61548">
        <ele>174.3</ele>
        <time>2020-10-25T13:49:45Z</time>
      </trkpt>
      <trkpt lat="43.18631" lon="6.61548">
        <ele>174</ele>
        <time>2020-10-25T13:49:54Z</time>
      </trkpt>
      <trkpt lat="43.18627" lon="6.61551">
        <ele>173.9</ele>
        <time>2020-10-25T13:49:58Z</time>
      </trkpt>
      <trkpt lat="43.18624" lon="6.61555">
        <ele>172.9</ele>
        <time>2020-10-25T13:50:17Z</time>
      </trkpt>
      <trkpt lat="43.18621" lon="6.61556">
        <ele>172.5</ele>
        <time>2020-10-25T13:50:21Z</time>
      </trkpt>
      <trkpt lat="43.18616" lon="6.61556">
        <ele>172.1</ele>
        <time>2020-10-25T13:50:25Z</time>
      </trkpt>
      <trkpt lat="43.18612" lon="6.61555">
        <ele>171.9</ele>
        <time>2020-10-25T13:50:29Z</time>
      </trkpt>
      <trkpt lat="43.18608" lon="6.61553">
        <ele>171.8</ele>
        <time>2020-10-25T13:50:33Z</time>
      </trkpt>
      <trkpt lat="43.18604" lon="6.61552">
        <ele>171.4</ele>
        <time>2020-10-25T13:50:38Z</time>
      </trkpt>
      <trkpt lat="43.186" lon="6.61551">
        <ele>171.2</ele>
        <time>2020-10-25T13:50:42Z</time>
      </trkpt>
      <trkpt lat="43.18596" lon="6.61549">
        <ele>170.4</ele>
        <time>2020-10-25T13:50:50Z</time>
      </trkpt>
      <trkpt lat="43.18596" lon="6.61549">
        <ele>170.3</ele>
        <time>2020-10-25T13:50:51Z</time>
      </trkpt>
      <trkpt lat="43.18588" lon="6.61546">
        <ele>169.3</ele>
        <time>2020-10-25T13:51:06Z</time>
      </trkpt>
      <trkpt lat="43.18584" lon="6.61547">
        <ele>168.8</ele>
        <time>2020-10-25T13:51:11Z</time>
      </trkpt>
      <trkpt lat="43.18581" lon="6.61546">
        <ele>168.5</ele>
        <time>2020-10-25T13:51:14Z</time>
      </trkpt>
      <trkpt lat="43.18577" lon="6.61545">
        <ele>168.1</ele>
        <time>2020-10-25T13:51:17Z</time>
      </trkpt>
      <trkpt lat="43.18573" lon="6.61545">
        <ele>167.7</ele>
        <time>2020-10-25T13:51:21Z</time>
      </trkpt>
      <trkpt lat="43.18569" lon="6.61547">
        <ele>166.7</ele>
        <time>2020-10-25T13:51:41Z</time>
      </trkpt>
      <trkpt lat="43.18565" lon="6.61548">
        <ele>166.5</ele>
        <time>2020-10-25T13:51:45Z</time>
      </trkpt>
      <trkpt lat="43.18561" lon="6.61548">
        <ele>166.4</ele>
        <time>2020-10-25T13:51:48Z</time>
      </trkpt>
      <trkpt lat="43.18557" lon="6.61549">
        <ele>166.3</ele>
        <time>2020-10-25T13:51:51Z</time>
      </trkpt>
      <trkpt lat="43.18556" lon="6.6155">
        <ele>166.3</ele>
        <time>2020-10-25T13:51:52Z</time>
      </trkpt>
      <trkpt lat="43.1855" lon="6.61552">
        <ele>166.1</ele>
        <time>2020-10-25T13:51:57Z</time>
      </trkpt>
      <trkpt lat="43.18547" lon="6.61553">
        <ele>165.9</ele>
        <time>2020-10-25T13:52:00Z</time>
      </trkpt>
      <trkpt lat="43.18543" lon="6.61554">
        <ele>165.6</ele>
        <time>2020-10-25T13:52:03Z</time>
      </trkpt>
      <trkpt lat="43.18539" lon="6.61555">
        <ele>165.4</ele>
        <time>2020-10-25T13:52:06Z</time>
      </trkpt>
      <trkpt lat="43.18535" lon="6.61556">
        <ele>165.3</ele>
        <time>2020-10-25T13:52:09Z</time>
      </trkpt>
      <trkpt lat="43.18532" lon="6.61556">
        <ele>165.1</ele>
        <time>2020-10-25T13:52:12Z</time>
      </trkpt>
      <trkpt lat="43.18528" lon="6.61556">
        <ele>164.9</ele>
        <time>2020-10-25T13:52:15Z</time>
      </trkpt>
      <trkpt lat="43.18524" lon="6.61556">
        <ele>164.8</ele>
        <time>2020-10-25T13:52:18Z</time>
      </trkpt>
      <trkpt lat="43.18521" lon="6.61556">
        <ele>164.8</ele>
        <time>2020-10-25T13:52:21Z</time>
      </trkpt>
      <trkpt lat="43.18517" lon="6.61556">
        <ele>164.7</ele>
        <time>2020-10-25T13:52:24Z</time>
      </trkpt>
      <trkpt lat="43.18514" lon="6.61556">
        <ele>164.9</ele>
        <time>2020-10-25T13:52:27Z</time>
      </trkpt>
      <trkpt lat="43.18509" lon="6.61556">
        <ele>165.1</ele>
        <time>2020-10-25T13:52:31Z</time>
      </trkpt>
      <trkpt lat="43.18506" lon="6.61556">
        <ele>165.1</ele>
        <time>2020-10-25T13:52:34Z</time>
      </trkpt>
      <trkpt lat="43.18502" lon="6.61557">
        <ele>165</ele>
        <time>2020-10-25T13:52:37Z</time>
      </trkpt>
      <trkpt lat="43.18499" lon="6.61556">
        <ele>164.9</ele>
        <time>2020-10-25T13:52:40Z</time>
      </trkpt>
      <trkpt lat="43.18495" lon="6.61557">
        <ele>164.5</ele>
        <time>2020-10-25T13:52:43Z</time>
      </trkpt>
      <trkpt lat="43.18492" lon="6.61557">
        <ele>164.2</ele>
        <time>2020-10-25T13:52:46Z</time>
      </trkpt>
      <trkpt lat="43.18488" lon="6.61557">
        <ele>163.9</ele>
        <time>2020-10-25T13:52:53Z</time>
      </trkpt>
      <trkpt lat="43.18487" lon="6.61556">
        <ele>163.9</ele>
        <time>2020-10-25T13:52:54Z</time>
      </trkpt>
      <trkpt lat="43.18479" lon="6.61556">
        <ele>163.8</ele>
        <time>2020-10-25T13:53:01Z</time>
      </trkpt>
      <trkpt lat="43.18475" lon="6.61557">
        <ele>163.8</ele>
        <time>2020-10-25T13:53:04Z</time>
      </trkpt>
      <trkpt lat="43.18471" lon="6.61557">
        <ele>163.8</ele>
        <time>2020-10-25T13:53:08Z</time>
      </trkpt>
      <trkpt lat="43.18467" lon="6.61557">
        <ele>163.6</ele>
        <time>2020-10-25T13:53:11Z</time>
      </trkpt>
      <trkpt lat="43.18464" lon="6.61557">
        <ele>163.4</ele>
        <time>2020-10-25T13:53:14Z</time>
      </trkpt>
      <trkpt lat="43.1846" lon="6.61557">
        <ele>163.3</ele>
        <time>2020-10-25T13:53:17Z</time>
      </trkpt>
      <trkpt lat="43.18456" lon="6.61557">
        <ele>163</ele>
        <time>2020-10-25T13:53:21Z</time>
      </trkpt>
      <trkpt lat="43.18452" lon="6.61554">
        <ele>162.8</ele>
        <time>2020-10-25T13:53:40Z</time>
      </trkpt>
      <trkpt lat="43.18448" lon="6.61552">
        <ele>162.9</ele>
        <time>2020-10-25T13:53:47Z</time>
      </trkpt>
      <trkpt lat="43.18444" lon="6.61554">
        <ele>162.8</ele>
        <time>2020-10-25T13:53:57Z</time>
      </trkpt>
      <trkpt lat="43.18443" lon="6.61554">
        <ele>162.7</ele>
        <time>2020-10-25T13:53:58Z</time>
      </trkpt>
      <trkpt lat="43.18436" lon="6.61556">
        <ele>162.8</ele>
        <time>2020-10-25T13:54:08Z</time>
      </trkpt>
      <trkpt lat="43.18432" lon="6.61558">
        <ele>162.8</ele>
        <time>2020-10-25T13:54:15Z</time>
      </trkpt>
      <trkpt lat="43.18428" lon="6.61558">
        <ele>162.9</ele>
        <time>2020-10-25T13:54:19Z</time>
      </trkpt>
      <trkpt lat="43.18425" lon="6.61559">
        <ele>163</ele>
        <time>2020-10-25T13:54:23Z</time>
      </trkpt>
      <trkpt lat="43.1842" lon="6.61559">
        <ele>163.4</ele>
        <time>2020-10-25T13:54:29Z</time>
      </trkpt>
      <trkpt lat="43.18416" lon="6.6156">
        <ele>163.8</ele>
        <time>2020-10-25T13:54:33Z</time>
      </trkpt>
      <trkpt lat="43.18412" lon="6.6156">
        <ele>164.2</ele>
        <time>2020-10-25T13:54:37Z</time>
      </trkpt>
      <trkpt lat="43.18408" lon="6.61562">
        <ele>164.6</ele>
        <time>2020-10-25T13:54:42Z</time>
      </trkpt>
      <trkpt lat="43.18404" lon="6.61563">
        <ele>164.9</ele>
        <time>2020-10-25T13:54:47Z</time>
      </trkpt>
      <trkpt lat="43.184" lon="6.61562">
        <ele>165.2</ele>
        <time>2020-10-25T13:54:52Z</time>
      </trkpt>
      <trkpt lat="43.18396" lon="6.61561">
        <ele>166</ele>
        <time>2020-10-25T13:55:00Z</time>
      </trkpt>
      <trkpt lat="43.18396" lon="6.61561">
        <ele>166.1</ele>
        <time>2020-10-25T13:55:01Z</time>
      </trkpt>
      <trkpt lat="43.18389" lon="6.61557">
        <ele>167.3</ele>
        <time>2020-10-25T13:55:23Z</time>
      </trkpt>
      <trkpt lat="43.18385" lon="6.61554">
        <ele>167.4</ele>
        <time>2020-10-25T13:55:28Z</time>
      </trkpt>
      <trkpt lat="43.18381" lon="6.61553">
        <ele>167.5</ele>
        <time>2020-10-25T13:55:32Z</time>
      </trkpt>
      <trkpt lat="43.18378" lon="6.61552">
        <ele>167.5</ele>
        <time>2020-10-25T13:55:36Z</time>
      </trkpt>
      <trkpt lat="43.18373" lon="6.61551">
        <ele>167.7</ele>
        <time>2020-10-25T13:55:40Z</time>
      </trkpt>
      <trkpt lat="43.18369" lon="6.6155">
        <ele>167.9</ele>
        <time>2020-10-25T13:55:44Z</time>
      </trkpt>
      <trkpt lat="43.18365" lon="6.6155">
        <ele>167.9</ele>
        <time>2020-10-25T13:55:47Z</time>
      </trkpt>
      <trkpt lat="43.18361" lon="6.61549">
        <ele>168</ele>
        <time>2020-10-25T13:55:50Z</time>
      </trkpt>
      <trkpt lat="43.18358" lon="6.61549">
        <ele>168</ele>
        <time>2020-10-25T13:55:53Z</time>
      </trkpt>
      <trkpt lat="43.18354" lon="6.61549">
        <ele>168</ele>
        <time>2020-10-25T13:55:56Z</time>
      </trkpt>
      <trkpt lat="43.1835" lon="6.61549">
        <ele>168</ele>
        <time>2020-10-25T13:55:59Z</time>
      </trkpt>
      <trkpt lat="43.18347" lon="6.61548">
        <ele>168</ele>
        <time>2020-10-25T13:56:02Z</time>
      </trkpt>
      <trkpt lat="43.18346" lon="6.61548">
        <ele>168.1</ele>
        <time>2020-10-25T13:56:03Z</time>
      </trkpt>
      <trkpt lat="43.18338" lon="6.61546">
        <ele>168</ele>
        <time>2020-10-25T13:56:10Z</time>
      </trkpt>
      <trkpt lat="43.18335" lon="6.61543">
        <ele>168</ele>
        <time>2020-10-25T13:56:14Z</time>
      </trkpt>
      <trkpt lat="43.18332" lon="6.61539">
        <ele>167.3</ele>
        <time>2020-10-25T13:57:03Z</time>
      </trkpt>
      <trkpt lat="43.18332" lon="6.61538">
        <ele>167.3</ele>
        <time>2020-10-25T13:57:04Z</time>
      </trkpt>
      <trkpt lat="43.18333" lon="6.61528">
        <ele>167.6</ele>
        <time>2020-10-25T13:57:13Z</time>
      </trkpt>
      <trkpt lat="43.18335" lon="6.61524">
        <ele>167.8</ele>
        <time>2020-10-25T13:57:18Z</time>
      </trkpt>
      <trkpt lat="43.18338" lon="6.61519">
        <ele>168.2</ele>
        <time>2020-10-25T13:57:22Z</time>
      </trkpt>
      <trkpt lat="43.1834" lon="6.61516">
        <ele>168.4</ele>
        <time>2020-10-25T13:57:25Z</time>
      </trkpt>
      <trkpt lat="43.18342" lon="6.61511">
        <ele>168.5</ele>
        <time>2020-10-25T13:57:28Z</time>
      </trkpt>
      <trkpt lat="43.18343" lon="6.61506">
        <ele>168.5</ele>
        <time>2020-10-25T13:57:31Z</time>
      </trkpt>
      <trkpt lat="43.18343" lon="6.615">
        <ele>168.6</ele>
        <time>2020-10-25T13:57:35Z</time>
      </trkpt>
      <trkpt lat="43.18342" lon="6.61494">
        <ele>169</ele>
        <time>2020-10-25T13:57:40Z</time>
      </trkpt>
      <trkpt lat="43.18338" lon="6.61493">
        <ele>169.5</ele>
        <time>2020-10-25T13:57:49Z</time>
      </trkpt>
      <trkpt lat="43.18336" lon="6.61489">
        <ele>169.6</ele>
        <time>2020-10-25T13:57:53Z</time>
      </trkpt>
      <trkpt lat="43.18334" lon="6.61484">
        <ele>169.6</ele>
        <time>2020-10-25T13:57:57Z</time>
      </trkpt>
      <trkpt lat="43.18331" lon="6.6148">
        <ele>169.6</ele>
        <time>2020-10-25T13:58:01Z</time>
      </trkpt>
      <trkpt lat="43.18329" lon="6.61475">
        <ele>169.5</ele>
        <time>2020-10-25T13:58:06Z</time>
      </trkpt>
      <trkpt lat="43.18329" lon="6.61474">
        <ele>169.4</ele>
        <time>2020-10-25T13:58:07Z</time>
      </trkpt>
      <trkpt lat="43.18326" lon="6.61465">
        <ele>168.6</ele>
        <time>2020-10-25T13:58:16Z</time>
      </trkpt>
      <trkpt lat="43.18323" lon="6.6146">
        <ele>167.9</ele>
        <time>2020-10-25T13:58:22Z</time>
      </trkpt>
      <trkpt lat="43.18319" lon="6.61457">
        <ele>167.6</ele>
        <time>2020-10-25T13:58:27Z</time>
      </trkpt>
      <trkpt lat="43.18315" lon="6.61456">
        <ele>167.4</ele>
        <time>2020-10-25T13:58:31Z</time>
      </trkpt>
      <trkpt lat="43.18311" lon="6.61455">
        <ele>166.9</ele>
        <time>2020-10-25T13:58:40Z</time>
      </trkpt>
      <trkpt lat="43.18307" lon="6.61454">
        <ele>166.4</ele>
        <time>2020-10-25T13:58:46Z</time>
      </trkpt>
      <trkpt lat="43.18303" lon="6.61453">
        <ele>166.3</ele>
        <time>2020-10-25T13:58:51Z</time>
      </trkpt>
      <trkpt lat="43.18299" lon="6.61451">
        <ele>166.2</ele>
        <time>2020-10-25T13:58:55Z</time>
      </trkpt>
      <trkpt lat="43.18295" lon="6.61448">
        <ele>165.8</ele>
        <time>2020-10-25T13:59:00Z</time>
      </trkpt>
      <trkpt lat="43.18292" lon="6.61445">
        <ele>165.5</ele>
        <time>2020-10-25T13:59:04Z</time>
      </trkpt>
      <trkpt lat="43.18288" lon="6.61442">
        <ele>165</ele>
        <time>2020-10-25T13:59:08Z</time>
      </trkpt>
      <trkpt lat="43.18288" lon="6.61441">
        <ele>164.8</ele>
        <time>2020-10-25T13:59:09Z</time>
      </trkpt>
      <trkpt lat="43.18282" lon="6.61435">
        <ele>164.2</ele>
        <time>2020-10-25T13:59:16Z</time>
      </trkpt>
      <trkpt lat="43.18279" lon="6.61433">
        <ele>163.6</ele>
        <time>2020-10-25T13:59:20Z</time>
      </trkpt>
      <trkpt lat="43.18276" lon="6.61429">
        <ele>163.1</ele>
        <time>2020-10-25T13:59:24Z</time>
      </trkpt>
      <trkpt lat="43.18273" lon="6.61427">
        <ele>162.7</ele>
        <time>2020-10-25T13:59:28Z</time>
      </trkpt>
      <trkpt lat="43.18269" lon="6.61423">
        <ele>162.3</ele>
        <time>2020-10-25T13:59:32Z</time>
      </trkpt>
      <trkpt lat="43.18268" lon="6.61418">
        <ele>161.6</ele>
        <time>2020-10-25T13:59:38Z</time>
      </trkpt>
      <trkpt lat="43.18266" lon="6.61413">
        <ele>160.7</ele>
        <time>2020-10-25T13:59:45Z</time>
      </trkpt>
      <trkpt lat="43.18266" lon="6.61407">
        <ele>159.9</ele>
        <time>2020-10-25T13:59:52Z</time>
      </trkpt>
      <trkpt lat="43.18266" lon="6.61402">
        <ele>159.1</ele>
        <time>2020-10-25T13:59:58Z</time>
      </trkpt>
      <trkpt lat="43.18267" lon="6.61396">
        <ele>158.5</ele>
        <time>2020-10-25T14:00:02Z</time>
      </trkpt>
      <trkpt lat="43.18266" lon="6.6139">
        <ele>157.8</ele>
        <time>2020-10-25T14:00:10Z</time>
      </trkpt>
      <trkpt lat="43.18266" lon="6.61389">
        <ele>157.7</ele>
        <time>2020-10-25T14:00:11Z</time>
      </trkpt>
      <trkpt lat="43.18264" lon="6.6138">
        <ele>156.8</ele>
        <time>2020-10-25T14:00:21Z</time>
      </trkpt>
      <trkpt lat="43.18263" lon="6.61375">
        <ele>156.7</ele>
        <time>2020-10-25T14:00:24Z</time>
      </trkpt>
      <trkpt lat="43.18261" lon="6.6137">
        <ele>156.6</ele>
        <time>2020-10-25T14:00:28Z</time>
      </trkpt>
      <trkpt lat="43.18258" lon="6.61366">
        <ele>156.4</ele>
        <time>2020-10-25T14:00:32Z</time>
      </trkpt>
      <trkpt lat="43.18255" lon="6.61363">
        <ele>156.1</ele>
        <time>2020-10-25T14:00:36Z</time>
      </trkpt>
      <trkpt lat="43.18252" lon="6.6136">
        <ele>155.9</ele>
        <time>2020-10-25T14:00:40Z</time>
      </trkpt>
      <trkpt lat="43.18249" lon="6.61356">
        <ele>155.7</ele>
        <time>2020-10-25T14:00:44Z</time>
      </trkpt>
      <trkpt lat="43.18252" lon="6.61352">
        <ele>155.5</ele>
        <time>2020-10-25T14:00:58Z</time>
      </trkpt>
      <trkpt lat="43.18256" lon="6.61353">
        <ele>155.3</ele>
        <time>2020-10-25T14:01:02Z</time>
      </trkpt>
      <trkpt lat="43.1826" lon="6.61355">
        <ele>154.9</ele>
        <time>2020-10-25T14:01:06Z</time>
      </trkpt>
      <trkpt lat="43.18263" lon="6.61357">
        <ele>154.3</ele>
        <time>2020-10-25T14:01:10Z</time>
      </trkpt>
      <trkpt lat="43.18266" lon="6.6136">
        <ele>153.9</ele>
        <time>2020-10-25T14:01:13Z</time>
      </trkpt>
      <trkpt lat="43.18267" lon="6.6136">
        <ele>153.7</ele>
        <time>2020-10-25T14:01:14Z</time>
      </trkpt>
      <trkpt lat="43.18273" lon="6.61367">
        <ele>152.8</ele>
        <time>2020-10-25T14:01:21Z</time>
      </trkpt>
      <trkpt lat="43.18276" lon="6.6137">
        <ele>152.5</ele>
        <time>2020-10-25T14:01:24Z</time>
      </trkpt>
      <trkpt lat="43.18279" lon="6.61373">
        <ele>152.3</ele>
        <time>2020-10-25T14:01:27Z</time>
      </trkpt>
      <trkpt lat="43.18282" lon="6.61376">
        <ele>152.1</ele>
        <time>2020-10-25T14:01:30Z</time>
      </trkpt>
      <trkpt lat="43.18286" lon="6.61377">
        <ele>151.9</ele>
        <time>2020-10-25T14:01:34Z</time>
      </trkpt>
      <trkpt lat="43.1829" lon="6.61377">
        <ele>151.8</ele>
        <time>2020-10-25T14:01:39Z</time>
      </trkpt>
      <trkpt lat="43.18294" lon="6.61376">
        <ele>151.5</ele>
        <time>2020-10-25T14:01:45Z</time>
      </trkpt>
      <trkpt lat="43.18297" lon="6.61373">
        <ele>151</ele>
        <time>2020-10-25T14:01:50Z</time>
      </trkpt>
      <trkpt lat="43.18299" lon="6.61368">
        <ele>150.7</ele>
        <time>2020-10-25T14:01:56Z</time>
      </trkpt>
      <trkpt lat="43.183" lon="6.61363">
        <ele>150.1</ele>
        <time>2020-10-25T14:02:00Z</time>
      </trkpt>
      <trkpt lat="43.18302" lon="6.61359">
        <ele>149.7</ele>
        <time>2020-10-25T14:02:03Z</time>
      </trkpt>
      <trkpt lat="43.18303" lon="6.61355">
        <ele>149.4</ele>
        <time>2020-10-25T14:02:06Z</time>
      </trkpt>
      <trkpt lat="43.18304" lon="6.61349">
        <ele>148.7</ele>
        <time>2020-10-25T14:02:10Z</time>
      </trkpt>
      <trkpt lat="43.18303" lon="6.61344">
        <ele>148.2</ele>
        <time>2020-10-25T14:02:14Z</time>
      </trkpt>
      <trkpt lat="43.18303" lon="6.61343">
        <ele>148.1</ele>
        <time>2020-10-25T14:02:15Z</time>
      </trkpt>
      <trkpt lat="43.18299" lon="6.61335">
        <ele>146.7</ele>
        <time>2020-10-25T14:02:23Z</time>
      </trkpt>
      <trkpt lat="43.18298" lon="6.6133">
        <ele>146</ele>
        <time>2020-10-25T14:02:28Z</time>
      </trkpt>
      <trkpt lat="43.18297" lon="6.61325">
        <ele>145</ele>
        <time>2020-10-25T14:02:36Z</time>
      </trkpt>
      <trkpt lat="43.18296" lon="6.6132">
        <ele>144.3</ele>
        <time>2020-10-25T14:02:43Z</time>
      </trkpt>
      <trkpt lat="43.18293" lon="6.61317">
        <ele>144.1</ele>
        <time>2020-10-25T14:02:46Z</time>
      </trkpt>
      <trkpt lat="43.1829" lon="6.61313">
        <ele>143.8</ele>
        <time>2020-10-25T14:02:50Z</time>
      </trkpt>
      <trkpt lat="43.18287" lon="6.61308">
        <ele>143.6</ele>
        <time>2020-10-25T14:02:54Z</time>
      </trkpt>
      <trkpt lat="43.18284" lon="6.61304">
        <ele>143.4</ele>
        <time>2020-10-25T14:02:58Z</time>
      </trkpt>
      <trkpt lat="43.18281" lon="6.61301">
        <ele>143.3</ele>
        <time>2020-10-25T14:03:01Z</time>
      </trkpt>
      <trkpt lat="43.18278" lon="6.61298">
        <ele>143.1</ele>
        <time>2020-10-25T14:03:05Z</time>
      </trkpt>
      <trkpt lat="43.18274" lon="6.61294">
        <ele>143</ele>
        <time>2020-10-25T14:03:09Z</time>
      </trkpt>
      <trkpt lat="43.18272" lon="6.61291">
        <ele>143.1</ele>
        <time>2020-10-25T14:03:12Z</time>
      </trkpt>
      <trkpt lat="43.18269" lon="6.61287">
        <ele>143</ele>
        <time>2020-10-25T14:03:16Z</time>
      </trkpt>
      <trkpt lat="43.18268" lon="6.61286">
        <ele>142.9</ele>
        <time>2020-10-25T14:03:17Z</time>
      </trkpt>
      <trkpt lat="43.18263" lon="6.61282">
        <ele>142.9</ele>
        <time>2020-10-25T14:03:24Z</time>
      </trkpt>
      <trkpt lat="43.1826" lon="6.61279">
        <ele>142.7</ele>
        <time>2020-10-25T14:03:28Z</time>
      </trkpt>
      <trkpt lat="43.18256" lon="6.61276">
        <ele>142.4</ele>
        <time>2020-10-25T14:03:33Z</time>
      </trkpt>
      <trkpt lat="43.18253" lon="6.61274">
        <ele>142</ele>
        <time>2020-10-25T14:03:40Z</time>
      </trkpt>
      <trkpt lat="43.1825" lon="6.61268">
        <ele>141.4</ele>
        <time>2020-10-25T14:03:49Z</time>
      </trkpt>
      <trkpt lat="43.18254" lon="6.61265">
        <ele>140.5</ele>
        <time>2020-10-25T14:03:58Z</time>
      </trkpt>
      <trkpt lat="43.18258" lon="6.61264">
        <ele>139.9</ele>
        <time>2020-10-25T14:04:05Z</time>
      </trkpt>
      <trkpt lat="43.18262" lon="6.61263">
        <ele>139.2</ele>
        <time>2020-10-25T14:04:10Z</time>
      </trkpt>
      <trkpt lat="43.18266" lon="6.61263">
        <ele>138.5</ele>
        <time>2020-10-25T14:04:16Z</time>
      </trkpt>
      <trkpt lat="43.1827" lon="6.61263">
        <ele>137.9</ele>
        <time>2020-10-25T14:04:21Z</time>
      </trkpt>
      <trkpt lat="43.18271" lon="6.61263">
        <ele>137.8</ele>
        <time>2020-10-25T14:04:22Z</time>
      </trkpt>
      <trkpt lat="43.18277" lon="6.61262">
        <ele>137.1</ele>
        <time>2020-10-25T14:04:29Z</time>
      </trkpt>
      <trkpt lat="43.18281" lon="6.6126">
        <ele>136.7</ele>
        <time>2020-10-25T14:04:33Z</time>
      </trkpt>
      <trkpt lat="43.18284" lon="6.61257">
        <ele>136.6</ele>
        <time>2020-10-25T14:04:38Z</time>
      </trkpt>
      <trkpt lat="43.18287" lon="6.61252">
        <ele>136.2</ele>
        <time>2020-10-25T14:04:43Z</time>
      </trkpt>
      <trkpt lat="43.18289" lon="6.61247">
        <ele>136</ele>
        <time>2020-10-25T14:04:48Z</time>
      </trkpt>
      <trkpt lat="43.18291" lon="6.61243">
        <ele>135.6</ele>
        <time>2020-10-25T14:04:52Z</time>
      </trkpt>
      <trkpt lat="43.18293" lon="6.61238">
        <ele>135.3</ele>
        <time>2020-10-25T14:04:56Z</time>
      </trkpt>
      <trkpt lat="43.18295" lon="6.61233">
        <ele>134.9</ele>
        <time>2020-10-25T14:05:00Z</time>
      </trkpt>
      <trkpt lat="43.18297" lon="6.61229">
        <ele>134.6</ele>
        <time>2020-10-25T14:05:03Z</time>
      </trkpt>
      <trkpt lat="43.183" lon="6.61224">
        <ele>134.2</ele>
        <time>2020-10-25T14:05:07Z</time>
      </trkpt>
      <trkpt lat="43.18303" lon="6.6122">
        <ele>134.1</ele>
        <time>2020-10-25T14:05:11Z</time>
      </trkpt>
      <trkpt lat="43.18306" lon="6.61216">
        <ele>133.3</ele>
        <time>2020-10-25T14:05:18Z</time>
      </trkpt>
      <trkpt lat="43.18309" lon="6.61213">
        <ele>132.6</ele>
        <time>2020-10-25T14:05:25Z</time>
      </trkpt>
      <trkpt lat="43.1831" lon="6.61212">
        <ele>132.5</ele>
        <time>2020-10-25T14:05:26Z</time>
      </trkpt>
      <trkpt lat="43.18317" lon="6.61208">
        <ele>131.6</ele>
        <time>2020-10-25T14:05:35Z</time>
      </trkpt>
      <trkpt lat="43.1832" lon="6.61205">
        <ele>131.2</ele>
        <time>2020-10-25T14:05:39Z</time>
      </trkpt>
      <trkpt lat="43.18324" lon="6.61202">
        <ele>130.9</ele>
        <time>2020-10-25T14:05:43Z</time>
      </trkpt>
      <trkpt lat="43.18327" lon="6.612">
        <ele>130.6</ele>
        <time>2020-10-25T14:05:47Z</time>
      </trkpt>
      <trkpt lat="43.18331" lon="6.61196">
        <ele>130</ele>
        <time>2020-10-25T14:05:51Z</time>
      </trkpt>
      <trkpt lat="43.18334" lon="6.61193">
        <ele>129.4</ele>
        <time>2020-10-25T14:05:55Z</time>
      </trkpt>
      <trkpt lat="43.18337" lon="6.61189">
        <ele>128.8</ele>
        <time>2020-10-25T14:05:59Z</time>
      </trkpt>
      <trkpt lat="43.18339" lon="6.61186">
        <ele>128.4</ele>
        <time>2020-10-25T14:06:03Z</time>
      </trkpt>
      <trkpt lat="43.18342" lon="6.61181">
        <ele>128.1</ele>
        <time>2020-10-25T14:06:07Z</time>
      </trkpt>
      <trkpt lat="43.18344" lon="6.61176">
        <ele>127.4</ele>
        <time>2020-10-25T14:06:12Z</time>
      </trkpt>
      <trkpt lat="43.18346" lon="6.61172">
        <ele>126.8</ele>
        <time>2020-10-25T14:06:16Z</time>
      </trkpt>
      <trkpt lat="43.18347" lon="6.61167">
        <ele>126.4</ele>
        <time>2020-10-25T14:06:19Z</time>
      </trkpt>
      <trkpt lat="43.18348" lon="6.61162">
        <ele>126</ele>
        <time>2020-10-25T14:06:23Z</time>
      </trkpt>
      <trkpt lat="43.18349" lon="6.61156">
        <ele>125.5</ele>
        <time>2020-10-25T14:06:29Z</time>
      </trkpt>
      <trkpt lat="43.1835" lon="6.61156">
        <ele>125.4</ele>
        <time>2020-10-25T14:06:30Z</time>
      </trkpt>
      <trkpt lat="43.18351" lon="6.61147">
        <ele>124.8</ele>
        <time>2020-10-25T14:06:38Z</time>
      </trkpt>
      <trkpt lat="43.18353" lon="6.61142">
        <ele>124.5</ele>
        <time>2020-10-25T14:06:42Z</time>
      </trkpt>
      <trkpt lat="43.18354" lon="6.61138">
        <ele>124.2</ele>
        <time>2020-10-25T14:06:45Z</time>
      </trkpt>
      <trkpt lat="43.18356" lon="6.61133">
        <ele>124.1</ele>
        <time>2020-10-25T14:06:48Z</time>
      </trkpt>
      <trkpt lat="43.18358" lon="6.61128">
        <ele>123.9</ele>
        <time>2020-10-25T14:06:52Z</time>
      </trkpt>
      <trkpt lat="43.18359" lon="6.61124">
        <ele>123.7</ele>
        <time>2020-10-25T14:06:55Z</time>
      </trkpt>
      <trkpt lat="43.1836" lon="6.61118">
        <ele>123.1</ele>
        <time>2020-10-25T14:07:00Z</time>
      </trkpt>
      <trkpt lat="43.18362" lon="6.61113">
        <ele>122.7</ele>
        <time>2020-10-25T14:07:04Z</time>
      </trkpt>
      <trkpt lat="43.18363" lon="6.61108">
        <ele>122.4</ele>
        <time>2020-10-25T14:07:07Z</time>
      </trkpt>
      <trkpt lat="43.18364" lon="6.61103">
        <ele>121.8</ele>
        <time>2020-10-25T14:07:12Z</time>
      </trkpt>
      <trkpt lat="43.18366" lon="6.61098">
        <ele>121.4</ele>
        <time>2020-10-25T14:07:18Z</time>
      </trkpt>
      <trkpt lat="43.18365" lon="6.61093">
        <ele>120.9</ele>
        <time>2020-10-25T14:07:25Z</time>
      </trkpt>
      <trkpt lat="43.18366" lon="6.61089">
        <ele>120.5</ele>
        <time>2020-10-25T14:07:28Z</time>
      </trkpt>
      <trkpt lat="43.18368" lon="6.61084">
        <ele>120.2</ele>
        <time>2020-10-25T14:07:31Z</time>
      </trkpt>
      <trkpt lat="43.18368" lon="6.61083">
        <ele>120.1</ele>
        <time>2020-10-25T14:07:32Z</time>
      </trkpt>
      <trkpt lat="43.18368" lon="6.61073">
        <ele>119.2</ele>
        <time>2020-10-25T14:07:44Z</time>
      </trkpt>
      <trkpt lat="43.18369" lon="6.61068">
        <ele>118.8</ele>
        <time>2020-10-25T14:07:47Z</time>
      </trkpt>
      <trkpt lat="43.18369" lon="6.61063">
        <ele>118.3</ele>
        <time>2020-10-25T14:07:51Z</time>
      </trkpt>
      <trkpt lat="43.18371" lon="6.61058">
        <ele>118</ele>
        <time>2020-10-25T14:07:54Z</time>
      </trkpt>
      <trkpt lat="43.18372" lon="6.61053">
        <ele>117.6</ele>
        <time>2020-10-25T14:07:58Z</time>
      </trkpt>
      <trkpt lat="43.18372" lon="6.61047">
        <ele>116.9</ele>
        <time>2020-10-25T14:08:05Z</time>
      </trkpt>
      <trkpt lat="43.18373" lon="6.61042">
        <ele>116.7</ele>
        <time>2020-10-25T14:08:08Z</time>
      </trkpt>
      <trkpt lat="43.18375" lon="6.61037">
        <ele>116.2</ele>
        <time>2020-10-25T14:08:11Z</time>
      </trkpt>
      <trkpt lat="43.18376" lon="6.61033">
        <ele>116</ele>
        <time>2020-10-25T14:08:13Z</time>
      </trkpt>
      <trkpt lat="43.18377" lon="6.61027">
        <ele>115.5</ele>
        <time>2020-10-25T14:08:16Z</time>
      </trkpt>
      <trkpt lat="43.18379" lon="6.61023">
        <ele>114.9</ele>
        <time>2020-10-25T14:08:19Z</time>
      </trkpt>
      <trkpt lat="43.1838" lon="6.61019">
        <ele>114.7</ele>
        <time>2020-10-25T14:08:22Z</time>
      </trkpt>
      <trkpt lat="43.18381" lon="6.61013">
        <ele>113.8</ele>
        <time>2020-10-25T14:08:27Z</time>
      </trkpt>
      <trkpt lat="43.1838" lon="6.61008">
        <ele>113.4</ele>
        <time>2020-10-25T14:08:31Z</time>
      </trkpt>
      <trkpt lat="43.1838" lon="6.61002">
        <ele>112.8</ele>
        <time>2020-10-25T14:08:35Z</time>
      </trkpt>
      <trkpt lat="43.1838" lon="6.61001">
        <ele>112.7</ele>
        <time>2020-10-25T14:08:36Z</time>
      </trkpt>
      <trkpt lat="43.18377" lon="6.60991">
        <ele>111.9</ele>
        <time>2020-10-25T14:08:43Z</time>
      </trkpt>
      <trkpt lat="43.18374" lon="6.60987">
        <ele>111.5</ele>
        <time>2020-10-25T14:08:47Z</time>
      </trkpt>
      <trkpt lat="43.18371" lon="6.60983">
        <ele>111.2</ele>
        <time>2020-10-25T14:08:53Z</time>
      </trkpt>
      <trkpt lat="43.18368" lon="6.6098">
        <ele>111</ele>
        <time>2020-10-25T14:08:58Z</time>
      </trkpt>
      <trkpt lat="43.18365" lon="6.60977">
        <ele>110.8</ele>
        <time>2020-10-25T14:09:02Z</time>
      </trkpt>
      <trkpt lat="43.18361" lon="6.60974">
        <ele>110.7</ele>
        <time>2020-10-25T14:09:06Z</time>
      </trkpt>
      <trkpt lat="43.18358" lon="6.60972">
        <ele>110.6</ele>
        <time>2020-10-25T14:09:09Z</time>
      </trkpt>
      <trkpt lat="43.18354" lon="6.60969">
        <ele>110.6</ele>
        <time>2020-10-25T14:09:13Z</time>
      </trkpt>
      <trkpt lat="43.18351" lon="6.60966">
        <ele>110.6</ele>
        <time>2020-10-25T14:09:17Z</time>
      </trkpt>
      <trkpt lat="43.18347" lon="6.60962">
        <ele>110.5</ele>
        <time>2020-10-25T14:09:22Z</time>
      </trkpt>
      <trkpt lat="43.18345" lon="6.60959">
        <ele>110</ele>
        <time>2020-10-25T14:09:26Z</time>
      </trkpt>
      <trkpt lat="43.18343" lon="6.60953">
        <ele>109.8</ele>
        <time>2020-10-25T14:09:31Z</time>
      </trkpt>
      <trkpt lat="43.18341" lon="6.60948">
        <ele>109.9</ele>
        <time>2020-10-25T14:09:36Z</time>
      </trkpt>
      <trkpt lat="43.18341" lon="6.60947">
        <ele>110</ele>
        <time>2020-10-25T14:09:37Z</time>
      </trkpt>
      <trkpt lat="43.18339" lon="6.60939">
        <ele>110</ele>
        <time>2020-10-25T14:09:44Z</time>
      </trkpt>
      <trkpt lat="43.18339" lon="6.60933">
        <ele>109.9</ele>
        <time>2020-10-25T14:09:48Z</time>
      </trkpt>
      <trkpt lat="43.18339" lon="6.60927">
        <ele>109.5</ele>
        <time>2020-10-25T14:09:53Z</time>
      </trkpt>
      <trkpt lat="43.18339" lon="6.60922">
        <ele>109.1</ele>
        <time>2020-10-25T14:09:58Z</time>
      </trkpt>
      <trkpt lat="43.18339" lon="6.60916">
        <ele>108.7</ele>
        <time>2020-10-25T14:10:03Z</time>
      </trkpt>
      <trkpt lat="43.18338" lon="6.6091">
        <ele>108.2</ele>
        <time>2020-10-25T14:10:09Z</time>
      </trkpt>
      <trkpt lat="43.1834" lon="6.60905">
        <ele>107.9</ele>
        <time>2020-10-25T14:10:13Z</time>
      </trkpt>
      <trkpt lat="43.1834" lon="6.60899">
        <ele>107</ele>
        <time>2020-10-25T14:10:21Z</time>
      </trkpt>
      <trkpt lat="43.18341" lon="6.60893">
        <ele>106</ele>
        <time>2020-10-25T14:10:26Z</time>
      </trkpt>
      <trkpt lat="43.18342" lon="6.60888">
        <ele>105.7</ele>
        <time>2020-10-25T14:10:30Z</time>
      </trkpt>
      <trkpt lat="43.18344" lon="6.60884">
        <ele>105.2</ele>
        <time>2020-10-25T14:10:34Z</time>
      </trkpt>
      <trkpt lat="43.18346" lon="6.60878">
        <ele>104.6</ele>
        <time>2020-10-25T14:10:38Z</time>
      </trkpt>
      <trkpt lat="43.18346" lon="6.60877">
        <ele>104.5</ele>
        <time>2020-10-25T14:10:39Z</time>
      </trkpt>
      <trkpt lat="43.18348" lon="6.60868">
        <ele>103.7</ele>
        <time>2020-10-25T14:10:44Z</time>
      </trkpt>
      <trkpt lat="43.18348" lon="6.60863">
        <ele>103.6</ele>
        <time>2020-10-25T14:10:47Z</time>
      </trkpt>
      <trkpt lat="43.18349" lon="6.60857">
        <ele>103.4</ele>
        <time>2020-10-25T14:10:50Z</time>
      </trkpt>
      <trkpt lat="43.18348" lon="6.60851">
        <ele>103.1</ele>
        <time>2020-10-25T14:10:54Z</time>
      </trkpt>
      <trkpt lat="43.18346" lon="6.60846">
        <ele>102.9</ele>
        <time>2020-10-25T14:10:58Z</time>
      </trkpt>
      <trkpt lat="43.18346" lon="6.60842">
        <ele>102.5</ele>
        <time>2020-10-25T14:11:01Z</time>
      </trkpt>
      <trkpt lat="43.18346" lon="6.60837">
        <ele>102.4</ele>
        <time>2020-10-25T14:11:04Z</time>
      </trkpt>
      <trkpt lat="43.18345" lon="6.60831">
        <ele>102.1</ele>
        <time>2020-10-25T14:11:09Z</time>
      </trkpt>
      <trkpt lat="43.18345" lon="6.60826">
        <ele>101.8</ele>
        <time>2020-10-25T14:11:13Z</time>
      </trkpt>
      <trkpt lat="43.18346" lon="6.60821">
        <ele>101.5</ele>
        <time>2020-10-25T14:11:16Z</time>
      </trkpt>
      <trkpt lat="43.18347" lon="6.60817">
        <ele>101.3</ele>
        <time>2020-10-25T14:11:19Z</time>
      </trkpt>
      <trkpt lat="43.18347" lon="6.60811">
        <ele>100.8</ele>
        <time>2020-10-25T14:11:23Z</time>
      </trkpt>
      <trkpt lat="43.18347" lon="6.60805">
        <ele>100.3</ele>
        <time>2020-10-25T14:11:28Z</time>
      </trkpt>
      <trkpt lat="43.18345" lon="6.608">
        <ele>99.6</ele>
        <time>2020-10-25T14:11:34Z</time>
      </trkpt>
      <trkpt lat="43.18345" lon="6.60795">
        <ele>99.2</ele>
        <time>2020-10-25T14:11:37Z</time>
      </trkpt>
      <trkpt lat="43.18345" lon="6.6079">
        <ele>98.8</ele>
        <time>2020-10-25T14:11:40Z</time>
      </trkpt>
      <trkpt lat="43.18345" lon="6.60789">
        <ele>98.6</ele>
        <time>2020-10-25T14:11:41Z</time>
      </trkpt>
      <trkpt lat="43.18345" lon="6.6078">
        <ele>97.9</ele>
        <time>2020-10-25T14:11:47Z</time>
      </trkpt>
      <trkpt lat="43.18345" lon="6.60774">
        <ele>97.5</ele>
        <time>2020-10-25T14:11:51Z</time>
      </trkpt>
      <trkpt lat="43.18344" lon="6.60769">
        <ele>97.1</ele>
        <time>2020-10-25T14:11:55Z</time>
      </trkpt>
      <trkpt lat="43.18344" lon="6.60764">
        <ele>96.7</ele>
        <time>2020-10-25T14:11:59Z</time>
      </trkpt>
      <trkpt lat="43.18343" lon="6.60758">
        <ele>96.2</ele>
        <time>2020-10-25T14:12:03Z</time>
      </trkpt>
      <trkpt lat="43.18342" lon="6.60753">
        <ele>95.7</ele>
        <time>2020-10-25T14:12:07Z</time>
      </trkpt>
      <trkpt lat="43.18343" lon="6.60747">
        <ele>95.4</ele>
        <time>2020-10-25T14:12:10Z</time>
      </trkpt>
      <trkpt lat="43.18344" lon="6.60742">
        <ele>95.1</ele>
        <time>2020-10-25T14:12:13Z</time>
      </trkpt>
      <trkpt lat="43.18345" lon="6.60736">
        <ele>94.7</ele>
        <time>2020-10-25T14:12:16Z</time>
      </trkpt>
      <trkpt lat="43.18346" lon="6.60731">
        <ele>94.2</ele>
        <time>2020-10-25T14:12:20Z</time>
      </trkpt>
      <trkpt lat="43.18346" lon="6.60725">
        <ele>93.8</ele>
        <time>2020-10-25T14:12:23Z</time>
      </trkpt>
      <trkpt lat="43.18346" lon="6.6072">
        <ele>93.1</ele>
        <time>2020-10-25T14:12:26Z</time>
      </trkpt>
      <trkpt lat="43.18347" lon="6.60715">
        <ele>92.8</ele>
        <time>2020-10-25T14:12:30Z</time>
      </trkpt>
      <trkpt lat="43.18347" lon="6.60709">
        <ele>92.5</ele>
        <time>2020-10-25T14:12:34Z</time>
      </trkpt>
      <trkpt lat="43.18348" lon="6.60704">
        <ele>92.3</ele>
        <time>2020-10-25T14:12:37Z</time>
      </trkpt>
      <trkpt lat="43.18348" lon="6.60699">
        <ele>92</ele>
        <time>2020-10-25T14:12:41Z</time>
      </trkpt>
      <trkpt lat="43.18348" lon="6.60698">
        <ele>91.9</ele>
        <time>2020-10-25T14:12:42Z</time>
      </trkpt>
      <trkpt lat="43.18347" lon="6.60687">
        <ele>91</ele>
        <time>2020-10-25T14:12:50Z</time>
      </trkpt>
      <trkpt lat="43.18348" lon="6.60682">
        <ele>90.4</ele>
        <time>2020-10-25T14:12:54Z</time>
      </trkpt>
      <trkpt lat="43.18349" lon="6.60678">
        <ele>90.1</ele>
        <time>2020-10-25T14:12:57Z</time>
      </trkpt>
      <trkpt lat="43.18351" lon="6.60673">
        <ele>89.8</ele>
        <time>2020-10-25T14:13:00Z</time>
      </trkpt>
      <trkpt lat="43.18353" lon="6.60669">
        <ele>89.3</ele>
        <time>2020-10-25T14:13:04Z</time>
      </trkpt>
      <trkpt lat="43.18354" lon="6.60663">
        <ele>88.8</ele>
        <time>2020-10-25T14:13:08Z</time>
      </trkpt>
      <trkpt lat="43.18356" lon="6.60658">
        <ele>88.3</ele>
        <time>2020-10-25T14:13:12Z</time>
      </trkpt>
      <trkpt lat="43.18358" lon="6.60654">
        <ele>87.7</ele>
        <time>2020-10-25T14:13:17Z</time>
      </trkpt>
      <trkpt lat="43.18361" lon="6.60649">
        <ele>86.5</ele>
        <time>2020-10-25T14:13:28Z</time>
      </trkpt>
      <trkpt lat="43.18364" lon="6.60646">
        <ele>86.2</ele>
        <time>2020-10-25T14:13:32Z</time>
      </trkpt>
      <trkpt lat="43.18368" lon="6.60644">
        <ele>85.9</ele>
        <time>2020-10-25T14:13:35Z</time>
      </trkpt>
      <trkpt lat="43.18371" lon="6.60641">
        <ele>85.6</ele>
        <time>2020-10-25T14:13:38Z</time>
      </trkpt>
      <trkpt lat="43.18375" lon="6.6064">
        <ele>84.9</ele>
        <time>2020-10-25T14:13:46Z</time>
      </trkpt>
      <trkpt lat="43.18375" lon="6.60639">
        <ele>84.8</ele>
        <time>2020-10-25T14:13:47Z</time>
      </trkpt>
      <trkpt lat="43.18381" lon="6.60633">
        <ele>84.4</ele>
        <time>2020-10-25T14:13:52Z</time>
      </trkpt>
      <trkpt lat="43.18384" lon="6.60629">
        <ele>84.2</ele>
        <time>2020-10-25T14:13:55Z</time>
      </trkpt>
      <trkpt lat="43.18387" lon="6.60625">
        <ele>84.1</ele>
        <time>2020-10-25T14:13:57Z</time>
      </trkpt>
      <trkpt lat="43.1839" lon="6.60622">
        <ele>84</ele>
        <time>2020-10-25T14:13:59Z</time>
      </trkpt>
      <trkpt lat="43.18393" lon="6.6062">
        <ele>83.9</ele>
        <time>2020-10-25T14:14:01Z</time>
      </trkpt>
      <trkpt lat="43.18397" lon="6.60617">
        <ele>83.7</ele>
        <time>2020-10-25T14:14:05Z</time>
      </trkpt>
      <trkpt lat="43.18401" lon="6.60616">
        <ele>82.9</ele>
        <time>2020-10-25T14:14:10Z</time>
      </trkpt>
      <trkpt lat="43.18405" lon="6.60614">
        <ele>81.9</ele>
        <time>2020-10-25T14:14:16Z</time>
      </trkpt>
      <trkpt lat="43.18408" lon="6.6061">
        <ele>81.2</ele>
        <time>2020-10-25T14:14:20Z</time>
      </trkpt>
      <trkpt lat="43.1841" lon="6.60605">
        <ele>80.6</ele>
        <time>2020-10-25T14:14:24Z</time>
      </trkpt>
      <trkpt lat="43.18412" lon="6.606">
        <ele>80.3</ele>
        <time>2020-10-25T14:14:27Z</time>
      </trkpt>
      <trkpt lat="43.18413" lon="6.60596">
        <ele>80</ele>
        <time>2020-10-25T14:14:29Z</time>
      </trkpt>
      <trkpt lat="43.18416" lon="6.60591">
        <ele>79.4</ele>
        <time>2020-10-25T14:14:33Z</time>
      </trkpt>
      <trkpt lat="43.18417" lon="6.60586">
        <ele>78.9</ele>
        <time>2020-10-25T14:14:37Z</time>
      </trkpt>
      <trkpt lat="43.18416" lon="6.6058">
        <ele>78</ele>
        <time>2020-10-25T14:14:42Z</time>
      </trkpt>
      <trkpt lat="43.18414" lon="6.60576">
        <ele>77.3</ele>
        <time>2020-10-25T14:14:47Z</time>
      </trkpt>
      <trkpt lat="43.18413" lon="6.60575">
        <ele>77.2</ele>
        <time>2020-10-25T14:14:48Z</time>
      </trkpt>
      <trkpt lat="43.18408" lon="6.6057">
        <ele>75.8</ele>
        <time>2020-10-25T14:14:57Z</time>
      </trkpt>
      <trkpt lat="43.18404" lon="6.60567">
        <ele>75.6</ele>
        <time>2020-10-25T14:15:00Z</time>
      </trkpt>
      <trkpt lat="43.18402" lon="6.60564">
        <ele>75.3</ele>
        <time>2020-10-25T14:15:02Z</time>
      </trkpt>
      <trkpt lat="43.18399" lon="6.60561">
        <ele>75</ele>
        <time>2020-10-25T14:15:04Z</time>
      </trkpt>
      <trkpt lat="43.18395" lon="6.6056">
        <ele>74.6</ele>
        <time>2020-10-25T14:15:07Z</time>
      </trkpt>
      <trkpt lat="43.18392" lon="6.60558">
        <ele>74.4</ele>
        <time>2020-10-25T14:15:09Z</time>
      </trkpt>
      <trkpt lat="43.1839" lon="6.60554">
        <ele>74.2</ele>
        <time>2020-10-25T14:15:11Z</time>
      </trkpt>
      <trkpt lat="43.18387" lon="6.6055">
        <ele>73.8</ele>
        <time>2020-10-25T14:15:14Z</time>
      </trkpt>
      <trkpt lat="43.18384" lon="6.60547">
        <ele>73.5</ele>
        <time>2020-10-25T14:15:17Z</time>
      </trkpt>
      <trkpt lat="43.18381" lon="6.60545">
        <ele>73.1</ele>
        <time>2020-10-25T14:15:20Z</time>
      </trkpt>
      <trkpt lat="43.18377" lon="6.60542">
        <ele>72.6</ele>
        <time>2020-10-25T14:15:25Z</time>
      </trkpt>
      <trkpt lat="43.18374" lon="6.60539">
        <ele>72.1</ele>
        <time>2020-10-25T14:15:29Z</time>
      </trkpt>
      <trkpt lat="43.18371" lon="6.60538">
        <ele>71.9</ele>
        <time>2020-10-25T14:15:31Z</time>
      </trkpt>
      <trkpt lat="43.18367" lon="6.60537">
        <ele>71.3</ele>
        <time>2020-10-25T14:15:34Z</time>
      </trkpt>
      <trkpt lat="43.18363" lon="6.60536">
        <ele>70.9</ele>
        <time>2020-10-25T14:15:37Z</time>
      </trkpt>
      <trkpt lat="43.1836" lon="6.60535">
        <ele>70.5</ele>
        <time>2020-10-25T14:15:40Z</time>
      </trkpt>
      <trkpt lat="43.18356" lon="6.60534">
        <ele>70</ele>
        <time>2020-10-25T14:15:43Z</time>
      </trkpt>
      <trkpt lat="43.18352" lon="6.60532">
        <ele>69.6</ele>
        <time>2020-10-25T14:15:47Z</time>
      </trkpt>
      <trkpt lat="43.18349" lon="6.6053">
        <ele>69</ele>
        <time>2020-10-25T14:15:51Z</time>
      </trkpt>
      <trkpt lat="43.18348" lon="6.6053">
        <ele>68.8</ele>
        <time>2020-10-25T14:15:52Z</time>
      </trkpt>
      <trkpt lat="43.18341" lon="6.60528">
        <ele>68.1</ele>
        <time>2020-10-25T14:16:00Z</time>
      </trkpt>
      <trkpt lat="43.18337" lon="6.60525">
        <ele>67.6</ele>
        <time>2020-10-25T14:16:04Z</time>
      </trkpt>
      <trkpt lat="43.18333" lon="6.60523">
        <ele>66.8</ele>
        <time>2020-10-25T14:16:09Z</time>
      </trkpt>
      <trkpt lat="43.18329" lon="6.60521">
        <ele>65.4</ele>
        <time>2020-10-25T14:16:15Z</time>
      </trkpt>
      <trkpt lat="43.18326" lon="6.60518">
        <ele>64.7</ele>
        <time>2020-10-25T14:16:20Z</time>
      </trkpt>
      <trkpt lat="43.18323" lon="6.60514">
        <ele>63.9</ele>
        <time>2020-10-25T14:16:24Z</time>
      </trkpt>
      <trkpt lat="43.1832" lon="6.6051">
        <ele>63.3</ele>
        <time>2020-10-25T14:16:28Z</time>
      </trkpt>
      <trkpt lat="43.18317" lon="6.60506">
        <ele>63</ele>
        <time>2020-10-25T14:16:31Z</time>
      </trkpt>
      <trkpt lat="43.18314" lon="6.60502">
        <ele>62.5</ele>
        <time>2020-10-25T14:16:35Z</time>
      </trkpt>
      <trkpt lat="43.18313" lon="6.60497">
        <ele>62.1</ele>
        <time>2020-10-25T14:16:39Z</time>
      </trkpt>
      <trkpt lat="43.18313" lon="6.60491">
        <ele>61.7</ele>
        <time>2020-10-25T14:16:43Z</time>
      </trkpt>
      <trkpt lat="43.18313" lon="6.60487">
        <ele>61.2</ele>
        <time>2020-10-25T14:16:46Z</time>
      </trkpt>
      <trkpt lat="43.18312" lon="6.60481">
        <ele>60.5</ele>
        <time>2020-10-25T14:16:50Z</time>
      </trkpt>
      <trkpt lat="43.18311" lon="6.60476">
        <ele>59.7</ele>
        <time>2020-10-25T14:16:54Z</time>
      </trkpt>
      <trkpt lat="43.18311" lon="6.60475">
        <ele>59.4</ele>
        <time>2020-10-25T14:16:55Z</time>
      </trkpt>
      <trkpt lat="43.18312" lon="6.60465">
        <ele>58.1</ele>
        <time>2020-10-25T14:17:06Z</time>
      </trkpt>
      <trkpt lat="43.18314" lon="6.60461">
        <ele>57.2</ele>
        <time>2020-10-25T14:17:10Z</time>
      </trkpt>
      <trkpt lat="43.18316" lon="6.60456">
        <ele>56.7</ele>
        <time>2020-10-25T14:17:15Z</time>
      </trkpt>
      <trkpt lat="43.18318" lon="6.60451">
        <ele>56.1</ele>
        <time>2020-10-25T14:17:19Z</time>
      </trkpt>
      <trkpt lat="43.1832" lon="6.60447">
        <ele>55.7</ele>
        <time>2020-10-25T14:17:22Z</time>
      </trkpt>
      <trkpt lat="43.18322" lon="6.60443">
        <ele>55.4</ele>
        <time>2020-10-25T14:17:25Z</time>
      </trkpt>
      <trkpt lat="43.18323" lon="6.60438">
        <ele>54.7</ele>
        <time>2020-10-25T14:17:30Z</time>
      </trkpt>
      <trkpt lat="43.18323" lon="6.60432">
        <ele>54</ele>
        <time>2020-10-25T14:17:35Z</time>
      </trkpt>
      <trkpt lat="43.18324" lon="6.60426">
        <ele>53.5</ele>
        <time>2020-10-25T14:17:38Z</time>
      </trkpt>
      <trkpt lat="43.18321" lon="6.60422">
        <ele>52.4</ele>
        <time>2020-10-25T14:17:51Z</time>
      </trkpt>
      <trkpt lat="43.1832" lon="6.60416">
        <ele>51</ele>
        <time>2020-10-25T14:18:56Z</time>
      </trkpt>
      <trkpt lat="43.1832" lon="6.60415">
        <ele>50.9</ele>
        <time>2020-10-25T14:18:57Z</time>
      </trkpt>
      <trkpt lat="43.18325" lon="6.60415">
        <ele>50.8</ele>
        <time>2020-10-25T14:20:18Z</time>
      </trkpt>
      <trkpt lat="43.18332" lon="6.60412">
        <ele>50.5</ele>
        <time>2020-10-25T14:20:26Z</time>
      </trkpt>
      <trkpt lat="43.18337" lon="6.60412">
        <ele>50.2</ele>
        <time>2020-10-25T14:20:30Z</time>
      </trkpt>
      <trkpt lat="43.18341" lon="6.60412">
        <ele>49.7</ele>
        <time>2020-10-25T14:20:34Z</time>
      </trkpt>
      <trkpt lat="43.18345" lon="6.60413">
        <ele>49.3</ele>
        <time>2020-10-25T14:20:38Z</time>
      </trkpt>
      <trkpt lat="43.18349" lon="6.60414">
        <ele>48.9</ele>
        <time>2020-10-25T14:20:42Z</time>
      </trkpt>
      <trkpt lat="43.18353" lon="6.60416">
        <ele>48.6</ele>
        <time>2020-10-25T14:20:46Z</time>
      </trkpt>
      <trkpt lat="43.18358" lon="6.60417">
        <ele>48.3</ele>
        <time>2020-10-25T14:20:50Z</time>
      </trkpt>
      <trkpt lat="43.18361" lon="6.60419">
        <ele>48.2</ele>
        <time>2020-10-25T14:20:53Z</time>
      </trkpt>
      <trkpt lat="43.18364" lon="6.60421">
        <ele>47.8</ele>
        <time>2020-10-25T14:20:56Z</time>
      </trkpt>
      <trkpt lat="43.18367" lon="6.60423">
        <ele>47.5</ele>
        <time>2020-10-25T14:20:59Z</time>
      </trkpt>
      <trkpt lat="43.18371" lon="6.60425">
        <ele>47.4</ele>
        <time>2020-10-25T14:21:03Z</time>
      </trkpt>
      <trkpt lat="43.18375" lon="6.60428">
        <ele>47.4</ele>
        <time>2020-10-25T14:21:07Z</time>
      </trkpt>
      <trkpt lat="43.18378" lon="6.60432">
        <ele>47.2</ele>
        <time>2020-10-25T14:21:12Z</time>
      </trkpt>
      <trkpt lat="43.18381" lon="6.60436">
        <ele>46.7</ele>
        <time>2020-10-25T14:21:17Z</time>
      </trkpt>
      <trkpt lat="43.18383" lon="6.6044">
        <ele>46.5</ele>
        <time>2020-10-25T14:21:21Z</time>
      </trkpt>
      <trkpt lat="43.18384" lon="6.60442">
        <ele>46.4</ele>
        <time>2020-10-25T14:21:22Z</time>
      </trkpt>
      <trkpt lat="43.18388" lon="6.60448">
        <ele>45.6</ele>
        <time>2020-10-25T14:21:27Z</time>
      </trkpt>
      <trkpt lat="43.18391" lon="6.60451">
        <ele>45.5</ele>
        <time>2020-10-25T14:21:30Z</time>
      </trkpt>
      <trkpt lat="43.18394" lon="6.60454">
        <ele>45.5</ele>
        <time>2020-10-25T14:21:33Z</time>
      </trkpt>
      <trkpt lat="43.18398" lon="6.60456">
        <ele>45.3</ele>
        <time>2020-10-25T14:21:36Z</time>
      </trkpt>
      <trkpt lat="43.18401" lon="6.60457">
        <ele>45.2</ele>
        <time>2020-10-25T14:21:39Z</time>
      </trkpt>
      <trkpt lat="43.18404" lon="6.60459">
        <ele>45</ele>
        <time>2020-10-25T14:21:42Z</time>
      </trkpt>
      <trkpt lat="43.18408" lon="6.6046">
        <ele>44.8</ele>
        <time>2020-10-25T14:21:45Z</time>
      </trkpt>
      <trkpt lat="43.18412" lon="6.60461">
        <ele>44.7</ele>
        <time>2020-10-25T14:21:48Z</time>
      </trkpt>
      <trkpt lat="43.18415" lon="6.60462">
        <ele>44.6</ele>
        <time>2020-10-25T14:21:52Z</time>
      </trkpt>
      <trkpt lat="43.18419" lon="6.60462">
        <ele>44.4</ele>
        <time>2020-10-25T14:21:56Z</time>
      </trkpt>
      <trkpt lat="43.18422" lon="6.60461">
        <ele>44.3</ele>
        <time>2020-10-25T14:21:59Z</time>
      </trkpt>
      <trkpt lat="43.18426" lon="6.60459">
        <ele>44.3</ele>
        <time>2020-10-25T14:22:03Z</time>
      </trkpt>
      <trkpt lat="43.1843" lon="6.60456">
        <ele>44.1</ele>
        <time>2020-10-25T14:22:07Z</time>
      </trkpt>
      <trkpt lat="43.18432" lon="6.60451">
        <ele>43.3</ele>
        <time>2020-10-25T14:22:15Z</time>
      </trkpt>
      <trkpt lat="43.18435" lon="6.60447">
        <ele>42.9</ele>
        <time>2020-10-25T14:22:21Z</time>
      </trkpt>
      <trkpt lat="43.18437" lon="6.60443">
        <ele>42.9</ele>
        <time>2020-10-25T14:22:23Z</time>
      </trkpt>
      <trkpt lat="43.18438" lon="6.6044">
        <ele>42.8</ele>
        <time>2020-10-25T14:22:24Z</time>
      </trkpt>
      <trkpt lat="43.18442" lon="6.60435">
        <ele>42.6</ele>
        <time>2020-10-25T14:22:28Z</time>
      </trkpt>
      <trkpt lat="43.18445" lon="6.60431">
        <ele>42.5</ele>
        <time>2020-10-25T14:22:31Z</time>
      </trkpt>
      <trkpt lat="43.18447" lon="6.60427">
        <ele>42.3</ele>
        <time>2020-10-25T14:22:34Z</time>
      </trkpt>
      <trkpt lat="43.18449" lon="6.60424">
        <ele>42.1</ele>
        <time>2020-10-25T14:22:37Z</time>
      </trkpt>
      <trkpt lat="43.18451" lon="6.60418">
        <ele>41.9</ele>
        <time>2020-10-25T14:22:41Z</time>
      </trkpt>
      <trkpt lat="43.18453" lon="6.60414">
        <ele>41.8</ele>
        <time>2020-10-25T14:22:45Z</time>
      </trkpt>
      <trkpt lat="43.18454" lon="6.60409">
        <ele>41.5</ele>
        <time>2020-10-25T14:22:49Z</time>
      </trkpt>
      <trkpt lat="43.18455" lon="6.60404">
        <ele>41.2</ele>
        <time>2020-10-25T14:22:53Z</time>
      </trkpt>
      <trkpt lat="43.18457" lon="6.60399">
        <ele>40.7</ele>
        <time>2020-10-25T14:22:57Z</time>
      </trkpt>
      <trkpt lat="43.18457" lon="6.60393">
        <ele>40</ele>
        <time>2020-10-25T14:23:02Z</time>
      </trkpt>
      <trkpt lat="43.18457" lon="6.60388">
        <ele>39.5</ele>
        <time>2020-10-25T14:23:06Z</time>
      </trkpt>
      <trkpt lat="43.18456" lon="6.60382">
        <ele>39.1</ele>
        <time>2020-10-25T14:23:10Z</time>
      </trkpt>
      <trkpt lat="43.18455" lon="6.60377">
        <ele>38.7</ele>
        <time>2020-10-25T14:23:14Z</time>
      </trkpt>
      <trkpt lat="43.18454" lon="6.60371">
        <ele>38.4</ele>
        <time>2020-10-25T14:23:18Z</time>
      </trkpt>
      <trkpt lat="43.18452" lon="6.60366">
        <ele>38</ele>
        <time>2020-10-25T14:23:22Z</time>
      </trkpt>
      <trkpt lat="43.1845" lon="6.60362">
        <ele>37.5</ele>
        <time>2020-10-25T14:23:26Z</time>
      </trkpt>
      <trkpt lat="43.18449" lon="6.60361">
        <ele>37.4</ele>
        <time>2020-10-25T14:23:27Z</time>
      </trkpt>
      <trkpt lat="43.18444" lon="6.60353">
        <ele>36.7</ele>
        <time>2020-10-25T14:23:34Z</time>
      </trkpt>
      <trkpt lat="43.18442" lon="6.60349">
        <ele>36.4</ele>
        <time>2020-10-25T14:23:38Z</time>
      </trkpt>
      <trkpt lat="43.18439" lon="6.60344">
        <ele>36</ele>
        <time>2020-10-25T14:23:43Z</time>
      </trkpt>
      <trkpt lat="43.18435" lon="6.60341">
        <ele>35.3</ele>
        <time>2020-10-25T14:23:47Z</time>
      </trkpt>
      <trkpt lat="43.18433" lon="6.60337">
        <ele>34.8</ele>
        <time>2020-10-25T14:23:51Z</time>
      </trkpt>
      <trkpt lat="43.1843" lon="6.60333">
        <ele>34.4</ele>
        <time>2020-10-25T14:23:55Z</time>
      </trkpt>
      <trkpt lat="43.18427" lon="6.6033">
        <ele>34.2</ele>
        <time>2020-10-25T14:23:58Z</time>
      </trkpt>
      <trkpt lat="43.18425" lon="6.60326">
        <ele>33.8</ele>
        <time>2020-10-25T14:24:02Z</time>
      </trkpt>
      <trkpt lat="43.18423" lon="6.60321">
        <ele>33.4</ele>
        <time>2020-10-25T14:24:06Z</time>
      </trkpt>
      <trkpt lat="43.18421" lon="6.60317">
        <ele>33</ele>
        <time>2020-10-25T14:24:10Z</time>
      </trkpt>
      <trkpt lat="43.18419" lon="6.60312">
        <ele>32.6</ele>
        <time>2020-10-25T14:24:14Z</time>
      </trkpt>
      <trkpt lat="43.18417" lon="6.60308">
        <ele>32.2</ele>
        <time>2020-10-25T14:24:18Z</time>
      </trkpt>
      <trkpt lat="43.18415" lon="6.60302">
        <ele>31.6</ele>
        <time>2020-10-25T14:24:23Z</time>
      </trkpt>
      <trkpt lat="43.18413" lon="6.60297">
        <ele>31.2</ele>
        <time>2020-10-25T14:24:27Z</time>
      </trkpt>
      <trkpt lat="43.18413" lon="6.60296">
        <ele>31.1</ele>
        <time>2020-10-25T14:24:28Z</time>
      </trkpt>
      <trkpt lat="43.1841" lon="6.60287">
        <ele>30.5</ele>
        <time>2020-10-25T14:24:35Z</time>
      </trkpt>
      <trkpt lat="43.1841" lon="6.60282">
        <ele>29.8</ele>
        <time>2020-10-25T14:24:39Z</time>
      </trkpt>
      <trkpt lat="43.1841" lon="6.60276">
        <ele>29.4</ele>
        <time>2020-10-25T14:24:44Z</time>
      </trkpt>
      <trkpt lat="43.1841" lon="6.6027">
        <ele>29.1</ele>
        <time>2020-10-25T14:24:49Z</time>
      </trkpt>
      <trkpt lat="43.1841" lon="6.60265">
        <ele>28.7</ele>
        <time>2020-10-25T14:24:53Z</time>
      </trkpt>
      <trkpt lat="43.18408" lon="6.6026">
        <ele>28.3</ele>
        <time>2020-10-25T14:24:57Z</time>
      </trkpt>
      <trkpt lat="43.18406" lon="6.60255">
        <ele>27.9</ele>
        <time>2020-10-25T14:25:02Z</time>
      </trkpt>
      <trkpt lat="43.18403" lon="6.6025">
        <ele>27.5</ele>
        <time>2020-10-25T14:25:07Z</time>
      </trkpt>
      <trkpt lat="43.18401" lon="6.60245">
        <ele>27.2</ele>
        <time>2020-10-25T14:25:11Z</time>
      </trkpt>
      <trkpt lat="43.18399" lon="6.60241">
        <ele>26.8</ele>
        <time>2020-10-25T14:25:14Z</time>
      </trkpt>
      <trkpt lat="43.18397" lon="6.60237">
        <ele>26.5</ele>
        <time>2020-10-25T14:25:17Z</time>
      </trkpt>
      <trkpt lat="43.18396" lon="6.60231">
        <ele>26.1</ele>
        <time>2020-10-25T14:25:21Z</time>
      </trkpt>
      <trkpt lat="43.18395" lon="6.60226">
        <ele>25.9</ele>
        <time>2020-10-25T14:25:25Z</time>
      </trkpt>
      <trkpt lat="43.18393" lon="6.60221">
        <ele>25.6</ele>
        <time>2020-10-25T14:25:29Z</time>
      </trkpt>
      <trkpt lat="43.18392" lon="6.6022">
        <ele>25.5</ele>
        <time>2020-10-25T14:25:30Z</time>
      </trkpt>
      <trkpt lat="43.18388" lon="6.60214">
        <ele>25.4</ele>
        <time>2020-10-25T14:25:35Z</time>
      </trkpt>
      <trkpt lat="43.18386" lon="6.6021">
        <ele>25.2</ele>
        <time>2020-10-25T14:25:38Z</time>
      </trkpt>
      <trkpt lat="43.18383" lon="6.60205">
        <ele>24.8</ele>
        <time>2020-10-25T14:25:42Z</time>
      </trkpt>
      <trkpt lat="43.18381" lon="6.602">
        <ele>24.7</ele>
        <time>2020-10-25T14:25:47Z</time>
      </trkpt>
      <trkpt lat="43.18377" lon="6.60198">
        <ele>24.6</ele>
        <time>2020-10-25T14:25:50Z</time>
      </trkpt>
      <trkpt lat="43.18375" lon="6.60194">
        <ele>24.5</ele>
        <time>2020-10-25T14:25:53Z</time>
      </trkpt>
      <trkpt lat="43.18373" lon="6.60191">
        <ele>24.4</ele>
        <time>2020-10-25T14:25:56Z</time>
      </trkpt>
      <trkpt lat="43.1837" lon="6.60186">
        <ele>23.9</ele>
        <time>2020-10-25T14:26:00Z</time>
      </trkpt>
      <trkpt lat="43.18367" lon="6.60183">
        <ele>23.5</ele>
        <time>2020-10-25T14:26:04Z</time>
      </trkpt>
      <trkpt lat="43.18365" lon="6.60179">
        <ele>23.3</ele>
        <time>2020-10-25T14:26:08Z</time>
      </trkpt>
      <trkpt lat="43.18362" lon="6.60175">
        <ele>23.3</ele>
        <time>2020-10-25T14:26:13Z</time>
      </trkpt>
      <trkpt lat="43.18359" lon="6.60171">
        <ele>23.2</ele>
        <time>2020-10-25T14:26:17Z</time>
      </trkpt>
      <trkpt lat="43.18356" lon="6.60167">
        <ele>23.3</ele>
        <time>2020-10-25T14:26:21Z</time>
      </trkpt>
      <trkpt lat="43.18355" lon="6.60162">
        <ele>23.2</ele>
        <time>2020-10-25T14:26:26Z</time>
      </trkpt>
      <trkpt lat="43.18353" lon="6.60156">
        <ele>23.2</ele>
        <time>2020-10-25T14:26:31Z</time>
      </trkpt>
      <trkpt lat="43.18353" lon="6.60155">
        <ele>23.2</ele>
        <time>2020-10-25T14:26:32Z</time>
      </trkpt>
      <trkpt lat="43.18354" lon="6.60145">
        <ele>22.8</ele>
        <time>2020-10-25T14:26:42Z</time>
      </trkpt>
      <trkpt lat="43.18354" lon="6.6014">
        <ele>22.7</ele>
        <time>2020-10-25T14:26:49Z</time>
      </trkpt>
      <trkpt lat="43.18355" lon="6.60134">
        <ele>22.7</ele>
        <time>2020-10-25T14:26:55Z</time>
      </trkpt>
      <trkpt lat="43.18354" lon="6.60128">
        <ele>22.5</ele>
        <time>2020-10-25T14:27:03Z</time>
      </trkpt>
      <trkpt lat="43.18357" lon="6.60123">
        <ele>22.6</ele>
        <time>2020-10-25T14:27:09Z</time>
      </trkpt>
      <trkpt lat="43.18358" lon="6.60119">
        <ele>22.7</ele>
        <time>2020-10-25T14:27:14Z</time>
      </trkpt>
      <trkpt lat="43.1836" lon="6.60113">
        <ele>22.7</ele>
        <time>2020-10-25T14:27:19Z</time>
      </trkpt>
      <trkpt lat="43.1836" lon="6.60109">
        <ele>22.8</ele>
        <time>2020-10-25T14:27:24Z</time>
      </trkpt>
      <trkpt lat="43.18363" lon="6.60105">
        <ele>22.9</ele>
        <time>2020-10-25T14:27:27Z</time>
      </trkpt>
      <trkpt lat="43.18364" lon="6.601">
        <ele>22.9</ele>
        <time>2020-10-25T14:27:30Z</time>
      </trkpt>
      <trkpt lat="43.18363" lon="6.60095">
        <ele>23.3</ele>
        <time>2020-10-25T14:27:38Z</time>
      </trkpt>
      <trkpt lat="43.18363" lon="6.60094">
        <ele>23.3</ele>
        <time>2020-10-25T14:27:39Z</time>
      </trkpt>
      <trkpt lat="43.18366" lon="6.60085">
        <ele>23</ele>
        <time>2020-10-25T14:27:45Z</time>
      </trkpt>
      <trkpt lat="43.18369" lon="6.60081">
        <ele>22.9</ele>
        <time>2020-10-25T14:27:48Z</time>
      </trkpt>
      <trkpt lat="43.18371" lon="6.60077">
        <ele>22.9</ele>
        <time>2020-10-25T14:27:51Z</time>
      </trkpt>
      <trkpt lat="43.18372" lon="6.60071">
        <ele>22.9</ele>
        <time>2020-10-25T14:28:02Z</time>
      </trkpt>
      <trkpt lat="43.18376" lon="6.60068">
        <ele>22.8</ele>
        <time>2020-10-25T14:28:06Z</time>
      </trkpt>
      <trkpt lat="43.18379" lon="6.60065">
        <ele>22.5</ele>
        <time>2020-10-25T14:28:11Z</time>
      </trkpt>
      <trkpt lat="43.18381" lon="6.6006">
        <ele>22.4</ele>
        <time>2020-10-25T14:28:19Z</time>
      </trkpt>
      <trkpt lat="43.18383" lon="6.60055">
        <ele>22.4</ele>
        <time>2020-10-25T14:28:56Z</time>
      </trkpt>
      <trkpt lat="43.18383" lon="6.60053">
        <ele>22.4</ele>
        <time>2020-10-25T14:28:57Z</time>
      </trkpt>
      <trkpt lat="43.18387" lon="6.60045">
        <ele>22.2</ele>
        <time>2020-10-25T14:29:05Z</time>
      </trkpt>
      <trkpt lat="43.18387" lon="6.6004">
        <ele>22.2</ele>
        <time>2020-10-25T14:29:10Z</time>
      </trkpt>
      <trkpt lat="43.18388" lon="6.60034">
        <ele>22.3</ele>
        <time>2020-10-25T14:29:15Z</time>
      </trkpt>
      <trkpt lat="43.18388" lon="6.60028">
        <ele>22.2</ele>
        <time>2020-10-25T14:29:20Z</time>
      </trkpt>
      <trkpt lat="43.1839" lon="6.60024">
        <ele>22.3</ele>
        <time>2020-10-25T14:29:24Z</time>
      </trkpt>
      <trkpt lat="43.18391" lon="6.60019">
        <ele>22.3</ele>
        <time>2020-10-25T14:29:27Z</time>
      </trkpt>
      <trkpt lat="43.18394" lon="6.60015">
        <ele>22.3</ele>
        <time>2020-10-25T14:29:32Z</time>
      </trkpt>
      <trkpt lat="43.18395" lon="6.60012">
        <ele>22.3</ele>
        <time>2020-10-25T14:29:35Z</time>
      </trkpt>
      <trkpt lat="43.18398" lon="6.60008">
        <ele>22.2</ele>
        <time>2020-10-25T14:29:37Z</time>
      </trkpt>
      <trkpt lat="43.18401" lon="6.60006">
        <ele>22.2</ele>
        <time>2020-10-25T14:29:39Z</time>
      </trkpt>
      <trkpt lat="43.18403" lon="6.60002">
        <ele>22.3</ele>
        <time>2020-10-25T14:29:42Z</time>
      </trkpt>
      <trkpt lat="43.18405" lon="6.59998">
        <ele>22</ele>
        <time>2020-10-25T14:29:46Z</time>
      </trkpt>
      <trkpt lat="43.18408" lon="6.59994">
        <ele>22</ele>
        <time>2020-10-25T14:29:50Z</time>
      </trkpt>
      <trkpt lat="43.1841" lon="6.59988">
        <ele>22</ele>
        <time>2020-10-25T14:29:53Z</time>
      </trkpt>
      <trkpt lat="43.18411" lon="6.59982">
        <ele>22.1</ele>
        <time>2020-10-25T14:29:59Z</time>
      </trkpt>
      <trkpt lat="43.18411" lon="6.59981">
        <ele>22.1</ele>
        <time>2020-10-25T14:30:00Z</time>
      </trkpt>
      <trkpt lat="43.18412" lon="6.59972">
        <ele>22.1</ele>
        <time>2020-10-25T14:30:06Z</time>
      </trkpt>
      <trkpt lat="43.18412" lon="6.59967">
        <ele>22</ele>
        <time>2020-10-25T14:30:10Z</time>
      </trkpt>
      <trkpt lat="43.18413" lon="6.59962">
        <ele>22</ele>
        <time>2020-10-25T14:30:13Z</time>
      </trkpt>
      <trkpt lat="43.18414" lon="6.59956">
        <ele>21.9</ele>
        <time>2020-10-25T14:30:17Z</time>
      </trkpt>
      <trkpt lat="43.18415" lon="6.5995">
        <ele>22.1</ele>
        <time>2020-10-25T14:30:21Z</time>
      </trkpt>
      <trkpt lat="43.18417" lon="6.59946">
        <ele>22.1</ele>
        <time>2020-10-25T14:30:24Z</time>
      </trkpt>
      <trkpt lat="43.18419" lon="6.59941">
        <ele>22.1</ele>
        <time>2020-10-25T14:30:27Z</time>
      </trkpt>
      <trkpt lat="43.18416" lon="6.59937">
        <ele>22</ele>
        <time>2020-10-25T14:30:32Z</time>
      </trkpt>
      <trkpt lat="43.18419" lon="6.59932">
        <ele>21.9</ele>
        <time>2020-10-25T14:30:40Z</time>
      </trkpt>
      <trkpt lat="43.18418" lon="6.59926">
        <ele>21.9</ele>
        <time>2020-10-25T14:30:45Z</time>
      </trkpt>
      <trkpt lat="43.18419" lon="6.59923">
        <ele>21.9</ele>
        <time>2020-10-25T14:30:47Z</time>
      </trkpt>
      <trkpt lat="43.18421" lon="6.59917">
        <ele>21.8</ele>
        <time>2020-10-25T14:30:50Z</time>
      </trkpt>
      <trkpt lat="43.18422" lon="6.59912">
        <ele>21.8</ele>
        <time>2020-10-25T14:30:53Z</time>
      </trkpt>
      <trkpt lat="43.18423" lon="6.59906">
        <ele>21.8</ele>
        <time>2020-10-25T14:30:56Z</time>
      </trkpt>
      <trkpt lat="43.18425" lon="6.59901">
        <ele>21.8</ele>
        <time>2020-10-25T14:30:58Z</time>
      </trkpt>
      <trkpt lat="43.18425" lon="6.59895">
        <ele>22</ele>
        <time>2020-10-25T14:31:01Z</time>
      </trkpt>
      <trkpt lat="43.18426" lon="6.59893">
        <ele>22</ele>
        <time>2020-10-25T14:31:02Z</time>
      </trkpt>
      <trkpt lat="43.18426" lon="6.59885">
        <ele>22.2</ele>
        <time>2020-10-25T14:31:07Z</time>
      </trkpt>
      <trkpt lat="43.18425" lon="6.5988">
        <ele>22.3</ele>
        <time>2020-10-25T14:31:10Z</time>
      </trkpt>
      <trkpt lat="43.18425" lon="6.59874">
        <ele>22.5</ele>
        <time>2020-10-25T14:31:16Z</time>
      </trkpt>
      <trkpt lat="43.18427" lon="6.5987">
        <ele>22.7</ele>
        <time>2020-10-25T14:31:20Z</time>
      </trkpt>
      <trkpt lat="43.18428" lon="6.59865">
        <ele>23</ele>
        <time>2020-10-25T14:31:24Z</time>
      </trkpt>
      <trkpt lat="43.18431" lon="6.5986">
        <ele>22.9</ele>
        <time>2020-10-25T14:31:29Z</time>
      </trkpt>
      <trkpt lat="43.18433" lon="6.59854">
        <ele>23.3</ele>
        <time>2020-10-25T14:31:36Z</time>
      </trkpt>
      <trkpt lat="43.18436" lon="6.59852">
        <ele>23.5</ele>
        <time>2020-10-25T14:31:41Z</time>
      </trkpt>
      <trkpt lat="43.18441" lon="6.59851">
        <ele>23.8</ele>
        <time>2020-10-25T14:31:46Z</time>
      </trkpt>
      <trkpt lat="43.18445" lon="6.59849">
        <ele>24.1</ele>
        <time>2020-10-25T14:31:52Z</time>
      </trkpt>
      <trkpt lat="43.18449" lon="6.59849">
        <ele>24.7</ele>
        <time>2020-10-25T14:31:59Z</time>
      </trkpt>
      <trkpt lat="43.18453" lon="6.5985">
        <ele>25.2</ele>
        <time>2020-10-25T14:32:05Z</time>
      </trkpt>
      <trkpt lat="43.18454" lon="6.5985">
        <ele>25.3</ele>
        <time>2020-10-25T14:32:06Z</time>
      </trkpt>
      <trkpt lat="43.18461" lon="6.59853">
        <ele>25.8</ele>
        <time>2020-10-25T14:32:13Z</time>
      </trkpt>
      <trkpt lat="43.18465" lon="6.59855">
        <ele>26.3</ele>
        <time>2020-10-25T14:32:23Z</time>
      </trkpt>
      <trkpt lat="43.18469" lon="6.59855">
        <ele>26.7</ele>
        <time>2020-10-25T14:32:28Z</time>
      </trkpt>
      <trkpt lat="43.18473" lon="6.59856">
        <ele>26.9</ele>
        <time>2020-10-25T14:32:32Z</time>
      </trkpt>
      <trkpt lat="43.18476" lon="6.59856">
        <ele>27</ele>
        <time>2020-10-25T14:32:36Z</time>
      </trkpt>
      <trkpt lat="43.1848" lon="6.59856">
        <ele>27.2</ele>
        <time>2020-10-25T14:32:39Z</time>
      </trkpt>
      <trkpt lat="43.18484" lon="6.59857">
        <ele>27.4</ele>
        <time>2020-10-25T14:32:43Z</time>
      </trkpt>
      <trkpt lat="43.18488" lon="6.59856">
        <ele>27.7</ele>
        <time>2020-10-25T14:32:47Z</time>
      </trkpt>
      <trkpt lat="43.18492" lon="6.59857">
        <ele>27.9</ele>
        <time>2020-10-25T14:32:50Z</time>
      </trkpt>
      <trkpt lat="43.18495" lon="6.59858">
        <ele>28.1</ele>
        <time>2020-10-25T14:32:53Z</time>
      </trkpt>
      <trkpt lat="43.18499" lon="6.59859">
        <ele>28.1</ele>
        <time>2020-10-25T14:32:56Z</time>
      </trkpt>
      <trkpt lat="43.18503" lon="6.59861">
        <ele>28.1</ele>
        <time>2020-10-25T14:33:02Z</time>
      </trkpt>
      <trkpt lat="43.18507" lon="6.59862">
        <ele>28</ele>
        <time>2020-10-25T14:33:06Z</time>
      </trkpt>
      <trkpt lat="43.18508" lon="6.59863">
        <ele>27.9</ele>
        <time>2020-10-25T14:33:07Z</time>
      </trkpt>
      <trkpt lat="43.18514" lon="6.59865">
        <ele>27.3</ele>
        <time>2020-10-25T14:33:12Z</time>
      </trkpt>
      <trkpt lat="43.18517" lon="6.59866">
        <ele>27.2</ele>
        <time>2020-10-25T14:33:15Z</time>
      </trkpt>
      <trkpt lat="43.18521" lon="6.59868">
        <ele>27.1</ele>
        <time>2020-10-25T14:33:19Z</time>
      </trkpt>
      <trkpt lat="43.18524" lon="6.5987">
        <ele>26.7</ele>
        <time>2020-10-25T14:33:23Z</time>
      </trkpt>
      <trkpt lat="43.18528" lon="6.59872">
        <ele>26</ele>
        <time>2020-10-25T14:33:28Z</time>
      </trkpt>
      <trkpt lat="43.18532" lon="6.59876">
        <ele>25.1</ele>
        <time>2020-10-25T14:33:37Z</time>
      </trkpt>
      <trkpt lat="43.1853" lon="6.59881">
        <ele>24.8</ele>
        <time>2020-10-25T14:33:41Z</time>
      </trkpt>
      <trkpt lat="43.18533" lon="6.59885">
        <ele>24.6</ele>
        <time>2020-10-25T14:33:48Z</time>
      </trkpt>
      <trkpt lat="43.18537" lon="6.59888">
        <ele>24.6</ele>
        <time>2020-10-25T14:33:53Z</time>
      </trkpt>
    </trkseg>
  </trk>
</gpx>